<?xml version="1.0" encoding="UTF-8" standalone="no" ?>
<gpx xmlns="http://www.topografix.com/GPX/1/1" xmlns:xsi="http://www.w3.org/2001/XMLSchema-instance" xsi:schemaLocation="http://www.topografix.com/GPX/1/1 http://www.topografix.com/GPX/1/1/gpx.xsd" version="1.1" creator="VisuGPX - https://www.visugpx.com">
  <metadata>
    <name>Somain 5 kms</name>
    <desc><![CDATA[Départ de Somain vers Aniche puis retour à somain.
Accessible aux poussettes]]></desc>
  </metadata>
  <trk>
    <name><![CDATA[20231029_090223.gpx]]></name>
    <extensions>
      <line xmlns="http://www.topografix.com/GPX/gpx_style/0/2">
        <color>0000FF</color>
        <width>4</width>
      </line>
    </extensions>
    <trkseg>
      <trkpt lat="50.35009" lon="3.27379">
        <ele>80.950806</ele>
        <time>2023-10-29T08:02:24Z</time>
      </trkpt>
      <trkpt lat="50.35006" lon="3.27384">
        <ele>80.6145</ele>
        <time>2023-10-29T08:02:27Z</time>
      </trkpt>
      <trkpt lat="50.35006" lon="3.27386">
        <ele>80.226685</ele>
        <time>2023-10-29T08:02:28Z</time>
      </trkpt>
      <trkpt lat="50.35002" lon="3.2739">
        <ele>80.425415</ele>
        <time>2023-10-29T08:02:30Z</time>
      </trkpt>
      <trkpt lat="50.35" lon="3.27393">
        <ele>80.029175</ele>
        <time>2023-10-29T08:02:32Z</time>
      </trkpt>
      <trkpt lat="50.35002" lon="3.27399">
        <ele>81.514404</ele>
        <time>2023-10-29T08:02:35Z</time>
      </trkpt>
      <trkpt lat="50.35002" lon="3.27401">
        <ele>81.9292</ele>
        <time>2023-10-29T08:02:36Z</time>
      </trkpt>
      <trkpt lat="50.35001" lon="3.27404">
        <ele>81.957275</ele>
        <time>2023-10-29T08:02:37Z</time>
      </trkpt>
      <trkpt lat="50.35001" lon="3.27407">
        <ele>82.85791</ele>
        <time>2023-10-29T08:02:38Z</time>
      </trkpt>
      <trkpt lat="50.35001" lon="3.27409">
        <ele>82.24652</ele>
        <time>2023-10-29T08:02:39Z</time>
      </trkpt>
      <trkpt lat="50.35" lon="3.27411">
        <ele>81.24097</ele>
        <time>2023-10-29T08:02:40Z</time>
      </trkpt>
      <trkpt lat="50.34999" lon="3.27413">
        <ele>79.92566</ele>
        <time>2023-10-29T08:02:41Z</time>
      </trkpt>
      <trkpt lat="50.34998" lon="3.27415">
        <ele>79.383545</ele>
        <time>2023-10-29T08:02:42Z</time>
      </trkpt>
      <trkpt lat="50.34996" lon="3.27417">
        <ele>77.711975</ele>
        <time>2023-10-29T08:02:43Z</time>
      </trkpt>
      <trkpt lat="50.34996" lon="3.27419">
        <ele>77.55792</ele>
        <time>2023-10-29T08:02:44Z</time>
      </trkpt>
      <trkpt lat="50.34995" lon="3.27421">
        <ele>77.352844</ele>
        <time>2023-10-29T08:02:45Z</time>
      </trkpt>
      <trkpt lat="50.34995" lon="3.27423">
        <ele>77.38519</ele>
        <time>2023-10-29T08:02:46Z</time>
      </trkpt>
      <trkpt lat="50.34995" lon="3.27426">
        <ele>76.4577</ele>
        <time>2023-10-29T08:02:47Z</time>
      </trkpt>
      <trkpt lat="50.34994" lon="3.27429">
        <ele>75.58954</ele>
        <time>2023-10-29T08:02:48Z</time>
      </trkpt>
      <trkpt lat="50.34993" lon="3.27431">
        <ele>76.58313</ele>
        <time>2023-10-29T08:02:49Z</time>
      </trkpt>
      <trkpt lat="50.34991" lon="3.27433">
        <ele>76.64337</ele>
        <time>2023-10-29T08:02:50Z</time>
      </trkpt>
      <trkpt lat="50.3499" lon="3.27434">
        <ele>74.80945</ele>
        <time>2023-10-29T08:02:51Z</time>
      </trkpt>
      <trkpt lat="50.34989" lon="3.27435">
        <ele>75.18628</ele>
        <time>2023-10-29T08:02:52Z</time>
      </trkpt>
      <trkpt lat="50.34988" lon="3.27435">
        <ele>75.90698</ele>
        <time>2023-10-29T08:02:53Z</time>
      </trkpt>
      <trkpt lat="50.34987" lon="3.27435">
        <ele>76.02759</ele>
        <time>2023-10-29T08:02:54Z</time>
      </trkpt>
      <trkpt lat="50.34986" lon="3.27435">
        <ele>76.13269</ele>
        <time>2023-10-29T08:02:55Z</time>
      </trkpt>
      <trkpt lat="50.34985" lon="3.27435">
        <ele>75.68768</ele>
        <time>2023-10-29T08:02:56Z</time>
      </trkpt>
      <trkpt lat="50.34984" lon="3.27434">
        <ele>75.86725</ele>
        <time>2023-10-29T08:02:57Z</time>
      </trkpt>
      <trkpt lat="50.34983" lon="3.27433">
        <ele>76.56195</ele>
        <time>2023-10-29T08:02:58Z</time>
      </trkpt>
      <trkpt lat="50.34982" lon="3.27432">
        <ele>76.971375</ele>
        <time>2023-10-29T08:02:59Z</time>
      </trkpt>
      <trkpt lat="50.3498" lon="3.27432">
        <ele>75.87323</ele>
        <time>2023-10-29T08:03:00Z</time>
      </trkpt>
      <trkpt lat="50.34979" lon="3.27431">
        <ele>75.875916</ele>
        <time>2023-10-29T08:03:01Z</time>
      </trkpt>
      <trkpt lat="50.34979" lon="3.2743">
        <ele>75.585144</ele>
        <time>2023-10-29T08:03:02Z</time>
      </trkpt>
      <trkpt lat="50.34978" lon="3.27429">
        <ele>76.09827</ele>
        <time>2023-10-29T08:03:03Z</time>
      </trkpt>
      <trkpt lat="50.34977" lon="3.27428">
        <ele>75.97778</ele>
        <time>2023-10-29T08:03:04Z</time>
      </trkpt>
      <trkpt lat="50.34976" lon="3.27428">
        <ele>75.88483</ele>
        <time>2023-10-29T08:03:05Z</time>
      </trkpt>
      <trkpt lat="50.34975" lon="3.27427">
        <ele>76.11273</ele>
        <time>2023-10-29T08:03:06Z</time>
      </trkpt>
      <trkpt lat="50.34975" lon="3.27426">
        <ele>76.25598</ele>
        <time>2023-10-29T08:03:07Z</time>
      </trkpt>
      <trkpt lat="50.34974" lon="3.27425">
        <ele>76.35919</ele>
        <time>2023-10-29T08:03:08Z</time>
      </trkpt>
      <trkpt lat="50.34973" lon="3.27424">
        <ele>77.316284</ele>
        <time>2023-10-29T08:03:09Z</time>
      </trkpt>
      <trkpt lat="50.34971" lon="3.27423">
        <ele>77.86505</ele>
        <time>2023-10-29T08:03:10Z</time>
      </trkpt>
      <trkpt lat="50.3497" lon="3.27423">
        <ele>77.41339</ele>
        <time>2023-10-29T08:03:11Z</time>
      </trkpt>
      <trkpt lat="50.34969" lon="3.27422">
        <ele>77.041504</ele>
        <time>2023-10-29T08:03:12Z</time>
      </trkpt>
      <trkpt lat="50.34968" lon="3.27421">
        <ele>77.77527</ele>
        <time>2023-10-29T08:03:13Z</time>
      </trkpt>
      <trkpt lat="50.34967" lon="3.2742">
        <ele>77.410706</ele>
        <time>2023-10-29T08:03:14Z</time>
      </trkpt>
      <trkpt lat="50.34966" lon="3.2742">
        <ele>77.71582</ele>
        <time>2023-10-29T08:03:15Z</time>
      </trkpt>
      <trkpt lat="50.34964" lon="3.27419">
        <ele>77.71112</ele>
        <time>2023-10-29T08:03:16Z</time>
      </trkpt>
      <trkpt lat="50.34963" lon="3.27418">
        <ele>77.93915</ele>
        <time>2023-10-29T08:03:17Z</time>
      </trkpt>
      <trkpt lat="50.34963" lon="3.27417">
        <ele>77.95752</ele>
        <time>2023-10-29T08:03:18Z</time>
      </trkpt>
      <trkpt lat="50.34961" lon="3.27416">
        <ele>78.025024</ele>
        <time>2023-10-29T08:03:19Z</time>
      </trkpt>
      <trkpt lat="50.34961" lon="3.27415">
        <ele>77.98706</ele>
        <time>2023-10-29T08:03:20Z</time>
      </trkpt>
      <trkpt lat="50.34959" lon="3.27414">
        <ele>78.315</ele>
        <time>2023-10-29T08:03:21Z</time>
      </trkpt>
      <trkpt lat="50.34958" lon="3.27413">
        <ele>78.38391</ele>
        <time>2023-10-29T08:03:22Z</time>
      </trkpt>
      <trkpt lat="50.34957" lon="3.27413">
        <ele>78.924866</ele>
        <time>2023-10-29T08:03:23Z</time>
      </trkpt>
      <trkpt lat="50.34956" lon="3.27413">
        <ele>78.757935</ele>
        <time>2023-10-29T08:03:24Z</time>
      </trkpt>
      <trkpt lat="50.34955" lon="3.27412">
        <ele>79.0141</ele>
        <time>2023-10-29T08:03:25Z</time>
      </trkpt>
      <trkpt lat="50.34955" lon="3.27411">
        <ele>78.927</ele>
        <time>2023-10-29T08:03:26Z</time>
      </trkpt>
      <trkpt lat="50.34953" lon="3.2741">
        <ele>79.10266</ele>
        <time>2023-10-29T08:03:27Z</time>
      </trkpt>
      <trkpt lat="50.34952" lon="3.27409">
        <ele>78.80426</ele>
        <time>2023-10-29T08:03:28Z</time>
      </trkpt>
      <trkpt lat="50.34951" lon="3.27408">
        <ele>78.860596</ele>
        <time>2023-10-29T08:03:29Z</time>
      </trkpt>
      <trkpt lat="50.3495" lon="3.27407">
        <ele>79.16028</ele>
        <time>2023-10-29T08:03:30Z</time>
      </trkpt>
      <trkpt lat="50.34949" lon="3.27407">
        <ele>79.60162</ele>
        <time>2023-10-29T08:03:31Z</time>
      </trkpt>
      <trkpt lat="50.34948" lon="3.27406">
        <ele>79.980225</ele>
        <time>2023-10-29T08:03:32Z</time>
      </trkpt>
      <trkpt lat="50.34947" lon="3.27406">
        <ele>79.99652</ele>
        <time>2023-10-29T08:03:33Z</time>
      </trkpt>
      <trkpt lat="50.34945" lon="3.27405">
        <ele>79.740234</ele>
        <time>2023-10-29T08:03:34Z</time>
      </trkpt>
      <trkpt lat="50.34945" lon="3.27404">
        <ele>80.24878</ele>
        <time>2023-10-29T08:03:35Z</time>
      </trkpt>
      <trkpt lat="50.34943" lon="3.27402">
        <ele>80.30005</ele>
        <time>2023-10-29T08:03:36Z</time>
      </trkpt>
      <trkpt lat="50.34942" lon="3.27402">
        <ele>80.31726</ele>
        <time>2023-10-29T08:03:37Z</time>
      </trkpt>
      <trkpt lat="50.34941" lon="3.27401">
        <ele>80.325745</ele>
        <time>2023-10-29T08:03:38Z</time>
      </trkpt>
      <trkpt lat="50.3494" lon="3.274">
        <ele>80.44568</ele>
        <time>2023-10-29T08:03:39Z</time>
      </trkpt>
      <trkpt lat="50.34939" lon="3.27398">
        <ele>80.4762</ele>
        <time>2023-10-29T08:03:40Z</time>
      </trkpt>
      <trkpt lat="50.34938" lon="3.27398">
        <ele>80.70825</ele>
        <time>2023-10-29T08:03:41Z</time>
      </trkpt>
      <trkpt lat="50.34937" lon="3.27397">
        <ele>80.982544</ele>
        <time>2023-10-29T08:03:42Z</time>
      </trkpt>
      <trkpt lat="50.34936" lon="3.27395">
        <ele>80.45697</ele>
        <time>2023-10-29T08:03:43Z</time>
      </trkpt>
      <trkpt lat="50.34936" lon="3.27394">
        <ele>80.20148</ele>
        <time>2023-10-29T08:03:44Z</time>
      </trkpt>
      <trkpt lat="50.34935" lon="3.27392">
        <ele>79.79541</ele>
        <time>2023-10-29T08:03:45Z</time>
      </trkpt>
      <trkpt lat="50.34935" lon="3.27391">
        <ele>79.629395</ele>
        <time>2023-10-29T08:03:46Z</time>
      </trkpt>
      <trkpt lat="50.34934" lon="3.2739">
        <ele>79.68646</ele>
        <time>2023-10-29T08:03:47Z</time>
      </trkpt>
      <trkpt lat="50.34933" lon="3.27388">
        <ele>80.0827</ele>
        <time>2023-10-29T08:03:48Z</time>
      </trkpt>
      <trkpt lat="50.34932" lon="3.27387">
        <ele>80.940186</ele>
        <time>2023-10-29T08:03:49Z</time>
      </trkpt>
      <trkpt lat="50.34931" lon="3.27385">
        <ele>80.841736</ele>
        <time>2023-10-29T08:03:50Z</time>
      </trkpt>
      <trkpt lat="50.3493" lon="3.27384">
        <ele>80.77765</ele>
        <time>2023-10-29T08:03:51Z</time>
      </trkpt>
      <trkpt lat="50.34929" lon="3.27382">
        <ele>81.41199</ele>
        <time>2023-10-29T08:03:52Z</time>
      </trkpt>
      <trkpt lat="50.34929" lon="3.27381">
        <ele>81.43964</ele>
        <time>2023-10-29T08:03:53Z</time>
      </trkpt>
      <trkpt lat="50.34928" lon="3.27379">
        <ele>81.26001</ele>
        <time>2023-10-29T08:03:54Z</time>
      </trkpt>
      <trkpt lat="50.34927" lon="3.27378">
        <ele>80.95752</ele>
        <time>2023-10-29T08:03:55Z</time>
      </trkpt>
      <trkpt lat="50.34926" lon="3.27377">
        <ele>81.2287</ele>
        <time>2023-10-29T08:03:56Z</time>
      </trkpt>
      <trkpt lat="50.34925" lon="3.27375">
        <ele>80.65851</ele>
        <time>2023-10-29T08:03:57Z</time>
      </trkpt>
      <trkpt lat="50.34925" lon="3.27373">
        <ele>81.18231</ele>
        <time>2023-10-29T08:03:58Z</time>
      </trkpt>
      <trkpt lat="50.34924" lon="3.27372">
        <ele>81.2417</ele>
        <time>2023-10-29T08:03:59Z</time>
      </trkpt>
      <trkpt lat="50.34922" lon="3.2737">
        <ele>80.648926</ele>
        <time>2023-10-29T08:04:00Z</time>
      </trkpt>
      <trkpt lat="50.34922" lon="3.27369">
        <ele>80.289246</ele>
        <time>2023-10-29T08:04:01Z</time>
      </trkpt>
      <trkpt lat="50.34921" lon="3.27367">
        <ele>80.37195</ele>
        <time>2023-10-29T08:04:02Z</time>
      </trkpt>
      <trkpt lat="50.3492" lon="3.27366">
        <ele>79.98309</ele>
        <time>2023-10-29T08:04:03Z</time>
      </trkpt>
      <trkpt lat="50.34919" lon="3.27364">
        <ele>80.293335</ele>
        <time>2023-10-29T08:04:04Z</time>
      </trkpt>
      <trkpt lat="50.34918" lon="3.27363">
        <ele>80.381165</ele>
        <time>2023-10-29T08:04:05Z</time>
      </trkpt>
      <trkpt lat="50.34917" lon="3.27361">
        <ele>80.391235</ele>
        <time>2023-10-29T08:04:06Z</time>
      </trkpt>
      <trkpt lat="50.34916" lon="3.2736">
        <ele>80.23865</ele>
        <time>2023-10-29T08:04:07Z</time>
      </trkpt>
      <trkpt lat="50.34916" lon="3.27358">
        <ele>80.006714</ele>
        <time>2023-10-29T08:04:08Z</time>
      </trkpt>
      <trkpt lat="50.34915" lon="3.27357">
        <ele>80.232544</ele>
        <time>2023-10-29T08:04:09Z</time>
      </trkpt>
      <trkpt lat="50.34914" lon="3.27356">
        <ele>80.17352</ele>
        <time>2023-10-29T08:04:10Z</time>
      </trkpt>
      <trkpt lat="50.34913" lon="3.27354">
        <ele>79.78302</ele>
        <time>2023-10-29T08:04:11Z</time>
      </trkpt>
      <trkpt lat="50.34913" lon="3.27353">
        <ele>79.73834</ele>
        <time>2023-10-29T08:04:12Z</time>
      </trkpt>
      <trkpt lat="50.34912" lon="3.27351">
        <ele>79.289856</ele>
        <time>2023-10-29T08:04:13Z</time>
      </trkpt>
      <trkpt lat="50.34911" lon="3.2735">
        <ele>79.33203</ele>
        <time>2023-10-29T08:04:14Z</time>
      </trkpt>
      <trkpt lat="50.34911" lon="3.27348">
        <ele>80.64307</ele>
        <time>2023-10-29T08:04:15Z</time>
      </trkpt>
      <trkpt lat="50.3491" lon="3.27347">
        <ele>81.61548</ele>
        <time>2023-10-29T08:04:16Z</time>
      </trkpt>
      <trkpt lat="50.34909" lon="3.27345">
        <ele>81.39636</ele>
        <time>2023-10-29T08:04:17Z</time>
      </trkpt>
      <trkpt lat="50.34908" lon="3.27344">
        <ele>81.09503</ele>
        <time>2023-10-29T08:04:18Z</time>
      </trkpt>
      <trkpt lat="50.34907" lon="3.27343">
        <ele>80.835754</ele>
        <time>2023-10-29T08:04:19Z</time>
      </trkpt>
      <trkpt lat="50.34906" lon="3.27342">
        <ele>80.64343</ele>
        <time>2023-10-29T08:04:20Z</time>
      </trkpt>
      <trkpt lat="50.34906" lon="3.2734">
        <ele>80.14575</ele>
        <time>2023-10-29T08:04:21Z</time>
      </trkpt>
      <trkpt lat="50.34905" lon="3.27339">
        <ele>80.65143</ele>
        <time>2023-10-29T08:04:22Z</time>
      </trkpt>
      <trkpt lat="50.34904" lon="3.27338">
        <ele>80.23157</ele>
        <time>2023-10-29T08:04:23Z</time>
      </trkpt>
      <trkpt lat="50.34903" lon="3.27336">
        <ele>79.79816</ele>
        <time>2023-10-29T08:04:24Z</time>
      </trkpt>
      <trkpt lat="50.34903" lon="3.27335">
        <ele>79.23041</ele>
        <time>2023-10-29T08:04:25Z</time>
      </trkpt>
      <trkpt lat="50.34902" lon="3.27334">
        <ele>79.578674</ele>
        <time>2023-10-29T08:04:26Z</time>
      </trkpt>
      <trkpt lat="50.34901" lon="3.27332">
        <ele>79.770386</ele>
        <time>2023-10-29T08:04:27Z</time>
      </trkpt>
      <trkpt lat="50.349" lon="3.27331">
        <ele>79.63263</ele>
        <time>2023-10-29T08:04:28Z</time>
      </trkpt>
      <trkpt lat="50.34899" lon="3.2733">
        <ele>79.748474</ele>
        <time>2023-10-29T08:04:29Z</time>
      </trkpt>
      <trkpt lat="50.34898" lon="3.27328">
        <ele>79.75537</ele>
        <time>2023-10-29T08:04:30Z</time>
      </trkpt>
      <trkpt lat="50.34897" lon="3.27327">
        <ele>79.5896</ele>
        <time>2023-10-29T08:04:31Z</time>
      </trkpt>
      <trkpt lat="50.34897" lon="3.27325">
        <ele>80.43469</ele>
        <time>2023-10-29T08:04:32Z</time>
      </trkpt>
      <trkpt lat="50.34895" lon="3.27324">
        <ele>80.94043</ele>
        <time>2023-10-29T08:04:33Z</time>
      </trkpt>
      <trkpt lat="50.34894" lon="3.27322">
        <ele>80.98529</ele>
        <time>2023-10-29T08:04:34Z</time>
      </trkpt>
      <trkpt lat="50.34893" lon="3.27321">
        <ele>81.16406</ele>
        <time>2023-10-29T08:04:35Z</time>
      </trkpt>
      <trkpt lat="50.34892" lon="3.2732">
        <ele>81.29474</ele>
        <time>2023-10-29T08:04:36Z</time>
      </trkpt>
      <trkpt lat="50.34891" lon="3.27318">
        <ele>81.31598</ele>
        <time>2023-10-29T08:04:37Z</time>
      </trkpt>
      <trkpt lat="50.3489" lon="3.27317">
        <ele>81.28699</ele>
        <time>2023-10-29T08:04:38Z</time>
      </trkpt>
      <trkpt lat="50.34889" lon="3.27316">
        <ele>80.9989</ele>
        <time>2023-10-29T08:04:39Z</time>
      </trkpt>
      <trkpt lat="50.34888" lon="3.27314">
        <ele>81.433105</ele>
        <time>2023-10-29T08:04:40Z</time>
      </trkpt>
      <trkpt lat="50.34887" lon="3.27312">
        <ele>81.001465</ele>
        <time>2023-10-29T08:04:41Z</time>
      </trkpt>
      <trkpt lat="50.34886" lon="3.27311">
        <ele>80.943726</ele>
        <time>2023-10-29T08:04:42Z</time>
      </trkpt>
      <trkpt lat="50.34885" lon="3.27309">
        <ele>81.56073</ele>
        <time>2023-10-29T08:04:43Z</time>
      </trkpt>
      <trkpt lat="50.34884" lon="3.27308">
        <ele>81.74762</ele>
        <time>2023-10-29T08:04:44Z</time>
      </trkpt>
      <trkpt lat="50.34884" lon="3.27307">
        <ele>81.95056</ele>
        <time>2023-10-29T08:04:45Z</time>
      </trkpt>
      <trkpt lat="50.34882" lon="3.27305">
        <ele>82.09674</ele>
        <time>2023-10-29T08:04:46Z</time>
      </trkpt>
      <trkpt lat="50.34882" lon="3.27304">
        <ele>81.72693</ele>
        <time>2023-10-29T08:04:47Z</time>
      </trkpt>
      <trkpt lat="50.34881" lon="3.27303">
        <ele>80.95593</ele>
        <time>2023-10-29T08:04:48Z</time>
      </trkpt>
      <trkpt lat="50.3488" lon="3.27301">
        <ele>80.74109</ele>
        <time>2023-10-29T08:04:49Z</time>
      </trkpt>
      <trkpt lat="50.34879" lon="3.27299">
        <ele>80.20215</ele>
        <time>2023-10-29T08:04:50Z</time>
      </trkpt>
      <trkpt lat="50.34878" lon="3.27298">
        <ele>80.48535</ele>
        <time>2023-10-29T08:04:51Z</time>
      </trkpt>
      <trkpt lat="50.34877" lon="3.27296">
        <ele>80.58569</ele>
        <time>2023-10-29T08:04:52Z</time>
      </trkpt>
      <trkpt lat="50.34877" lon="3.27294">
        <ele>80.5022</ele>
        <time>2023-10-29T08:04:53Z</time>
      </trkpt>
      <trkpt lat="50.34876" lon="3.27292">
        <ele>80.97211</ele>
        <time>2023-10-29T08:04:54Z</time>
      </trkpt>
      <trkpt lat="50.34876" lon="3.27291">
        <ele>80.55182</ele>
        <time>2023-10-29T08:04:55Z</time>
      </trkpt>
      <trkpt lat="50.34875" lon="3.27289">
        <ele>80.86206</ele>
        <time>2023-10-29T08:04:56Z</time>
      </trkpt>
      <trkpt lat="50.34874" lon="3.27288">
        <ele>80.95856</ele>
        <time>2023-10-29T08:04:57Z</time>
      </trkpt>
      <trkpt lat="50.34873" lon="3.27286">
        <ele>81.323</ele>
        <time>2023-10-29T08:04:58Z</time>
      </trkpt>
      <trkpt lat="50.34872" lon="3.27285">
        <ele>81.05408</ele>
        <time>2023-10-29T08:04:59Z</time>
      </trkpt>
      <trkpt lat="50.34871" lon="3.27283">
        <ele>81.926636</ele>
        <time>2023-10-29T08:05:00Z</time>
      </trkpt>
      <trkpt lat="50.3487" lon="3.27281">
        <ele>81.95233</ele>
        <time>2023-10-29T08:05:01Z</time>
      </trkpt>
      <trkpt lat="50.3487" lon="3.27279">
        <ele>81.80994</ele>
        <time>2023-10-29T08:05:02Z</time>
      </trkpt>
      <trkpt lat="50.34869" lon="3.27277">
        <ele>81.428955</ele>
        <time>2023-10-29T08:05:03Z</time>
      </trkpt>
      <trkpt lat="50.34869" lon="3.27276">
        <ele>81.65381</ele>
        <time>2023-10-29T08:05:04Z</time>
      </trkpt>
      <trkpt lat="50.34868" lon="3.27274">
        <ele>81.94348</ele>
        <time>2023-10-29T08:05:05Z</time>
      </trkpt>
      <trkpt lat="50.34868" lon="3.27273">
        <ele>81.4353</ele>
        <time>2023-10-29T08:05:06Z</time>
      </trkpt>
      <trkpt lat="50.34867" lon="3.27271">
        <ele>81.87775</ele>
        <time>2023-10-29T08:05:07Z</time>
      </trkpt>
      <trkpt lat="50.34866" lon="3.27269">
        <ele>81.5719</ele>
        <time>2023-10-29T08:05:08Z</time>
      </trkpt>
      <trkpt lat="50.34865" lon="3.27268">
        <ele>81.463196</ele>
        <time>2023-10-29T08:05:09Z</time>
      </trkpt>
      <trkpt lat="50.34864" lon="3.27266">
        <ele>81.10132</ele>
        <time>2023-10-29T08:05:10Z</time>
      </trkpt>
      <trkpt lat="50.34864" lon="3.27264">
        <ele>80.79773</ele>
        <time>2023-10-29T08:05:11Z</time>
      </trkpt>
      <trkpt lat="50.34863" lon="3.27263">
        <ele>80.81018</ele>
        <time>2023-10-29T08:05:12Z</time>
      </trkpt>
      <trkpt lat="50.34862" lon="3.27262">
        <ele>80.99017</ele>
        <time>2023-10-29T08:05:13Z</time>
      </trkpt>
      <trkpt lat="50.34861" lon="3.2726">
        <ele>80.56995</ele>
        <time>2023-10-29T08:05:14Z</time>
      </trkpt>
      <trkpt lat="50.3486" lon="3.27259">
        <ele>80.955505</ele>
        <time>2023-10-29T08:05:15Z</time>
      </trkpt>
      <trkpt lat="50.34859" lon="3.27257">
        <ele>81.95752</ele>
        <time>2023-10-29T08:05:16Z</time>
      </trkpt>
      <trkpt lat="50.34858" lon="3.27255">
        <ele>82.382996</ele>
        <time>2023-10-29T08:05:17Z</time>
      </trkpt>
      <trkpt lat="50.34858" lon="3.27253">
        <ele>81.80701</ele>
        <time>2023-10-29T08:05:18Z</time>
      </trkpt>
      <trkpt lat="50.34856" lon="3.27251">
        <ele>82.31531</ele>
        <time>2023-10-29T08:05:19Z</time>
      </trkpt>
      <trkpt lat="50.34856" lon="3.27249">
        <ele>82.44153</ele>
        <time>2023-10-29T08:05:20Z</time>
      </trkpt>
      <trkpt lat="50.34855" lon="3.27248">
        <ele>82.38843</ele>
        <time>2023-10-29T08:05:21Z</time>
      </trkpt>
      <trkpt lat="50.34854" lon="3.27246">
        <ele>82.25543</ele>
        <time>2023-10-29T08:05:22Z</time>
      </trkpt>
      <trkpt lat="50.34853" lon="3.27244">
        <ele>82.58765</ele>
        <time>2023-10-29T08:05:23Z</time>
      </trkpt>
      <trkpt lat="50.34852" lon="3.27243">
        <ele>81.78345</ele>
        <time>2023-10-29T08:05:24Z</time>
      </trkpt>
      <trkpt lat="50.34851" lon="3.27241">
        <ele>82.20941</ele>
        <time>2023-10-29T08:05:25Z</time>
      </trkpt>
      <trkpt lat="50.3485" lon="3.2724">
        <ele>82.358215</ele>
        <time>2023-10-29T08:05:26Z</time>
      </trkpt>
      <trkpt lat="50.34849" lon="3.27238">
        <ele>82.51904</ele>
        <time>2023-10-29T08:05:27Z</time>
      </trkpt>
      <trkpt lat="50.34848" lon="3.27237">
        <ele>82.675476</ele>
        <time>2023-10-29T08:05:28Z</time>
      </trkpt>
      <trkpt lat="50.34847" lon="3.27235">
        <ele>82.631714</ele>
        <time>2023-10-29T08:05:29Z</time>
      </trkpt>
      <trkpt lat="50.34847" lon="3.27234">
        <ele>82.37671</ele>
        <time>2023-10-29T08:05:30Z</time>
      </trkpt>
      <trkpt lat="50.34845" lon="3.27232">
        <ele>82.84491</ele>
        <time>2023-10-29T08:05:31Z</time>
      </trkpt>
      <trkpt lat="50.34845" lon="3.27231">
        <ele>82.941895</ele>
        <time>2023-10-29T08:05:32Z</time>
      </trkpt>
      <trkpt lat="50.34844" lon="3.27229">
        <ele>82.86676</ele>
        <time>2023-10-29T08:05:33Z</time>
      </trkpt>
      <trkpt lat="50.34843" lon="3.27228">
        <ele>83.607666</ele>
        <time>2023-10-29T08:05:34Z</time>
      </trkpt>
      <trkpt lat="50.34842" lon="3.27226">
        <ele>83.756226</ele>
        <time>2023-10-29T08:05:35Z</time>
      </trkpt>
      <trkpt lat="50.34842" lon="3.27225">
        <ele>83.826904</ele>
        <time>2023-10-29T08:05:36Z</time>
      </trkpt>
      <trkpt lat="50.3484" lon="3.27224">
        <ele>83.54559</ele>
        <time>2023-10-29T08:05:37Z</time>
      </trkpt>
      <trkpt lat="50.3484" lon="3.27222">
        <ele>83.77704</ele>
        <time>2023-10-29T08:05:38Z</time>
      </trkpt>
      <trkpt lat="50.34839" lon="3.2722">
        <ele>83.5849</ele>
        <time>2023-10-29T08:05:39Z</time>
      </trkpt>
      <trkpt lat="50.34838" lon="3.27219">
        <ele>83.70972</ele>
        <time>2023-10-29T08:05:40Z</time>
      </trkpt>
      <trkpt lat="50.34837" lon="3.27218">
        <ele>83.49213</ele>
        <time>2023-10-29T08:05:41Z</time>
      </trkpt>
      <trkpt lat="50.34836" lon="3.27217">
        <ele>84.083496</ele>
        <time>2023-10-29T08:05:42Z</time>
      </trkpt>
      <trkpt lat="50.34835" lon="3.27215">
        <ele>84.485596</ele>
        <time>2023-10-29T08:05:43Z</time>
      </trkpt>
      <trkpt lat="50.34834" lon="3.27214">
        <ele>84.359436</ele>
        <time>2023-10-29T08:05:44Z</time>
      </trkpt>
      <trkpt lat="50.34833" lon="3.27212">
        <ele>84.77295</ele>
        <time>2023-10-29T08:05:45Z</time>
      </trkpt>
      <trkpt lat="50.34833" lon="3.27211">
        <ele>85.1134</ele>
        <time>2023-10-29T08:05:46Z</time>
      </trkpt>
      <trkpt lat="50.34832" lon="3.27209">
        <ele>85.1745</ele>
        <time>2023-10-29T08:05:47Z</time>
      </trkpt>
      <trkpt lat="50.34831" lon="3.27208">
        <ele>85.2301</ele>
        <time>2023-10-29T08:05:48Z</time>
      </trkpt>
      <trkpt lat="50.3483" lon="3.27207">
        <ele>85.02222</ele>
        <time>2023-10-29T08:05:49Z</time>
      </trkpt>
      <trkpt lat="50.34829" lon="3.27206">
        <ele>84.85181</ele>
        <time>2023-10-29T08:05:50Z</time>
      </trkpt>
      <trkpt lat="50.34828" lon="3.27204">
        <ele>84.569885</ele>
        <time>2023-10-29T08:05:51Z</time>
      </trkpt>
      <trkpt lat="50.34827" lon="3.27203">
        <ele>84.428955</ele>
        <time>2023-10-29T08:05:52Z</time>
      </trkpt>
      <trkpt lat="50.34827" lon="3.27201">
        <ele>84.031494</ele>
        <time>2023-10-29T08:05:53Z</time>
      </trkpt>
      <trkpt lat="50.34826" lon="3.272">
        <ele>84.65845</ele>
        <time>2023-10-29T08:05:54Z</time>
      </trkpt>
      <trkpt lat="50.34825" lon="3.27198">
        <ele>84.65039</ele>
        <time>2023-10-29T08:05:55Z</time>
      </trkpt>
      <trkpt lat="50.34824" lon="3.27197">
        <ele>84.4314</ele>
        <time>2023-10-29T08:05:56Z</time>
      </trkpt>
      <trkpt lat="50.34823" lon="3.27195">
        <ele>83.84924</ele>
        <time>2023-10-29T08:05:57Z</time>
      </trkpt>
      <trkpt lat="50.34823" lon="3.27194">
        <ele>83.74951</ele>
        <time>2023-10-29T08:05:58Z</time>
      </trkpt>
      <trkpt lat="50.34822" lon="3.27193">
        <ele>84.32776</ele>
        <time>2023-10-29T08:05:59Z</time>
      </trkpt>
      <trkpt lat="50.34821" lon="3.27191">
        <ele>84.04089</ele>
        <time>2023-10-29T08:06:00Z</time>
      </trkpt>
      <trkpt lat="50.34821" lon="3.27189">
        <ele>83.71765</ele>
        <time>2023-10-29T08:06:01Z</time>
      </trkpt>
      <trkpt lat="50.3482" lon="3.27188">
        <ele>84.02112</ele>
        <time>2023-10-29T08:06:02Z</time>
      </trkpt>
      <trkpt lat="50.34819" lon="3.27186">
        <ele>84.461975</ele>
        <time>2023-10-29T08:06:03Z</time>
      </trkpt>
      <trkpt lat="50.34818" lon="3.27184">
        <ele>84.32904</ele>
        <time>2023-10-29T08:06:04Z</time>
      </trkpt>
      <trkpt lat="50.34818" lon="3.27184">
        <ele>83.927</ele>
        <time>2023-10-29T08:06:05Z</time>
      </trkpt>
      <trkpt lat="50.34817" lon="3.27182">
        <ele>84.36505</ele>
        <time>2023-10-29T08:06:06Z</time>
      </trkpt>
      <trkpt lat="50.34816" lon="3.2718">
        <ele>84.326416</ele>
        <time>2023-10-29T08:06:07Z</time>
      </trkpt>
      <trkpt lat="50.34816" lon="3.27179">
        <ele>83.95233</ele>
        <time>2023-10-29T08:06:08Z</time>
      </trkpt>
      <trkpt lat="50.34815" lon="3.27177">
        <ele>83.96533</ele>
        <time>2023-10-29T08:06:09Z</time>
      </trkpt>
      <trkpt lat="50.34814" lon="3.27176">
        <ele>83.96338</ele>
        <time>2023-10-29T08:06:10Z</time>
      </trkpt>
      <trkpt lat="50.34813" lon="3.27174">
        <ele>83.875305</ele>
        <time>2023-10-29T08:06:11Z</time>
      </trkpt>
      <trkpt lat="50.34812" lon="3.27173">
        <ele>83.64496</ele>
        <time>2023-10-29T08:06:12Z</time>
      </trkpt>
      <trkpt lat="50.34811" lon="3.27171">
        <ele>83.85913</ele>
        <time>2023-10-29T08:06:13Z</time>
      </trkpt>
      <trkpt lat="50.34811" lon="3.2717">
        <ele>83.42871</ele>
        <time>2023-10-29T08:06:14Z</time>
      </trkpt>
      <trkpt lat="50.3481" lon="3.27169">
        <ele>83.723206</ele>
        <time>2023-10-29T08:06:15Z</time>
      </trkpt>
      <trkpt lat="50.34809" lon="3.27167">
        <ele>83.704834</ele>
        <time>2023-10-29T08:06:16Z</time>
      </trkpt>
      <trkpt lat="50.34808" lon="3.27166">
        <ele>84.04065</ele>
        <time>2023-10-29T08:06:17Z</time>
      </trkpt>
      <trkpt lat="50.34808" lon="3.27164">
        <ele>84.59436</ele>
        <time>2023-10-29T08:06:18Z</time>
      </trkpt>
      <trkpt lat="50.34807" lon="3.27163">
        <ele>85.190735</ele>
        <time>2023-10-29T08:06:19Z</time>
      </trkpt>
      <trkpt lat="50.34806" lon="3.27161">
        <ele>85.31543</ele>
        <time>2023-10-29T08:06:20Z</time>
      </trkpt>
      <trkpt lat="50.34805" lon="3.2716">
        <ele>85.14575</ele>
        <time>2023-10-29T08:06:21Z</time>
      </trkpt>
      <trkpt lat="50.34804" lon="3.27159">
        <ele>84.77478</ele>
        <time>2023-10-29T08:06:22Z</time>
      </trkpt>
      <trkpt lat="50.34803" lon="3.27157">
        <ele>84.50769</ele>
        <time>2023-10-29T08:06:23Z</time>
      </trkpt>
      <trkpt lat="50.34802" lon="3.27156">
        <ele>84.30829</ele>
        <time>2023-10-29T08:06:24Z</time>
      </trkpt>
      <trkpt lat="50.34802" lon="3.27154">
        <ele>84.60394</ele>
        <time>2023-10-29T08:06:25Z</time>
      </trkpt>
      <trkpt lat="50.34801" lon="3.27153">
        <ele>84.36145</ele>
        <time>2023-10-29T08:06:26Z</time>
      </trkpt>
      <trkpt lat="50.348" lon="3.27152">
        <ele>84.130554</ele>
        <time>2023-10-29T08:06:27Z</time>
      </trkpt>
      <trkpt lat="50.348" lon="3.27151">
        <ele>83.902954</ele>
        <time>2023-10-29T08:06:28Z</time>
      </trkpt>
      <trkpt lat="50.34799" lon="3.27149">
        <ele>83.762634</ele>
        <time>2023-10-29T08:06:29Z</time>
      </trkpt>
      <trkpt lat="50.34798" lon="3.27148">
        <ele>84.46088</ele>
        <time>2023-10-29T08:06:30Z</time>
      </trkpt>
      <trkpt lat="50.34797" lon="3.27146">
        <ele>84.42236</ele>
        <time>2023-10-29T08:06:31Z</time>
      </trkpt>
      <trkpt lat="50.34796" lon="3.27144">
        <ele>83.838135</ele>
        <time>2023-10-29T08:06:32Z</time>
      </trkpt>
      <trkpt lat="50.34795" lon="3.27143">
        <ele>83.53284</ele>
        <time>2023-10-29T08:06:33Z</time>
      </trkpt>
      <trkpt lat="50.34795" lon="3.27142">
        <ele>83.78705</ele>
        <time>2023-10-29T08:06:34Z</time>
      </trkpt>
      <trkpt lat="50.34794" lon="3.27139">
        <ele>83.34009</ele>
        <time>2023-10-29T08:06:35Z</time>
      </trkpt>
      <trkpt lat="50.34794" lon="3.27138">
        <ele>83.215576</ele>
        <time>2023-10-29T08:06:36Z</time>
      </trkpt>
      <trkpt lat="50.34793" lon="3.27136">
        <ele>83.0105</ele>
        <time>2023-10-29T08:06:37Z</time>
      </trkpt>
      <trkpt lat="50.34792" lon="3.27135">
        <ele>82.90607</ele>
        <time>2023-10-29T08:06:38Z</time>
      </trkpt>
      <trkpt lat="50.34791" lon="3.27134">
        <ele>82.44061</ele>
        <time>2023-10-29T08:06:39Z</time>
      </trkpt>
      <trkpt lat="50.3479" lon="3.27133">
        <ele>82.661804</ele>
        <time>2023-10-29T08:06:40Z</time>
      </trkpt>
      <trkpt lat="50.34789" lon="3.27131">
        <ele>82.49579</ele>
        <time>2023-10-29T08:06:41Z</time>
      </trkpt>
      <trkpt lat="50.34788" lon="3.2713">
        <ele>82.13336</ele>
        <time>2023-10-29T08:06:42Z</time>
      </trkpt>
      <trkpt lat="50.34788" lon="3.27128">
        <ele>82.42999</ele>
        <time>2023-10-29T08:06:43Z</time>
      </trkpt>
      <trkpt lat="50.34787" lon="3.27126">
        <ele>82.20593</ele>
        <time>2023-10-29T08:06:44Z</time>
      </trkpt>
      <trkpt lat="50.34787" lon="3.27124">
        <ele>82.64105</ele>
        <time>2023-10-29T08:06:45Z</time>
      </trkpt>
      <trkpt lat="50.34786" lon="3.27122">
        <ele>82.60132</ele>
        <time>2023-10-29T08:06:46Z</time>
      </trkpt>
      <trkpt lat="50.34784" lon="3.27121">
        <ele>82.61212</ele>
        <time>2023-10-29T08:06:47Z</time>
      </trkpt>
      <trkpt lat="50.34783" lon="3.2712">
        <ele>82.70514</ele>
        <time>2023-10-29T08:06:48Z</time>
      </trkpt>
      <trkpt lat="50.34782" lon="3.27119">
        <ele>81.15155</ele>
        <time>2023-10-29T08:06:49Z</time>
      </trkpt>
      <trkpt lat="50.34781" lon="3.27117">
        <ele>80.71979</ele>
        <time>2023-10-29T08:06:50Z</time>
      </trkpt>
      <trkpt lat="50.3478" lon="3.27115">
        <ele>80.72223</ele>
        <time>2023-10-29T08:06:51Z</time>
      </trkpt>
      <trkpt lat="50.34779" lon="3.27114">
        <ele>80.68933</ele>
        <time>2023-10-29T08:06:52Z</time>
      </trkpt>
      <trkpt lat="50.34778" lon="3.27113">
        <ele>80.980286</ele>
        <time>2023-10-29T08:06:53Z</time>
      </trkpt>
      <trkpt lat="50.34777" lon="3.27111">
        <ele>81.00818</ele>
        <time>2023-10-29T08:06:54Z</time>
      </trkpt>
      <trkpt lat="50.34776" lon="3.2711">
        <ele>80.86737</ele>
        <time>2023-10-29T08:06:55Z</time>
      </trkpt>
      <trkpt lat="50.34775" lon="3.27109">
        <ele>80.636536</ele>
        <time>2023-10-29T08:06:56Z</time>
      </trkpt>
      <trkpt lat="50.34774" lon="3.27108">
        <ele>80.254395</ele>
        <time>2023-10-29T08:06:57Z</time>
      </trkpt>
      <trkpt lat="50.34773" lon="3.27107">
        <ele>81.30365</ele>
        <time>2023-10-29T08:06:58Z</time>
      </trkpt>
      <trkpt lat="50.34772" lon="3.27106">
        <ele>81.21875</ele>
        <time>2023-10-29T08:06:59Z</time>
      </trkpt>
      <trkpt lat="50.34772" lon="3.27104">
        <ele>81.38983</ele>
        <time>2023-10-29T08:07:00Z</time>
      </trkpt>
      <trkpt lat="50.34771" lon="3.27103">
        <ele>82.017334</ele>
        <time>2023-10-29T08:07:01Z</time>
      </trkpt>
      <trkpt lat="50.3477" lon="3.27101">
        <ele>81.638794</ele>
        <time>2023-10-29T08:07:02Z</time>
      </trkpt>
      <trkpt lat="50.34769" lon="3.271">
        <ele>81.670105</ele>
        <time>2023-10-29T08:07:03Z</time>
      </trkpt>
      <trkpt lat="50.34769" lon="3.27099">
        <ele>81.95953</ele>
        <time>2023-10-29T08:07:04Z</time>
      </trkpt>
      <trkpt lat="50.34768" lon="3.27098">
        <ele>82.31622</ele>
        <time>2023-10-29T08:07:05Z</time>
      </trkpt>
      <trkpt lat="50.34767" lon="3.27097">
        <ele>82.298035</ele>
        <time>2023-10-29T08:07:06Z</time>
      </trkpt>
      <trkpt lat="50.34766" lon="3.27096">
        <ele>81.95636</ele>
        <time>2023-10-29T08:07:07Z</time>
      </trkpt>
      <trkpt lat="50.34765" lon="3.27094">
        <ele>81.53357</ele>
        <time>2023-10-29T08:07:08Z</time>
      </trkpt>
      <trkpt lat="50.34765" lon="3.27093">
        <ele>81.28644</ele>
        <time>2023-10-29T08:07:09Z</time>
      </trkpt>
      <trkpt lat="50.34764" lon="3.27092">
        <ele>81.84314</ele>
        <time>2023-10-29T08:07:10Z</time>
      </trkpt>
      <trkpt lat="50.34763" lon="3.27091">
        <ele>81.51276</ele>
        <time>2023-10-29T08:07:11Z</time>
      </trkpt>
      <trkpt lat="50.34762" lon="3.2709">
        <ele>81.72833</ele>
        <time>2023-10-29T08:07:12Z</time>
      </trkpt>
      <trkpt lat="50.34761" lon="3.27089">
        <ele>82.03082</ele>
        <time>2023-10-29T08:07:13Z</time>
      </trkpt>
      <trkpt lat="50.3476" lon="3.27088">
        <ele>82.21808</ele>
        <time>2023-10-29T08:07:14Z</time>
      </trkpt>
      <trkpt lat="50.34759" lon="3.27087">
        <ele>82.094666</ele>
        <time>2023-10-29T08:07:15Z</time>
      </trkpt>
      <trkpt lat="50.34758" lon="3.27085">
        <ele>82.51929</ele>
        <time>2023-10-29T08:07:16Z</time>
      </trkpt>
      <trkpt lat="50.34757" lon="3.27084">
        <ele>83.12378</ele>
        <time>2023-10-29T08:07:17Z</time>
      </trkpt>
      <trkpt lat="50.34756" lon="3.27082">
        <ele>82.44763</ele>
        <time>2023-10-29T08:07:18Z</time>
      </trkpt>
      <trkpt lat="50.34755" lon="3.27081">
        <ele>81.72333</ele>
        <time>2023-10-29T08:07:19Z</time>
      </trkpt>
      <trkpt lat="50.34754" lon="3.2708">
        <ele>80.83356</ele>
        <time>2023-10-29T08:07:20Z</time>
      </trkpt>
      <trkpt lat="50.34753" lon="3.27078">
        <ele>79.96765</ele>
        <time>2023-10-29T08:07:21Z</time>
      </trkpt>
      <trkpt lat="50.34753" lon="3.27077">
        <ele>78.663025</ele>
        <time>2023-10-29T08:07:22Z</time>
      </trkpt>
      <trkpt lat="50.34752" lon="3.27076">
        <ele>78.43152</ele>
        <time>2023-10-29T08:07:23Z</time>
      </trkpt>
      <trkpt lat="50.34751" lon="3.27074">
        <ele>78.178894</ele>
        <time>2023-10-29T08:07:24Z</time>
      </trkpt>
      <trkpt lat="50.3475" lon="3.27073">
        <ele>77.754395</ele>
        <time>2023-10-29T08:07:25Z</time>
      </trkpt>
      <trkpt lat="50.34749" lon="3.27072">
        <ele>76.971375</ele>
        <time>2023-10-29T08:07:26Z</time>
      </trkpt>
      <trkpt lat="50.34748" lon="3.2707">
        <ele>76.76111</ele>
        <time>2023-10-29T08:07:27Z</time>
      </trkpt>
      <trkpt lat="50.34747" lon="3.27069">
        <ele>76.27283</ele>
        <time>2023-10-29T08:07:28Z</time>
      </trkpt>
      <trkpt lat="50.34747" lon="3.27067">
        <ele>75.95514</ele>
        <time>2023-10-29T08:07:29Z</time>
      </trkpt>
      <trkpt lat="50.34746" lon="3.27065">
        <ele>75.6629</ele>
        <time>2023-10-29T08:07:30Z</time>
      </trkpt>
      <trkpt lat="50.34745" lon="3.27064">
        <ele>75.656494</ele>
        <time>2023-10-29T08:07:31Z</time>
      </trkpt>
      <trkpt lat="50.34745" lon="3.27062">
        <ele>75.402405</ele>
        <time>2023-10-29T08:07:32Z</time>
      </trkpt>
      <trkpt lat="50.34744" lon="3.27061">
        <ele>75.44476</ele>
        <time>2023-10-29T08:07:33Z</time>
      </trkpt>
      <trkpt lat="50.34744" lon="3.27063">
        <ele>77.20294</ele>
        <time>2023-10-29T08:07:34Z</time>
      </trkpt>
      <trkpt lat="50.34743" lon="3.27061">
        <ele>77.19653</ele>
        <time>2023-10-29T08:07:35Z</time>
      </trkpt>
      <trkpt lat="50.34741" lon="3.27056">
        <ele>76.951904</ele>
        <time>2023-10-29T08:07:36Z</time>
      </trkpt>
      <trkpt lat="50.34771" lon="3.27003">
        <ele>68.69202</ele>
        <time>2023-10-29T08:07:37Z</time>
      </trkpt>
      <trkpt lat="50.34765" lon="3.26995">
        <ele>66.32977</ele>
        <time>2023-10-29T08:07:39Z</time>
      </trkpt>
      <trkpt lat="50.34761" lon="3.26994">
        <ele>66.40393</ele>
        <time>2023-10-29T08:07:41Z</time>
      </trkpt>
      <trkpt lat="50.3476" lon="3.26994">
        <ele>70.204956</ele>
        <time>2023-10-29T08:07:42Z</time>
      </trkpt>
      <trkpt lat="50.34752" lon="3.27019">
        <ele>77.78815</ele>
        <time>2023-10-29T08:07:43Z</time>
      </trkpt>
      <trkpt lat="50.34738" lon="3.27042">
        <ele>91.26373</ele>
        <time>2023-10-29T08:07:44Z</time>
      </trkpt>
      <trkpt lat="50.34735" lon="3.27043">
        <ele>83.02246</ele>
        <time>2023-10-29T08:07:45Z</time>
      </trkpt>
      <trkpt lat="50.34731" lon="3.27044">
        <ele>80.30249</ele>
        <time>2023-10-29T08:07:46Z</time>
      </trkpt>
      <trkpt lat="50.34728" lon="3.27044">
        <ele>79.81213</ele>
        <time>2023-10-29T08:07:47Z</time>
      </trkpt>
      <trkpt lat="50.34726" lon="3.27045">
        <ele>81.54468</ele>
        <time>2023-10-29T08:07:48Z</time>
      </trkpt>
      <trkpt lat="50.34724" lon="3.27045">
        <ele>82.69214</ele>
        <time>2023-10-29T08:07:49Z</time>
      </trkpt>
      <trkpt lat="50.34722" lon="3.27043">
        <ele>84.78424</ele>
        <time>2023-10-29T08:07:50Z</time>
      </trkpt>
      <trkpt lat="50.34721" lon="3.27041">
        <ele>83.496826</ele>
        <time>2023-10-29T08:07:51Z</time>
      </trkpt>
      <trkpt lat="50.34721" lon="3.27039">
        <ele>83.17401</ele>
        <time>2023-10-29T08:07:52Z</time>
      </trkpt>
      <trkpt lat="50.34721" lon="3.27037">
        <ele>84.312744</ele>
        <time>2023-10-29T08:07:53Z</time>
      </trkpt>
      <trkpt lat="50.3472" lon="3.27037">
        <ele>81.32489</ele>
        <time>2023-10-29T08:07:54Z</time>
      </trkpt>
      <trkpt lat="50.3472" lon="3.27036">
        <ele>81.670654</ele>
        <time>2023-10-29T08:07:55Z</time>
      </trkpt>
      <trkpt lat="50.3472" lon="3.27035">
        <ele>81.22211</ele>
        <time>2023-10-29T08:07:56Z</time>
      </trkpt>
      <trkpt lat="50.3472" lon="3.27033">
        <ele>81.017944</ele>
        <time>2023-10-29T08:07:57Z</time>
      </trkpt>
      <trkpt lat="50.34721" lon="3.27032">
        <ele>80.79913</ele>
        <time>2023-10-29T08:07:58Z</time>
      </trkpt>
      <trkpt lat="50.34721" lon="3.2703">
        <ele>80.49878</ele>
        <time>2023-10-29T08:07:59Z</time>
      </trkpt>
      <trkpt lat="50.34721" lon="3.27028">
        <ele>81.57562</ele>
        <time>2023-10-29T08:08:00Z</time>
      </trkpt>
      <trkpt lat="50.34721" lon="3.27026">
        <ele>81.19849</ele>
        <time>2023-10-29T08:08:01Z</time>
      </trkpt>
      <trkpt lat="50.34721" lon="3.27024">
        <ele>80.710815</ele>
        <time>2023-10-29T08:08:02Z</time>
      </trkpt>
      <trkpt lat="50.34721" lon="3.27022">
        <ele>81.07208</ele>
        <time>2023-10-29T08:08:03Z</time>
      </trkpt>
      <trkpt lat="50.34721" lon="3.27021">
        <ele>81.36774</ele>
        <time>2023-10-29T08:08:04Z</time>
      </trkpt>
      <trkpt lat="50.34721" lon="3.27019">
        <ele>81.04669</ele>
        <time>2023-10-29T08:08:05Z</time>
      </trkpt>
      <trkpt lat="50.34722" lon="3.27018">
        <ele>80.78906</ele>
        <time>2023-10-29T08:08:06Z</time>
      </trkpt>
      <trkpt lat="50.34723" lon="3.27017">
        <ele>80.330505</ele>
        <time>2023-10-29T08:08:07Z</time>
      </trkpt>
      <trkpt lat="50.34723" lon="3.27015">
        <ele>80.50647</ele>
        <time>2023-10-29T08:08:08Z</time>
      </trkpt>
      <trkpt lat="50.34723" lon="3.27014">
        <ele>80.95776</ele>
        <time>2023-10-29T08:08:09Z</time>
      </trkpt>
      <trkpt lat="50.34723" lon="3.27012">
        <ele>80.74188</ele>
        <time>2023-10-29T08:08:10Z</time>
      </trkpt>
      <trkpt lat="50.34724" lon="3.2701">
        <ele>80.48224</ele>
        <time>2023-10-29T08:08:11Z</time>
      </trkpt>
      <trkpt lat="50.34724" lon="3.27008">
        <ele>80.24866</ele>
        <time>2023-10-29T08:08:12Z</time>
      </trkpt>
      <trkpt lat="50.34724" lon="3.27006">
        <ele>81.2464</ele>
        <time>2023-10-29T08:08:13Z</time>
      </trkpt>
      <trkpt lat="50.34725" lon="3.27005">
        <ele>80.7312</ele>
        <time>2023-10-29T08:08:14Z</time>
      </trkpt>
      <trkpt lat="50.34725" lon="3.27003">
        <ele>80.520996</ele>
        <time>2023-10-29T08:08:15Z</time>
      </trkpt>
      <trkpt lat="50.34726" lon="3.27001">
        <ele>79.710144</ele>
        <time>2023-10-29T08:08:16Z</time>
      </trkpt>
      <trkpt lat="50.34726" lon="3.26999">
        <ele>79.72418</ele>
        <time>2023-10-29T08:08:17Z</time>
      </trkpt>
      <trkpt lat="50.34727" lon="3.26996">
        <ele>79.81995</ele>
        <time>2023-10-29T08:08:18Z</time>
      </trkpt>
      <trkpt lat="50.34727" lon="3.26994">
        <ele>80.24072</ele>
        <time>2023-10-29T08:08:19Z</time>
      </trkpt>
      <trkpt lat="50.34728" lon="3.26992">
        <ele>80.41443</ele>
        <time>2023-10-29T08:08:20Z</time>
      </trkpt>
      <trkpt lat="50.34728" lon="3.2699">
        <ele>80.70508</ele>
        <time>2023-10-29T08:08:21Z</time>
      </trkpt>
      <trkpt lat="50.34728" lon="3.26988">
        <ele>79.91632</ele>
        <time>2023-10-29T08:08:22Z</time>
      </trkpt>
      <trkpt lat="50.34729" lon="3.26987">
        <ele>79.18457</ele>
        <time>2023-10-29T08:08:23Z</time>
      </trkpt>
      <trkpt lat="50.3473" lon="3.26985">
        <ele>79.19238</ele>
        <time>2023-10-29T08:08:24Z</time>
      </trkpt>
      <trkpt lat="50.3473" lon="3.26983">
        <ele>80.17847</ele>
        <time>2023-10-29T08:08:25Z</time>
      </trkpt>
      <trkpt lat="50.34731" lon="3.26981">
        <ele>79.17993</ele>
        <time>2023-10-29T08:08:26Z</time>
      </trkpt>
      <trkpt lat="50.34732" lon="3.2698">
        <ele>78.518005</ele>
        <time>2023-10-29T08:08:27Z</time>
      </trkpt>
      <trkpt lat="50.34732" lon="3.26979">
        <ele>79.56171</ele>
        <time>2023-10-29T08:08:28Z</time>
      </trkpt>
      <trkpt lat="50.34732" lon="3.26977">
        <ele>79.33545</ele>
        <time>2023-10-29T08:08:29Z</time>
      </trkpt>
      <trkpt lat="50.34733" lon="3.26975">
        <ele>79.97534</ele>
        <time>2023-10-29T08:08:30Z</time>
      </trkpt>
      <trkpt lat="50.34733" lon="3.26973">
        <ele>79.72089</ele>
        <time>2023-10-29T08:08:31Z</time>
      </trkpt>
      <trkpt lat="50.34734" lon="3.26972">
        <ele>79.4552</ele>
        <time>2023-10-29T08:08:32Z</time>
      </trkpt>
      <trkpt lat="50.34735" lon="3.2697">
        <ele>79.19037</ele>
        <time>2023-10-29T08:08:33Z</time>
      </trkpt>
      <trkpt lat="50.34735" lon="3.26968">
        <ele>79.5603</ele>
        <time>2023-10-29T08:08:34Z</time>
      </trkpt>
      <trkpt lat="50.34736" lon="3.26966">
        <ele>79.50122</ele>
        <time>2023-10-29T08:08:35Z</time>
      </trkpt>
      <trkpt lat="50.34737" lon="3.26964">
        <ele>79.109375</ele>
        <time>2023-10-29T08:08:36Z</time>
      </trkpt>
      <trkpt lat="50.34737" lon="3.26962">
        <ele>78.59302</ele>
        <time>2023-10-29T08:08:37Z</time>
      </trkpt>
      <trkpt lat="50.34738" lon="3.2696">
        <ele>78.41638</ele>
        <time>2023-10-29T08:08:38Z</time>
      </trkpt>
      <trkpt lat="50.34738" lon="3.26958">
        <ele>78.23096</ele>
        <time>2023-10-29T08:08:39Z</time>
      </trkpt>
      <trkpt lat="50.34739" lon="3.26957">
        <ele>79.21454</ele>
        <time>2023-10-29T08:08:40Z</time>
      </trkpt>
      <trkpt lat="50.34739" lon="3.26955">
        <ele>78.53436</ele>
        <time>2023-10-29T08:08:41Z</time>
      </trkpt>
      <trkpt lat="50.3474" lon="3.26953">
        <ele>77.816345</ele>
        <time>2023-10-29T08:08:42Z</time>
      </trkpt>
      <trkpt lat="50.3474" lon="3.26952">
        <ele>78.01605</ele>
        <time>2023-10-29T08:08:43Z</time>
      </trkpt>
      <trkpt lat="50.34741" lon="3.2695">
        <ele>78.326416</ele>
        <time>2023-10-29T08:08:44Z</time>
      </trkpt>
      <trkpt lat="50.34742" lon="3.26948">
        <ele>77.762695</ele>
        <time>2023-10-29T08:08:45Z</time>
      </trkpt>
      <trkpt lat="50.34743" lon="3.26946">
        <ele>78.05762</ele>
        <time>2023-10-29T08:08:46Z</time>
      </trkpt>
      <trkpt lat="50.34743" lon="3.26944">
        <ele>78.83258</ele>
        <time>2023-10-29T08:08:47Z</time>
      </trkpt>
      <trkpt lat="50.34744" lon="3.26942">
        <ele>79.5791</ele>
        <time>2023-10-29T08:08:48Z</time>
      </trkpt>
      <trkpt lat="50.34744" lon="3.2694">
        <ele>80.257935</ele>
        <time>2023-10-29T08:08:49Z</time>
      </trkpt>
      <trkpt lat="50.34745" lon="3.26938">
        <ele>80.95978</ele>
        <time>2023-10-29T08:08:50Z</time>
      </trkpt>
      <trkpt lat="50.34745" lon="3.26936">
        <ele>81.680115</ele>
        <time>2023-10-29T08:08:51Z</time>
      </trkpt>
      <trkpt lat="50.34746" lon="3.26934">
        <ele>81.3407</ele>
        <time>2023-10-29T08:08:52Z</time>
      </trkpt>
      <trkpt lat="50.34747" lon="3.26932">
        <ele>80.566895</ele>
        <time>2023-10-29T08:08:53Z</time>
      </trkpt>
      <trkpt lat="50.34748" lon="3.2693">
        <ele>80.51898</ele>
        <time>2023-10-29T08:08:54Z</time>
      </trkpt>
      <trkpt lat="50.34749" lon="3.26928">
        <ele>81.76135</ele>
        <time>2023-10-29T08:08:55Z</time>
      </trkpt>
      <trkpt lat="50.34749" lon="3.26926">
        <ele>81.67395</ele>
        <time>2023-10-29T08:08:56Z</time>
      </trkpt>
      <trkpt lat="50.3475" lon="3.26924">
        <ele>81.284546</ele>
        <time>2023-10-29T08:08:57Z</time>
      </trkpt>
      <trkpt lat="50.3475" lon="3.26922">
        <ele>80.84277</ele>
        <time>2023-10-29T08:08:58Z</time>
      </trkpt>
      <trkpt lat="50.34751" lon="3.26921">
        <ele>80.76721</ele>
        <time>2023-10-29T08:08:59Z</time>
      </trkpt>
      <trkpt lat="50.34752" lon="3.26919">
        <ele>81.29498</ele>
        <time>2023-10-29T08:09:00Z</time>
      </trkpt>
      <trkpt lat="50.34752" lon="3.26917">
        <ele>81.29553</ele>
        <time>2023-10-29T08:09:01Z</time>
      </trkpt>
      <trkpt lat="50.34753" lon="3.26915">
        <ele>81.345276</ele>
        <time>2023-10-29T08:09:02Z</time>
      </trkpt>
      <trkpt lat="50.34754" lon="3.26913">
        <ele>82.05084</ele>
        <time>2023-10-29T08:09:03Z</time>
      </trkpt>
      <trkpt lat="50.34755" lon="3.26912">
        <ele>82.462036</ele>
        <time>2023-10-29T08:09:04Z</time>
      </trkpt>
      <trkpt lat="50.34755" lon="3.2691">
        <ele>82.1593</ele>
        <time>2023-10-29T08:09:05Z</time>
      </trkpt>
      <trkpt lat="50.34755" lon="3.26908">
        <ele>82.22778</ele>
        <time>2023-10-29T08:09:06Z</time>
      </trkpt>
      <trkpt lat="50.34756" lon="3.26905">
        <ele>83.21057</ele>
        <time>2023-10-29T08:09:07Z</time>
      </trkpt>
      <trkpt lat="50.34757" lon="3.26904">
        <ele>81.39917</ele>
        <time>2023-10-29T08:09:08Z</time>
      </trkpt>
      <trkpt lat="50.34757" lon="3.26902">
        <ele>80.94507</ele>
        <time>2023-10-29T08:09:09Z</time>
      </trkpt>
      <trkpt lat="50.34758" lon="3.269">
        <ele>80.97235</ele>
        <time>2023-10-29T08:09:10Z</time>
      </trkpt>
      <trkpt lat="50.34759" lon="3.26899">
        <ele>81.433044</ele>
        <time>2023-10-29T08:09:11Z</time>
      </trkpt>
      <trkpt lat="50.34759" lon="3.26897">
        <ele>81.565186</ele>
        <time>2023-10-29T08:09:12Z</time>
      </trkpt>
      <trkpt lat="50.3476" lon="3.26896">
        <ele>81.51831</ele>
        <time>2023-10-29T08:09:13Z</time>
      </trkpt>
      <trkpt lat="50.3476" lon="3.26894">
        <ele>81.33038</ele>
        <time>2023-10-29T08:09:14Z</time>
      </trkpt>
      <trkpt lat="50.34761" lon="3.26892">
        <ele>80.91235</ele>
        <time>2023-10-29T08:09:15Z</time>
      </trkpt>
      <trkpt lat="50.34761" lon="3.2689">
        <ele>80.80701</ele>
        <time>2023-10-29T08:09:16Z</time>
      </trkpt>
      <trkpt lat="50.34762" lon="3.26888">
        <ele>81.769165</ele>
        <time>2023-10-29T08:09:17Z</time>
      </trkpt>
      <trkpt lat="50.34763" lon="3.26886">
        <ele>81.48541</ele>
        <time>2023-10-29T08:09:18Z</time>
      </trkpt>
      <trkpt lat="50.34763" lon="3.26885">
        <ele>81.90338</ele>
        <time>2023-10-29T08:09:19Z</time>
      </trkpt>
      <trkpt lat="50.34764" lon="3.26882">
        <ele>81.80609</ele>
        <time>2023-10-29T08:09:20Z</time>
      </trkpt>
      <trkpt lat="50.34765" lon="3.26881">
        <ele>81.96478</ele>
        <time>2023-10-29T08:09:21Z</time>
      </trkpt>
      <trkpt lat="50.34766" lon="3.26879">
        <ele>81.28381</ele>
        <time>2023-10-29T08:09:22Z</time>
      </trkpt>
      <trkpt lat="50.34766" lon="3.26877">
        <ele>81.551575</ele>
        <time>2023-10-29T08:09:23Z</time>
      </trkpt>
      <trkpt lat="50.34767" lon="3.26875">
        <ele>81.49048</ele>
        <time>2023-10-29T08:09:24Z</time>
      </trkpt>
      <trkpt lat="50.34768" lon="3.26874">
        <ele>82.335266</ele>
        <time>2023-10-29T08:09:25Z</time>
      </trkpt>
      <trkpt lat="50.34769" lon="3.26872">
        <ele>82.39081</ele>
        <time>2023-10-29T08:09:26Z</time>
      </trkpt>
      <trkpt lat="50.34769" lon="3.2687">
        <ele>82.5661</ele>
        <time>2023-10-29T08:09:27Z</time>
      </trkpt>
      <trkpt lat="50.3477" lon="3.26868">
        <ele>82.2619</ele>
        <time>2023-10-29T08:09:28Z</time>
      </trkpt>
      <trkpt lat="50.34771" lon="3.26866">
        <ele>81.89905</ele>
        <time>2023-10-29T08:09:29Z</time>
      </trkpt>
      <trkpt lat="50.34771" lon="3.26864">
        <ele>81.76654</ele>
        <time>2023-10-29T08:09:30Z</time>
      </trkpt>
      <trkpt lat="50.34772" lon="3.26862">
        <ele>80.87036</ele>
        <time>2023-10-29T08:09:31Z</time>
      </trkpt>
      <trkpt lat="50.34773" lon="3.2686">
        <ele>79.987305</ele>
        <time>2023-10-29T08:09:32Z</time>
      </trkpt>
      <trkpt lat="50.34774" lon="3.26858">
        <ele>79.7334</ele>
        <time>2023-10-29T08:09:33Z</time>
      </trkpt>
      <trkpt lat="50.34775" lon="3.26857">
        <ele>79.91962</ele>
        <time>2023-10-29T08:09:34Z</time>
      </trkpt>
      <trkpt lat="50.34776" lon="3.26855">
        <ele>80.12799</ele>
        <time>2023-10-29T08:09:35Z</time>
      </trkpt>
      <trkpt lat="50.34776" lon="3.26853">
        <ele>80.42157</ele>
        <time>2023-10-29T08:09:36Z</time>
      </trkpt>
      <trkpt lat="50.34777" lon="3.26851">
        <ele>80.84241</ele>
        <time>2023-10-29T08:09:37Z</time>
      </trkpt>
      <trkpt lat="50.34778" lon="3.2685">
        <ele>79.60834</ele>
        <time>2023-10-29T08:09:38Z</time>
      </trkpt>
      <trkpt lat="50.34778" lon="3.26848">
        <ele>79.394104</ele>
        <time>2023-10-29T08:09:39Z</time>
      </trkpt>
      <trkpt lat="50.34779" lon="3.26847">
        <ele>78.86755</ele>
        <time>2023-10-29T08:09:40Z</time>
      </trkpt>
      <trkpt lat="50.34779" lon="3.26845">
        <ele>78.881226</ele>
        <time>2023-10-29T08:09:41Z</time>
      </trkpt>
      <trkpt lat="50.3478" lon="3.26844">
        <ele>78.536804</ele>
        <time>2023-10-29T08:09:42Z</time>
      </trkpt>
      <trkpt lat="50.34781" lon="3.26842">
        <ele>78.434265</ele>
        <time>2023-10-29T08:09:43Z</time>
      </trkpt>
      <trkpt lat="50.34781" lon="3.2684">
        <ele>78.279236</ele>
        <time>2023-10-29T08:09:44Z</time>
      </trkpt>
      <trkpt lat="50.34782" lon="3.26839">
        <ele>78.15369</ele>
        <time>2023-10-29T08:09:45Z</time>
      </trkpt>
      <trkpt lat="50.34783" lon="3.26837">
        <ele>78.72998</ele>
        <time>2023-10-29T08:09:46Z</time>
      </trkpt>
      <trkpt lat="50.34784" lon="3.26835">
        <ele>78.51306</ele>
        <time>2023-10-29T08:09:47Z</time>
      </trkpt>
      <trkpt lat="50.34784" lon="3.26833">
        <ele>77.97034</ele>
        <time>2023-10-29T08:09:48Z</time>
      </trkpt>
      <trkpt lat="50.34785" lon="3.26832">
        <ele>78.42938</ele>
        <time>2023-10-29T08:09:49Z</time>
      </trkpt>
      <trkpt lat="50.34786" lon="3.2683">
        <ele>78.30469</ele>
        <time>2023-10-29T08:09:50Z</time>
      </trkpt>
      <trkpt lat="50.34786" lon="3.26828">
        <ele>77.82764</ele>
        <time>2023-10-29T08:09:51Z</time>
      </trkpt>
      <trkpt lat="50.34787" lon="3.26826">
        <ele>77.813354</ele>
        <time>2023-10-29T08:09:52Z</time>
      </trkpt>
      <trkpt lat="50.34787" lon="3.26825">
        <ele>77.82025</ele>
        <time>2023-10-29T08:09:53Z</time>
      </trkpt>
      <trkpt lat="50.34788" lon="3.26823">
        <ele>77.87988</ele>
        <time>2023-10-29T08:09:54Z</time>
      </trkpt>
      <trkpt lat="50.34789" lon="3.26822">
        <ele>78.32526</ele>
        <time>2023-10-29T08:09:55Z</time>
      </trkpt>
      <trkpt lat="50.3479" lon="3.2682">
        <ele>78.26306</ele>
        <time>2023-10-29T08:09:56Z</time>
      </trkpt>
      <trkpt lat="50.3479" lon="3.26818">
        <ele>78.05469</ele>
        <time>2023-10-29T08:09:57Z</time>
      </trkpt>
      <trkpt lat="50.34791" lon="3.26816">
        <ele>78.02966</ele>
        <time>2023-10-29T08:09:58Z</time>
      </trkpt>
      <trkpt lat="50.34792" lon="3.26814">
        <ele>78.361755</ele>
        <time>2023-10-29T08:09:59Z</time>
      </trkpt>
      <trkpt lat="50.34793" lon="3.26812">
        <ele>78.951965</ele>
        <time>2023-10-29T08:10:00Z</time>
      </trkpt>
      <trkpt lat="50.34794" lon="3.2681">
        <ele>78.87488</ele>
        <time>2023-10-29T08:10:01Z</time>
      </trkpt>
      <trkpt lat="50.34794" lon="3.26809">
        <ele>78.81653</ele>
        <time>2023-10-29T08:10:02Z</time>
      </trkpt>
      <trkpt lat="50.34795" lon="3.26807">
        <ele>78.84314</ele>
        <time>2023-10-29T08:10:03Z</time>
      </trkpt>
      <trkpt lat="50.34795" lon="3.26805">
        <ele>79.15344</ele>
        <time>2023-10-29T08:10:04Z</time>
      </trkpt>
      <trkpt lat="50.34797" lon="3.26804">
        <ele>79.499146</ele>
        <time>2023-10-29T08:10:05Z</time>
      </trkpt>
      <trkpt lat="50.34797" lon="3.26802">
        <ele>79.29425</ele>
        <time>2023-10-29T08:10:06Z</time>
      </trkpt>
      <trkpt lat="50.34798" lon="3.26801">
        <ele>79.27954</ele>
        <time>2023-10-29T08:10:07Z</time>
      </trkpt>
      <trkpt lat="50.34799" lon="3.268">
        <ele>79.61041</ele>
        <time>2023-10-29T08:10:08Z</time>
      </trkpt>
      <trkpt lat="50.348" lon="3.26798">
        <ele>80.020325</ele>
        <time>2023-10-29T08:10:09Z</time>
      </trkpt>
      <trkpt lat="50.348" lon="3.26797">
        <ele>79.81885</ele>
        <time>2023-10-29T08:10:10Z</time>
      </trkpt>
      <trkpt lat="50.34801" lon="3.26795">
        <ele>79.74963</ele>
        <time>2023-10-29T08:10:11Z</time>
      </trkpt>
      <trkpt lat="50.34802" lon="3.26794">
        <ele>79.41968</ele>
        <time>2023-10-29T08:10:12Z</time>
      </trkpt>
      <trkpt lat="50.34803" lon="3.26792">
        <ele>79.59747</ele>
        <time>2023-10-29T08:10:13Z</time>
      </trkpt>
      <trkpt lat="50.34803" lon="3.26791">
        <ele>80.109436</ele>
        <time>2023-10-29T08:10:14Z</time>
      </trkpt>
      <trkpt lat="50.34804" lon="3.26789">
        <ele>80.336914</ele>
        <time>2023-10-29T08:10:15Z</time>
      </trkpt>
      <trkpt lat="50.34805" lon="3.26788">
        <ele>80.59943</ele>
        <time>2023-10-29T08:10:16Z</time>
      </trkpt>
      <trkpt lat="50.34806" lon="3.26786">
        <ele>80.32507</ele>
        <time>2023-10-29T08:10:17Z</time>
      </trkpt>
      <trkpt lat="50.34806" lon="3.26784">
        <ele>80.17859</ele>
        <time>2023-10-29T08:10:18Z</time>
      </trkpt>
      <trkpt lat="50.34808" lon="3.26783">
        <ele>80.212036</ele>
        <time>2023-10-29T08:10:19Z</time>
      </trkpt>
      <trkpt lat="50.34808" lon="3.26781">
        <ele>80.5235</ele>
        <time>2023-10-29T08:10:20Z</time>
      </trkpt>
      <trkpt lat="50.3481" lon="3.26779">
        <ele>80.320435</ele>
        <time>2023-10-29T08:10:21Z</time>
      </trkpt>
      <trkpt lat="50.3481" lon="3.26777">
        <ele>80.37909</ele>
        <time>2023-10-29T08:10:22Z</time>
      </trkpt>
      <trkpt lat="50.34811" lon="3.26775">
        <ele>80.381836</ele>
        <time>2023-10-29T08:10:23Z</time>
      </trkpt>
      <trkpt lat="50.34811" lon="3.26773">
        <ele>80.42218</ele>
        <time>2023-10-29T08:10:24Z</time>
      </trkpt>
      <trkpt lat="50.34812" lon="3.26771">
        <ele>80.628174</ele>
        <time>2023-10-29T08:10:25Z</time>
      </trkpt>
      <trkpt lat="50.34813" lon="3.2677">
        <ele>80.98749</ele>
        <time>2023-10-29T08:10:26Z</time>
      </trkpt>
      <trkpt lat="50.34814" lon="3.26768">
        <ele>80.92273</ele>
        <time>2023-10-29T08:10:27Z</time>
      </trkpt>
      <trkpt lat="50.34815" lon="3.26766">
        <ele>80.44183</ele>
        <time>2023-10-29T08:10:28Z</time>
      </trkpt>
      <trkpt lat="50.34816" lon="3.26765">
        <ele>80.46478</ele>
        <time>2023-10-29T08:10:29Z</time>
      </trkpt>
      <trkpt lat="50.34817" lon="3.26764">
        <ele>80.71338</ele>
        <time>2023-10-29T08:10:30Z</time>
      </trkpt>
      <trkpt lat="50.34818" lon="3.26763">
        <ele>81.12579</ele>
        <time>2023-10-29T08:10:31Z</time>
      </trkpt>
      <trkpt lat="50.34819" lon="3.26761">
        <ele>80.79907</ele>
        <time>2023-10-29T08:10:32Z</time>
      </trkpt>
      <trkpt lat="50.34819" lon="3.2676">
        <ele>80.87433</ele>
        <time>2023-10-29T08:10:33Z</time>
      </trkpt>
      <trkpt lat="50.3482" lon="3.26758">
        <ele>80.47095</ele>
        <time>2023-10-29T08:10:34Z</time>
      </trkpt>
      <trkpt lat="50.34821" lon="3.26757">
        <ele>79.855225</ele>
        <time>2023-10-29T08:10:35Z</time>
      </trkpt>
      <trkpt lat="50.34822" lon="3.26755">
        <ele>80.009094</ele>
        <time>2023-10-29T08:10:36Z</time>
      </trkpt>
      <trkpt lat="50.34823" lon="3.26754">
        <ele>80.39288</ele>
        <time>2023-10-29T08:10:37Z</time>
      </trkpt>
      <trkpt lat="50.34824" lon="3.26752">
        <ele>80.85034</ele>
        <time>2023-10-29T08:10:38Z</time>
      </trkpt>
      <trkpt lat="50.34825" lon="3.2675">
        <ele>80.74902</ele>
        <time>2023-10-29T08:10:39Z</time>
      </trkpt>
      <trkpt lat="50.34826" lon="3.26748">
        <ele>81.11627</ele>
        <time>2023-10-29T08:10:40Z</time>
      </trkpt>
      <trkpt lat="50.34826" lon="3.26746">
        <ele>81.74841</ele>
        <time>2023-10-29T08:10:41Z</time>
      </trkpt>
      <trkpt lat="50.34827" lon="3.26744">
        <ele>82.18414</ele>
        <time>2023-10-29T08:10:42Z</time>
      </trkpt>
      <trkpt lat="50.34828" lon="3.26743">
        <ele>82.131714</ele>
        <time>2023-10-29T08:10:43Z</time>
      </trkpt>
      <trkpt lat="50.34829" lon="3.26742">
        <ele>82.11615</ele>
        <time>2023-10-29T08:10:44Z</time>
      </trkpt>
      <trkpt lat="50.3483" lon="3.2674">
        <ele>82.332825</ele>
        <time>2023-10-29T08:10:45Z</time>
      </trkpt>
      <trkpt lat="50.34831" lon="3.26738">
        <ele>82.16742</ele>
        <time>2023-10-29T08:10:46Z</time>
      </trkpt>
      <trkpt lat="50.34831" lon="3.26737">
        <ele>82.321106</ele>
        <time>2023-10-29T08:10:47Z</time>
      </trkpt>
      <trkpt lat="50.34832" lon="3.26735">
        <ele>82.80267</ele>
        <time>2023-10-29T08:10:48Z</time>
      </trkpt>
      <trkpt lat="50.34833" lon="3.26733">
        <ele>82.6438</ele>
        <time>2023-10-29T08:10:49Z</time>
      </trkpt>
      <trkpt lat="50.34834" lon="3.26732">
        <ele>82.50244</ele>
        <time>2023-10-29T08:10:50Z</time>
      </trkpt>
      <trkpt lat="50.34834" lon="3.2673">
        <ele>81.91864</ele>
        <time>2023-10-29T08:10:51Z</time>
      </trkpt>
      <trkpt lat="50.34835" lon="3.26728">
        <ele>81.63245</ele>
        <time>2023-10-29T08:10:52Z</time>
      </trkpt>
      <trkpt lat="50.34835" lon="3.26727">
        <ele>81.23114</ele>
        <time>2023-10-29T08:10:53Z</time>
      </trkpt>
      <trkpt lat="50.34836" lon="3.26725">
        <ele>81.87628</ele>
        <time>2023-10-29T08:10:54Z</time>
      </trkpt>
      <trkpt lat="50.34836" lon="3.26723">
        <ele>82.31348</ele>
        <time>2023-10-29T08:10:55Z</time>
      </trkpt>
      <trkpt lat="50.34837" lon="3.26722">
        <ele>82.353516</ele>
        <time>2023-10-29T08:10:56Z</time>
      </trkpt>
      <trkpt lat="50.34837" lon="3.2672">
        <ele>82.014404</ele>
        <time>2023-10-29T08:10:57Z</time>
      </trkpt>
      <trkpt lat="50.34838" lon="3.26719">
        <ele>82.60608</ele>
        <time>2023-10-29T08:10:58Z</time>
      </trkpt>
      <trkpt lat="50.34838" lon="3.26717">
        <ele>83.36951</ele>
        <time>2023-10-29T08:10:59Z</time>
      </trkpt>
      <trkpt lat="50.34839" lon="3.26715">
        <ele>83.67822</ele>
        <time>2023-10-29T08:11:00Z</time>
      </trkpt>
      <trkpt lat="50.34839" lon="3.26713">
        <ele>83.022156</ele>
        <time>2023-10-29T08:11:01Z</time>
      </trkpt>
      <trkpt lat="50.34839" lon="3.26712">
        <ele>83.22015</ele>
        <time>2023-10-29T08:11:02Z</time>
      </trkpt>
      <trkpt lat="50.3484" lon="3.2671">
        <ele>82.68921</ele>
        <time>2023-10-29T08:11:03Z</time>
      </trkpt>
      <trkpt lat="50.3484" lon="3.26708">
        <ele>83.14032</ele>
        <time>2023-10-29T08:11:04Z</time>
      </trkpt>
      <trkpt lat="50.3484" lon="3.26707">
        <ele>83.66937</ele>
        <time>2023-10-29T08:11:05Z</time>
      </trkpt>
      <trkpt lat="50.34841" lon="3.26705">
        <ele>83.44696</ele>
        <time>2023-10-29T08:11:06Z</time>
      </trkpt>
      <trkpt lat="50.34841" lon="3.26703">
        <ele>83.828064</ele>
        <time>2023-10-29T08:11:07Z</time>
      </trkpt>
      <trkpt lat="50.34842" lon="3.26701">
        <ele>84.74243</ele>
        <time>2023-10-29T08:11:08Z</time>
      </trkpt>
      <trkpt lat="50.34842" lon="3.26699">
        <ele>84.08191</ele>
        <time>2023-10-29T08:11:09Z</time>
      </trkpt>
      <trkpt lat="50.34842" lon="3.26698">
        <ele>83.283325</ele>
        <time>2023-10-29T08:11:10Z</time>
      </trkpt>
      <trkpt lat="50.34843" lon="3.26696">
        <ele>83.21173</ele>
        <time>2023-10-29T08:11:11Z</time>
      </trkpt>
      <trkpt lat="50.34843" lon="3.26694">
        <ele>83.43469</ele>
        <time>2023-10-29T08:11:12Z</time>
      </trkpt>
      <trkpt lat="50.34844" lon="3.26693">
        <ele>83.81647</ele>
        <time>2023-10-29T08:11:13Z</time>
      </trkpt>
      <trkpt lat="50.34845" lon="3.26691">
        <ele>84.21417</ele>
        <time>2023-10-29T08:11:14Z</time>
      </trkpt>
      <trkpt lat="50.34845" lon="3.26689">
        <ele>84.47534</ele>
        <time>2023-10-29T08:11:15Z</time>
      </trkpt>
      <trkpt lat="50.34845" lon="3.26687">
        <ele>84.67041</ele>
        <time>2023-10-29T08:11:16Z</time>
      </trkpt>
      <trkpt lat="50.34845" lon="3.26685">
        <ele>84.99646</ele>
        <time>2023-10-29T08:11:17Z</time>
      </trkpt>
      <trkpt lat="50.34845" lon="3.26682">
        <ele>85.162476</ele>
        <time>2023-10-29T08:11:18Z</time>
      </trkpt>
      <trkpt lat="50.34846" lon="3.26681">
        <ele>84.590454</ele>
        <time>2023-10-29T08:11:19Z</time>
      </trkpt>
      <trkpt lat="50.34846" lon="3.26679">
        <ele>85.21069</ele>
        <time>2023-10-29T08:11:20Z</time>
      </trkpt>
      <trkpt lat="50.34846" lon="3.26678">
        <ele>84.77881</ele>
        <time>2023-10-29T08:11:21Z</time>
      </trkpt>
      <trkpt lat="50.34847" lon="3.26676">
        <ele>84.83258</ele>
        <time>2023-10-29T08:11:22Z</time>
      </trkpt>
      <trkpt lat="50.34847" lon="3.26674">
        <ele>84.25696</ele>
        <time>2023-10-29T08:11:23Z</time>
      </trkpt>
      <trkpt lat="50.34848" lon="3.26672">
        <ele>84.41174</ele>
        <time>2023-10-29T08:11:24Z</time>
      </trkpt>
      <trkpt lat="50.34848" lon="3.2667">
        <ele>84.368835</ele>
        <time>2023-10-29T08:11:25Z</time>
      </trkpt>
      <trkpt lat="50.34849" lon="3.26669">
        <ele>84.29016</ele>
        <time>2023-10-29T08:11:26Z</time>
      </trkpt>
      <trkpt lat="50.34849" lon="3.26667">
        <ele>84.40527</ele>
        <time>2023-10-29T08:11:27Z</time>
      </trkpt>
      <trkpt lat="50.3485" lon="3.26665">
        <ele>85.270386</ele>
        <time>2023-10-29T08:11:28Z</time>
      </trkpt>
      <trkpt lat="50.3485" lon="3.26664">
        <ele>85.62573</ele>
        <time>2023-10-29T08:11:29Z</time>
      </trkpt>
      <trkpt lat="50.3485" lon="3.26662">
        <ele>84.64612</ele>
        <time>2023-10-29T08:11:30Z</time>
      </trkpt>
      <trkpt lat="50.3485" lon="3.2666">
        <ele>83.89911</ele>
        <time>2023-10-29T08:11:31Z</time>
      </trkpt>
      <trkpt lat="50.34851" lon="3.26658">
        <ele>83.985596</ele>
        <time>2023-10-29T08:11:32Z</time>
      </trkpt>
      <trkpt lat="50.34851" lon="3.26656">
        <ele>83.526</ele>
        <time>2023-10-29T08:11:33Z</time>
      </trkpt>
      <trkpt lat="50.34851" lon="3.26654">
        <ele>83.285706</ele>
        <time>2023-10-29T08:11:34Z</time>
      </trkpt>
      <trkpt lat="50.34851" lon="3.26652">
        <ele>82.84595</ele>
        <time>2023-10-29T08:11:35Z</time>
      </trkpt>
      <trkpt lat="50.34851" lon="3.2665">
        <ele>83.005615</ele>
        <time>2023-10-29T08:11:36Z</time>
      </trkpt>
      <trkpt lat="50.34851" lon="3.26648">
        <ele>81.99426</ele>
        <time>2023-10-29T08:11:37Z</time>
      </trkpt>
      <trkpt lat="50.34852" lon="3.26646">
        <ele>81.89673</ele>
        <time>2023-10-29T08:11:38Z</time>
      </trkpt>
      <trkpt lat="50.34851" lon="3.26644">
        <ele>82.02118</ele>
        <time>2023-10-29T08:11:39Z</time>
      </trkpt>
      <trkpt lat="50.34851" lon="3.26642">
        <ele>81.267334</ele>
        <time>2023-10-29T08:11:40Z</time>
      </trkpt>
      <trkpt lat="50.34851" lon="3.2664">
        <ele>82.24689</ele>
        <time>2023-10-29T08:11:41Z</time>
      </trkpt>
      <trkpt lat="50.34852" lon="3.26638">
        <ele>82.15747</ele>
        <time>2023-10-29T08:11:42Z</time>
      </trkpt>
      <trkpt lat="50.34852" lon="3.26635">
        <ele>83.098755</ele>
        <time>2023-10-29T08:11:43Z</time>
      </trkpt>
      <trkpt lat="50.34852" lon="3.26634">
        <ele>83.27722</ele>
        <time>2023-10-29T08:11:44Z</time>
      </trkpt>
      <trkpt lat="50.34852" lon="3.26632">
        <ele>83.028015</ele>
        <time>2023-10-29T08:11:45Z</time>
      </trkpt>
      <trkpt lat="50.34852" lon="3.26629">
        <ele>83.60669</ele>
        <time>2023-10-29T08:11:46Z</time>
      </trkpt>
      <trkpt lat="50.34852" lon="3.26627">
        <ele>83.2522</ele>
        <time>2023-10-29T08:11:47Z</time>
      </trkpt>
      <trkpt lat="50.34852" lon="3.26625">
        <ele>83.953</ele>
        <time>2023-10-29T08:11:48Z</time>
      </trkpt>
      <trkpt lat="50.34853" lon="3.26623">
        <ele>84.02771</ele>
        <time>2023-10-29T08:11:49Z</time>
      </trkpt>
      <trkpt lat="50.34853" lon="3.26621">
        <ele>84.01666</ele>
        <time>2023-10-29T08:11:50Z</time>
      </trkpt>
      <trkpt lat="50.34853" lon="3.26619">
        <ele>84.70996</ele>
        <time>2023-10-29T08:11:51Z</time>
      </trkpt>
      <trkpt lat="50.34853" lon="3.26617">
        <ele>86.625916</ele>
        <time>2023-10-29T08:11:52Z</time>
      </trkpt>
      <trkpt lat="50.34853" lon="3.26615">
        <ele>86.84503</ele>
        <time>2023-10-29T08:11:53Z</time>
      </trkpt>
      <trkpt lat="50.34853" lon="3.26613">
        <ele>87.77319</ele>
        <time>2023-10-29T08:11:55Z</time>
      </trkpt>
      <trkpt lat="50.34853" lon="3.26611">
        <ele>88.119995</ele>
        <time>2023-10-29T08:11:56Z</time>
      </trkpt>
      <trkpt lat="50.34853" lon="3.26609">
        <ele>88.934204</ele>
        <time>2023-10-29T08:11:57Z</time>
      </trkpt>
      <trkpt lat="50.34853" lon="3.26607">
        <ele>88.306335</ele>
        <time>2023-10-29T08:11:58Z</time>
      </trkpt>
      <trkpt lat="50.34853" lon="3.26605">
        <ele>88.12787</ele>
        <time>2023-10-29T08:11:59Z</time>
      </trkpt>
      <trkpt lat="50.34853" lon="3.26603">
        <ele>88.684326</ele>
        <time>2023-10-29T08:12:00Z</time>
      </trkpt>
      <trkpt lat="50.34853" lon="3.26601">
        <ele>88.69855</ele>
        <time>2023-10-29T08:12:01Z</time>
      </trkpt>
      <trkpt lat="50.34854" lon="3.26599">
        <ele>88.16901</ele>
        <time>2023-10-29T08:12:02Z</time>
      </trkpt>
      <trkpt lat="50.34853" lon="3.26597">
        <ele>87.62836</ele>
        <time>2023-10-29T08:12:03Z</time>
      </trkpt>
      <trkpt lat="50.34853" lon="3.26595">
        <ele>86.690735</ele>
        <time>2023-10-29T08:12:04Z</time>
      </trkpt>
      <trkpt lat="50.34853" lon="3.26593">
        <ele>87.14929</ele>
        <time>2023-10-29T08:12:05Z</time>
      </trkpt>
      <trkpt lat="50.34853" lon="3.26591">
        <ele>87.26123</ele>
        <time>2023-10-29T08:12:06Z</time>
      </trkpt>
      <trkpt lat="50.34853" lon="3.26589">
        <ele>88.32709</ele>
        <time>2023-10-29T08:12:07Z</time>
      </trkpt>
      <trkpt lat="50.34853" lon="3.26587">
        <ele>88.17041</ele>
        <time>2023-10-29T08:12:08Z</time>
      </trkpt>
      <trkpt lat="50.34852" lon="3.26586">
        <ele>88.50134</ele>
        <time>2023-10-29T08:12:09Z</time>
      </trkpt>
      <trkpt lat="50.34852" lon="3.26584">
        <ele>88.91223</ele>
        <time>2023-10-29T08:12:10Z</time>
      </trkpt>
      <trkpt lat="50.34853" lon="3.26582">
        <ele>88.238525</ele>
        <time>2023-10-29T08:12:11Z</time>
      </trkpt>
      <trkpt lat="50.34852" lon="3.2658">
        <ele>88.24048</ele>
        <time>2023-10-29T08:12:12Z</time>
      </trkpt>
      <trkpt lat="50.34852" lon="3.26578">
        <ele>88.49194</ele>
        <time>2023-10-29T08:12:13Z</time>
      </trkpt>
      <trkpt lat="50.34852" lon="3.26576">
        <ele>88.94861</ele>
        <time>2023-10-29T08:12:14Z</time>
      </trkpt>
      <trkpt lat="50.34852" lon="3.26574">
        <ele>89.23212</ele>
        <time>2023-10-29T08:12:15Z</time>
      </trkpt>
      <trkpt lat="50.34852" lon="3.26572">
        <ele>89.14044</ele>
        <time>2023-10-29T08:12:16Z</time>
      </trkpt>
      <trkpt lat="50.34852" lon="3.2657">
        <ele>88.52069</ele>
        <time>2023-10-29T08:12:17Z</time>
      </trkpt>
      <trkpt lat="50.34852" lon="3.26568">
        <ele>88.309875</ele>
        <time>2023-10-29T08:12:18Z</time>
      </trkpt>
      <trkpt lat="50.34852" lon="3.26566">
        <ele>87.62952</ele>
        <time>2023-10-29T08:12:19Z</time>
      </trkpt>
      <trkpt lat="50.34852" lon="3.26564">
        <ele>87.05029</ele>
        <time>2023-10-29T08:12:20Z</time>
      </trkpt>
      <trkpt lat="50.34851" lon="3.26563">
        <ele>87.12048</ele>
        <time>2023-10-29T08:12:21Z</time>
      </trkpt>
      <trkpt lat="50.34851" lon="3.26561">
        <ele>87.12482</ele>
        <time>2023-10-29T08:12:22Z</time>
      </trkpt>
      <trkpt lat="50.3485" lon="3.26559">
        <ele>86.877014</ele>
        <time>2023-10-29T08:12:23Z</time>
      </trkpt>
      <trkpt lat="50.3485" lon="3.26557">
        <ele>86.50348</ele>
        <time>2023-10-29T08:12:24Z</time>
      </trkpt>
      <trkpt lat="50.34849" lon="3.26556">
        <ele>86.02814</ele>
        <time>2023-10-29T08:12:25Z</time>
      </trkpt>
      <trkpt lat="50.34849" lon="3.26554">
        <ele>85.60339</ele>
        <time>2023-10-29T08:12:26Z</time>
      </trkpt>
      <trkpt lat="50.34849" lon="3.26552">
        <ele>85.64978</ele>
        <time>2023-10-29T08:12:27Z</time>
      </trkpt>
      <trkpt lat="50.34848" lon="3.26551">
        <ele>86.55292</ele>
        <time>2023-10-29T08:12:28Z</time>
      </trkpt>
      <trkpt lat="50.34849" lon="3.26548">
        <ele>87.153015</ele>
        <time>2023-10-29T08:12:29Z</time>
      </trkpt>
      <trkpt lat="50.34849" lon="3.26546">
        <ele>87.71484</ele>
        <time>2023-10-29T08:12:30Z</time>
      </trkpt>
      <trkpt lat="50.34848" lon="3.26544">
        <ele>88.084595</ele>
        <time>2023-10-29T08:12:31Z</time>
      </trkpt>
      <trkpt lat="50.34848" lon="3.26541">
        <ele>87.5235</ele>
        <time>2023-10-29T08:12:32Z</time>
      </trkpt>
      <trkpt lat="50.34848" lon="3.26539">
        <ele>87.6767</ele>
        <time>2023-10-29T08:12:33Z</time>
      </trkpt>
      <trkpt lat="50.34848" lon="3.26537">
        <ele>88.84094</ele>
        <time>2023-10-29T08:12:34Z</time>
      </trkpt>
      <trkpt lat="50.34848" lon="3.26536">
        <ele>89.44867</ele>
        <time>2023-10-29T08:12:35Z</time>
      </trkpt>
      <trkpt lat="50.34847" lon="3.26534">
        <ele>89.37109</ele>
        <time>2023-10-29T08:12:36Z</time>
      </trkpt>
      <trkpt lat="50.34847" lon="3.26533">
        <ele>89.849365</ele>
        <time>2023-10-29T08:12:37Z</time>
      </trkpt>
      <trkpt lat="50.34847" lon="3.2653">
        <ele>88.990845</ele>
        <time>2023-10-29T08:12:38Z</time>
      </trkpt>
      <trkpt lat="50.34847" lon="3.26529">
        <ele>87.51727</ele>
        <time>2023-10-29T08:12:39Z</time>
      </trkpt>
      <trkpt lat="50.34846" lon="3.26527">
        <ele>87.2113</ele>
        <time>2023-10-29T08:12:40Z</time>
      </trkpt>
      <trkpt lat="50.34846" lon="3.26525">
        <ele>87.20007</ele>
        <time>2023-10-29T08:12:41Z</time>
      </trkpt>
      <trkpt lat="50.34845" lon="3.26523">
        <ele>87.57526</ele>
        <time>2023-10-29T08:12:42Z</time>
      </trkpt>
      <trkpt lat="50.34845" lon="3.26521">
        <ele>88.27722</ele>
        <time>2023-10-29T08:12:43Z</time>
      </trkpt>
      <trkpt lat="50.34845" lon="3.2652">
        <ele>87.94855</ele>
        <time>2023-10-29T08:12:44Z</time>
      </trkpt>
      <trkpt lat="50.34844" lon="3.26518">
        <ele>87.53912</ele>
        <time>2023-10-29T08:12:45Z</time>
      </trkpt>
      <trkpt lat="50.34844" lon="3.26516">
        <ele>86.865845</ele>
        <time>2023-10-29T08:12:46Z</time>
      </trkpt>
      <trkpt lat="50.34843" lon="3.26514">
        <ele>87.21661</ele>
        <time>2023-10-29T08:12:47Z</time>
      </trkpt>
      <trkpt lat="50.34843" lon="3.26512">
        <ele>87.27826</ele>
        <time>2023-10-29T08:12:48Z</time>
      </trkpt>
      <trkpt lat="50.34843" lon="3.2651">
        <ele>87.69922</ele>
        <time>2023-10-29T08:12:49Z</time>
      </trkpt>
      <trkpt lat="50.34842" lon="3.26508">
        <ele>88.10913</ele>
        <time>2023-10-29T08:12:50Z</time>
      </trkpt>
      <trkpt lat="50.34842" lon="3.26506">
        <ele>88.09363</ele>
        <time>2023-10-29T08:12:51Z</time>
      </trkpt>
      <trkpt lat="50.34842" lon="3.26504">
        <ele>86.25159</ele>
        <time>2023-10-29T08:12:52Z</time>
      </trkpt>
      <trkpt lat="50.34842" lon="3.26502">
        <ele>86.16992</ele>
        <time>2023-10-29T08:12:53Z</time>
      </trkpt>
      <trkpt lat="50.34842" lon="3.265">
        <ele>86.711914</ele>
        <time>2023-10-29T08:12:54Z</time>
      </trkpt>
      <trkpt lat="50.34842" lon="3.26498">
        <ele>86.09326</ele>
        <time>2023-10-29T08:12:55Z</time>
      </trkpt>
      <trkpt lat="50.34842" lon="3.26496">
        <ele>85.62146</ele>
        <time>2023-10-29T08:12:56Z</time>
      </trkpt>
      <trkpt lat="50.34842" lon="3.26494">
        <ele>86.4093</ele>
        <time>2023-10-29T08:12:57Z</time>
      </trkpt>
      <trkpt lat="50.34842" lon="3.26492">
        <ele>87.47119</ele>
        <time>2023-10-29T08:12:58Z</time>
      </trkpt>
      <trkpt lat="50.34842" lon="3.2649">
        <ele>87.61554</ele>
        <time>2023-10-29T08:12:59Z</time>
      </trkpt>
      <trkpt lat="50.34842" lon="3.26489">
        <ele>88.131165</ele>
        <time>2023-10-29T08:13:00Z</time>
      </trkpt>
      <trkpt lat="50.34842" lon="3.26487">
        <ele>88.7063</ele>
        <time>2023-10-29T08:13:01Z</time>
      </trkpt>
      <trkpt lat="50.34842" lon="3.26485">
        <ele>88.387146</ele>
        <time>2023-10-29T08:13:02Z</time>
      </trkpt>
      <trkpt lat="50.34842" lon="3.26483">
        <ele>88.95441</ele>
        <time>2023-10-29T08:13:03Z</time>
      </trkpt>
      <trkpt lat="50.34842" lon="3.26482">
        <ele>89.21991</ele>
        <time>2023-10-29T08:13:04Z</time>
      </trkpt>
      <trkpt lat="50.34841" lon="3.2648">
        <ele>88.48352</ele>
        <time>2023-10-29T08:13:05Z</time>
      </trkpt>
      <trkpt lat="50.34842" lon="3.26479">
        <ele>87.644104</ele>
        <time>2023-10-29T08:13:06Z</time>
      </trkpt>
      <trkpt lat="50.34841" lon="3.26477">
        <ele>87.83917</ele>
        <time>2023-10-29T08:13:07Z</time>
      </trkpt>
      <trkpt lat="50.34841" lon="3.26475">
        <ele>87.79193</ele>
        <time>2023-10-29T08:13:08Z</time>
      </trkpt>
      <trkpt lat="50.34841" lon="3.26473">
        <ele>88.09778</ele>
        <time>2023-10-29T08:13:09Z</time>
      </trkpt>
      <trkpt lat="50.3484" lon="3.26472">
        <ele>88.35791</ele>
        <time>2023-10-29T08:13:10Z</time>
      </trkpt>
      <trkpt lat="50.3484" lon="3.2647">
        <ele>88.90283</ele>
        <time>2023-10-29T08:13:11Z</time>
      </trkpt>
      <trkpt lat="50.3484" lon="3.26468">
        <ele>89.55957</ele>
        <time>2023-10-29T08:13:12Z</time>
      </trkpt>
      <trkpt lat="50.34839" lon="3.26465">
        <ele>89.36694</ele>
        <time>2023-10-29T08:13:13Z</time>
      </trkpt>
      <trkpt lat="50.34839" lon="3.26463">
        <ele>89.474</ele>
        <time>2023-10-29T08:13:14Z</time>
      </trkpt>
      <trkpt lat="50.34838" lon="3.26462">
        <ele>89.77881</ele>
        <time>2023-10-29T08:13:15Z</time>
      </trkpt>
      <trkpt lat="50.34837" lon="3.2646">
        <ele>89.36841</ele>
        <time>2023-10-29T08:13:16Z</time>
      </trkpt>
      <trkpt lat="50.34836" lon="3.26459">
        <ele>88.60181</ele>
        <time>2023-10-29T08:13:17Z</time>
      </trkpt>
      <trkpt lat="50.34835" lon="3.26458">
        <ele>87.489136</ele>
        <time>2023-10-29T08:13:18Z</time>
      </trkpt>
      <trkpt lat="50.34834" lon="3.26457">
        <ele>88.20087</ele>
        <time>2023-10-29T08:13:19Z</time>
      </trkpt>
      <trkpt lat="50.34834" lon="3.26455">
        <ele>88.7879</ele>
        <time>2023-10-29T08:13:20Z</time>
      </trkpt>
      <trkpt lat="50.34832" lon="3.26452">
        <ele>88.47186</ele>
        <time>2023-10-29T08:13:22Z</time>
      </trkpt>
      <trkpt lat="50.34831" lon="3.26451">
        <ele>87.963135</ele>
        <time>2023-10-29T08:13:23Z</time>
      </trkpt>
      <trkpt lat="50.34829" lon="3.2645">
        <ele>87.78052</ele>
        <time>2023-10-29T08:13:24Z</time>
      </trkpt>
      <trkpt lat="50.34829" lon="3.26448">
        <ele>87.34473</ele>
        <time>2023-10-29T08:13:25Z</time>
      </trkpt>
      <trkpt lat="50.34828" lon="3.26446">
        <ele>87.35571</ele>
        <time>2023-10-29T08:13:26Z</time>
      </trkpt>
      <trkpt lat="50.34827" lon="3.26444">
        <ele>87.48627</ele>
        <time>2023-10-29T08:13:27Z</time>
      </trkpt>
      <trkpt lat="50.34827" lon="3.26443">
        <ele>87.24658</ele>
        <time>2023-10-29T08:13:28Z</time>
      </trkpt>
      <trkpt lat="50.34826" lon="3.26442">
        <ele>86.90259</ele>
        <time>2023-10-29T08:13:29Z</time>
      </trkpt>
      <trkpt lat="50.34825" lon="3.2644">
        <ele>86.68591</ele>
        <time>2023-10-29T08:13:30Z</time>
      </trkpt>
      <trkpt lat="50.34824" lon="3.26439">
        <ele>86.21393</ele>
        <time>2023-10-29T08:13:31Z</time>
      </trkpt>
      <trkpt lat="50.34823" lon="3.26437">
        <ele>85.85309</ele>
        <time>2023-10-29T08:13:32Z</time>
      </trkpt>
      <trkpt lat="50.34823" lon="3.26435">
        <ele>85.336914</ele>
        <time>2023-10-29T08:13:33Z</time>
      </trkpt>
      <trkpt lat="50.34822" lon="3.26434">
        <ele>85.3548</ele>
        <time>2023-10-29T08:13:34Z</time>
      </trkpt>
      <trkpt lat="50.34821" lon="3.26432">
        <ele>85.14197</ele>
        <time>2023-10-29T08:13:35Z</time>
      </trkpt>
      <trkpt lat="50.3482" lon="3.26431">
        <ele>84.77405</ele>
        <time>2023-10-29T08:13:36Z</time>
      </trkpt>
      <trkpt lat="50.34819" lon="3.2643">
        <ele>84.35455</ele>
        <time>2023-10-29T08:13:37Z</time>
      </trkpt>
      <trkpt lat="50.34818" lon="3.26429">
        <ele>83.391235</ele>
        <time>2023-10-29T08:13:38Z</time>
      </trkpt>
      <trkpt lat="50.34817" lon="3.26428">
        <ele>82.86438</ele>
        <time>2023-10-29T08:13:39Z</time>
      </trkpt>
      <trkpt lat="50.34816" lon="3.26427">
        <ele>82.83441</ele>
        <time>2023-10-29T08:13:40Z</time>
      </trkpt>
      <trkpt lat="50.34815" lon="3.26425">
        <ele>82.47595</ele>
        <time>2023-10-29T08:13:41Z</time>
      </trkpt>
      <trkpt lat="50.34815" lon="3.26423">
        <ele>82.63489</ele>
        <time>2023-10-29T08:13:42Z</time>
      </trkpt>
      <trkpt lat="50.34814" lon="3.26422">
        <ele>83.20563</ele>
        <time>2023-10-29T08:13:43Z</time>
      </trkpt>
      <trkpt lat="50.34812" lon="3.26421">
        <ele>82.406494</ele>
        <time>2023-10-29T08:13:44Z</time>
      </trkpt>
      <trkpt lat="50.34811" lon="3.2642">
        <ele>82.030334</ele>
        <time>2023-10-29T08:13:45Z</time>
      </trkpt>
      <trkpt lat="50.3481" lon="3.26418">
        <ele>81.89075</ele>
        <time>2023-10-29T08:13:46Z</time>
      </trkpt>
      <trkpt lat="50.3481" lon="3.26417">
        <ele>82.561646</ele>
        <time>2023-10-29T08:13:47Z</time>
      </trkpt>
      <trkpt lat="50.34809" lon="3.26415">
        <ele>82.891174</ele>
        <time>2023-10-29T08:13:48Z</time>
      </trkpt>
      <trkpt lat="50.34808" lon="3.26413">
        <ele>83.55408</ele>
        <time>2023-10-29T08:13:49Z</time>
      </trkpt>
      <trkpt lat="50.34808" lon="3.26412">
        <ele>83.88989</ele>
        <time>2023-10-29T08:13:50Z</time>
      </trkpt>
      <trkpt lat="50.34806" lon="3.2641">
        <ele>83.88074</ele>
        <time>2023-10-29T08:13:51Z</time>
      </trkpt>
      <trkpt lat="50.34806" lon="3.26408">
        <ele>83.3963</ele>
        <time>2023-10-29T08:13:52Z</time>
      </trkpt>
      <trkpt lat="50.34805" lon="3.26406">
        <ele>83.28723</ele>
        <time>2023-10-29T08:13:53Z</time>
      </trkpt>
      <trkpt lat="50.34805" lon="3.26404">
        <ele>83.79932</ele>
        <time>2023-10-29T08:13:54Z</time>
      </trkpt>
      <trkpt lat="50.34805" lon="3.26402">
        <ele>83.05176</ele>
        <time>2023-10-29T08:13:55Z</time>
      </trkpt>
      <trkpt lat="50.34804" lon="3.264">
        <ele>83.15381</ele>
        <time>2023-10-29T08:13:56Z</time>
      </trkpt>
      <trkpt lat="50.34803" lon="3.26398">
        <ele>83.59387</ele>
        <time>2023-10-29T08:13:57Z</time>
      </trkpt>
      <trkpt lat="50.34802" lon="3.26396">
        <ele>82.43909</ele>
        <time>2023-10-29T08:13:58Z</time>
      </trkpt>
      <trkpt lat="50.34802" lon="3.26395">
        <ele>82.65845</ele>
        <time>2023-10-29T08:13:59Z</time>
      </trkpt>
      <trkpt lat="50.34801" lon="3.26393">
        <ele>81.81421</ele>
        <time>2023-10-29T08:14:00Z</time>
      </trkpt>
      <trkpt lat="50.348" lon="3.26391">
        <ele>81.98694</ele>
        <time>2023-10-29T08:14:01Z</time>
      </trkpt>
      <trkpt lat="50.34799" lon="3.2639">
        <ele>82.60675</ele>
        <time>2023-10-29T08:14:02Z</time>
      </trkpt>
      <trkpt lat="50.34798" lon="3.26388">
        <ele>83.32538</ele>
        <time>2023-10-29T08:14:03Z</time>
      </trkpt>
      <trkpt lat="50.34798" lon="3.26387">
        <ele>83.61444</ele>
        <time>2023-10-29T08:14:04Z</time>
      </trkpt>
      <trkpt lat="50.34797" lon="3.26385">
        <ele>83.71698</ele>
        <time>2023-10-29T08:14:05Z</time>
      </trkpt>
      <trkpt lat="50.34796" lon="3.26384">
        <ele>83.21863</ele>
        <time>2023-10-29T08:14:06Z</time>
      </trkpt>
      <trkpt lat="50.34795" lon="3.26382">
        <ele>82.694336</ele>
        <time>2023-10-29T08:14:07Z</time>
      </trkpt>
      <trkpt lat="50.34795" lon="3.26381">
        <ele>83.562256</ele>
        <time>2023-10-29T08:14:08Z</time>
      </trkpt>
      <trkpt lat="50.34794" lon="3.26379">
        <ele>83.06311</ele>
        <time>2023-10-29T08:14:09Z</time>
      </trkpt>
      <trkpt lat="50.34794" lon="3.26378">
        <ele>83.35748</ele>
        <time>2023-10-29T08:14:10Z</time>
      </trkpt>
      <trkpt lat="50.34793" lon="3.26376">
        <ele>83.37811</ele>
        <time>2023-10-29T08:14:11Z</time>
      </trkpt>
      <trkpt lat="50.34792" lon="3.26375">
        <ele>82.89459</ele>
        <time>2023-10-29T08:14:12Z</time>
      </trkpt>
      <trkpt lat="50.34791" lon="3.26374">
        <ele>83.34314</ele>
        <time>2023-10-29T08:14:13Z</time>
      </trkpt>
      <trkpt lat="50.3479" lon="3.26372">
        <ele>83.08911</ele>
        <time>2023-10-29T08:14:14Z</time>
      </trkpt>
      <trkpt lat="50.3479" lon="3.2637">
        <ele>83.60394</ele>
        <time>2023-10-29T08:14:15Z</time>
      </trkpt>
      <trkpt lat="50.34789" lon="3.26368">
        <ele>84.09955</ele>
        <time>2023-10-29T08:14:16Z</time>
      </trkpt>
      <trkpt lat="50.34789" lon="3.26366">
        <ele>84.23102</ele>
        <time>2023-10-29T08:14:17Z</time>
      </trkpt>
      <trkpt lat="50.34788" lon="3.26364">
        <ele>84.43451</ele>
        <time>2023-10-29T08:14:18Z</time>
      </trkpt>
      <trkpt lat="50.34787" lon="3.26362">
        <ele>85.04376</ele>
        <time>2023-10-29T08:14:19Z</time>
      </trkpt>
      <trkpt lat="50.34787" lon="3.26361">
        <ele>86.59711</ele>
        <time>2023-10-29T08:14:20Z</time>
      </trkpt>
      <trkpt lat="50.34786" lon="3.26359">
        <ele>87.04108</ele>
        <time>2023-10-29T08:14:21Z</time>
      </trkpt>
      <trkpt lat="50.34786" lon="3.26356">
        <ele>88.1225</ele>
        <time>2023-10-29T08:14:22Z</time>
      </trkpt>
      <trkpt lat="50.34786" lon="3.26355">
        <ele>86.821045</ele>
        <time>2023-10-29T08:14:23Z</time>
      </trkpt>
      <trkpt lat="50.34784" lon="3.26353">
        <ele>86.119385</ele>
        <time>2023-10-29T08:14:24Z</time>
      </trkpt>
      <trkpt lat="50.34783" lon="3.26352">
        <ele>86.15961</ele>
        <time>2023-10-29T08:14:25Z</time>
      </trkpt>
      <trkpt lat="50.34782" lon="3.26351">
        <ele>86.23212</ele>
        <time>2023-10-29T08:14:26Z</time>
      </trkpt>
      <trkpt lat="50.34781" lon="3.26349">
        <ele>85.95691</ele>
        <time>2023-10-29T08:14:27Z</time>
      </trkpt>
      <trkpt lat="50.3478" lon="3.26348">
        <ele>85.36487</ele>
        <time>2023-10-29T08:14:28Z</time>
      </trkpt>
      <trkpt lat="50.34779" lon="3.26346">
        <ele>84.95813</ele>
        <time>2023-10-29T08:14:29Z</time>
      </trkpt>
      <trkpt lat="50.34779" lon="3.26344">
        <ele>85.924255</ele>
        <time>2023-10-29T08:14:30Z</time>
      </trkpt>
      <trkpt lat="50.34778" lon="3.26343">
        <ele>86.1438</ele>
        <time>2023-10-29T08:14:31Z</time>
      </trkpt>
      <trkpt lat="50.34777" lon="3.26341">
        <ele>85.069336</ele>
        <time>2023-10-29T08:14:32Z</time>
      </trkpt>
      <trkpt lat="50.34776" lon="3.2634">
        <ele>85.08197</ele>
        <time>2023-10-29T08:14:33Z</time>
      </trkpt>
      <trkpt lat="50.34775" lon="3.26339">
        <ele>84.764404</ele>
        <time>2023-10-29T08:14:34Z</time>
      </trkpt>
      <trkpt lat="50.34774" lon="3.26337">
        <ele>84.44281</ele>
        <time>2023-10-29T08:14:35Z</time>
      </trkpt>
      <trkpt lat="50.34773" lon="3.26336">
        <ele>84.43671</ele>
        <time>2023-10-29T08:14:36Z</time>
      </trkpt>
      <trkpt lat="50.34773" lon="3.26334">
        <ele>84.61737</ele>
        <time>2023-10-29T08:14:37Z</time>
      </trkpt>
      <trkpt lat="50.34772" lon="3.26333">
        <ele>84.12506</ele>
        <time>2023-10-29T08:14:38Z</time>
      </trkpt>
      <trkpt lat="50.34771" lon="3.26331">
        <ele>84.19672</ele>
        <time>2023-10-29T08:14:39Z</time>
      </trkpt>
      <trkpt lat="50.3477" lon="3.2633">
        <ele>83.582825</ele>
        <time>2023-10-29T08:14:40Z</time>
      </trkpt>
      <trkpt lat="50.34769" lon="3.26328">
        <ele>82.59332</ele>
        <time>2023-10-29T08:14:41Z</time>
      </trkpt>
      <trkpt lat="50.34768" lon="3.26327">
        <ele>82.496704</ele>
        <time>2023-10-29T08:14:42Z</time>
      </trkpt>
      <trkpt lat="50.34767" lon="3.26325">
        <ele>83.1131</ele>
        <time>2023-10-29T08:14:43Z</time>
      </trkpt>
      <trkpt lat="50.34766" lon="3.26324">
        <ele>83.42932</ele>
        <time>2023-10-29T08:14:44Z</time>
      </trkpt>
      <trkpt lat="50.34766" lon="3.26322">
        <ele>83.02667</ele>
        <time>2023-10-29T08:14:45Z</time>
      </trkpt>
      <trkpt lat="50.34765" lon="3.2632">
        <ele>82.297</ele>
        <time>2023-10-29T08:14:46Z</time>
      </trkpt>
      <trkpt lat="50.34764" lon="3.26319">
        <ele>82.48633</ele>
        <time>2023-10-29T08:14:47Z</time>
      </trkpt>
      <trkpt lat="50.34763" lon="3.26318">
        <ele>83.0683</ele>
        <time>2023-10-29T08:14:48Z</time>
      </trkpt>
      <trkpt lat="50.34762" lon="3.26316">
        <ele>83.81848</ele>
        <time>2023-10-29T08:14:49Z</time>
      </trkpt>
      <trkpt lat="50.34761" lon="3.26314">
        <ele>83.658325</ele>
        <time>2023-10-29T08:14:50Z</time>
      </trkpt>
      <trkpt lat="50.3476" lon="3.26313">
        <ele>83.03265</ele>
        <time>2023-10-29T08:14:51Z</time>
      </trkpt>
      <trkpt lat="50.34759" lon="3.26311">
        <ele>83.57605</ele>
        <time>2023-10-29T08:14:52Z</time>
      </trkpt>
      <trkpt lat="50.34758" lon="3.2631">
        <ele>83.12604</ele>
        <time>2023-10-29T08:14:53Z</time>
      </trkpt>
      <trkpt lat="50.34757" lon="3.26309">
        <ele>83.982544</ele>
        <time>2023-10-29T08:14:54Z</time>
      </trkpt>
      <trkpt lat="50.34756" lon="3.26308">
        <ele>84.05426</ele>
        <time>2023-10-29T08:14:55Z</time>
      </trkpt>
      <trkpt lat="50.34755" lon="3.26307">
        <ele>83.08984</ele>
        <time>2023-10-29T08:14:56Z</time>
      </trkpt>
      <trkpt lat="50.34754" lon="3.26306">
        <ele>82.611694</ele>
        <time>2023-10-29T08:14:57Z</time>
      </trkpt>
      <trkpt lat="50.34753" lon="3.26305">
        <ele>82.89838</ele>
        <time>2023-10-29T08:14:58Z</time>
      </trkpt>
      <trkpt lat="50.34752" lon="3.26304">
        <ele>82.507324</ele>
        <time>2023-10-29T08:14:59Z</time>
      </trkpt>
      <trkpt lat="50.34752" lon="3.26303">
        <ele>82.07495</ele>
        <time>2023-10-29T08:15:00Z</time>
      </trkpt>
      <trkpt lat="50.34751" lon="3.26301">
        <ele>81.75476</ele>
        <time>2023-10-29T08:15:01Z</time>
      </trkpt>
      <trkpt lat="50.3475" lon="3.263">
        <ele>82.82068</ele>
        <time>2023-10-29T08:15:02Z</time>
      </trkpt>
      <trkpt lat="50.34749" lon="3.26298">
        <ele>83.006226</ele>
        <time>2023-10-29T08:15:03Z</time>
      </trkpt>
      <trkpt lat="50.34749" lon="3.26297">
        <ele>82.96399</ele>
        <time>2023-10-29T08:15:04Z</time>
      </trkpt>
      <trkpt lat="50.34747" lon="3.26296">
        <ele>82.983154</ele>
        <time>2023-10-29T08:15:05Z</time>
      </trkpt>
      <trkpt lat="50.34746" lon="3.26295">
        <ele>82.900635</ele>
        <time>2023-10-29T08:15:06Z</time>
      </trkpt>
      <trkpt lat="50.34745" lon="3.26294">
        <ele>82.87903</ele>
        <time>2023-10-29T08:15:07Z</time>
      </trkpt>
      <trkpt lat="50.34745" lon="3.26293">
        <ele>82.92053</ele>
        <time>2023-10-29T08:15:08Z</time>
      </trkpt>
      <trkpt lat="50.34744" lon="3.26292">
        <ele>82.76996</ele>
        <time>2023-10-29T08:15:09Z</time>
      </trkpt>
      <trkpt lat="50.34743" lon="3.2629">
        <ele>83.05365</ele>
        <time>2023-10-29T08:15:10Z</time>
      </trkpt>
      <trkpt lat="50.34742" lon="3.26289">
        <ele>83.07886</ele>
        <time>2023-10-29T08:15:11Z</time>
      </trkpt>
      <trkpt lat="50.34741" lon="3.26288">
        <ele>82.328735</ele>
        <time>2023-10-29T08:15:12Z</time>
      </trkpt>
      <trkpt lat="50.3474" lon="3.26287">
        <ele>81.98053</ele>
        <time>2023-10-29T08:15:13Z</time>
      </trkpt>
      <trkpt lat="50.3474" lon="3.26285">
        <ele>82.65051</ele>
        <time>2023-10-29T08:15:14Z</time>
      </trkpt>
      <trkpt lat="50.34739" lon="3.26284">
        <ele>81.58838</ele>
        <time>2023-10-29T08:15:15Z</time>
      </trkpt>
      <trkpt lat="50.34738" lon="3.26283">
        <ele>81.158875</ele>
        <time>2023-10-29T08:15:16Z</time>
      </trkpt>
      <trkpt lat="50.34737" lon="3.26282">
        <ele>81.20752</ele>
        <time>2023-10-29T08:15:17Z</time>
      </trkpt>
      <trkpt lat="50.34736" lon="3.26281">
        <ele>81.23932</ele>
        <time>2023-10-29T08:15:18Z</time>
      </trkpt>
      <trkpt lat="50.34735" lon="3.2628">
        <ele>80.86536</ele>
        <time>2023-10-29T08:15:19Z</time>
      </trkpt>
      <trkpt lat="50.34733" lon="3.26279">
        <ele>81.03302</ele>
        <time>2023-10-29T08:15:20Z</time>
      </trkpt>
      <trkpt lat="50.34732" lon="3.26278">
        <ele>80.66162</ele>
        <time>2023-10-29T08:15:21Z</time>
      </trkpt>
      <trkpt lat="50.34731" lon="3.26277">
        <ele>80.32666</ele>
        <time>2023-10-29T08:15:22Z</time>
      </trkpt>
      <trkpt lat="50.3473" lon="3.26276">
        <ele>79.75781</ele>
        <time>2023-10-29T08:15:23Z</time>
      </trkpt>
      <trkpt lat="50.34729" lon="3.26275">
        <ele>80.71661</ele>
        <time>2023-10-29T08:15:24Z</time>
      </trkpt>
      <trkpt lat="50.34728" lon="3.26274">
        <ele>80.87982</ele>
        <time>2023-10-29T08:15:25Z</time>
      </trkpt>
      <trkpt lat="50.34727" lon="3.26273">
        <ele>80.82202</ele>
        <time>2023-10-29T08:15:26Z</time>
      </trkpt>
      <trkpt lat="50.34726" lon="3.26272">
        <ele>80.86194</ele>
        <time>2023-10-29T08:15:27Z</time>
      </trkpt>
      <trkpt lat="50.34724" lon="3.26271">
        <ele>80.76544</ele>
        <time>2023-10-29T08:15:28Z</time>
      </trkpt>
      <trkpt lat="50.34723" lon="3.2627">
        <ele>81.09216</ele>
        <time>2023-10-29T08:15:29Z</time>
      </trkpt>
      <trkpt lat="50.34722" lon="3.26269">
        <ele>81.72046</ele>
        <time>2023-10-29T08:15:30Z</time>
      </trkpt>
      <trkpt lat="50.34721" lon="3.26268">
        <ele>81.79126</ele>
        <time>2023-10-29T08:15:31Z</time>
      </trkpt>
      <trkpt lat="50.3472" lon="3.26267">
        <ele>81.799194</ele>
        <time>2023-10-29T08:15:32Z</time>
      </trkpt>
      <trkpt lat="50.34718" lon="3.26266">
        <ele>81.724365</ele>
        <time>2023-10-29T08:15:33Z</time>
      </trkpt>
      <trkpt lat="50.34717" lon="3.26265">
        <ele>81.536255</ele>
        <time>2023-10-29T08:15:34Z</time>
      </trkpt>
      <trkpt lat="50.34716" lon="3.26264">
        <ele>81.67468</ele>
        <time>2023-10-29T08:15:35Z</time>
      </trkpt>
      <trkpt lat="50.34715" lon="3.26263">
        <ele>82.13269</ele>
        <time>2023-10-29T08:15:36Z</time>
      </trkpt>
      <trkpt lat="50.34715" lon="3.26262">
        <ele>81.58508</ele>
        <time>2023-10-29T08:15:37Z</time>
      </trkpt>
      <trkpt lat="50.34713" lon="3.26261">
        <ele>81.433044</ele>
        <time>2023-10-29T08:15:38Z</time>
      </trkpt>
      <trkpt lat="50.34712" lon="3.2626">
        <ele>81.11505</ele>
        <time>2023-10-29T08:15:39Z</time>
      </trkpt>
      <trkpt lat="50.34712" lon="3.26259">
        <ele>81.443054</ele>
        <time>2023-10-29T08:15:40Z</time>
      </trkpt>
      <trkpt lat="50.3471" lon="3.26259">
        <ele>81.31592</ele>
        <time>2023-10-29T08:15:41Z</time>
      </trkpt>
      <trkpt lat="50.34709" lon="3.26257">
        <ele>81.403076</ele>
        <time>2023-10-29T08:15:42Z</time>
      </trkpt>
      <trkpt lat="50.34708" lon="3.26257">
        <ele>80.97778</ele>
        <time>2023-10-29T08:15:43Z</time>
      </trkpt>
      <trkpt lat="50.34707" lon="3.26256">
        <ele>80.80237</ele>
        <time>2023-10-29T08:15:44Z</time>
      </trkpt>
      <trkpt lat="50.34705" lon="3.26255">
        <ele>80.46069</ele>
        <time>2023-10-29T08:15:45Z</time>
      </trkpt>
      <trkpt lat="50.34705" lon="3.26254">
        <ele>80.52997</ele>
        <time>2023-10-29T08:15:46Z</time>
      </trkpt>
      <trkpt lat="50.34703" lon="3.26253">
        <ele>80.08728</ele>
        <time>2023-10-29T08:15:47Z</time>
      </trkpt>
      <trkpt lat="50.34702" lon="3.26252">
        <ele>80.1203</ele>
        <time>2023-10-29T08:15:48Z</time>
      </trkpt>
      <trkpt lat="50.34701" lon="3.26251">
        <ele>79.97565</ele>
        <time>2023-10-29T08:15:49Z</time>
      </trkpt>
      <trkpt lat="50.347" lon="3.26251">
        <ele>79.84357</ele>
        <time>2023-10-29T08:15:50Z</time>
      </trkpt>
      <trkpt lat="50.34699" lon="3.26249">
        <ele>79.72699</ele>
        <time>2023-10-29T08:15:51Z</time>
      </trkpt>
      <trkpt lat="50.34698" lon="3.26248">
        <ele>79.69232</ele>
        <time>2023-10-29T08:15:52Z</time>
      </trkpt>
      <trkpt lat="50.34697" lon="3.26247">
        <ele>79.64154</ele>
        <time>2023-10-29T08:15:53Z</time>
      </trkpt>
      <trkpt lat="50.34696" lon="3.26246">
        <ele>79.36328</ele>
        <time>2023-10-29T08:15:54Z</time>
      </trkpt>
      <trkpt lat="50.34695" lon="3.26245">
        <ele>79.512085</ele>
        <time>2023-10-29T08:15:55Z</time>
      </trkpt>
      <trkpt lat="50.34694" lon="3.26244">
        <ele>79.49066</ele>
        <time>2023-10-29T08:15:56Z</time>
      </trkpt>
      <trkpt lat="50.34692" lon="3.26244">
        <ele>79.30591</ele>
        <time>2023-10-29T08:15:57Z</time>
      </trkpt>
      <trkpt lat="50.34692" lon="3.26242">
        <ele>79.825745</ele>
        <time>2023-10-29T08:15:58Z</time>
      </trkpt>
      <trkpt lat="50.3469" lon="3.26242">
        <ele>79.35632</ele>
        <time>2023-10-29T08:15:59Z</time>
      </trkpt>
      <trkpt lat="50.34689" lon="3.26241">
        <ele>79.14203</ele>
        <time>2023-10-29T08:16:00Z</time>
      </trkpt>
      <trkpt lat="50.34688" lon="3.26239">
        <ele>79.268555</ele>
        <time>2023-10-29T08:16:01Z</time>
      </trkpt>
      <trkpt lat="50.34687" lon="3.26238">
        <ele>79.37195</ele>
        <time>2023-10-29T08:16:02Z</time>
      </trkpt>
      <trkpt lat="50.34686" lon="3.26237">
        <ele>79.55347</ele>
        <time>2023-10-29T08:16:03Z</time>
      </trkpt>
      <trkpt lat="50.34685" lon="3.26237">
        <ele>79.496826</ele>
        <time>2023-10-29T08:16:04Z</time>
      </trkpt>
      <trkpt lat="50.34684" lon="3.26236">
        <ele>79.4126</ele>
        <time>2023-10-29T08:16:05Z</time>
      </trkpt>
      <trkpt lat="50.34683" lon="3.26235">
        <ele>79.57019</ele>
        <time>2023-10-29T08:16:06Z</time>
      </trkpt>
      <trkpt lat="50.34682" lon="3.26234">
        <ele>79.900024</ele>
        <time>2023-10-29T08:16:07Z</time>
      </trkpt>
      <trkpt lat="50.34681" lon="3.26233">
        <ele>79.77942</ele>
        <time>2023-10-29T08:16:08Z</time>
      </trkpt>
      <trkpt lat="50.3468" lon="3.26232">
        <ele>79.91614</ele>
        <time>2023-10-29T08:16:09Z</time>
      </trkpt>
      <trkpt lat="50.34679" lon="3.26231">
        <ele>79.81354</ele>
        <time>2023-10-29T08:16:10Z</time>
      </trkpt>
      <trkpt lat="50.34678" lon="3.2623">
        <ele>79.97119</ele>
        <time>2023-10-29T08:16:11Z</time>
      </trkpt>
      <trkpt lat="50.34676" lon="3.26229">
        <ele>80.01953</ele>
        <time>2023-10-29T08:16:12Z</time>
      </trkpt>
      <trkpt lat="50.34675" lon="3.26228">
        <ele>80.246704</ele>
        <time>2023-10-29T08:16:13Z</time>
      </trkpt>
      <trkpt lat="50.34674" lon="3.26227">
        <ele>80.58484</ele>
        <time>2023-10-29T08:16:14Z</time>
      </trkpt>
      <trkpt lat="50.34673" lon="3.26226">
        <ele>80.25647</ele>
        <time>2023-10-29T08:16:15Z</time>
      </trkpt>
      <trkpt lat="50.34672" lon="3.26225">
        <ele>80.074646</ele>
        <time>2023-10-29T08:16:16Z</time>
      </trkpt>
      <trkpt lat="50.34671" lon="3.26224">
        <ele>79.88464</ele>
        <time>2023-10-29T08:16:17Z</time>
      </trkpt>
      <trkpt lat="50.3467" lon="3.26223">
        <ele>79.779724</ele>
        <time>2023-10-29T08:16:18Z</time>
      </trkpt>
      <trkpt lat="50.34668" lon="3.26222">
        <ele>79.846436</ele>
        <time>2023-10-29T08:16:19Z</time>
      </trkpt>
      <trkpt lat="50.34667" lon="3.26221">
        <ele>79.78961</ele>
        <time>2023-10-29T08:16:20Z</time>
      </trkpt>
      <trkpt lat="50.34666" lon="3.2622">
        <ele>80.124695</ele>
        <time>2023-10-29T08:16:21Z</time>
      </trkpt>
      <trkpt lat="50.34665" lon="3.26219">
        <ele>80.103516</ele>
        <time>2023-10-29T08:16:22Z</time>
      </trkpt>
      <trkpt lat="50.34664" lon="3.26218">
        <ele>79.29675</ele>
        <time>2023-10-29T08:16:23Z</time>
      </trkpt>
      <trkpt lat="50.34663" lon="3.26217">
        <ele>79.448</ele>
        <time>2023-10-29T08:16:24Z</time>
      </trkpt>
      <trkpt lat="50.34661" lon="3.26216">
        <ele>78.8584</ele>
        <time>2023-10-29T08:16:25Z</time>
      </trkpt>
      <trkpt lat="50.3466" lon="3.26215">
        <ele>79.05823</ele>
        <time>2023-10-29T08:16:26Z</time>
      </trkpt>
      <trkpt lat="50.34659" lon="3.26213">
        <ele>79.035645</ele>
        <time>2023-10-29T08:16:27Z</time>
      </trkpt>
      <trkpt lat="50.34658" lon="3.26212">
        <ele>79.09021</ele>
        <time>2023-10-29T08:16:28Z</time>
      </trkpt>
      <trkpt lat="50.34657" lon="3.26212">
        <ele>79.252075</ele>
        <time>2023-10-29T08:16:29Z</time>
      </trkpt>
      <trkpt lat="50.34656" lon="3.26211">
        <ele>79.90222</ele>
        <time>2023-10-29T08:16:30Z</time>
      </trkpt>
      <trkpt lat="50.34655" lon="3.2621">
        <ele>80.161865</ele>
        <time>2023-10-29T08:16:31Z</time>
      </trkpt>
      <trkpt lat="50.34654" lon="3.26209">
        <ele>80.45239</ele>
        <time>2023-10-29T08:16:32Z</time>
      </trkpt>
      <trkpt lat="50.34653" lon="3.26207">
        <ele>80.58728</ele>
        <time>2023-10-29T08:16:33Z</time>
      </trkpt>
      <trkpt lat="50.34652" lon="3.26206">
        <ele>80.2077</ele>
        <time>2023-10-29T08:16:34Z</time>
      </trkpt>
      <trkpt lat="50.34651" lon="3.26205">
        <ele>80.605286</ele>
        <time>2023-10-29T08:16:35Z</time>
      </trkpt>
      <trkpt lat="50.3465" lon="3.26205">
        <ele>80.835815</ele>
        <time>2023-10-29T08:16:36Z</time>
      </trkpt>
      <trkpt lat="50.34649" lon="3.26204">
        <ele>80.828674</ele>
        <time>2023-10-29T08:16:37Z</time>
      </trkpt>
      <trkpt lat="50.34647" lon="3.26203">
        <ele>80.40729</ele>
        <time>2023-10-29T08:16:38Z</time>
      </trkpt>
      <trkpt lat="50.34646" lon="3.26202">
        <ele>80.51257</ele>
        <time>2023-10-29T08:16:39Z</time>
      </trkpt>
      <trkpt lat="50.34645" lon="3.26201">
        <ele>79.74274</ele>
        <time>2023-10-29T08:16:40Z</time>
      </trkpt>
      <trkpt lat="50.34644" lon="3.262">
        <ele>80.5365</ele>
        <time>2023-10-29T08:16:41Z</time>
      </trkpt>
      <trkpt lat="50.34643" lon="3.26198">
        <ele>80.876465</ele>
        <time>2023-10-29T08:16:42Z</time>
      </trkpt>
      <trkpt lat="50.34642" lon="3.26197">
        <ele>81.33063</ele>
        <time>2023-10-29T08:16:43Z</time>
      </trkpt>
      <trkpt lat="50.34641" lon="3.26196">
        <ele>81.68768</ele>
        <time>2023-10-29T08:16:44Z</time>
      </trkpt>
      <trkpt lat="50.34639" lon="3.26196">
        <ele>80.95288</ele>
        <time>2023-10-29T08:16:45Z</time>
      </trkpt>
      <trkpt lat="50.34638" lon="3.26195">
        <ele>80.93048</ele>
        <time>2023-10-29T08:16:46Z</time>
      </trkpt>
      <trkpt lat="50.34637" lon="3.26194">
        <ele>81.58478</ele>
        <time>2023-10-29T08:16:47Z</time>
      </trkpt>
      <trkpt lat="50.34636" lon="3.26193">
        <ele>81.582886</ele>
        <time>2023-10-29T08:16:48Z</time>
      </trkpt>
      <trkpt lat="50.34635" lon="3.26192">
        <ele>81.96765</ele>
        <time>2023-10-29T08:16:49Z</time>
      </trkpt>
      <trkpt lat="50.34634" lon="3.26191">
        <ele>81.54828</ele>
        <time>2023-10-29T08:16:50Z</time>
      </trkpt>
      <trkpt lat="50.34633" lon="3.2619">
        <ele>81.599915</ele>
        <time>2023-10-29T08:16:51Z</time>
      </trkpt>
      <trkpt lat="50.34631" lon="3.26189">
        <ele>81.5188</ele>
        <time>2023-10-29T08:16:52Z</time>
      </trkpt>
      <trkpt lat="50.34631" lon="3.26188">
        <ele>81.71649</ele>
        <time>2023-10-29T08:16:53Z</time>
      </trkpt>
      <trkpt lat="50.34629" lon="3.26187">
        <ele>81.65057</ele>
        <time>2023-10-29T08:16:54Z</time>
      </trkpt>
      <trkpt lat="50.34628" lon="3.26186">
        <ele>81.979675</ele>
        <time>2023-10-29T08:16:55Z</time>
      </trkpt>
      <trkpt lat="50.34627" lon="3.26185">
        <ele>81.7193</ele>
        <time>2023-10-29T08:16:56Z</time>
      </trkpt>
      <trkpt lat="50.34626" lon="3.26184">
        <ele>81.42236</ele>
        <time>2023-10-29T08:16:57Z</time>
      </trkpt>
      <trkpt lat="50.34625" lon="3.26183">
        <ele>80.956726</ele>
        <time>2023-10-29T08:16:58Z</time>
      </trkpt>
      <trkpt lat="50.34623" lon="3.26181">
        <ele>80.749695</ele>
        <time>2023-10-29T08:16:59Z</time>
      </trkpt>
      <trkpt lat="50.34622" lon="3.26181">
        <ele>80.533325</ele>
        <time>2023-10-29T08:17:00Z</time>
      </trkpt>
      <trkpt lat="50.34621" lon="3.2618">
        <ele>79.67578</ele>
        <time>2023-10-29T08:17:01Z</time>
      </trkpt>
      <trkpt lat="50.3462" lon="3.26179">
        <ele>78.77112</ele>
        <time>2023-10-29T08:17:02Z</time>
      </trkpt>
      <trkpt lat="50.34619" lon="3.26178">
        <ele>78.64728</ele>
        <time>2023-10-29T08:17:03Z</time>
      </trkpt>
      <trkpt lat="50.34617" lon="3.26177">
        <ele>78.06506</ele>
        <time>2023-10-29T08:17:04Z</time>
      </trkpt>
      <trkpt lat="50.34616" lon="3.26175">
        <ele>77.88733</ele>
        <time>2023-10-29T08:17:05Z</time>
      </trkpt>
      <trkpt lat="50.34615" lon="3.26174">
        <ele>77.441284</ele>
        <time>2023-10-29T08:17:06Z</time>
      </trkpt>
      <trkpt lat="50.34615" lon="3.26173">
        <ele>77.21466</ele>
        <time>2023-10-29T08:17:07Z</time>
      </trkpt>
      <trkpt lat="50.34613" lon="3.26172">
        <ele>77.38019</ele>
        <time>2023-10-29T08:17:08Z</time>
      </trkpt>
      <trkpt lat="50.34612" lon="3.26171">
        <ele>77.56665</ele>
        <time>2023-10-29T08:17:09Z</time>
      </trkpt>
      <trkpt lat="50.34611" lon="3.2617">
        <ele>78.52069</ele>
        <time>2023-10-29T08:17:10Z</time>
      </trkpt>
      <trkpt lat="50.3461" lon="3.26169">
        <ele>79.24585</ele>
        <time>2023-10-29T08:17:11Z</time>
      </trkpt>
      <trkpt lat="50.34609" lon="3.26168">
        <ele>79.65924</ele>
        <time>2023-10-29T08:17:12Z</time>
      </trkpt>
      <trkpt lat="50.34608" lon="3.26167">
        <ele>79.028076</ele>
        <time>2023-10-29T08:17:13Z</time>
      </trkpt>
      <trkpt lat="50.34607" lon="3.26166">
        <ele>79.460205</ele>
        <time>2023-10-29T08:17:14Z</time>
      </trkpt>
      <trkpt lat="50.34606" lon="3.26165">
        <ele>79.19458</ele>
        <time>2023-10-29T08:17:15Z</time>
      </trkpt>
      <trkpt lat="50.34605" lon="3.26164">
        <ele>79.32074</ele>
        <time>2023-10-29T08:17:16Z</time>
      </trkpt>
      <trkpt lat="50.34604" lon="3.26162">
        <ele>78.29846</ele>
        <time>2023-10-29T08:17:17Z</time>
      </trkpt>
      <trkpt lat="50.34603" lon="3.26161">
        <ele>78.38501</ele>
        <time>2023-10-29T08:17:18Z</time>
      </trkpt>
      <trkpt lat="50.34602" lon="3.2616">
        <ele>78.24609</ele>
        <time>2023-10-29T08:17:19Z</time>
      </trkpt>
      <trkpt lat="50.34601" lon="3.26159">
        <ele>77.875305</ele>
        <time>2023-10-29T08:17:20Z</time>
      </trkpt>
      <trkpt lat="50.346" lon="3.26158">
        <ele>77.84039</ele>
        <time>2023-10-29T08:17:21Z</time>
      </trkpt>
      <trkpt lat="50.34598" lon="3.26155">
        <ele>78.01398</ele>
        <time>2023-10-29T08:17:23Z</time>
      </trkpt>
      <trkpt lat="50.34597" lon="3.26155">
        <ele>78.467285</ele>
        <time>2023-10-29T08:17:24Z</time>
      </trkpt>
      <trkpt lat="50.34596" lon="3.26154">
        <ele>78.06152</ele>
        <time>2023-10-29T08:17:25Z</time>
      </trkpt>
      <trkpt lat="50.34595" lon="3.26153">
        <ele>77.88818</ele>
        <time>2023-10-29T08:17:26Z</time>
      </trkpt>
      <trkpt lat="50.34594" lon="3.26152">
        <ele>78.147156</ele>
        <time>2023-10-29T08:17:27Z</time>
      </trkpt>
      <trkpt lat="50.34592" lon="3.26151">
        <ele>78.173645</ele>
        <time>2023-10-29T08:17:28Z</time>
      </trkpt>
      <trkpt lat="50.34591" lon="3.2615">
        <ele>78.05438</ele>
        <time>2023-10-29T08:17:29Z</time>
      </trkpt>
      <trkpt lat="50.34589" lon="3.26149">
        <ele>78.24451</ele>
        <time>2023-10-29T08:17:30Z</time>
      </trkpt>
      <trkpt lat="50.34588" lon="3.26148">
        <ele>78.401184</ele>
        <time>2023-10-29T08:17:31Z</time>
      </trkpt>
      <trkpt lat="50.34587" lon="3.26147">
        <ele>78.33954</ele>
        <time>2023-10-29T08:17:32Z</time>
      </trkpt>
      <trkpt lat="50.34586" lon="3.26146">
        <ele>78.15228</ele>
        <time>2023-10-29T08:17:33Z</time>
      </trkpt>
      <trkpt lat="50.34585" lon="3.26145">
        <ele>78.0141</ele>
        <time>2023-10-29T08:17:34Z</time>
      </trkpt>
      <trkpt lat="50.34584" lon="3.26145">
        <ele>78.6543</ele>
        <time>2023-10-29T08:17:35Z</time>
      </trkpt>
      <trkpt lat="50.34583" lon="3.26144">
        <ele>78.78369</ele>
        <time>2023-10-29T08:17:36Z</time>
      </trkpt>
      <trkpt lat="50.34581" lon="3.26143">
        <ele>79.22797</ele>
        <time>2023-10-29T08:17:37Z</time>
      </trkpt>
      <trkpt lat="50.3458" lon="3.26143">
        <ele>79.37695</ele>
        <time>2023-10-29T08:17:38Z</time>
      </trkpt>
      <trkpt lat="50.34579" lon="3.26142">
        <ele>79.606445</ele>
        <time>2023-10-29T08:17:39Z</time>
      </trkpt>
      <trkpt lat="50.34578" lon="3.26141">
        <ele>80.05975</ele>
        <time>2023-10-29T08:17:40Z</time>
      </trkpt>
      <trkpt lat="50.34577" lon="3.2614">
        <ele>79.93359</ele>
        <time>2023-10-29T08:17:41Z</time>
      </trkpt>
      <trkpt lat="50.34576" lon="3.26139">
        <ele>79.55762</ele>
        <time>2023-10-29T08:17:42Z</time>
      </trkpt>
      <trkpt lat="50.34575" lon="3.26138">
        <ele>79.30249</ele>
        <time>2023-10-29T08:17:43Z</time>
      </trkpt>
      <trkpt lat="50.34574" lon="3.26137">
        <ele>79.18945</ele>
        <time>2023-10-29T08:17:44Z</time>
      </trkpt>
      <trkpt lat="50.34573" lon="3.26136">
        <ele>78.83905</ele>
        <time>2023-10-29T08:17:45Z</time>
      </trkpt>
      <trkpt lat="50.34572" lon="3.26136">
        <ele>78.770386</ele>
        <time>2023-10-29T08:17:46Z</time>
      </trkpt>
      <trkpt lat="50.34571" lon="3.26135">
        <ele>79.10333</ele>
        <time>2023-10-29T08:17:47Z</time>
      </trkpt>
      <trkpt lat="50.3457" lon="3.26133">
        <ele>79.21997</ele>
        <time>2023-10-29T08:17:48Z</time>
      </trkpt>
      <trkpt lat="50.34569" lon="3.26132">
        <ele>79.225525</ele>
        <time>2023-10-29T08:17:49Z</time>
      </trkpt>
      <trkpt lat="50.34568" lon="3.26131">
        <ele>79.37012</ele>
        <time>2023-10-29T08:17:50Z</time>
      </trkpt>
      <trkpt lat="50.34567" lon="3.26129">
        <ele>79.69525</ele>
        <time>2023-10-29T08:17:51Z</time>
      </trkpt>
      <trkpt lat="50.34566" lon="3.26128">
        <ele>79.585266</ele>
        <time>2023-10-29T08:17:52Z</time>
      </trkpt>
      <trkpt lat="50.34565" lon="3.26127">
        <ele>79.603516</ele>
        <time>2023-10-29T08:17:53Z</time>
      </trkpt>
      <trkpt lat="50.34564" lon="3.26126">
        <ele>79.39575</ele>
        <time>2023-10-29T08:17:54Z</time>
      </trkpt>
      <trkpt lat="50.34563" lon="3.26125">
        <ele>79.52954</ele>
        <time>2023-10-29T08:17:55Z</time>
      </trkpt>
      <trkpt lat="50.34562" lon="3.26123">
        <ele>79.784546</ele>
        <time>2023-10-29T08:17:56Z</time>
      </trkpt>
      <trkpt lat="50.34561" lon="3.26122">
        <ele>80.18353</ele>
        <time>2023-10-29T08:17:57Z</time>
      </trkpt>
      <trkpt lat="50.3456" lon="3.2612">
        <ele>80.42993</ele>
        <time>2023-10-29T08:17:58Z</time>
      </trkpt>
      <trkpt lat="50.34559" lon="3.26119">
        <ele>80.70972</ele>
        <time>2023-10-29T08:17:59Z</time>
      </trkpt>
      <trkpt lat="50.34559" lon="3.26117">
        <ele>80.40234</ele>
        <time>2023-10-29T08:18:00Z</time>
      </trkpt>
      <trkpt lat="50.34557" lon="3.26116">
        <ele>79.99884</ele>
        <time>2023-10-29T08:18:01Z</time>
      </trkpt>
      <trkpt lat="50.34557" lon="3.26114">
        <ele>79.86377</ele>
        <time>2023-10-29T08:18:02Z</time>
      </trkpt>
      <trkpt lat="50.34555" lon="3.26113">
        <ele>80.30316</ele>
        <time>2023-10-29T08:18:03Z</time>
      </trkpt>
      <trkpt lat="50.34555" lon="3.26112">
        <ele>80.62598</ele>
        <time>2023-10-29T08:18:04Z</time>
      </trkpt>
      <trkpt lat="50.34554" lon="3.26111">
        <ele>80.920715</ele>
        <time>2023-10-29T08:18:05Z</time>
      </trkpt>
      <trkpt lat="50.34553" lon="3.26109">
        <ele>81.288574</ele>
        <time>2023-10-29T08:18:06Z</time>
      </trkpt>
      <trkpt lat="50.34552" lon="3.26107">
        <ele>81.48584</ele>
        <time>2023-10-29T08:18:07Z</time>
      </trkpt>
      <trkpt lat="50.34551" lon="3.26106">
        <ele>81.38928</ele>
        <time>2023-10-29T08:18:08Z</time>
      </trkpt>
      <trkpt lat="50.3455" lon="3.26105">
        <ele>81.39923</ele>
        <time>2023-10-29T08:18:09Z</time>
      </trkpt>
      <trkpt lat="50.34549" lon="3.26104">
        <ele>81.80029</ele>
        <time>2023-10-29T08:18:10Z</time>
      </trkpt>
      <trkpt lat="50.34548" lon="3.26103">
        <ele>81.85297</ele>
        <time>2023-10-29T08:18:11Z</time>
      </trkpt>
      <trkpt lat="50.34547" lon="3.26101">
        <ele>81.50043</ele>
        <time>2023-10-29T08:18:12Z</time>
      </trkpt>
      <trkpt lat="50.34546" lon="3.261">
        <ele>81.55481</ele>
        <time>2023-10-29T08:18:13Z</time>
      </trkpt>
      <trkpt lat="50.34546" lon="3.26098">
        <ele>81.33441</ele>
        <time>2023-10-29T08:18:14Z</time>
      </trkpt>
      <trkpt lat="50.34545" lon="3.26097">
        <ele>81.13953</ele>
        <time>2023-10-29T08:18:15Z</time>
      </trkpt>
      <trkpt lat="50.34544" lon="3.26095">
        <ele>80.92267</ele>
        <time>2023-10-29T08:18:16Z</time>
      </trkpt>
      <trkpt lat="50.34544" lon="3.26093">
        <ele>80.923096</ele>
        <time>2023-10-29T08:18:17Z</time>
      </trkpt>
      <trkpt lat="50.34543" lon="3.26092">
        <ele>81.34076</ele>
        <time>2023-10-29T08:18:18Z</time>
      </trkpt>
      <trkpt lat="50.34542" lon="3.26091">
        <ele>81.494385</ele>
        <time>2023-10-29T08:18:19Z</time>
      </trkpt>
      <trkpt lat="50.34541" lon="3.26089">
        <ele>81.75415</ele>
        <time>2023-10-29T08:18:20Z</time>
      </trkpt>
      <trkpt lat="50.34541" lon="3.26087">
        <ele>81.42517</ele>
        <time>2023-10-29T08:18:21Z</time>
      </trkpt>
      <trkpt lat="50.3454" lon="3.26085">
        <ele>81.48346</ele>
        <time>2023-10-29T08:18:22Z</time>
      </trkpt>
      <trkpt lat="50.34539" lon="3.26083">
        <ele>82.07306</ele>
        <time>2023-10-29T08:18:23Z</time>
      </trkpt>
      <trkpt lat="50.34539" lon="3.26081">
        <ele>81.74066</ele>
        <time>2023-10-29T08:18:24Z</time>
      </trkpt>
      <trkpt lat="50.34538" lon="3.26079">
        <ele>82.25195</ele>
        <time>2023-10-29T08:18:25Z</time>
      </trkpt>
      <trkpt lat="50.34537" lon="3.26078">
        <ele>81.89087</ele>
        <time>2023-10-29T08:18:26Z</time>
      </trkpt>
      <trkpt lat="50.34536" lon="3.26076">
        <ele>81.55121</ele>
        <time>2023-10-29T08:18:27Z</time>
      </trkpt>
      <trkpt lat="50.34536" lon="3.26074">
        <ele>81.8772</ele>
        <time>2023-10-29T08:18:28Z</time>
      </trkpt>
      <trkpt lat="50.34535" lon="3.26073">
        <ele>81.02594</ele>
        <time>2023-10-29T08:18:29Z</time>
      </trkpt>
      <trkpt lat="50.34535" lon="3.26071">
        <ele>80.79706</ele>
        <time>2023-10-29T08:18:30Z</time>
      </trkpt>
      <trkpt lat="50.34535" lon="3.26069">
        <ele>81.00879</ele>
        <time>2023-10-29T08:18:31Z</time>
      </trkpt>
      <trkpt lat="50.34534" lon="3.26067">
        <ele>80.54047</ele>
        <time>2023-10-29T08:18:32Z</time>
      </trkpt>
      <trkpt lat="50.34533" lon="3.26065">
        <ele>81.19989</ele>
        <time>2023-10-29T08:18:33Z</time>
      </trkpt>
      <trkpt lat="50.34532" lon="3.26064">
        <ele>81.414</ele>
        <time>2023-10-29T08:18:34Z</time>
      </trkpt>
      <trkpt lat="50.34531" lon="3.26062">
        <ele>81.06842</ele>
        <time>2023-10-29T08:18:35Z</time>
      </trkpt>
      <trkpt lat="50.3453" lon="3.26061">
        <ele>81.1322</ele>
        <time>2023-10-29T08:18:36Z</time>
      </trkpt>
      <trkpt lat="50.3453" lon="3.26059">
        <ele>81.736694</ele>
        <time>2023-10-29T08:18:37Z</time>
      </trkpt>
      <trkpt lat="50.34528" lon="3.26057">
        <ele>82.47528</ele>
        <time>2023-10-29T08:18:38Z</time>
      </trkpt>
      <trkpt lat="50.34528" lon="3.26057">
        <ele>82.622986</ele>
        <time>2023-10-29T08:18:39Z</time>
      </trkpt>
      <trkpt lat="50.34527" lon="3.26057">
        <ele>82.699036</ele>
        <time>2023-10-29T08:18:40Z</time>
      </trkpt>
      <trkpt lat="50.34527" lon="3.26057">
        <ele>82.67505</ele>
        <time>2023-10-29T08:18:41Z</time>
      </trkpt>
      <trkpt lat="50.34527" lon="3.26057">
        <ele>82.675476</ele>
        <time>2023-10-29T08:18:42Z</time>
      </trkpt>
      <trkpt lat="50.34527" lon="3.26057">
        <ele>82.67413</ele>
        <time>2023-10-29T08:18:43Z</time>
      </trkpt>
      <trkpt lat="50.34527" lon="3.26057">
        <ele>82.2785</ele>
        <time>2023-10-29T08:18:44Z</time>
      </trkpt>
      <trkpt lat="50.34527" lon="3.26057">
        <ele>82.13678</ele>
        <time>2023-10-29T08:18:45Z</time>
      </trkpt>
      <trkpt lat="50.34527" lon="3.26057">
        <ele>82.191345</ele>
        <time>2023-10-29T08:18:46Z</time>
      </trkpt>
      <trkpt lat="50.34527" lon="3.26057">
        <ele>82.19141</ele>
        <time>2023-10-29T08:18:47Z</time>
      </trkpt>
      <trkpt lat="50.34527" lon="3.26057">
        <ele>82.19165</ele>
        <time>2023-10-29T08:18:48Z</time>
      </trkpt>
      <trkpt lat="50.34527" lon="3.26058">
        <ele>82.19745</ele>
        <time>2023-10-29T08:18:49Z</time>
      </trkpt>
      <trkpt lat="50.34527" lon="3.26058">
        <ele>82.46161</ele>
        <time>2023-10-29T08:18:50Z</time>
      </trkpt>
      <trkpt lat="50.34527" lon="3.26058">
        <ele>81.986084</ele>
        <time>2023-10-29T08:18:51Z</time>
      </trkpt>
      <trkpt lat="50.34527" lon="3.26058">
        <ele>81.94043</ele>
        <time>2023-10-29T08:18:52Z</time>
      </trkpt>
      <trkpt lat="50.34527" lon="3.26058">
        <ele>81.93805</ele>
        <time>2023-10-29T08:18:53Z</time>
      </trkpt>
      <trkpt lat="50.34527" lon="3.26058">
        <ele>81.932434</ele>
        <time>2023-10-29T08:18:54Z</time>
      </trkpt>
      <trkpt lat="50.34527" lon="3.26058">
        <ele>81.93054</ele>
        <time>2023-10-29T08:18:55Z</time>
      </trkpt>
      <trkpt lat="50.34527" lon="3.26058">
        <ele>81.92676</ele>
        <time>2023-10-29T08:18:56Z</time>
      </trkpt>
      <trkpt lat="50.34527" lon="3.26058">
        <ele>81.92993</ele>
        <time>2023-10-29T08:18:57Z</time>
      </trkpt>
      <trkpt lat="50.34527" lon="3.26058">
        <ele>81.927246</ele>
        <time>2023-10-29T08:18:58Z</time>
      </trkpt>
      <trkpt lat="50.34527" lon="3.26058">
        <ele>81.925476</ele>
        <time>2023-10-29T08:18:59Z</time>
      </trkpt>
      <trkpt lat="50.34527" lon="3.26058">
        <ele>81.92413</ele>
        <time>2023-10-29T08:19:00Z</time>
      </trkpt>
      <trkpt lat="50.34527" lon="3.26058">
        <ele>81.70972</ele>
        <time>2023-10-29T08:19:01Z</time>
      </trkpt>
      <trkpt lat="50.34527" lon="3.26056">
        <ele>81.51727</ele>
        <time>2023-10-29T08:19:02Z</time>
      </trkpt>
      <trkpt lat="50.34527" lon="3.26055">
        <ele>81.13922</ele>
        <time>2023-10-29T08:19:03Z</time>
      </trkpt>
      <trkpt lat="50.34526" lon="3.26054">
        <ele>81.28223</ele>
        <time>2023-10-29T08:19:04Z</time>
      </trkpt>
      <trkpt lat="50.34526" lon="3.26054">
        <ele>81.71985</ele>
        <time>2023-10-29T08:19:05Z</time>
      </trkpt>
      <trkpt lat="50.34526" lon="3.26055">
        <ele>82.476074</ele>
        <time>2023-10-29T08:19:06Z</time>
      </trkpt>
      <trkpt lat="50.34525" lon="3.26055">
        <ele>82.80377</ele>
        <time>2023-10-29T08:19:07Z</time>
      </trkpt>
      <trkpt lat="50.34525" lon="3.26055">
        <ele>82.75354</ele>
        <time>2023-10-29T08:19:08Z</time>
      </trkpt>
      <trkpt lat="50.34525" lon="3.26055">
        <ele>82.75641</ele>
        <time>2023-10-29T08:19:09Z</time>
      </trkpt>
      <trkpt lat="50.34525" lon="3.26055">
        <ele>82.69873</ele>
        <time>2023-10-29T08:19:10Z</time>
      </trkpt>
      <trkpt lat="50.34525" lon="3.26055">
        <ele>82.41522</ele>
        <time>2023-10-29T08:19:11Z</time>
      </trkpt>
      <trkpt lat="50.34524" lon="3.26054">
        <ele>82.47937</ele>
        <time>2023-10-29T08:19:12Z</time>
      </trkpt>
      <trkpt lat="50.34523" lon="3.26052">
        <ele>82.487366</ele>
        <time>2023-10-29T08:19:13Z</time>
      </trkpt>
      <trkpt lat="50.34522" lon="3.2605">
        <ele>82.2345</ele>
        <time>2023-10-29T08:19:14Z</time>
      </trkpt>
      <trkpt lat="50.3452" lon="3.26049">
        <ele>82.92865</ele>
        <time>2023-10-29T08:19:15Z</time>
      </trkpt>
      <trkpt lat="50.3452" lon="3.26048">
        <ele>83.17346</ele>
        <time>2023-10-29T08:19:16Z</time>
      </trkpt>
      <trkpt lat="50.34518" lon="3.26046">
        <ele>83.55994</ele>
        <time>2023-10-29T08:19:17Z</time>
      </trkpt>
      <trkpt lat="50.34518" lon="3.26045">
        <ele>82.95471</ele>
        <time>2023-10-29T08:19:18Z</time>
      </trkpt>
      <trkpt lat="50.34517" lon="3.26044">
        <ele>83.289</ele>
        <time>2023-10-29T08:19:19Z</time>
      </trkpt>
      <trkpt lat="50.34516" lon="3.26043">
        <ele>82.27405</ele>
        <time>2023-10-29T08:19:20Z</time>
      </trkpt>
      <trkpt lat="50.34515" lon="3.26043">
        <ele>81.8764</ele>
        <time>2023-10-29T08:19:21Z</time>
      </trkpt>
      <trkpt lat="50.34514" lon="3.26043">
        <ele>82.597046</ele>
        <time>2023-10-29T08:19:22Z</time>
      </trkpt>
      <trkpt lat="50.34513" lon="3.26042">
        <ele>83.36224</ele>
        <time>2023-10-29T08:19:23Z</time>
      </trkpt>
      <trkpt lat="50.34513" lon="3.2604">
        <ele>83.81</ele>
        <time>2023-10-29T08:19:24Z</time>
      </trkpt>
      <trkpt lat="50.34512" lon="3.26038">
        <ele>83.37463</ele>
        <time>2023-10-29T08:19:25Z</time>
      </trkpt>
      <trkpt lat="50.34511" lon="3.26036">
        <ele>82.4436</ele>
        <time>2023-10-29T08:19:26Z</time>
      </trkpt>
      <trkpt lat="50.3451" lon="3.26034">
        <ele>81.89966</ele>
        <time>2023-10-29T08:19:27Z</time>
      </trkpt>
      <trkpt lat="50.3451" lon="3.26032">
        <ele>82.4707</ele>
        <time>2023-10-29T08:19:28Z</time>
      </trkpt>
      <trkpt lat="50.34509" lon="3.26031">
        <ele>82.89465</ele>
        <time>2023-10-29T08:19:29Z</time>
      </trkpt>
      <trkpt lat="50.34508" lon="3.2603">
        <ele>82.195984</ele>
        <time>2023-10-29T08:19:30Z</time>
      </trkpt>
      <trkpt lat="50.34507" lon="3.26029">
        <ele>82.05261</ele>
        <time>2023-10-29T08:19:31Z</time>
      </trkpt>
      <trkpt lat="50.34507" lon="3.26028">
        <ele>81.87207</ele>
        <time>2023-10-29T08:19:32Z</time>
      </trkpt>
      <trkpt lat="50.34506" lon="3.26026">
        <ele>81.567505</ele>
        <time>2023-10-29T08:19:33Z</time>
      </trkpt>
      <trkpt lat="50.34506" lon="3.26024">
        <ele>81.68384</ele>
        <time>2023-10-29T08:19:34Z</time>
      </trkpt>
      <trkpt lat="50.34505" lon="3.26023">
        <ele>81.875854</ele>
        <time>2023-10-29T08:19:35Z</time>
      </trkpt>
      <trkpt lat="50.34505" lon="3.26021">
        <ele>82.23303</ele>
        <time>2023-10-29T08:19:36Z</time>
      </trkpt>
      <trkpt lat="50.34504" lon="3.26019">
        <ele>81.52734</ele>
        <time>2023-10-29T08:19:37Z</time>
      </trkpt>
      <trkpt lat="50.34504" lon="3.26017">
        <ele>81.75366</ele>
        <time>2023-10-29T08:19:38Z</time>
      </trkpt>
      <trkpt lat="50.34503" lon="3.26016">
        <ele>81.53754</ele>
        <time>2023-10-29T08:19:39Z</time>
      </trkpt>
      <trkpt lat="50.34502" lon="3.26014">
        <ele>81.31824</ele>
        <time>2023-10-29T08:19:40Z</time>
      </trkpt>
      <trkpt lat="50.34501" lon="3.26013">
        <ele>81.54175</ele>
        <time>2023-10-29T08:19:41Z</time>
      </trkpt>
      <trkpt lat="50.34502" lon="3.26014">
        <ele>79.371704</ele>
        <time>2023-10-29T08:19:42Z</time>
      </trkpt>
      <trkpt lat="50.34503" lon="3.26015">
        <ele>79.3678</ele>
        <time>2023-10-29T08:19:43Z</time>
      </trkpt>
      <trkpt lat="50.34503" lon="3.26015">
        <ele>79.37085</ele>
        <time>2023-10-29T08:19:44Z</time>
      </trkpt>
      <trkpt lat="50.34503" lon="3.26015">
        <ele>79.37274</ele>
        <time>2023-10-29T08:19:45Z</time>
      </trkpt>
      <trkpt lat="50.34503" lon="3.26015">
        <ele>79.37225</ele>
        <time>2023-10-29T08:19:46Z</time>
      </trkpt>
      <trkpt lat="50.34503" lon="3.26015">
        <ele>79.37518</ele>
        <time>2023-10-29T08:19:47Z</time>
      </trkpt>
      <trkpt lat="50.34503" lon="3.26015">
        <ele>79.37659</ele>
        <time>2023-10-29T08:19:48Z</time>
      </trkpt>
      <trkpt lat="50.34503" lon="3.26015">
        <ele>79.37915</ele>
        <time>2023-10-29T08:19:49Z</time>
      </trkpt>
      <trkpt lat="50.34503" lon="3.26015">
        <ele>79.43622</ele>
        <time>2023-10-29T08:19:50Z</time>
      </trkpt>
      <trkpt lat="50.34502" lon="3.26013">
        <ele>79.855225</ele>
        <time>2023-10-29T08:19:51Z</time>
      </trkpt>
      <trkpt lat="50.34501" lon="3.26012">
        <ele>79.677246</ele>
        <time>2023-10-29T08:19:52Z</time>
      </trkpt>
      <trkpt lat="50.345" lon="3.26011">
        <ele>80.22003</ele>
        <time>2023-10-29T08:19:53Z</time>
      </trkpt>
      <trkpt lat="50.34499" lon="3.2601">
        <ele>80.22626</ele>
        <time>2023-10-29T08:19:54Z</time>
      </trkpt>
      <trkpt lat="50.34498" lon="3.26008">
        <ele>79.54248</ele>
        <time>2023-10-29T08:19:55Z</time>
      </trkpt>
      <trkpt lat="50.34497" lon="3.26007">
        <ele>79.50836</ele>
        <time>2023-10-29T08:19:56Z</time>
      </trkpt>
      <trkpt lat="50.34496" lon="3.26005">
        <ele>79.67053</ele>
        <time>2023-10-29T08:19:57Z</time>
      </trkpt>
      <trkpt lat="50.34496" lon="3.26004">
        <ele>77.93292</ele>
        <time>2023-10-29T08:19:58Z</time>
      </trkpt>
      <trkpt lat="50.34495" lon="3.26002">
        <ele>78.18622</ele>
        <time>2023-10-29T08:19:59Z</time>
      </trkpt>
      <trkpt lat="50.34494" lon="3.26">
        <ele>78.44513</ele>
        <time>2023-10-29T08:20:00Z</time>
      </trkpt>
      <trkpt lat="50.34494" lon="3.25998">
        <ele>77.91138</ele>
        <time>2023-10-29T08:20:01Z</time>
      </trkpt>
      <trkpt lat="50.34493" lon="3.25997">
        <ele>78.3139</ele>
        <time>2023-10-29T08:20:02Z</time>
      </trkpt>
      <trkpt lat="50.34491" lon="3.25995">
        <ele>78.71857</ele>
        <time>2023-10-29T08:20:03Z</time>
      </trkpt>
      <trkpt lat="50.34491" lon="3.25993">
        <ele>78.86444</ele>
        <time>2023-10-29T08:20:04Z</time>
      </trkpt>
      <trkpt lat="50.34489" lon="3.25992">
        <ele>79.00922</ele>
        <time>2023-10-29T08:20:05Z</time>
      </trkpt>
      <trkpt lat="50.34489" lon="3.25991">
        <ele>79.09613</ele>
        <time>2023-10-29T08:20:06Z</time>
      </trkpt>
      <trkpt lat="50.34487" lon="3.25989">
        <ele>79.02893</ele>
        <time>2023-10-29T08:20:07Z</time>
      </trkpt>
      <trkpt lat="50.34486" lon="3.25988">
        <ele>79.03198</ele>
        <time>2023-10-29T08:20:08Z</time>
      </trkpt>
      <trkpt lat="50.34485" lon="3.25986">
        <ele>78.872314</ele>
        <time>2023-10-29T08:20:09Z</time>
      </trkpt>
      <trkpt lat="50.34484" lon="3.25984">
        <ele>78.73462</ele>
        <time>2023-10-29T08:20:10Z</time>
      </trkpt>
      <trkpt lat="50.34483" lon="3.25983">
        <ele>78.08124</ele>
        <time>2023-10-29T08:20:11Z</time>
      </trkpt>
      <trkpt lat="50.34482" lon="3.25981">
        <ele>78.45465</ele>
        <time>2023-10-29T08:20:12Z</time>
      </trkpt>
      <trkpt lat="50.34481" lon="3.25979">
        <ele>78.427124</ele>
        <time>2023-10-29T08:20:13Z</time>
      </trkpt>
      <trkpt lat="50.34481" lon="3.25977">
        <ele>78.07849</ele>
        <time>2023-10-29T08:20:14Z</time>
      </trkpt>
      <trkpt lat="50.3448" lon="3.25976">
        <ele>78.27649</ele>
        <time>2023-10-29T08:20:15Z</time>
      </trkpt>
      <trkpt lat="50.34478" lon="3.25974">
        <ele>78.901245</ele>
        <time>2023-10-29T08:20:16Z</time>
      </trkpt>
      <trkpt lat="50.34477" lon="3.25973">
        <ele>79.53589</ele>
        <time>2023-10-29T08:20:17Z</time>
      </trkpt>
      <trkpt lat="50.34477" lon="3.25971">
        <ele>79.117065</ele>
        <time>2023-10-29T08:20:18Z</time>
      </trkpt>
      <trkpt lat="50.34476" lon="3.25969">
        <ele>79.12671</ele>
        <time>2023-10-29T08:20:19Z</time>
      </trkpt>
      <trkpt lat="50.34475" lon="3.25968">
        <ele>78.74359</ele>
        <time>2023-10-29T08:20:20Z</time>
      </trkpt>
      <trkpt lat="50.34474" lon="3.25966">
        <ele>78.76581</ele>
        <time>2023-10-29T08:20:21Z</time>
      </trkpt>
      <trkpt lat="50.34473" lon="3.25965">
        <ele>78.93317</ele>
        <time>2023-10-29T08:20:22Z</time>
      </trkpt>
      <trkpt lat="50.34472" lon="3.25963">
        <ele>79.33826</ele>
        <time>2023-10-29T08:20:23Z</time>
      </trkpt>
      <trkpt lat="50.34471" lon="3.25962">
        <ele>79.44275</ele>
        <time>2023-10-29T08:20:24Z</time>
      </trkpt>
      <trkpt lat="50.3447" lon="3.25961">
        <ele>79.28381</ele>
        <time>2023-10-29T08:20:25Z</time>
      </trkpt>
      <trkpt lat="50.34469" lon="3.25959">
        <ele>79.733765</ele>
        <time>2023-10-29T08:20:26Z</time>
      </trkpt>
      <trkpt lat="50.34469" lon="3.25958">
        <ele>79.472595</ele>
        <time>2023-10-29T08:20:27Z</time>
      </trkpt>
      <trkpt lat="50.34467" lon="3.25957">
        <ele>79.40552</ele>
        <time>2023-10-29T08:20:28Z</time>
      </trkpt>
      <trkpt lat="50.34467" lon="3.25955">
        <ele>79.635254</ele>
        <time>2023-10-29T08:20:29Z</time>
      </trkpt>
      <trkpt lat="50.34465" lon="3.25954">
        <ele>78.74304</ele>
        <time>2023-10-29T08:20:30Z</time>
      </trkpt>
      <trkpt lat="50.34465" lon="3.25952">
        <ele>79.29974</ele>
        <time>2023-10-29T08:20:31Z</time>
      </trkpt>
      <trkpt lat="50.34464" lon="3.2595">
        <ele>79.60455</ele>
        <time>2023-10-29T08:20:32Z</time>
      </trkpt>
      <trkpt lat="50.34463" lon="3.25948">
        <ele>79.244995</ele>
        <time>2023-10-29T08:20:33Z</time>
      </trkpt>
      <trkpt lat="50.34462" lon="3.25946">
        <ele>79.26245</ele>
        <time>2023-10-29T08:20:34Z</time>
      </trkpt>
      <trkpt lat="50.34461" lon="3.25944">
        <ele>79.565</ele>
        <time>2023-10-29T08:20:35Z</time>
      </trkpt>
      <trkpt lat="50.3446" lon="3.25943">
        <ele>80.06366</ele>
        <time>2023-10-29T08:20:36Z</time>
      </trkpt>
      <trkpt lat="50.34459" lon="3.25942">
        <ele>80.27515</ele>
        <time>2023-10-29T08:20:37Z</time>
      </trkpt>
      <trkpt lat="50.34458" lon="3.2594">
        <ele>80.44275</ele>
        <time>2023-10-29T08:20:38Z</time>
      </trkpt>
      <trkpt lat="50.34457" lon="3.25938">
        <ele>79.79895</ele>
        <time>2023-10-29T08:20:39Z</time>
      </trkpt>
      <trkpt lat="50.34456" lon="3.25936">
        <ele>78.7843</ele>
        <time>2023-10-29T08:20:40Z</time>
      </trkpt>
      <trkpt lat="50.34455" lon="3.25935">
        <ele>78.60553</ele>
        <time>2023-10-29T08:20:41Z</time>
      </trkpt>
      <trkpt lat="50.34454" lon="3.25933">
        <ele>78.63855</ele>
        <time>2023-10-29T08:20:42Z</time>
      </trkpt>
      <trkpt lat="50.34453" lon="3.25932">
        <ele>78.811646</ele>
        <time>2023-10-29T08:20:43Z</time>
      </trkpt>
      <trkpt lat="50.34452" lon="3.25931">
        <ele>79.236206</ele>
        <time>2023-10-29T08:20:44Z</time>
      </trkpt>
      <trkpt lat="50.34451" lon="3.25929">
        <ele>79.06665</ele>
        <time>2023-10-29T08:20:45Z</time>
      </trkpt>
      <trkpt lat="50.3445" lon="3.25928">
        <ele>78.74481</ele>
        <time>2023-10-29T08:20:46Z</time>
      </trkpt>
      <trkpt lat="50.34449" lon="3.25926">
        <ele>78.79584</ele>
        <time>2023-10-29T08:20:47Z</time>
      </trkpt>
      <trkpt lat="50.34449" lon="3.25925">
        <ele>78.63739</ele>
        <time>2023-10-29T08:20:48Z</time>
      </trkpt>
      <trkpt lat="50.34448" lon="3.25924">
        <ele>78.80188</ele>
        <time>2023-10-29T08:20:49Z</time>
      </trkpt>
      <trkpt lat="50.34446" lon="3.25922">
        <ele>79.04352</ele>
        <time>2023-10-29T08:20:50Z</time>
      </trkpt>
      <trkpt lat="50.34445" lon="3.25921">
        <ele>79.49347</ele>
        <time>2023-10-29T08:20:51Z</time>
      </trkpt>
      <trkpt lat="50.34444" lon="3.25919">
        <ele>79.513245</ele>
        <time>2023-10-29T08:20:52Z</time>
      </trkpt>
      <trkpt lat="50.34443" lon="3.25918">
        <ele>79.35382</ele>
        <time>2023-10-29T08:20:53Z</time>
      </trkpt>
      <trkpt lat="50.34442" lon="3.25916">
        <ele>79.16968</ele>
        <time>2023-10-29T08:20:54Z</time>
      </trkpt>
      <trkpt lat="50.34441" lon="3.25915">
        <ele>79.33832</ele>
        <time>2023-10-29T08:20:55Z</time>
      </trkpt>
      <trkpt lat="50.3444" lon="3.25914">
        <ele>79.873474</ele>
        <time>2023-10-29T08:20:56Z</time>
      </trkpt>
      <trkpt lat="50.34439" lon="3.25913">
        <ele>80.16919</ele>
        <time>2023-10-29T08:20:57Z</time>
      </trkpt>
      <trkpt lat="50.34438" lon="3.25911">
        <ele>79.98682</ele>
        <time>2023-10-29T08:20:58Z</time>
      </trkpt>
      <trkpt lat="50.34437" lon="3.2591">
        <ele>80.358215</ele>
        <time>2023-10-29T08:20:59Z</time>
      </trkpt>
      <trkpt lat="50.34436" lon="3.25909">
        <ele>80.35437</ele>
        <time>2023-10-29T08:21:00Z</time>
      </trkpt>
      <trkpt lat="50.34435" lon="3.25907">
        <ele>80.59784</ele>
        <time>2023-10-29T08:21:01Z</time>
      </trkpt>
      <trkpt lat="50.34434" lon="3.25906">
        <ele>80.62854</ele>
        <time>2023-10-29T08:21:02Z</time>
      </trkpt>
      <trkpt lat="50.34433" lon="3.25905">
        <ele>80.189575</ele>
        <time>2023-10-29T08:21:03Z</time>
      </trkpt>
      <trkpt lat="50.34432" lon="3.25904">
        <ele>80.42053</ele>
        <time>2023-10-29T08:21:04Z</time>
      </trkpt>
      <trkpt lat="50.34432" lon="3.25902">
        <ele>80.848694</ele>
        <time>2023-10-29T08:21:05Z</time>
      </trkpt>
      <trkpt lat="50.3443" lon="3.25901">
        <ele>81.197876</ele>
        <time>2023-10-29T08:21:06Z</time>
      </trkpt>
      <trkpt lat="50.34429" lon="3.259">
        <ele>81.774475</ele>
        <time>2023-10-29T08:21:07Z</time>
      </trkpt>
      <trkpt lat="50.34429" lon="3.25899">
        <ele>81.03967</ele>
        <time>2023-10-29T08:21:08Z</time>
      </trkpt>
      <trkpt lat="50.34428" lon="3.25898">
        <ele>80.75629</ele>
        <time>2023-10-29T08:21:09Z</time>
      </trkpt>
      <trkpt lat="50.34427" lon="3.25897">
        <ele>80.31006</ele>
        <time>2023-10-29T08:21:10Z</time>
      </trkpt>
      <trkpt lat="50.34426" lon="3.25896">
        <ele>80.32861</ele>
        <time>2023-10-29T08:21:11Z</time>
      </trkpt>
      <trkpt lat="50.34426" lon="3.25895">
        <ele>80.15289</ele>
        <time>2023-10-29T08:21:12Z</time>
      </trkpt>
      <trkpt lat="50.34425" lon="3.25894">
        <ele>80.01343</ele>
        <time>2023-10-29T08:21:13Z</time>
      </trkpt>
      <trkpt lat="50.34424" lon="3.25892">
        <ele>80.171875</ele>
        <time>2023-10-29T08:21:14Z</time>
      </trkpt>
      <trkpt lat="50.34423" lon="3.25891">
        <ele>80.05792</ele>
        <time>2023-10-29T08:21:15Z</time>
      </trkpt>
      <trkpt lat="50.34422" lon="3.2589">
        <ele>80.22522</ele>
        <time>2023-10-29T08:21:16Z</time>
      </trkpt>
      <trkpt lat="50.34421" lon="3.25889">
        <ele>80.23535</ele>
        <time>2023-10-29T08:21:17Z</time>
      </trkpt>
      <trkpt lat="50.3442" lon="3.25888">
        <ele>80.41699</ele>
        <time>2023-10-29T08:21:18Z</time>
      </trkpt>
      <trkpt lat="50.34419" lon="3.25887">
        <ele>80.82776</ele>
        <time>2023-10-29T08:21:19Z</time>
      </trkpt>
      <trkpt lat="50.34419" lon="3.25885">
        <ele>79.73114</ele>
        <time>2023-10-29T08:21:20Z</time>
      </trkpt>
      <trkpt lat="50.34418" lon="3.25884">
        <ele>79.65985</ele>
        <time>2023-10-29T08:21:21Z</time>
      </trkpt>
      <trkpt lat="50.34417" lon="3.25882">
        <ele>79.54962</ele>
        <time>2023-10-29T08:21:22Z</time>
      </trkpt>
      <trkpt lat="50.34417" lon="3.2588">
        <ele>79.89319</ele>
        <time>2023-10-29T08:21:23Z</time>
      </trkpt>
      <trkpt lat="50.34416" lon="3.25879">
        <ele>80.34125</ele>
        <time>2023-10-29T08:21:24Z</time>
      </trkpt>
      <trkpt lat="50.34415" lon="3.25877">
        <ele>80.72748</ele>
        <time>2023-10-29T08:21:25Z</time>
      </trkpt>
      <trkpt lat="50.34414" lon="3.25876">
        <ele>81.144775</ele>
        <time>2023-10-29T08:21:26Z</time>
      </trkpt>
      <trkpt lat="50.34414" lon="3.25874">
        <ele>80.470276</ele>
        <time>2023-10-29T08:21:27Z</time>
      </trkpt>
      <trkpt lat="50.34413" lon="3.25873">
        <ele>80.96503</ele>
        <time>2023-10-29T08:21:28Z</time>
      </trkpt>
      <trkpt lat="50.34412" lon="3.25871">
        <ele>81.032776</ele>
        <time>2023-10-29T08:21:29Z</time>
      </trkpt>
      <trkpt lat="50.34411" lon="3.25869">
        <ele>80.139404</ele>
        <time>2023-10-29T08:21:30Z</time>
      </trkpt>
      <trkpt lat="50.34411" lon="3.25867">
        <ele>80.50867</ele>
        <time>2023-10-29T08:21:31Z</time>
      </trkpt>
      <trkpt lat="50.3441" lon="3.25866">
        <ele>82.213745</ele>
        <time>2023-10-29T08:21:32Z</time>
      </trkpt>
      <trkpt lat="50.34409" lon="3.25864">
        <ele>81.321594</ele>
        <time>2023-10-29T08:21:33Z</time>
      </trkpt>
      <trkpt lat="50.34409" lon="3.25862">
        <ele>81.44318</ele>
        <time>2023-10-29T08:21:34Z</time>
      </trkpt>
      <trkpt lat="50.34409" lon="3.2586">
        <ele>81.5871</ele>
        <time>2023-10-29T08:21:35Z</time>
      </trkpt>
      <trkpt lat="50.34408" lon="3.25858">
        <ele>82.315796</ele>
        <time>2023-10-29T08:21:36Z</time>
      </trkpt>
      <trkpt lat="50.34408" lon="3.25856">
        <ele>82.85065</ele>
        <time>2023-10-29T08:21:37Z</time>
      </trkpt>
      <trkpt lat="50.34408" lon="3.25854">
        <ele>83.286194</ele>
        <time>2023-10-29T08:21:38Z</time>
      </trkpt>
      <trkpt lat="50.34408" lon="3.25852">
        <ele>83.58948</ele>
        <time>2023-10-29T08:21:39Z</time>
      </trkpt>
      <trkpt lat="50.34407" lon="3.2585">
        <ele>82.81769</ele>
        <time>2023-10-29T08:21:40Z</time>
      </trkpt>
      <trkpt lat="50.34407" lon="3.25848">
        <ele>82.10498</ele>
        <time>2023-10-29T08:21:41Z</time>
      </trkpt>
      <trkpt lat="50.34407" lon="3.25846">
        <ele>82.05139</ele>
        <time>2023-10-29T08:21:42Z</time>
      </trkpt>
      <trkpt lat="50.34407" lon="3.25844">
        <ele>81.06909</ele>
        <time>2023-10-29T08:21:43Z</time>
      </trkpt>
      <trkpt lat="50.34407" lon="3.25842">
        <ele>80.02173</ele>
        <time>2023-10-29T08:21:44Z</time>
      </trkpt>
      <trkpt lat="50.34407" lon="3.2584">
        <ele>79.24872</ele>
        <time>2023-10-29T08:21:45Z</time>
      </trkpt>
      <trkpt lat="50.34406" lon="3.25838">
        <ele>79.23633</ele>
        <time>2023-10-29T08:21:46Z</time>
      </trkpt>
      <trkpt lat="50.34406" lon="3.25836">
        <ele>80.01001</ele>
        <time>2023-10-29T08:21:47Z</time>
      </trkpt>
      <trkpt lat="50.34405" lon="3.25834">
        <ele>80.48328</ele>
        <time>2023-10-29T08:21:48Z</time>
      </trkpt>
      <trkpt lat="50.34405" lon="3.25832">
        <ele>80.96661</ele>
        <time>2023-10-29T08:21:49Z</time>
      </trkpt>
      <trkpt lat="50.34405" lon="3.2583">
        <ele>80.71588</ele>
        <time>2023-10-29T08:21:50Z</time>
      </trkpt>
      <trkpt lat="50.34404" lon="3.25829">
        <ele>79.98291</ele>
        <time>2023-10-29T08:21:51Z</time>
      </trkpt>
      <trkpt lat="50.34404" lon="3.25827">
        <ele>80.29944</ele>
        <time>2023-10-29T08:21:52Z</time>
      </trkpt>
      <trkpt lat="50.34404" lon="3.25825">
        <ele>79.18237</ele>
        <time>2023-10-29T08:21:53Z</time>
      </trkpt>
      <trkpt lat="50.34404" lon="3.25823">
        <ele>80.207825</ele>
        <time>2023-10-29T08:21:54Z</time>
      </trkpt>
      <trkpt lat="50.34403" lon="3.25822">
        <ele>80.34613</ele>
        <time>2023-10-29T08:21:55Z</time>
      </trkpt>
      <trkpt lat="50.34403" lon="3.2582">
        <ele>80.47302</ele>
        <time>2023-10-29T08:21:56Z</time>
      </trkpt>
      <trkpt lat="50.34402" lon="3.25818">
        <ele>80.15259</ele>
        <time>2023-10-29T08:21:57Z</time>
      </trkpt>
      <trkpt lat="50.34401" lon="3.25816">
        <ele>80.4599</ele>
        <time>2023-10-29T08:21:58Z</time>
      </trkpt>
      <trkpt lat="50.34401" lon="3.25814">
        <ele>80.77362</ele>
        <time>2023-10-29T08:21:59Z</time>
      </trkpt>
      <trkpt lat="50.344" lon="3.25812">
        <ele>81.10449</ele>
        <time>2023-10-29T08:22:00Z</time>
      </trkpt>
      <trkpt lat="50.34399" lon="3.25811">
        <ele>81.23505</ele>
        <time>2023-10-29T08:22:01Z</time>
      </trkpt>
      <trkpt lat="50.34398" lon="3.2581">
        <ele>82.159546</ele>
        <time>2023-10-29T08:22:02Z</time>
      </trkpt>
      <trkpt lat="50.34398" lon="3.25808">
        <ele>81.93762</ele>
        <time>2023-10-29T08:22:03Z</time>
      </trkpt>
      <trkpt lat="50.34397" lon="3.25806">
        <ele>82.211914</ele>
        <time>2023-10-29T08:22:04Z</time>
      </trkpt>
      <trkpt lat="50.34396" lon="3.25805">
        <ele>82.61041</ele>
        <time>2023-10-29T08:22:05Z</time>
      </trkpt>
      <trkpt lat="50.34396" lon="3.25804">
        <ele>81.824524</ele>
        <time>2023-10-29T08:22:06Z</time>
      </trkpt>
      <trkpt lat="50.34395" lon="3.25803">
        <ele>81.930176</ele>
        <time>2023-10-29T08:22:07Z</time>
      </trkpt>
      <trkpt lat="50.34394" lon="3.25801">
        <ele>81.9151</ele>
        <time>2023-10-29T08:22:08Z</time>
      </trkpt>
      <trkpt lat="50.34393" lon="3.258">
        <ele>81.64307</ele>
        <time>2023-10-29T08:22:09Z</time>
      </trkpt>
      <trkpt lat="50.34392" lon="3.258">
        <ele>81.6709</ele>
        <time>2023-10-29T08:22:10Z</time>
      </trkpt>
      <trkpt lat="50.34391" lon="3.25798">
        <ele>81.69385</ele>
        <time>2023-10-29T08:22:11Z</time>
      </trkpt>
      <trkpt lat="50.3439" lon="3.25798">
        <ele>81.25592</ele>
        <time>2023-10-29T08:22:12Z</time>
      </trkpt>
      <trkpt lat="50.34389" lon="3.25797">
        <ele>81.68036</ele>
        <time>2023-10-29T08:22:13Z</time>
      </trkpt>
      <trkpt lat="50.34388" lon="3.25796">
        <ele>81.09949</ele>
        <time>2023-10-29T08:22:14Z</time>
      </trkpt>
      <trkpt lat="50.34387" lon="3.25794">
        <ele>81.48999</ele>
        <time>2023-10-29T08:22:15Z</time>
      </trkpt>
      <trkpt lat="50.34386" lon="3.25794">
        <ele>81.407104</ele>
        <time>2023-10-29T08:22:16Z</time>
      </trkpt>
      <trkpt lat="50.34385" lon="3.25792">
        <ele>81.612915</ele>
        <time>2023-10-29T08:22:17Z</time>
      </trkpt>
      <trkpt lat="50.34384" lon="3.25792">
        <ele>82.00842</ele>
        <time>2023-10-29T08:22:18Z</time>
      </trkpt>
      <trkpt lat="50.34383" lon="3.25791">
        <ele>81.94379</ele>
        <time>2023-10-29T08:22:19Z</time>
      </trkpt>
      <trkpt lat="50.34382" lon="3.2579">
        <ele>82.098145</ele>
        <time>2023-10-29T08:22:20Z</time>
      </trkpt>
      <trkpt lat="50.34381" lon="3.25789">
        <ele>82.32947</ele>
        <time>2023-10-29T08:22:21Z</time>
      </trkpt>
      <trkpt lat="50.3438" lon="3.25788">
        <ele>82.30939</ele>
        <time>2023-10-29T08:22:22Z</time>
      </trkpt>
      <trkpt lat="50.34379" lon="3.25787">
        <ele>82.63672</ele>
        <time>2023-10-29T08:22:23Z</time>
      </trkpt>
      <trkpt lat="50.34378" lon="3.25785">
        <ele>82.333984</ele>
        <time>2023-10-29T08:22:24Z</time>
      </trkpt>
      <trkpt lat="50.34378" lon="3.25785">
        <ele>82.33496</ele>
        <time>2023-10-29T08:22:25Z</time>
      </trkpt>
      <trkpt lat="50.34377" lon="3.25784">
        <ele>82.354065</ele>
        <time>2023-10-29T08:22:26Z</time>
      </trkpt>
      <trkpt lat="50.34375" lon="3.25783">
        <ele>82.46741</ele>
        <time>2023-10-29T08:22:27Z</time>
      </trkpt>
      <trkpt lat="50.34375" lon="3.25782">
        <ele>82.19342</ele>
        <time>2023-10-29T08:22:28Z</time>
      </trkpt>
      <trkpt lat="50.34374" lon="3.25781">
        <ele>82.66809</ele>
        <time>2023-10-29T08:22:29Z</time>
      </trkpt>
      <trkpt lat="50.34372" lon="3.2578">
        <ele>83.03137</ele>
        <time>2023-10-29T08:22:30Z</time>
      </trkpt>
      <trkpt lat="50.34371" lon="3.2578">
        <ele>83.28882</ele>
        <time>2023-10-29T08:22:31Z</time>
      </trkpt>
      <trkpt lat="50.3437" lon="3.25779">
        <ele>82.861755</ele>
        <time>2023-10-29T08:22:32Z</time>
      </trkpt>
      <trkpt lat="50.34369" lon="3.25778">
        <ele>82.244385</ele>
        <time>2023-10-29T08:22:33Z</time>
      </trkpt>
      <trkpt lat="50.34368" lon="3.25777">
        <ele>82.21619</ele>
        <time>2023-10-29T08:22:34Z</time>
      </trkpt>
      <trkpt lat="50.34367" lon="3.25776">
        <ele>82.137146</ele>
        <time>2023-10-29T08:22:35Z</time>
      </trkpt>
      <trkpt lat="50.34366" lon="3.25776">
        <ele>81.95801</ele>
        <time>2023-10-29T08:22:36Z</time>
      </trkpt>
      <trkpt lat="50.34365" lon="3.25775">
        <ele>81.77789</ele>
        <time>2023-10-29T08:22:37Z</time>
      </trkpt>
      <trkpt lat="50.34364" lon="3.25774">
        <ele>82.13025</ele>
        <time>2023-10-29T08:22:38Z</time>
      </trkpt>
      <trkpt lat="50.34362" lon="3.25773">
        <ele>82.17023</ele>
        <time>2023-10-29T08:22:39Z</time>
      </trkpt>
      <trkpt lat="50.34361" lon="3.25773">
        <ele>81.97693</ele>
        <time>2023-10-29T08:22:40Z</time>
      </trkpt>
      <trkpt lat="50.3436" lon="3.25772">
        <ele>81.81091</ele>
        <time>2023-10-29T08:22:41Z</time>
      </trkpt>
      <trkpt lat="50.34359" lon="3.25772">
        <ele>80.02002</ele>
        <time>2023-10-29T08:22:42Z</time>
      </trkpt>
      <trkpt lat="50.34358" lon="3.25771">
        <ele>79.52789</ele>
        <time>2023-10-29T08:22:43Z</time>
      </trkpt>
      <trkpt lat="50.34356" lon="3.2577">
        <ele>79.06879</ele>
        <time>2023-10-29T08:22:44Z</time>
      </trkpt>
      <trkpt lat="50.34355" lon="3.2577">
        <ele>78.23834</ele>
        <time>2023-10-29T08:22:45Z</time>
      </trkpt>
      <trkpt lat="50.34354" lon="3.25769">
        <ele>79.16919</ele>
        <time>2023-10-29T08:22:46Z</time>
      </trkpt>
      <trkpt lat="50.34353" lon="3.25768">
        <ele>79.00983</ele>
        <time>2023-10-29T08:22:47Z</time>
      </trkpt>
      <trkpt lat="50.34352" lon="3.25768">
        <ele>78.94379</ele>
        <time>2023-10-29T08:22:48Z</time>
      </trkpt>
      <trkpt lat="50.34351" lon="3.25767">
        <ele>79.08838</ele>
        <time>2023-10-29T08:22:49Z</time>
      </trkpt>
      <trkpt lat="50.3435" lon="3.25766">
        <ele>78.79834</ele>
        <time>2023-10-29T08:22:50Z</time>
      </trkpt>
      <trkpt lat="50.34349" lon="3.25765">
        <ele>78.9259</ele>
        <time>2023-10-29T08:22:51Z</time>
      </trkpt>
      <trkpt lat="50.34348" lon="3.25764">
        <ele>79.06763</ele>
        <time>2023-10-29T08:22:52Z</time>
      </trkpt>
      <trkpt lat="50.34346" lon="3.25763">
        <ele>79.66742</ele>
        <time>2023-10-29T08:22:53Z</time>
      </trkpt>
      <trkpt lat="50.34345" lon="3.25763">
        <ele>80.33606</ele>
        <time>2023-10-29T08:22:54Z</time>
      </trkpt>
      <trkpt lat="50.34344" lon="3.25762">
        <ele>80.45447</ele>
        <time>2023-10-29T08:22:55Z</time>
      </trkpt>
      <trkpt lat="50.34343" lon="3.25761">
        <ele>80.53009</ele>
        <time>2023-10-29T08:22:56Z</time>
      </trkpt>
      <trkpt lat="50.34341" lon="3.2576">
        <ele>80.91107</ele>
        <time>2023-10-29T08:22:57Z</time>
      </trkpt>
      <trkpt lat="50.3434" lon="3.2576">
        <ele>81.215576</ele>
        <time>2023-10-29T08:22:58Z</time>
      </trkpt>
      <trkpt lat="50.34339" lon="3.25759">
        <ele>81.56946</ele>
        <time>2023-10-29T08:22:59Z</time>
      </trkpt>
      <trkpt lat="50.34338" lon="3.25758">
        <ele>81.40387</ele>
        <time>2023-10-29T08:23:00Z</time>
      </trkpt>
      <trkpt lat="50.34337" lon="3.25757">
        <ele>81.50885</ele>
        <time>2023-10-29T08:23:01Z</time>
      </trkpt>
      <trkpt lat="50.34336" lon="3.25756">
        <ele>81.57233</ele>
        <time>2023-10-29T08:23:02Z</time>
      </trkpt>
      <trkpt lat="50.34335" lon="3.25755">
        <ele>81.24115</ele>
        <time>2023-10-29T08:23:03Z</time>
      </trkpt>
      <trkpt lat="50.34333" lon="3.25754">
        <ele>81.118835</ele>
        <time>2023-10-29T08:23:04Z</time>
      </trkpt>
      <trkpt lat="50.34332" lon="3.25754">
        <ele>81.01642</ele>
        <time>2023-10-29T08:23:05Z</time>
      </trkpt>
      <trkpt lat="50.34331" lon="3.25753">
        <ele>80.62018</ele>
        <time>2023-10-29T08:23:06Z</time>
      </trkpt>
      <trkpt lat="50.3433" lon="3.25752">
        <ele>80.62488</ele>
        <time>2023-10-29T08:23:07Z</time>
      </trkpt>
      <trkpt lat="50.3433" lon="3.25751">
        <ele>80.83618</ele>
        <time>2023-10-29T08:23:08Z</time>
      </trkpt>
      <trkpt lat="50.34329" lon="3.25749">
        <ele>80.698425</ele>
        <time>2023-10-29T08:23:09Z</time>
      </trkpt>
      <trkpt lat="50.34328" lon="3.25748">
        <ele>80.70477</ele>
        <time>2023-10-29T08:23:10Z</time>
      </trkpt>
      <trkpt lat="50.34327" lon="3.25746">
        <ele>80.98193</ele>
        <time>2023-10-29T08:23:11Z</time>
      </trkpt>
      <trkpt lat="50.34327" lon="3.25745">
        <ele>81.29834</ele>
        <time>2023-10-29T08:23:12Z</time>
      </trkpt>
      <trkpt lat="50.34326" lon="3.25744">
        <ele>82.24762</ele>
        <time>2023-10-29T08:23:13Z</time>
      </trkpt>
      <trkpt lat="50.34325" lon="3.25744">
        <ele>82.86603</ele>
        <time>2023-10-29T08:23:14Z</time>
      </trkpt>
      <trkpt lat="50.34324" lon="3.25743">
        <ele>82.31476</ele>
        <time>2023-10-29T08:23:15Z</time>
      </trkpt>
      <trkpt lat="50.34323" lon="3.25744">
        <ele>81.79291</ele>
        <time>2023-10-29T08:23:16Z</time>
      </trkpt>
      <trkpt lat="50.34322" lon="3.25744">
        <ele>81.55481</ele>
        <time>2023-10-29T08:23:17Z</time>
      </trkpt>
      <trkpt lat="50.3432" lon="3.25743">
        <ele>81.35907</ele>
        <time>2023-10-29T08:23:18Z</time>
      </trkpt>
      <trkpt lat="50.34319" lon="3.25742">
        <ele>81.3172</ele>
        <time>2023-10-29T08:23:19Z</time>
      </trkpt>
      <trkpt lat="50.34318" lon="3.25741">
        <ele>81.42444</ele>
        <time>2023-10-29T08:23:20Z</time>
      </trkpt>
      <trkpt lat="50.34317" lon="3.2574">
        <ele>82.17999</ele>
        <time>2023-10-29T08:23:21Z</time>
      </trkpt>
      <trkpt lat="50.34316" lon="3.25739">
        <ele>82.71991</ele>
        <time>2023-10-29T08:23:22Z</time>
      </trkpt>
      <trkpt lat="50.34314" lon="3.25738">
        <ele>82.97742</ele>
        <time>2023-10-29T08:23:23Z</time>
      </trkpt>
      <trkpt lat="50.34312" lon="3.25737">
        <ele>83.25598</ele>
        <time>2023-10-29T08:23:24Z</time>
      </trkpt>
      <trkpt lat="50.34311" lon="3.25736">
        <ele>83.89935</ele>
        <time>2023-10-29T08:23:25Z</time>
      </trkpt>
      <trkpt lat="50.3431" lon="3.25735">
        <ele>84.019714</ele>
        <time>2023-10-29T08:23:26Z</time>
      </trkpt>
      <trkpt lat="50.34308" lon="3.25735">
        <ele>83.85437</ele>
        <time>2023-10-29T08:23:27Z</time>
      </trkpt>
      <trkpt lat="50.34307" lon="3.25735">
        <ele>83.92139</ele>
        <time>2023-10-29T08:23:28Z</time>
      </trkpt>
      <trkpt lat="50.34306" lon="3.25734">
        <ele>83.4834</ele>
        <time>2023-10-29T08:23:29Z</time>
      </trkpt>
      <trkpt lat="50.34304" lon="3.25734">
        <ele>83.38904</ele>
        <time>2023-10-29T08:23:30Z</time>
      </trkpt>
      <trkpt lat="50.34303" lon="3.25734">
        <ele>83.16321</ele>
        <time>2023-10-29T08:23:31Z</time>
      </trkpt>
      <trkpt lat="50.34301" lon="3.25734">
        <ele>83.10126</ele>
        <time>2023-10-29T08:23:32Z</time>
      </trkpt>
      <trkpt lat="50.343" lon="3.25734">
        <ele>82.8866</ele>
        <time>2023-10-29T08:23:33Z</time>
      </trkpt>
      <trkpt lat="50.34298" lon="3.25734">
        <ele>83.1311</ele>
        <time>2023-10-29T08:23:34Z</time>
      </trkpt>
      <trkpt lat="50.34297" lon="3.25734">
        <ele>83.04358</ele>
        <time>2023-10-29T08:23:35Z</time>
      </trkpt>
      <trkpt lat="50.34296" lon="3.25733">
        <ele>82.89038</ele>
        <time>2023-10-29T08:23:36Z</time>
      </trkpt>
      <trkpt lat="50.34294" lon="3.25733">
        <ele>83.12982</ele>
        <time>2023-10-29T08:23:37Z</time>
      </trkpt>
      <trkpt lat="50.34293" lon="3.25733">
        <ele>83.596985</ele>
        <time>2023-10-29T08:23:38Z</time>
      </trkpt>
      <trkpt lat="50.34291" lon="3.25733">
        <ele>82.86218</ele>
        <time>2023-10-29T08:23:39Z</time>
      </trkpt>
      <trkpt lat="50.3429" lon="3.25733">
        <ele>82.59198</ele>
        <time>2023-10-29T08:23:40Z</time>
      </trkpt>
      <trkpt lat="50.34288" lon="3.25733">
        <ele>82.3833</ele>
        <time>2023-10-29T08:23:41Z</time>
      </trkpt>
      <trkpt lat="50.34287" lon="3.25733">
        <ele>81.611206</ele>
        <time>2023-10-29T08:23:42Z</time>
      </trkpt>
      <trkpt lat="50.34286" lon="3.25733">
        <ele>82.527405</ele>
        <time>2023-10-29T08:23:43Z</time>
      </trkpt>
      <trkpt lat="50.34285" lon="3.25732">
        <ele>82.74774</ele>
        <time>2023-10-29T08:23:44Z</time>
      </trkpt>
      <trkpt lat="50.34283" lon="3.25732">
        <ele>81.894226</ele>
        <time>2023-10-29T08:23:45Z</time>
      </trkpt>
      <trkpt lat="50.34282" lon="3.25731">
        <ele>81.97449</ele>
        <time>2023-10-29T08:23:46Z</time>
      </trkpt>
      <trkpt lat="50.3428" lon="3.25731">
        <ele>81.6922</ele>
        <time>2023-10-29T08:23:47Z</time>
      </trkpt>
      <trkpt lat="50.34279" lon="3.2573">
        <ele>82.10742</ele>
        <time>2023-10-29T08:23:48Z</time>
      </trkpt>
      <trkpt lat="50.34278" lon="3.2573">
        <ele>82.23071</ele>
        <time>2023-10-29T08:23:49Z</time>
      </trkpt>
      <trkpt lat="50.34276" lon="3.2573">
        <ele>83.01965</ele>
        <time>2023-10-29T08:23:50Z</time>
      </trkpt>
      <trkpt lat="50.34275" lon="3.2573">
        <ele>83.642334</ele>
        <time>2023-10-29T08:23:51Z</time>
      </trkpt>
      <trkpt lat="50.34274" lon="3.2573">
        <ele>83.851685</ele>
        <time>2023-10-29T08:23:52Z</time>
      </trkpt>
      <trkpt lat="50.34272" lon="3.2573">
        <ele>83.96149</ele>
        <time>2023-10-29T08:23:53Z</time>
      </trkpt>
      <trkpt lat="50.34271" lon="3.25729">
        <ele>83.878174</ele>
        <time>2023-10-29T08:23:54Z</time>
      </trkpt>
      <trkpt lat="50.3427" lon="3.25729">
        <ele>83.74988</ele>
        <time>2023-10-29T08:23:55Z</time>
      </trkpt>
      <trkpt lat="50.34269" lon="3.25729">
        <ele>83.42969</ele>
        <time>2023-10-29T08:23:56Z</time>
      </trkpt>
      <trkpt lat="50.34267" lon="3.25729">
        <ele>83.16199</ele>
        <time>2023-10-29T08:23:57Z</time>
      </trkpt>
      <trkpt lat="50.34266" lon="3.25728">
        <ele>83.96887</ele>
        <time>2023-10-29T08:23:58Z</time>
      </trkpt>
      <trkpt lat="50.34265" lon="3.25727">
        <ele>84.361206</ele>
        <time>2023-10-29T08:23:59Z</time>
      </trkpt>
      <trkpt lat="50.34264" lon="3.25725">
        <ele>83.51074</ele>
        <time>2023-10-29T08:24:00Z</time>
      </trkpt>
      <trkpt lat="50.34263" lon="3.25723">
        <ele>84.08557</ele>
        <time>2023-10-29T08:24:01Z</time>
      </trkpt>
      <trkpt lat="50.34263" lon="3.25721">
        <ele>84.32019</ele>
        <time>2023-10-29T08:24:02Z</time>
      </trkpt>
      <trkpt lat="50.34263" lon="3.25719">
        <ele>84.930176</ele>
        <time>2023-10-29T08:24:03Z</time>
      </trkpt>
      <trkpt lat="50.34264" lon="3.25717">
        <ele>83.85663</ele>
        <time>2023-10-29T08:24:04Z</time>
      </trkpt>
      <trkpt lat="50.34264" lon="3.25715">
        <ele>83.911255</ele>
        <time>2023-10-29T08:24:05Z</time>
      </trkpt>
      <trkpt lat="50.34265" lon="3.25713">
        <ele>83.78827</ele>
        <time>2023-10-29T08:24:06Z</time>
      </trkpt>
      <trkpt lat="50.34266" lon="3.25711">
        <ele>83.55542</ele>
        <time>2023-10-29T08:24:07Z</time>
      </trkpt>
      <trkpt lat="50.34266" lon="3.2571">
        <ele>84.18915</ele>
        <time>2023-10-29T08:24:08Z</time>
      </trkpt>
      <trkpt lat="50.34266" lon="3.25708">
        <ele>83.89203</ele>
        <time>2023-10-29T08:24:09Z</time>
      </trkpt>
      <trkpt lat="50.34267" lon="3.25706">
        <ele>83.64575</ele>
        <time>2023-10-29T08:24:10Z</time>
      </trkpt>
      <trkpt lat="50.34268" lon="3.25705">
        <ele>83.67883</ele>
        <time>2023-10-29T08:24:11Z</time>
      </trkpt>
      <trkpt lat="50.34269" lon="3.25703">
        <ele>83.8042</ele>
        <time>2023-10-29T08:24:12Z</time>
      </trkpt>
      <trkpt lat="50.34271" lon="3.25702">
        <ele>83.593506</ele>
        <time>2023-10-29T08:24:13Z</time>
      </trkpt>
      <trkpt lat="50.34272" lon="3.25701">
        <ele>83.113525</ele>
        <time>2023-10-29T08:24:14Z</time>
      </trkpt>
      <trkpt lat="50.34272" lon="3.257">
        <ele>83.05438</ele>
        <time>2023-10-29T08:24:15Z</time>
      </trkpt>
      <trkpt lat="50.34274" lon="3.25699">
        <ele>82.73468</ele>
        <time>2023-10-29T08:24:16Z</time>
      </trkpt>
      <trkpt lat="50.34275" lon="3.25699">
        <ele>82.97992</ele>
        <time>2023-10-29T08:24:17Z</time>
      </trkpt>
      <trkpt lat="50.34277" lon="3.25699">
        <ele>83.3186</ele>
        <time>2023-10-29T08:24:18Z</time>
      </trkpt>
      <trkpt lat="50.34279" lon="3.25699">
        <ele>82.89081</ele>
        <time>2023-10-29T08:24:19Z</time>
      </trkpt>
      <trkpt lat="50.3428" lon="3.257">
        <ele>82.96069</ele>
        <time>2023-10-29T08:24:20Z</time>
      </trkpt>
      <trkpt lat="50.34281" lon="3.257">
        <ele>82.74414</ele>
        <time>2023-10-29T08:24:21Z</time>
      </trkpt>
      <trkpt lat="50.34282" lon="3.25702">
        <ele>81.95343</ele>
        <time>2023-10-29T08:24:22Z</time>
      </trkpt>
      <trkpt lat="50.34283" lon="3.25702">
        <ele>81.73224</ele>
        <time>2023-10-29T08:24:23Z</time>
      </trkpt>
      <trkpt lat="50.34285" lon="3.25703">
        <ele>81.20404</ele>
        <time>2023-10-29T08:24:24Z</time>
      </trkpt>
      <trkpt lat="50.34287" lon="3.25703">
        <ele>80.40503</ele>
        <time>2023-10-29T08:24:25Z</time>
      </trkpt>
      <trkpt lat="50.34288" lon="3.25703">
        <ele>79.78851</ele>
        <time>2023-10-29T08:24:26Z</time>
      </trkpt>
      <trkpt lat="50.34289" lon="3.25704">
        <ele>79.067505</ele>
        <time>2023-10-29T08:24:27Z</time>
      </trkpt>
      <trkpt lat="50.34291" lon="3.25705">
        <ele>78.59387</ele>
        <time>2023-10-29T08:24:28Z</time>
      </trkpt>
      <trkpt lat="50.34292" lon="3.25705">
        <ele>78.949585</ele>
        <time>2023-10-29T08:24:29Z</time>
      </trkpt>
      <trkpt lat="50.34293" lon="3.25706">
        <ele>79.06671</ele>
        <time>2023-10-29T08:24:30Z</time>
      </trkpt>
      <trkpt lat="50.34295" lon="3.25706">
        <ele>78.93048</ele>
        <time>2023-10-29T08:24:31Z</time>
      </trkpt>
      <trkpt lat="50.34296" lon="3.25707">
        <ele>77.92346</ele>
        <time>2023-10-29T08:24:32Z</time>
      </trkpt>
      <trkpt lat="50.34297" lon="3.25708">
        <ele>78.39789</ele>
        <time>2023-10-29T08:24:33Z</time>
      </trkpt>
      <trkpt lat="50.34298" lon="3.25708">
        <ele>78.38989</ele>
        <time>2023-10-29T08:24:34Z</time>
      </trkpt>
      <trkpt lat="50.343" lon="3.25709">
        <ele>78.68146</ele>
        <time>2023-10-29T08:24:35Z</time>
      </trkpt>
      <trkpt lat="50.343" lon="3.2571">
        <ele>79.78235</ele>
        <time>2023-10-29T08:24:36Z</time>
      </trkpt>
      <trkpt lat="50.34302" lon="3.25711">
        <ele>79.9234</ele>
        <time>2023-10-29T08:24:37Z</time>
      </trkpt>
      <trkpt lat="50.34303" lon="3.25711">
        <ele>80.29486</ele>
        <time>2023-10-29T08:24:38Z</time>
      </trkpt>
      <trkpt lat="50.34304" lon="3.25711">
        <ele>79.57593</ele>
        <time>2023-10-29T08:24:39Z</time>
      </trkpt>
      <trkpt lat="50.34306" lon="3.25712">
        <ele>79.70227</ele>
        <time>2023-10-29T08:24:40Z</time>
      </trkpt>
      <trkpt lat="50.34308" lon="3.25712">
        <ele>79.973816</ele>
        <time>2023-10-29T08:24:41Z</time>
      </trkpt>
      <trkpt lat="50.34309" lon="3.25712">
        <ele>80.35034</ele>
        <time>2023-10-29T08:24:42Z</time>
      </trkpt>
      <trkpt lat="50.3431" lon="3.25712">
        <ele>81.105835</ele>
        <time>2023-10-29T08:24:43Z</time>
      </trkpt>
      <trkpt lat="50.34312" lon="3.25712">
        <ele>80.74365</ele>
        <time>2023-10-29T08:24:44Z</time>
      </trkpt>
      <trkpt lat="50.34313" lon="3.25712">
        <ele>80.48529</ele>
        <time>2023-10-29T08:24:45Z</time>
      </trkpt>
      <trkpt lat="50.34315" lon="3.25712">
        <ele>80.86615</ele>
        <time>2023-10-29T08:24:46Z</time>
      </trkpt>
      <trkpt lat="50.34316" lon="3.25713">
        <ele>80.180176</ele>
        <time>2023-10-29T08:24:47Z</time>
      </trkpt>
      <trkpt lat="50.34317" lon="3.25714">
        <ele>79.76337</ele>
        <time>2023-10-29T08:24:48Z</time>
      </trkpt>
      <trkpt lat="50.34319" lon="3.25715">
        <ele>79.72644</ele>
        <time>2023-10-29T08:24:49Z</time>
      </trkpt>
      <trkpt lat="50.3432" lon="3.25716">
        <ele>79.56171</ele>
        <time>2023-10-29T08:24:50Z</time>
      </trkpt>
      <trkpt lat="50.34321" lon="3.25717">
        <ele>79.092285</ele>
        <time>2023-10-29T08:24:51Z</time>
      </trkpt>
      <trkpt lat="50.34322" lon="3.25718">
        <ele>79.490295</ele>
        <time>2023-10-29T08:24:52Z</time>
      </trkpt>
      <trkpt lat="50.34323" lon="3.25719">
        <ele>79.58234</ele>
        <time>2023-10-29T08:24:53Z</time>
      </trkpt>
      <trkpt lat="50.34325" lon="3.2572">
        <ele>78.98059</ele>
        <time>2023-10-29T08:24:54Z</time>
      </trkpt>
      <trkpt lat="50.34326" lon="3.25721">
        <ele>78.81622</ele>
        <time>2023-10-29T08:24:55Z</time>
      </trkpt>
      <trkpt lat="50.34327" lon="3.25722">
        <ele>78.059814</ele>
        <time>2023-10-29T08:24:56Z</time>
      </trkpt>
      <trkpt lat="50.34328" lon="3.25724">
        <ele>77.72974</ele>
        <time>2023-10-29T08:24:57Z</time>
      </trkpt>
      <trkpt lat="50.3433" lon="3.25725">
        <ele>77.817444</ele>
        <time>2023-10-29T08:24:58Z</time>
      </trkpt>
      <trkpt lat="50.34331" lon="3.25725">
        <ele>77.630615</ele>
        <time>2023-10-29T08:24:59Z</time>
      </trkpt>
      <trkpt lat="50.34332" lon="3.25726">
        <ele>77.8291</ele>
        <time>2023-10-29T08:25:00Z</time>
      </trkpt>
      <trkpt lat="50.34333" lon="3.25727">
        <ele>78.61694</ele>
        <time>2023-10-29T08:25:01Z</time>
      </trkpt>
      <trkpt lat="50.34335" lon="3.25728">
        <ele>78.36725</ele>
        <time>2023-10-29T08:25:02Z</time>
      </trkpt>
      <trkpt lat="50.34336" lon="3.25728">
        <ele>78.29773</ele>
        <time>2023-10-29T08:25:03Z</time>
      </trkpt>
      <trkpt lat="50.34337" lon="3.25729">
        <ele>78.244995</ele>
        <time>2023-10-29T08:25:04Z</time>
      </trkpt>
      <trkpt lat="50.34339" lon="3.25729">
        <ele>78.66565</ele>
        <time>2023-10-29T08:25:05Z</time>
      </trkpt>
      <trkpt lat="50.3434" lon="3.2573">
        <ele>78.19446</ele>
        <time>2023-10-29T08:25:06Z</time>
      </trkpt>
      <trkpt lat="50.34341" lon="3.2573">
        <ele>78.29309</ele>
        <time>2023-10-29T08:25:07Z</time>
      </trkpt>
      <trkpt lat="50.34343" lon="3.25731">
        <ele>77.588135</ele>
        <time>2023-10-29T08:25:08Z</time>
      </trkpt>
      <trkpt lat="50.34344" lon="3.25732">
        <ele>77.31415</ele>
        <time>2023-10-29T08:25:09Z</time>
      </trkpt>
      <trkpt lat="50.34345" lon="3.25733">
        <ele>77.5744</ele>
        <time>2023-10-29T08:25:10Z</time>
      </trkpt>
      <trkpt lat="50.34346" lon="3.25734">
        <ele>77.14838</ele>
        <time>2023-10-29T08:25:11Z</time>
      </trkpt>
      <trkpt lat="50.34348" lon="3.25735">
        <ele>77.54535</ele>
        <time>2023-10-29T08:25:12Z</time>
      </trkpt>
      <trkpt lat="50.34349" lon="3.25735">
        <ele>77.240906</ele>
        <time>2023-10-29T08:25:13Z</time>
      </trkpt>
      <trkpt lat="50.34351" lon="3.25736">
        <ele>76.9256</ele>
        <time>2023-10-29T08:25:14Z</time>
      </trkpt>
      <trkpt lat="50.34352" lon="3.25736">
        <ele>77.27124</ele>
        <time>2023-10-29T08:25:15Z</time>
      </trkpt>
      <trkpt lat="50.34353" lon="3.25737">
        <ele>76.703735</ele>
        <time>2023-10-29T08:25:16Z</time>
      </trkpt>
      <trkpt lat="50.34354" lon="3.25737">
        <ele>76.71161</ele>
        <time>2023-10-29T08:25:17Z</time>
      </trkpt>
      <trkpt lat="50.34356" lon="3.25738">
        <ele>77.11151</ele>
        <time>2023-10-29T08:25:18Z</time>
      </trkpt>
      <trkpt lat="50.34357" lon="3.25739">
        <ele>76.67688</ele>
        <time>2023-10-29T08:25:19Z</time>
      </trkpt>
      <trkpt lat="50.34358" lon="3.2574">
        <ele>76.78522</ele>
        <time>2023-10-29T08:25:20Z</time>
      </trkpt>
      <trkpt lat="50.34359" lon="3.25741">
        <ele>77.84204</ele>
        <time>2023-10-29T08:25:21Z</time>
      </trkpt>
      <trkpt lat="50.34361" lon="3.25742">
        <ele>78.461975</ele>
        <time>2023-10-29T08:25:22Z</time>
      </trkpt>
      <trkpt lat="50.34362" lon="3.25743">
        <ele>78.50421</ele>
        <time>2023-10-29T08:25:23Z</time>
      </trkpt>
      <trkpt lat="50.34364" lon="3.25744">
        <ele>77.91101</ele>
        <time>2023-10-29T08:25:24Z</time>
      </trkpt>
      <trkpt lat="50.34364" lon="3.25744">
        <ele>77.39789</ele>
        <time>2023-10-29T08:25:25Z</time>
      </trkpt>
      <trkpt lat="50.34366" lon="3.25745">
        <ele>77.441284</ele>
        <time>2023-10-29T08:25:26Z</time>
      </trkpt>
      <trkpt lat="50.34367" lon="3.25746">
        <ele>77.96625</ele>
        <time>2023-10-29T08:25:27Z</time>
      </trkpt>
      <trkpt lat="50.34368" lon="3.25748">
        <ele>78.306274</ele>
        <time>2023-10-29T08:25:28Z</time>
      </trkpt>
      <trkpt lat="50.3437" lon="3.25749">
        <ele>78.42926</ele>
        <time>2023-10-29T08:25:29Z</time>
      </trkpt>
      <trkpt lat="50.34371" lon="3.2575">
        <ele>78.318665</ele>
        <time>2023-10-29T08:25:30Z</time>
      </trkpt>
      <trkpt lat="50.34372" lon="3.25751">
        <ele>78.80414</ele>
        <time>2023-10-29T08:25:31Z</time>
      </trkpt>
      <trkpt lat="50.34374" lon="3.25751">
        <ele>79.420654</ele>
        <time>2023-10-29T08:25:32Z</time>
      </trkpt>
      <trkpt lat="50.34375" lon="3.25752">
        <ele>78.28656</ele>
        <time>2023-10-29T08:25:33Z</time>
      </trkpt>
      <trkpt lat="50.34376" lon="3.25753">
        <ele>77.70282</ele>
        <time>2023-10-29T08:25:34Z</time>
      </trkpt>
      <trkpt lat="50.34377" lon="3.25754">
        <ele>76.975464</ele>
        <time>2023-10-29T08:25:35Z</time>
      </trkpt>
      <trkpt lat="50.34378" lon="3.25754">
        <ele>77.14215</ele>
        <time>2023-10-29T08:25:36Z</time>
      </trkpt>
      <trkpt lat="50.3438" lon="3.25756">
        <ele>77.31238</ele>
        <time>2023-10-29T08:25:38Z</time>
      </trkpt>
      <trkpt lat="50.34381" lon="3.25758">
        <ele>77.21887</ele>
        <time>2023-10-29T08:25:39Z</time>
      </trkpt>
      <trkpt lat="50.34382" lon="3.25758">
        <ele>77.305176</ele>
        <time>2023-10-29T08:25:40Z</time>
      </trkpt>
      <trkpt lat="50.34383" lon="3.25759">
        <ele>77.426575</ele>
        <time>2023-10-29T08:25:41Z</time>
      </trkpt>
      <trkpt lat="50.34384" lon="3.2576">
        <ele>77.466</ele>
        <time>2023-10-29T08:25:42Z</time>
      </trkpt>
      <trkpt lat="50.34385" lon="3.25761">
        <ele>77.90442</ele>
        <time>2023-10-29T08:25:43Z</time>
      </trkpt>
      <trkpt lat="50.34386" lon="3.25762">
        <ele>77.71423</ele>
        <time>2023-10-29T08:25:44Z</time>
      </trkpt>
      <trkpt lat="50.34387" lon="3.25763">
        <ele>77.906494</ele>
        <time>2023-10-29T08:25:45Z</time>
      </trkpt>
      <trkpt lat="50.34388" lon="3.25764">
        <ele>78.50653</ele>
        <time>2023-10-29T08:25:46Z</time>
      </trkpt>
      <trkpt lat="50.3439" lon="3.25765">
        <ele>77.857666</ele>
        <time>2023-10-29T08:25:47Z</time>
      </trkpt>
      <trkpt lat="50.34391" lon="3.25765">
        <ele>78.09424</ele>
        <time>2023-10-29T08:25:48Z</time>
      </trkpt>
      <trkpt lat="50.34392" lon="3.25765">
        <ele>78.156494</ele>
        <time>2023-10-29T08:25:49Z</time>
      </trkpt>
      <trkpt lat="50.34393" lon="3.25766">
        <ele>78.05194</ele>
        <time>2023-10-29T08:25:50Z</time>
      </trkpt>
      <trkpt lat="50.34394" lon="3.25767">
        <ele>78.28491</ele>
        <time>2023-10-29T08:25:51Z</time>
      </trkpt>
      <trkpt lat="50.34395" lon="3.25768">
        <ele>77.97009</ele>
        <time>2023-10-29T08:25:52Z</time>
      </trkpt>
      <trkpt lat="50.34396" lon="3.25769">
        <ele>77.95166</ele>
        <time>2023-10-29T08:25:53Z</time>
      </trkpt>
      <trkpt lat="50.34397" lon="3.2577">
        <ele>77.901245</ele>
        <time>2023-10-29T08:25:54Z</time>
      </trkpt>
      <trkpt lat="50.34398" lon="3.25771">
        <ele>77.64667</ele>
        <time>2023-10-29T08:25:55Z</time>
      </trkpt>
      <trkpt lat="50.34399" lon="3.25771">
        <ele>77.22473</ele>
        <time>2023-10-29T08:25:56Z</time>
      </trkpt>
      <trkpt lat="50.344" lon="3.25772">
        <ele>76.72388</ele>
        <time>2023-10-29T08:25:57Z</time>
      </trkpt>
      <trkpt lat="50.34401" lon="3.25772">
        <ele>76.72339</ele>
        <time>2023-10-29T08:25:58Z</time>
      </trkpt>
      <trkpt lat="50.34403" lon="3.25773">
        <ele>76.54175</ele>
        <time>2023-10-29T08:25:59Z</time>
      </trkpt>
      <trkpt lat="50.34404" lon="3.25774">
        <ele>76.693665</ele>
        <time>2023-10-29T08:26:00Z</time>
      </trkpt>
      <trkpt lat="50.34405" lon="3.25774">
        <ele>76.45361</ele>
        <time>2023-10-29T08:26:01Z</time>
      </trkpt>
      <trkpt lat="50.34406" lon="3.25775">
        <ele>76.3902</ele>
        <time>2023-10-29T08:26:02Z</time>
      </trkpt>
      <trkpt lat="50.34407" lon="3.25775">
        <ele>76.342896</ele>
        <time>2023-10-29T08:26:03Z</time>
      </trkpt>
      <trkpt lat="50.34408" lon="3.25776">
        <ele>76.69757</ele>
        <time>2023-10-29T08:26:04Z</time>
      </trkpt>
      <trkpt lat="50.34409" lon="3.25777">
        <ele>76.52521</ele>
        <time>2023-10-29T08:26:05Z</time>
      </trkpt>
      <trkpt lat="50.34411" lon="3.25778">
        <ele>76.56433</ele>
        <time>2023-10-29T08:26:06Z</time>
      </trkpt>
      <trkpt lat="50.34412" lon="3.25778">
        <ele>76.45221</ele>
        <time>2023-10-29T08:26:07Z</time>
      </trkpt>
      <trkpt lat="50.34413" lon="3.25779">
        <ele>76.483765</ele>
        <time>2023-10-29T08:26:08Z</time>
      </trkpt>
      <trkpt lat="50.34414" lon="3.25779">
        <ele>76.46912</ele>
        <time>2023-10-29T08:26:09Z</time>
      </trkpt>
      <trkpt lat="50.34415" lon="3.2578">
        <ele>76.48364</ele>
        <time>2023-10-29T08:26:10Z</time>
      </trkpt>
      <trkpt lat="50.34416" lon="3.25781">
        <ele>76.17944</ele>
        <time>2023-10-29T08:26:11Z</time>
      </trkpt>
      <trkpt lat="50.34417" lon="3.25781">
        <ele>76.37274</ele>
        <time>2023-10-29T08:26:12Z</time>
      </trkpt>
      <trkpt lat="50.34418" lon="3.25782">
        <ele>75.132385</ele>
        <time>2023-10-29T08:26:13Z</time>
      </trkpt>
      <trkpt lat="50.34419" lon="3.25783">
        <ele>75.45709</ele>
        <time>2023-10-29T08:26:14Z</time>
      </trkpt>
      <trkpt lat="50.34421" lon="3.25783">
        <ele>75.833496</ele>
        <time>2023-10-29T08:26:15Z</time>
      </trkpt>
      <trkpt lat="50.34422" lon="3.25784">
        <ele>75.510864</ele>
        <time>2023-10-29T08:26:16Z</time>
      </trkpt>
      <trkpt lat="50.34423" lon="3.25784">
        <ele>76.331055</ele>
        <time>2023-10-29T08:26:17Z</time>
      </trkpt>
      <trkpt lat="50.34425" lon="3.25785">
        <ele>76.49005</ele>
        <time>2023-10-29T08:26:18Z</time>
      </trkpt>
      <trkpt lat="50.34426" lon="3.25786">
        <ele>76.40631</ele>
        <time>2023-10-29T08:26:19Z</time>
      </trkpt>
      <trkpt lat="50.34427" lon="3.25787">
        <ele>76.66559</ele>
        <time>2023-10-29T08:26:20Z</time>
      </trkpt>
      <trkpt lat="50.34428" lon="3.25787">
        <ele>76.9693</ele>
        <time>2023-10-29T08:26:21Z</time>
      </trkpt>
      <trkpt lat="50.3443" lon="3.25788">
        <ele>77.38068</ele>
        <time>2023-10-29T08:26:22Z</time>
      </trkpt>
      <trkpt lat="50.34431" lon="3.25789">
        <ele>78.004944</ele>
        <time>2023-10-29T08:26:23Z</time>
      </trkpt>
      <trkpt lat="50.34432" lon="3.25789">
        <ele>78.17291</ele>
        <time>2023-10-29T08:26:24Z</time>
      </trkpt>
      <trkpt lat="50.34433" lon="3.2579">
        <ele>77.94208</ele>
        <time>2023-10-29T08:26:25Z</time>
      </trkpt>
      <trkpt lat="50.34434" lon="3.25791">
        <ele>77.894775</ele>
        <time>2023-10-29T08:26:26Z</time>
      </trkpt>
      <trkpt lat="50.34435" lon="3.25792">
        <ele>77.048645</ele>
        <time>2023-10-29T08:26:27Z</time>
      </trkpt>
      <trkpt lat="50.34436" lon="3.25792">
        <ele>77.02283</ele>
        <time>2023-10-29T08:26:28Z</time>
      </trkpt>
      <trkpt lat="50.34438" lon="3.25793">
        <ele>76.70453</ele>
        <time>2023-10-29T08:26:29Z</time>
      </trkpt>
      <trkpt lat="50.34439" lon="3.25794">
        <ele>76.58002</ele>
        <time>2023-10-29T08:26:30Z</time>
      </trkpt>
      <trkpt lat="50.3444" lon="3.25795">
        <ele>76.30444</ele>
        <time>2023-10-29T08:26:31Z</time>
      </trkpt>
      <trkpt lat="50.34441" lon="3.25795">
        <ele>75.697876</ele>
        <time>2023-10-29T08:26:32Z</time>
      </trkpt>
      <trkpt lat="50.34442" lon="3.25796">
        <ele>75.802734</ele>
        <time>2023-10-29T08:26:33Z</time>
      </trkpt>
      <trkpt lat="50.34443" lon="3.25797">
        <ele>75.63068</ele>
        <time>2023-10-29T08:26:34Z</time>
      </trkpt>
      <trkpt lat="50.34444" lon="3.25797">
        <ele>76.26819</ele>
        <time>2023-10-29T08:26:35Z</time>
      </trkpt>
      <trkpt lat="50.34445" lon="3.25798">
        <ele>76.32129</ele>
        <time>2023-10-29T08:26:36Z</time>
      </trkpt>
      <trkpt lat="50.34447" lon="3.25799">
        <ele>76.364746</ele>
        <time>2023-10-29T08:26:37Z</time>
      </trkpt>
      <trkpt lat="50.34448" lon="3.258">
        <ele>76.07965</ele>
        <time>2023-10-29T08:26:38Z</time>
      </trkpt>
      <trkpt lat="50.34449" lon="3.25801">
        <ele>76.15509</ele>
        <time>2023-10-29T08:26:39Z</time>
      </trkpt>
      <trkpt lat="50.34451" lon="3.25801">
        <ele>76.352356</ele>
        <time>2023-10-29T08:26:40Z</time>
      </trkpt>
      <trkpt lat="50.34452" lon="3.25802">
        <ele>76.99994</ele>
        <time>2023-10-29T08:26:41Z</time>
      </trkpt>
      <trkpt lat="50.34453" lon="3.25803">
        <ele>77.342834</ele>
        <time>2023-10-29T08:26:42Z</time>
      </trkpt>
      <trkpt lat="50.34454" lon="3.25804">
        <ele>77.4397</ele>
        <time>2023-10-29T08:26:43Z</time>
      </trkpt>
      <trkpt lat="50.34455" lon="3.25805">
        <ele>77.55438</ele>
        <time>2023-10-29T08:26:44Z</time>
      </trkpt>
      <trkpt lat="50.34456" lon="3.25805">
        <ele>77.53143</ele>
        <time>2023-10-29T08:26:45Z</time>
      </trkpt>
      <trkpt lat="50.34457" lon="3.25806">
        <ele>77.97772</ele>
        <time>2023-10-29T08:26:46Z</time>
      </trkpt>
      <trkpt lat="50.34459" lon="3.25807">
        <ele>78.252014</ele>
        <time>2023-10-29T08:26:47Z</time>
      </trkpt>
      <trkpt lat="50.3446" lon="3.25808">
        <ele>78.01428</ele>
        <time>2023-10-29T08:26:48Z</time>
      </trkpt>
      <trkpt lat="50.3446" lon="3.25809">
        <ele>78.094666</ele>
        <time>2023-10-29T08:26:49Z</time>
      </trkpt>
      <trkpt lat="50.34462" lon="3.2581">
        <ele>78.2168</ele>
        <time>2023-10-29T08:26:50Z</time>
      </trkpt>
      <trkpt lat="50.34463" lon="3.2581">
        <ele>78.49097</ele>
        <time>2023-10-29T08:26:51Z</time>
      </trkpt>
      <trkpt lat="50.34464" lon="3.25811">
        <ele>78.96265</ele>
        <time>2023-10-29T08:26:52Z</time>
      </trkpt>
      <trkpt lat="50.34464" lon="3.25812">
        <ele>78.7417</ele>
        <time>2023-10-29T08:26:53Z</time>
      </trkpt>
      <trkpt lat="50.34465" lon="3.25813">
        <ele>78.953</ele>
        <time>2023-10-29T08:26:54Z</time>
      </trkpt>
      <trkpt lat="50.34466" lon="3.25813">
        <ele>78.80206</ele>
        <time>2023-10-29T08:26:55Z</time>
      </trkpt>
      <trkpt lat="50.34467" lon="3.25814">
        <ele>78.68994</ele>
        <time>2023-10-29T08:26:56Z</time>
      </trkpt>
      <trkpt lat="50.34469" lon="3.25815">
        <ele>78.666565</ele>
        <time>2023-10-29T08:26:57Z</time>
      </trkpt>
      <trkpt lat="50.3447" lon="3.25815">
        <ele>78.99591</ele>
        <time>2023-10-29T08:26:58Z</time>
      </trkpt>
      <trkpt lat="50.34471" lon="3.25816">
        <ele>79.35797</ele>
        <time>2023-10-29T08:26:59Z</time>
      </trkpt>
      <trkpt lat="50.34472" lon="3.25817">
        <ele>79.520935</ele>
        <time>2023-10-29T08:27:00Z</time>
      </trkpt>
      <trkpt lat="50.34473" lon="3.25817">
        <ele>79.45056</ele>
        <time>2023-10-29T08:27:01Z</time>
      </trkpt>
      <trkpt lat="50.34474" lon="3.25818">
        <ele>79.96649</ele>
        <time>2023-10-29T08:27:02Z</time>
      </trkpt>
      <trkpt lat="50.34475" lon="3.25819">
        <ele>80.44507</ele>
        <time>2023-10-29T08:27:03Z</time>
      </trkpt>
      <trkpt lat="50.34475" lon="3.2582">
        <ele>81.26068</ele>
        <time>2023-10-29T08:27:04Z</time>
      </trkpt>
      <trkpt lat="50.34476" lon="3.25821">
        <ele>80.61005</ele>
        <time>2023-10-29T08:27:05Z</time>
      </trkpt>
      <trkpt lat="50.34477" lon="3.25822">
        <ele>80.04407</ele>
        <time>2023-10-29T08:27:06Z</time>
      </trkpt>
      <trkpt lat="50.34478" lon="3.25823">
        <ele>79.9433</ele>
        <time>2023-10-29T08:27:07Z</time>
      </trkpt>
      <trkpt lat="50.34479" lon="3.25824">
        <ele>79.72296</ele>
        <time>2023-10-29T08:27:08Z</time>
      </trkpt>
      <trkpt lat="50.3448" lon="3.25825">
        <ele>79.84033</ele>
        <time>2023-10-29T08:27:09Z</time>
      </trkpt>
      <trkpt lat="50.34481" lon="3.25826">
        <ele>80.249084</ele>
        <time>2023-10-29T08:27:10Z</time>
      </trkpt>
      <trkpt lat="50.34482" lon="3.25826">
        <ele>80.71094</ele>
        <time>2023-10-29T08:27:11Z</time>
      </trkpt>
      <trkpt lat="50.34483" lon="3.25827">
        <ele>80.26898</ele>
        <time>2023-10-29T08:27:12Z</time>
      </trkpt>
      <trkpt lat="50.34485" lon="3.25828">
        <ele>80.2439</ele>
        <time>2023-10-29T08:27:13Z</time>
      </trkpt>
      <trkpt lat="50.34486" lon="3.25828">
        <ele>80.42316</ele>
        <time>2023-10-29T08:27:14Z</time>
      </trkpt>
      <trkpt lat="50.34487" lon="3.25829">
        <ele>80.526855</ele>
        <time>2023-10-29T08:27:15Z</time>
      </trkpt>
      <trkpt lat="50.34488" lon="3.2583">
        <ele>80.92993</ele>
        <time>2023-10-29T08:27:16Z</time>
      </trkpt>
      <trkpt lat="50.34489" lon="3.25831">
        <ele>80.91266</ele>
        <time>2023-10-29T08:27:17Z</time>
      </trkpt>
      <trkpt lat="50.3449" lon="3.25831">
        <ele>80.92688</ele>
        <time>2023-10-29T08:27:18Z</time>
      </trkpt>
      <trkpt lat="50.34491" lon="3.25832">
        <ele>80.497314</ele>
        <time>2023-10-29T08:27:19Z</time>
      </trkpt>
      <trkpt lat="50.34493" lon="3.25832">
        <ele>80.39136</ele>
        <time>2023-10-29T08:27:20Z</time>
      </trkpt>
      <trkpt lat="50.34494" lon="3.25833">
        <ele>80.802246</ele>
        <time>2023-10-29T08:27:21Z</time>
      </trkpt>
      <trkpt lat="50.34495" lon="3.25833">
        <ele>80.83771</ele>
        <time>2023-10-29T08:27:22Z</time>
      </trkpt>
      <trkpt lat="50.34496" lon="3.25833">
        <ele>80.74359</ele>
        <time>2023-10-29T08:27:23Z</time>
      </trkpt>
      <trkpt lat="50.34498" lon="3.25834">
        <ele>81.42908</ele>
        <time>2023-10-29T08:27:24Z</time>
      </trkpt>
      <trkpt lat="50.34499" lon="3.25836">
        <ele>81.71173</ele>
        <time>2023-10-29T08:27:25Z</time>
      </trkpt>
      <trkpt lat="50.34501" lon="3.25837">
        <ele>81.63782</ele>
        <time>2023-10-29T08:27:27Z</time>
      </trkpt>
      <trkpt lat="50.34502" lon="3.25838">
        <ele>81.95288</ele>
        <time>2023-10-29T08:27:28Z</time>
      </trkpt>
      <trkpt lat="50.34503" lon="3.25838">
        <ele>81.968445</ele>
        <time>2023-10-29T08:27:29Z</time>
      </trkpt>
      <trkpt lat="50.34505" lon="3.2584">
        <ele>81.51996</ele>
        <time>2023-10-29T08:27:30Z</time>
      </trkpt>
      <trkpt lat="50.34507" lon="3.25842">
        <ele>82.13745</ele>
        <time>2023-10-29T08:27:32Z</time>
      </trkpt>
      <trkpt lat="50.34508" lon="3.25843">
        <ele>81.41217</ele>
        <time>2023-10-29T08:27:33Z</time>
      </trkpt>
      <trkpt lat="50.3451" lon="3.25844">
        <ele>81.607056</ele>
        <time>2023-10-29T08:27:35Z</time>
      </trkpt>
      <trkpt lat="50.34511" lon="3.25845">
        <ele>81.87268</ele>
        <time>2023-10-29T08:27:36Z</time>
      </trkpt>
      <trkpt lat="50.34513" lon="3.25846">
        <ele>82.66809</ele>
        <time>2023-10-29T08:27:37Z</time>
      </trkpt>
      <trkpt lat="50.34514" lon="3.25846">
        <ele>82.333984</ele>
        <time>2023-10-29T08:27:38Z</time>
      </trkpt>
      <trkpt lat="50.34515" lon="3.25847">
        <ele>81.892456</ele>
        <time>2023-10-29T08:27:39Z</time>
      </trkpt>
      <trkpt lat="50.34516" lon="3.25848">
        <ele>81.539246</ele>
        <time>2023-10-29T08:27:40Z</time>
      </trkpt>
      <trkpt lat="50.34517" lon="3.25848">
        <ele>81.7052</ele>
        <time>2023-10-29T08:27:41Z</time>
      </trkpt>
      <trkpt lat="50.34518" lon="3.25849">
        <ele>81.48242</ele>
        <time>2023-10-29T08:27:42Z</time>
      </trkpt>
      <trkpt lat="50.3452" lon="3.2585">
        <ele>82.10675</ele>
        <time>2023-10-29T08:27:43Z</time>
      </trkpt>
      <trkpt lat="50.34521" lon="3.2585">
        <ele>81.135315</ele>
        <time>2023-10-29T08:27:44Z</time>
      </trkpt>
      <trkpt lat="50.34522" lon="3.25851">
        <ele>80.97449</ele>
        <time>2023-10-29T08:27:45Z</time>
      </trkpt>
      <trkpt lat="50.34523" lon="3.25852">
        <ele>80.63013</ele>
        <time>2023-10-29T08:27:46Z</time>
      </trkpt>
      <trkpt lat="50.34524" lon="3.25853">
        <ele>81.207825</ele>
        <time>2023-10-29T08:27:47Z</time>
      </trkpt>
      <trkpt lat="50.34525" lon="3.25854">
        <ele>81.79706</ele>
        <time>2023-10-29T08:27:48Z</time>
      </trkpt>
      <trkpt lat="50.34526" lon="3.25855">
        <ele>81.68451</ele>
        <time>2023-10-29T08:27:49Z</time>
      </trkpt>
      <trkpt lat="50.34527" lon="3.25855">
        <ele>81.035034</ele>
        <time>2023-10-29T08:27:50Z</time>
      </trkpt>
      <trkpt lat="50.34527" lon="3.25855">
        <ele>80.93201</ele>
        <time>2023-10-29T08:27:51Z</time>
      </trkpt>
      <trkpt lat="50.34527" lon="3.25855">
        <ele>80.930115</ele>
        <time>2023-10-29T08:27:52Z</time>
      </trkpt>
      <trkpt lat="50.34527" lon="3.25855">
        <ele>80.92859</ele>
        <time>2023-10-29T08:27:53Z</time>
      </trkpt>
      <trkpt lat="50.34527" lon="3.25855">
        <ele>80.92645</ele>
        <time>2023-10-29T08:27:54Z</time>
      </trkpt>
      <trkpt lat="50.34527" lon="3.25855">
        <ele>80.11694</ele>
        <time>2023-10-29T08:27:55Z</time>
      </trkpt>
      <trkpt lat="50.34527" lon="3.25855">
        <ele>80.102905</ele>
        <time>2023-10-29T08:27:56Z</time>
      </trkpt>
      <trkpt lat="50.34527" lon="3.25855">
        <ele>80.47296</ele>
        <time>2023-10-29T08:27:57Z</time>
      </trkpt>
      <trkpt lat="50.34527" lon="3.25855">
        <ele>81.03143</ele>
        <time>2023-10-29T08:27:58Z</time>
      </trkpt>
      <trkpt lat="50.34528" lon="3.25854">
        <ele>81.211914</ele>
        <time>2023-10-29T08:27:59Z</time>
      </trkpt>
      <trkpt lat="50.34529" lon="3.25853">
        <ele>80.96521</ele>
        <time>2023-10-29T08:28:00Z</time>
      </trkpt>
      <trkpt lat="50.34529" lon="3.25853">
        <ele>80.662415</ele>
        <time>2023-10-29T08:28:01Z</time>
      </trkpt>
      <trkpt lat="50.34529" lon="3.25853">
        <ele>80.80286</ele>
        <time>2023-10-29T08:28:02Z</time>
      </trkpt>
      <trkpt lat="50.3453" lon="3.25853">
        <ele>80.791504</ele>
        <time>2023-10-29T08:28:03Z</time>
      </trkpt>
      <trkpt lat="50.34531" lon="3.25854">
        <ele>79.75214</ele>
        <time>2023-10-29T08:28:04Z</time>
      </trkpt>
      <trkpt lat="50.34531" lon="3.25854">
        <ele>79.608765</ele>
        <time>2023-10-29T08:28:05Z</time>
      </trkpt>
      <trkpt lat="50.34531" lon="3.25855">
        <ele>79.787964</ele>
        <time>2023-10-29T08:28:06Z</time>
      </trkpt>
      <trkpt lat="50.34531" lon="3.25855">
        <ele>79.55957</ele>
        <time>2023-10-29T08:28:07Z</time>
      </trkpt>
      <trkpt lat="50.34531" lon="3.25855">
        <ele>79.61786</ele>
        <time>2023-10-29T08:28:08Z</time>
      </trkpt>
      <trkpt lat="50.34531" lon="3.25855">
        <ele>79.63196</ele>
        <time>2023-10-29T08:28:09Z</time>
      </trkpt>
      <trkpt lat="50.34531" lon="3.25855">
        <ele>79.96124</ele>
        <time>2023-10-29T08:28:10Z</time>
      </trkpt>
      <trkpt lat="50.3453" lon="3.25854">
        <ele>80.34039</ele>
        <time>2023-10-29T08:28:11Z</time>
      </trkpt>
      <trkpt lat="50.3453" lon="3.25854">
        <ele>80.145996</ele>
        <time>2023-10-29T08:28:12Z</time>
      </trkpt>
      <trkpt lat="50.34529" lon="3.25854">
        <ele>80.64404</ele>
        <time>2023-10-29T08:28:13Z</time>
      </trkpt>
      <trkpt lat="50.34528" lon="3.25852">
        <ele>80.78186</ele>
        <time>2023-10-29T08:28:14Z</time>
      </trkpt>
      <trkpt lat="50.34528" lon="3.25849">
        <ele>80.50842</ele>
        <time>2023-10-29T08:28:15Z</time>
      </trkpt>
      <trkpt lat="50.34529" lon="3.25847">
        <ele>80.79608</ele>
        <time>2023-10-29T08:28:16Z</time>
      </trkpt>
      <trkpt lat="50.34529" lon="3.25846">
        <ele>81.32959</ele>
        <time>2023-10-29T08:28:17Z</time>
      </trkpt>
      <trkpt lat="50.34529" lon="3.25847">
        <ele>81.456604</ele>
        <time>2023-10-29T08:28:18Z</time>
      </trkpt>
      <trkpt lat="50.34529" lon="3.25847">
        <ele>81.57648</ele>
        <time>2023-10-29T08:28:19Z</time>
      </trkpt>
      <trkpt lat="50.34529" lon="3.25847">
        <ele>81.744446</ele>
        <time>2023-10-29T08:28:20Z</time>
      </trkpt>
      <trkpt lat="50.34528" lon="3.25847">
        <ele>81.59082</ele>
        <time>2023-10-29T08:28:21Z</time>
      </trkpt>
      <trkpt lat="50.34528" lon="3.25848">
        <ele>81.2005</ele>
        <time>2023-10-29T08:28:22Z</time>
      </trkpt>
      <trkpt lat="50.34528" lon="3.25848">
        <ele>81.140076</ele>
        <time>2023-10-29T08:28:23Z</time>
      </trkpt>
      <trkpt lat="50.34528" lon="3.25848">
        <ele>80.99353</ele>
        <time>2023-10-29T08:28:24Z</time>
      </trkpt>
      <trkpt lat="50.34528" lon="3.25849">
        <ele>81.140625</ele>
        <time>2023-10-29T08:28:25Z</time>
      </trkpt>
      <trkpt lat="50.34527" lon="3.2585">
        <ele>80.44122</ele>
        <time>2023-10-29T08:28:26Z</time>
      </trkpt>
      <trkpt lat="50.34526" lon="3.25852">
        <ele>80.24402</ele>
        <time>2023-10-29T08:28:27Z</time>
      </trkpt>
      <trkpt lat="50.34526" lon="3.25853">
        <ele>81.23047</ele>
        <time>2023-10-29T08:28:28Z</time>
      </trkpt>
      <trkpt lat="50.34526" lon="3.25855">
        <ele>80.75665</ele>
        <time>2023-10-29T08:28:29Z</time>
      </trkpt>
      <trkpt lat="50.34526" lon="3.25857">
        <ele>80.89996</ele>
        <time>2023-10-29T08:28:30Z</time>
      </trkpt>
      <trkpt lat="50.34526" lon="3.25858">
        <ele>80.96753</ele>
        <time>2023-10-29T08:28:31Z</time>
      </trkpt>
      <trkpt lat="50.34525" lon="3.25859">
        <ele>80.75775</ele>
        <time>2023-10-29T08:28:32Z</time>
      </trkpt>
      <trkpt lat="50.34526" lon="3.2586">
        <ele>80.82074</ele>
        <time>2023-10-29T08:28:33Z</time>
      </trkpt>
      <trkpt lat="50.34526" lon="3.25861">
        <ele>80.56769</ele>
        <time>2023-10-29T08:28:34Z</time>
      </trkpt>
      <trkpt lat="50.34527" lon="3.25861">
        <ele>80.773865</ele>
        <time>2023-10-29T08:28:35Z</time>
      </trkpt>
      <trkpt lat="50.34527" lon="3.25862">
        <ele>80.53693</ele>
        <time>2023-10-29T08:28:36Z</time>
      </trkpt>
      <trkpt lat="50.34527" lon="3.25862">
        <ele>80.48004</ele>
        <time>2023-10-29T08:28:37Z</time>
      </trkpt>
      <trkpt lat="50.34528" lon="3.25863">
        <ele>81.13861</ele>
        <time>2023-10-29T08:28:38Z</time>
      </trkpt>
      <trkpt lat="50.34526" lon="3.25863">
        <ele>80.520325</ele>
        <time>2023-10-29T08:28:39Z</time>
      </trkpt>
      <trkpt lat="50.34525" lon="3.25865">
        <ele>80.05322</ele>
        <time>2023-10-29T08:28:40Z</time>
      </trkpt>
      <trkpt lat="50.34525" lon="3.25866">
        <ele>80.88629</ele>
        <time>2023-10-29T08:28:41Z</time>
      </trkpt>
      <trkpt lat="50.34526" lon="3.25867">
        <ele>81.302734</ele>
        <time>2023-10-29T08:28:42Z</time>
      </trkpt>
      <trkpt lat="50.34528" lon="3.25867">
        <ele>81.187195</ele>
        <time>2023-10-29T08:28:43Z</time>
      </trkpt>
      <trkpt lat="50.34529" lon="3.25867">
        <ele>81.17029</ele>
        <time>2023-10-29T08:28:44Z</time>
      </trkpt>
      <trkpt lat="50.3453" lon="3.25867">
        <ele>79.89099</ele>
        <time>2023-10-29T08:28:45Z</time>
      </trkpt>
      <trkpt lat="50.34532" lon="3.25866">
        <ele>81.108215</ele>
        <time>2023-10-29T08:28:46Z</time>
      </trkpt>
      <trkpt lat="50.34533" lon="3.25866">
        <ele>81.63867</ele>
        <time>2023-10-29T08:28:47Z</time>
      </trkpt>
      <trkpt lat="50.34535" lon="3.25866">
        <ele>81.52252</ele>
        <time>2023-10-29T08:28:48Z</time>
      </trkpt>
      <trkpt lat="50.34535" lon="3.25866">
        <ele>80.10431</ele>
        <time>2023-10-29T08:28:49Z</time>
      </trkpt>
      <trkpt lat="50.34536" lon="3.25866">
        <ele>80.28265</ele>
        <time>2023-10-29T08:28:50Z</time>
      </trkpt>
      <trkpt lat="50.34536" lon="3.25867">
        <ele>80.13245</ele>
        <time>2023-10-29T08:28:51Z</time>
      </trkpt>
      <trkpt lat="50.34537" lon="3.25869">
        <ele>80.18335</ele>
        <time>2023-10-29T08:28:52Z</time>
      </trkpt>
      <trkpt lat="50.34538" lon="3.25869">
        <ele>79.33154</ele>
        <time>2023-10-29T08:28:53Z</time>
      </trkpt>
      <trkpt lat="50.34539" lon="3.2587">
        <ele>79.549255</ele>
        <time>2023-10-29T08:28:54Z</time>
      </trkpt>
      <trkpt lat="50.34541" lon="3.25871">
        <ele>79.415955</ele>
        <time>2023-10-29T08:28:55Z</time>
      </trkpt>
      <trkpt lat="50.34542" lon="3.25872">
        <ele>79.43463</ele>
        <time>2023-10-29T08:28:56Z</time>
      </trkpt>
      <trkpt lat="50.34543" lon="3.25873">
        <ele>79.603455</ele>
        <time>2023-10-29T08:28:57Z</time>
      </trkpt>
      <trkpt lat="50.34544" lon="3.25874">
        <ele>80.07208</ele>
        <time>2023-10-29T08:28:58Z</time>
      </trkpt>
      <trkpt lat="50.34545" lon="3.25875">
        <ele>79.653625</ele>
        <time>2023-10-29T08:28:59Z</time>
      </trkpt>
      <trkpt lat="50.34546" lon="3.25877">
        <ele>80.45117</ele>
        <time>2023-10-29T08:29:00Z</time>
      </trkpt>
      <trkpt lat="50.34547" lon="3.25878">
        <ele>80.69562</ele>
        <time>2023-10-29T08:29:01Z</time>
      </trkpt>
      <trkpt lat="50.34549" lon="3.25879">
        <ele>80.2417</ele>
        <time>2023-10-29T08:29:02Z</time>
      </trkpt>
      <trkpt lat="50.3455" lon="3.25879">
        <ele>79.99567</ele>
        <time>2023-10-29T08:29:03Z</time>
      </trkpt>
      <trkpt lat="50.34551" lon="3.2588">
        <ele>79.37842</ele>
        <time>2023-10-29T08:29:04Z</time>
      </trkpt>
      <trkpt lat="50.34552" lon="3.2588">
        <ele>79.3324</ele>
        <time>2023-10-29T08:29:05Z</time>
      </trkpt>
      <trkpt lat="50.34554" lon="3.25881">
        <ele>79.82214</ele>
        <time>2023-10-29T08:29:06Z</time>
      </trkpt>
      <trkpt lat="50.34555" lon="3.25882">
        <ele>80.352295</ele>
        <time>2023-10-29T08:29:07Z</time>
      </trkpt>
      <trkpt lat="50.34556" lon="3.25883">
        <ele>79.45984</ele>
        <time>2023-10-29T08:29:08Z</time>
      </trkpt>
      <trkpt lat="50.34557" lon="3.25884">
        <ele>79.170044</ele>
        <time>2023-10-29T08:29:09Z</time>
      </trkpt>
      <trkpt lat="50.34558" lon="3.25885">
        <ele>78.91382</ele>
        <time>2023-10-29T08:29:10Z</time>
      </trkpt>
      <trkpt lat="50.34559" lon="3.25886">
        <ele>77.59668</ele>
        <time>2023-10-29T08:29:11Z</time>
      </trkpt>
      <trkpt lat="50.3456" lon="3.25887">
        <ele>77.6405</ele>
        <time>2023-10-29T08:29:12Z</time>
      </trkpt>
      <trkpt lat="50.34562" lon="3.25888">
        <ele>77.15076</ele>
        <time>2023-10-29T08:29:13Z</time>
      </trkpt>
      <trkpt lat="50.34562" lon="3.25889">
        <ele>77.15253</ele>
        <time>2023-10-29T08:29:14Z</time>
      </trkpt>
      <trkpt lat="50.34563" lon="3.2589">
        <ele>77.38092</ele>
        <time>2023-10-29T08:29:15Z</time>
      </trkpt>
      <trkpt lat="50.34565" lon="3.25891">
        <ele>78.23511</ele>
        <time>2023-10-29T08:29:16Z</time>
      </trkpt>
      <trkpt lat="50.34566" lon="3.25893">
        <ele>78.58136</ele>
        <time>2023-10-29T08:29:17Z</time>
      </trkpt>
      <trkpt lat="50.34567" lon="3.25894">
        <ele>78.83557</ele>
        <time>2023-10-29T08:29:18Z</time>
      </trkpt>
      <trkpt lat="50.34568" lon="3.25895">
        <ele>77.25488</ele>
        <time>2023-10-29T08:29:19Z</time>
      </trkpt>
      <trkpt lat="50.34569" lon="3.25896">
        <ele>76.766785</ele>
        <time>2023-10-29T08:29:20Z</time>
      </trkpt>
      <trkpt lat="50.3457" lon="3.25897">
        <ele>77.198975</ele>
        <time>2023-10-29T08:29:21Z</time>
      </trkpt>
      <trkpt lat="50.34571" lon="3.25898">
        <ele>76.96484</ele>
        <time>2023-10-29T08:29:22Z</time>
      </trkpt>
      <trkpt lat="50.34572" lon="3.259">
        <ele>76.76648</ele>
        <time>2023-10-29T08:29:23Z</time>
      </trkpt>
      <trkpt lat="50.34573" lon="3.25901">
        <ele>76.85278</ele>
        <time>2023-10-29T08:29:24Z</time>
      </trkpt>
      <trkpt lat="50.34574" lon="3.25902">
        <ele>76.55133</ele>
        <time>2023-10-29T08:29:25Z</time>
      </trkpt>
      <trkpt lat="50.34575" lon="3.25903">
        <ele>77.53644</ele>
        <time>2023-10-29T08:29:26Z</time>
      </trkpt>
      <trkpt lat="50.34577" lon="3.25904">
        <ele>78.013</ele>
        <time>2023-10-29T08:29:27Z</time>
      </trkpt>
      <trkpt lat="50.34578" lon="3.25905">
        <ele>77.91852</ele>
        <time>2023-10-29T08:29:28Z</time>
      </trkpt>
      <trkpt lat="50.3458" lon="3.25907">
        <ele>77.14429</ele>
        <time>2023-10-29T08:29:29Z</time>
      </trkpt>
      <trkpt lat="50.3458" lon="3.25908">
        <ele>76.820435</ele>
        <time>2023-10-29T08:29:30Z</time>
      </trkpt>
      <trkpt lat="50.34581" lon="3.25909">
        <ele>75.34479</ele>
        <time>2023-10-29T08:29:31Z</time>
      </trkpt>
      <trkpt lat="50.34582" lon="3.2591">
        <ele>75.54303</ele>
        <time>2023-10-29T08:29:32Z</time>
      </trkpt>
      <trkpt lat="50.34583" lon="3.25911">
        <ele>76.11017</ele>
        <time>2023-10-29T08:29:33Z</time>
      </trkpt>
      <trkpt lat="50.34585" lon="3.25912">
        <ele>75.40332</ele>
        <time>2023-10-29T08:29:34Z</time>
      </trkpt>
      <trkpt lat="50.34586" lon="3.25913">
        <ele>76.49591</ele>
        <time>2023-10-29T08:29:35Z</time>
      </trkpt>
      <trkpt lat="50.34587" lon="3.25914">
        <ele>76.53192</ele>
        <time>2023-10-29T08:29:36Z</time>
      </trkpt>
      <trkpt lat="50.34588" lon="3.25916">
        <ele>76.97345</ele>
        <time>2023-10-29T08:29:37Z</time>
      </trkpt>
      <trkpt lat="50.34589" lon="3.25917">
        <ele>76.82056</ele>
        <time>2023-10-29T08:29:38Z</time>
      </trkpt>
      <trkpt lat="50.3459" lon="3.25918">
        <ele>75.88672</ele>
        <time>2023-10-29T08:29:39Z</time>
      </trkpt>
      <trkpt lat="50.34591" lon="3.2592">
        <ele>76.31641</ele>
        <time>2023-10-29T08:29:40Z</time>
      </trkpt>
      <trkpt lat="50.34592" lon="3.2592">
        <ele>76.306335</ele>
        <time>2023-10-29T08:29:41Z</time>
      </trkpt>
      <trkpt lat="50.34593" lon="3.25922">
        <ele>76.03851</ele>
        <time>2023-10-29T08:29:42Z</time>
      </trkpt>
      <trkpt lat="50.34594" lon="3.25922">
        <ele>75.7641</ele>
        <time>2023-10-29T08:29:43Z</time>
      </trkpt>
      <trkpt lat="50.34595" lon="3.25923">
        <ele>76.108215</ele>
        <time>2023-10-29T08:29:44Z</time>
      </trkpt>
      <trkpt lat="50.34597" lon="3.25924">
        <ele>75.90137</ele>
        <time>2023-10-29T08:29:45Z</time>
      </trkpt>
      <trkpt lat="50.34598" lon="3.25925">
        <ele>75.77118</ele>
        <time>2023-10-29T08:29:46Z</time>
      </trkpt>
      <trkpt lat="50.34599" lon="3.25926">
        <ele>76.14386</ele>
        <time>2023-10-29T08:29:47Z</time>
      </trkpt>
      <trkpt lat="50.346" lon="3.25927">
        <ele>76.48639</ele>
        <time>2023-10-29T08:29:48Z</time>
      </trkpt>
      <trkpt lat="50.34601" lon="3.25928">
        <ele>76.26807</ele>
        <time>2023-10-29T08:29:49Z</time>
      </trkpt>
      <trkpt lat="50.34602" lon="3.25929">
        <ele>76.64929</ele>
        <time>2023-10-29T08:29:50Z</time>
      </trkpt>
      <trkpt lat="50.34604" lon="3.2593">
        <ele>77.106995</ele>
        <time>2023-10-29T08:29:51Z</time>
      </trkpt>
      <trkpt lat="50.34605" lon="3.25931">
        <ele>77.10901</ele>
        <time>2023-10-29T08:29:52Z</time>
      </trkpt>
      <trkpt lat="50.34606" lon="3.25931">
        <ele>76.96088</ele>
        <time>2023-10-29T08:29:53Z</time>
      </trkpt>
      <trkpt lat="50.34607" lon="3.25932">
        <ele>77.01782</ele>
        <time>2023-10-29T08:29:54Z</time>
      </trkpt>
      <trkpt lat="50.34608" lon="3.25931">
        <ele>76.99597</ele>
        <time>2023-10-29T08:29:55Z</time>
      </trkpt>
      <trkpt lat="50.3461" lon="3.25931">
        <ele>77.732056</ele>
        <time>2023-10-29T08:29:56Z</time>
      </trkpt>
      <trkpt lat="50.34611" lon="3.25932">
        <ele>76.805176</ele>
        <time>2023-10-29T08:29:57Z</time>
      </trkpt>
      <trkpt lat="50.34612" lon="3.25934">
        <ele>77.601074</ele>
        <time>2023-10-29T08:29:58Z</time>
      </trkpt>
      <trkpt lat="50.34613" lon="3.25935">
        <ele>78.15863</ele>
        <time>2023-10-29T08:29:59Z</time>
      </trkpt>
      <trkpt lat="50.34613" lon="3.25935">
        <ele>78.8186</ele>
        <time>2023-10-29T08:30:00Z</time>
      </trkpt>
      <trkpt lat="50.34615" lon="3.25936">
        <ele>79.49835</ele>
        <time>2023-10-29T08:30:01Z</time>
      </trkpt>
      <trkpt lat="50.34616" lon="3.25937">
        <ele>79.444824</ele>
        <time>2023-10-29T08:30:02Z</time>
      </trkpt>
      <trkpt lat="50.34617" lon="3.25938">
        <ele>79.24341</ele>
        <time>2023-10-29T08:30:03Z</time>
      </trkpt>
      <trkpt lat="50.34618" lon="3.25939">
        <ele>79.65375</ele>
        <time>2023-10-29T08:30:04Z</time>
      </trkpt>
      <trkpt lat="50.34619" lon="3.2594">
        <ele>79.78949</ele>
        <time>2023-10-29T08:30:05Z</time>
      </trkpt>
      <trkpt lat="50.3462" lon="3.25941">
        <ele>80.05994</ele>
        <time>2023-10-29T08:30:06Z</time>
      </trkpt>
      <trkpt lat="50.34621" lon="3.25942">
        <ele>80.0462</ele>
        <time>2023-10-29T08:30:07Z</time>
      </trkpt>
      <trkpt lat="50.34623" lon="3.25943">
        <ele>79.944885</ele>
        <time>2023-10-29T08:30:08Z</time>
      </trkpt>
      <trkpt lat="50.34624" lon="3.25944">
        <ele>79.58838</ele>
        <time>2023-10-29T08:30:09Z</time>
      </trkpt>
      <trkpt lat="50.34625" lon="3.25945">
        <ele>79.82068</ele>
        <time>2023-10-29T08:30:10Z</time>
      </trkpt>
      <trkpt lat="50.34626" lon="3.25946">
        <ele>79.546326</ele>
        <time>2023-10-29T08:30:11Z</time>
      </trkpt>
      <trkpt lat="50.34627" lon="3.25947">
        <ele>79.476746</ele>
        <time>2023-10-29T08:30:12Z</time>
      </trkpt>
      <trkpt lat="50.34628" lon="3.25947">
        <ele>79.88043</ele>
        <time>2023-10-29T08:30:13Z</time>
      </trkpt>
      <trkpt lat="50.34629" lon="3.25948">
        <ele>79.6629</ele>
        <time>2023-10-29T08:30:14Z</time>
      </trkpt>
      <trkpt lat="50.3463" lon="3.25949">
        <ele>79.578674</ele>
        <time>2023-10-29T08:30:15Z</time>
      </trkpt>
      <trkpt lat="50.34631" lon="3.25949">
        <ele>79.98419</ele>
        <time>2023-10-29T08:30:16Z</time>
      </trkpt>
      <trkpt lat="50.34633" lon="3.2595">
        <ele>79.86566</ele>
        <time>2023-10-29T08:30:17Z</time>
      </trkpt>
      <trkpt lat="50.34634" lon="3.25951">
        <ele>80.11865</ele>
        <time>2023-10-29T08:30:18Z</time>
      </trkpt>
      <trkpt lat="50.34635" lon="3.25951">
        <ele>79.877014</ele>
        <time>2023-10-29T08:30:19Z</time>
      </trkpt>
      <trkpt lat="50.34636" lon="3.25952">
        <ele>79.37933</ele>
        <time>2023-10-29T08:30:20Z</time>
      </trkpt>
      <trkpt lat="50.34638" lon="3.25953">
        <ele>79.65625</ele>
        <time>2023-10-29T08:30:21Z</time>
      </trkpt>
      <trkpt lat="50.34639" lon="3.25953">
        <ele>79.55853</ele>
        <time>2023-10-29T08:30:22Z</time>
      </trkpt>
      <trkpt lat="50.3464" lon="3.25954">
        <ele>79.08246</ele>
        <time>2023-10-29T08:30:23Z</time>
      </trkpt>
      <trkpt lat="50.34641" lon="3.25955">
        <ele>78.29608</ele>
        <time>2023-10-29T08:30:24Z</time>
      </trkpt>
      <trkpt lat="50.34642" lon="3.25955">
        <ele>77.9339</ele>
        <time>2023-10-29T08:30:25Z</time>
      </trkpt>
      <trkpt lat="50.34643" lon="3.25956">
        <ele>77.947815</ele>
        <time>2023-10-29T08:30:26Z</time>
      </trkpt>
      <trkpt lat="50.34644" lon="3.25957">
        <ele>77.8363</ele>
        <time>2023-10-29T08:30:27Z</time>
      </trkpt>
      <trkpt lat="50.34646" lon="3.25958">
        <ele>77.87579</ele>
        <time>2023-10-29T08:30:28Z</time>
      </trkpt>
      <trkpt lat="50.34647" lon="3.25958">
        <ele>78.4082</ele>
        <time>2023-10-29T08:30:29Z</time>
      </trkpt>
      <trkpt lat="50.34649" lon="3.25959">
        <ele>78.41351</ele>
        <time>2023-10-29T08:30:30Z</time>
      </trkpt>
      <trkpt lat="50.3465" lon="3.2596">
        <ele>78.14392</ele>
        <time>2023-10-29T08:30:31Z</time>
      </trkpt>
      <trkpt lat="50.34651" lon="3.25961">
        <ele>79.03076</ele>
        <time>2023-10-29T08:30:32Z</time>
      </trkpt>
      <trkpt lat="50.34652" lon="3.25962">
        <ele>79.38727</ele>
        <time>2023-10-29T08:30:33Z</time>
      </trkpt>
      <trkpt lat="50.34654" lon="3.25963">
        <ele>79.65912</ele>
        <time>2023-10-29T08:30:34Z</time>
      </trkpt>
      <trkpt lat="50.34655" lon="3.25963">
        <ele>79.72278</ele>
        <time>2023-10-29T08:30:35Z</time>
      </trkpt>
      <trkpt lat="50.34656" lon="3.25964">
        <ele>78.84894</ele>
        <time>2023-10-29T08:30:36Z</time>
      </trkpt>
      <trkpt lat="50.34657" lon="3.25964">
        <ele>78.66052</ele>
        <time>2023-10-29T08:30:37Z</time>
      </trkpt>
      <trkpt lat="50.34658" lon="3.25965">
        <ele>78.967896</ele>
        <time>2023-10-29T08:30:38Z</time>
      </trkpt>
      <trkpt lat="50.3466" lon="3.25965">
        <ele>78.583435</ele>
        <time>2023-10-29T08:30:39Z</time>
      </trkpt>
      <trkpt lat="50.34661" lon="3.25965">
        <ele>78.464966</ele>
        <time>2023-10-29T08:30:40Z</time>
      </trkpt>
      <trkpt lat="50.34662" lon="3.25965">
        <ele>78.8667</ele>
        <time>2023-10-29T08:30:41Z</time>
      </trkpt>
      <trkpt lat="50.34663" lon="3.25965">
        <ele>78.41077</ele>
        <time>2023-10-29T08:30:42Z</time>
      </trkpt>
      <trkpt lat="50.34665" lon="3.25965">
        <ele>78.470764</ele>
        <time>2023-10-29T08:30:43Z</time>
      </trkpt>
      <trkpt lat="50.34666" lon="3.25965">
        <ele>80.02234</ele>
        <time>2023-10-29T08:30:44Z</time>
      </trkpt>
      <trkpt lat="50.34667" lon="3.25965">
        <ele>80.14087</ele>
        <time>2023-10-29T08:30:45Z</time>
      </trkpt>
      <trkpt lat="50.34669" lon="3.25965">
        <ele>80.603516</ele>
        <time>2023-10-29T08:30:46Z</time>
      </trkpt>
      <trkpt lat="50.3467" lon="3.25965">
        <ele>80.47345</ele>
        <time>2023-10-29T08:30:47Z</time>
      </trkpt>
      <trkpt lat="50.34671" lon="3.25964">
        <ele>80.87042</ele>
        <time>2023-10-29T08:30:48Z</time>
      </trkpt>
      <trkpt lat="50.34672" lon="3.25964">
        <ele>81.10162</ele>
        <time>2023-10-29T08:30:49Z</time>
      </trkpt>
      <trkpt lat="50.34673" lon="3.25963">
        <ele>80.82434</ele>
        <time>2023-10-29T08:30:50Z</time>
      </trkpt>
      <trkpt lat="50.34674" lon="3.25962">
        <ele>80.6369</ele>
        <time>2023-10-29T08:30:51Z</time>
      </trkpt>
      <trkpt lat="50.34675" lon="3.25961">
        <ele>81.22339</ele>
        <time>2023-10-29T08:30:52Z</time>
      </trkpt>
      <trkpt lat="50.34676" lon="3.25961">
        <ele>80.90765</ele>
        <time>2023-10-29T08:30:53Z</time>
      </trkpt>
      <trkpt lat="50.34677" lon="3.2596">
        <ele>80.64105</ele>
        <time>2023-10-29T08:30:54Z</time>
      </trkpt>
      <trkpt lat="50.34678" lon="3.25959">
        <ele>80.82141</ele>
        <time>2023-10-29T08:30:55Z</time>
      </trkpt>
      <trkpt lat="50.34679" lon="3.25958">
        <ele>80.54645</ele>
        <time>2023-10-29T08:30:56Z</time>
      </trkpt>
      <trkpt lat="50.3468" lon="3.25957">
        <ele>80.63446</ele>
        <time>2023-10-29T08:30:57Z</time>
      </trkpt>
      <trkpt lat="50.34681" lon="3.25956">
        <ele>81.00781</ele>
        <time>2023-10-29T08:30:58Z</time>
      </trkpt>
      <trkpt lat="50.34682" lon="3.25955">
        <ele>80.53693</ele>
        <time>2023-10-29T08:30:59Z</time>
      </trkpt>
      <trkpt lat="50.34683" lon="3.25954">
        <ele>80.69977</ele>
        <time>2023-10-29T08:31:00Z</time>
      </trkpt>
      <trkpt lat="50.34684" lon="3.25953">
        <ele>81.19891</ele>
        <time>2023-10-29T08:31:01Z</time>
      </trkpt>
      <trkpt lat="50.34685" lon="3.25952">
        <ele>81.55524</ele>
        <time>2023-10-29T08:31:02Z</time>
      </trkpt>
      <trkpt lat="50.34686" lon="3.25951">
        <ele>81.373535</ele>
        <time>2023-10-29T08:31:03Z</time>
      </trkpt>
      <trkpt lat="50.34686" lon="3.25949">
        <ele>81.76892</ele>
        <time>2023-10-29T08:31:04Z</time>
      </trkpt>
      <trkpt lat="50.34687" lon="3.25948">
        <ele>81.671326</ele>
        <time>2023-10-29T08:31:05Z</time>
      </trkpt>
      <trkpt lat="50.34688" lon="3.25947">
        <ele>81.37268</ele>
        <time>2023-10-29T08:31:06Z</time>
      </trkpt>
      <trkpt lat="50.34689" lon="3.25946">
        <ele>81.578735</ele>
        <time>2023-10-29T08:31:07Z</time>
      </trkpt>
      <trkpt lat="50.3469" lon="3.25945">
        <ele>81.47131</ele>
        <time>2023-10-29T08:31:08Z</time>
      </trkpt>
      <trkpt lat="50.34691" lon="3.25944">
        <ele>81.44757</ele>
        <time>2023-10-29T08:31:09Z</time>
      </trkpt>
      <trkpt lat="50.34692" lon="3.25944">
        <ele>81.71912</ele>
        <time>2023-10-29T08:31:10Z</time>
      </trkpt>
      <trkpt lat="50.34693" lon="3.25943">
        <ele>81.79358</ele>
        <time>2023-10-29T08:31:11Z</time>
      </trkpt>
      <trkpt lat="50.34695" lon="3.25942">
        <ele>81.572266</ele>
        <time>2023-10-29T08:31:12Z</time>
      </trkpt>
      <trkpt lat="50.34695" lon="3.2594">
        <ele>81.59686</ele>
        <time>2023-10-29T08:31:13Z</time>
      </trkpt>
      <trkpt lat="50.34697" lon="3.25939">
        <ele>81.93762</ele>
        <time>2023-10-29T08:31:14Z</time>
      </trkpt>
      <trkpt lat="50.34698" lon="3.25938">
        <ele>82.17505</ele>
        <time>2023-10-29T08:31:15Z</time>
      </trkpt>
      <trkpt lat="50.34699" lon="3.25937">
        <ele>81.97168</ele>
        <time>2023-10-29T08:31:16Z</time>
      </trkpt>
      <trkpt lat="50.34699" lon="3.25935">
        <ele>81.69232</ele>
        <time>2023-10-29T08:31:17Z</time>
      </trkpt>
      <trkpt lat="50.347" lon="3.25934">
        <ele>82.141235</ele>
        <time>2023-10-29T08:31:18Z</time>
      </trkpt>
      <trkpt lat="50.34702" lon="3.25934">
        <ele>81.90723</ele>
        <time>2023-10-29T08:31:19Z</time>
      </trkpt>
      <trkpt lat="50.34703" lon="3.25933">
        <ele>81.58801</ele>
        <time>2023-10-29T08:31:20Z</time>
      </trkpt>
      <trkpt lat="50.34704" lon="3.25932">
        <ele>81.28436</ele>
        <time>2023-10-29T08:31:21Z</time>
      </trkpt>
      <trkpt lat="50.34705" lon="3.25931">
        <ele>81.768555</ele>
        <time>2023-10-29T08:31:22Z</time>
      </trkpt>
      <trkpt lat="50.34706" lon="3.2593">
        <ele>80.992676</ele>
        <time>2023-10-29T08:31:23Z</time>
      </trkpt>
      <trkpt lat="50.34707" lon="3.25929">
        <ele>80.90997</ele>
        <time>2023-10-29T08:31:24Z</time>
      </trkpt>
      <trkpt lat="50.34708" lon="3.25928">
        <ele>81.208435</ele>
        <time>2023-10-29T08:31:25Z</time>
      </trkpt>
      <trkpt lat="50.34709" lon="3.25927">
        <ele>81.34393</ele>
        <time>2023-10-29T08:31:26Z</time>
      </trkpt>
      <trkpt lat="50.3471" lon="3.25926">
        <ele>81.533875</ele>
        <time>2023-10-29T08:31:27Z</time>
      </trkpt>
      <trkpt lat="50.34711" lon="3.25924">
        <ele>81.692444</ele>
        <time>2023-10-29T08:31:28Z</time>
      </trkpt>
      <trkpt lat="50.34712" lon="3.25923">
        <ele>81.6261</ele>
        <time>2023-10-29T08:31:29Z</time>
      </trkpt>
      <trkpt lat="50.34713" lon="3.25922">
        <ele>81.8009</ele>
        <time>2023-10-29T08:31:30Z</time>
      </trkpt>
      <trkpt lat="50.34714" lon="3.25921">
        <ele>81.35803</ele>
        <time>2023-10-29T08:31:31Z</time>
      </trkpt>
      <trkpt lat="50.34715" lon="3.2592">
        <ele>80.86267</ele>
        <time>2023-10-29T08:31:32Z</time>
      </trkpt>
      <trkpt lat="50.34716" lon="3.25919">
        <ele>81.04224</ele>
        <time>2023-10-29T08:31:33Z</time>
      </trkpt>
      <trkpt lat="50.34717" lon="3.25919">
        <ele>80.59973</ele>
        <time>2023-10-29T08:31:34Z</time>
      </trkpt>
      <trkpt lat="50.34718" lon="3.25918">
        <ele>80.4884</ele>
        <time>2023-10-29T08:31:35Z</time>
      </trkpt>
      <trkpt lat="50.34719" lon="3.25916">
        <ele>80.10535</ele>
        <time>2023-10-29T08:31:36Z</time>
      </trkpt>
      <trkpt lat="50.3472" lon="3.25915">
        <ele>80.827576</ele>
        <time>2023-10-29T08:31:37Z</time>
      </trkpt>
      <trkpt lat="50.34721" lon="3.25914">
        <ele>81.68585</ele>
        <time>2023-10-29T08:31:38Z</time>
      </trkpt>
      <trkpt lat="50.34721" lon="3.25912">
        <ele>81.21295</ele>
        <time>2023-10-29T08:31:39Z</time>
      </trkpt>
      <trkpt lat="50.34722" lon="3.25911">
        <ele>81.33441</ele>
        <time>2023-10-29T08:31:40Z</time>
      </trkpt>
      <trkpt lat="50.34723" lon="3.25909">
        <ele>81.764465</ele>
        <time>2023-10-29T08:31:41Z</time>
      </trkpt>
      <trkpt lat="50.34723" lon="3.25908">
        <ele>81.332886</ele>
        <time>2023-10-29T08:31:42Z</time>
      </trkpt>
      <trkpt lat="50.34724" lon="3.25908">
        <ele>80.65839</ele>
        <time>2023-10-29T08:31:43Z</time>
      </trkpt>
      <trkpt lat="50.34726" lon="3.25906">
        <ele>80.164856</ele>
        <time>2023-10-29T08:31:44Z</time>
      </trkpt>
      <trkpt lat="50.34726" lon="3.25905">
        <ele>80.17621</ele>
        <time>2023-10-29T08:31:45Z</time>
      </trkpt>
      <trkpt lat="50.34728" lon="3.25903">
        <ele>81.53729</ele>
        <time>2023-10-29T08:31:46Z</time>
      </trkpt>
      <trkpt lat="50.34729" lon="3.25902">
        <ele>81.37561</ele>
        <time>2023-10-29T08:31:47Z</time>
      </trkpt>
      <trkpt lat="50.34729" lon="3.25901">
        <ele>81.30719</ele>
        <time>2023-10-29T08:31:48Z</time>
      </trkpt>
      <trkpt lat="50.3473" lon="3.259">
        <ele>81.22882</ele>
        <time>2023-10-29T08:31:49Z</time>
      </trkpt>
      <trkpt lat="50.34731" lon="3.25899">
        <ele>81.347534</ele>
        <time>2023-10-29T08:31:50Z</time>
      </trkpt>
      <trkpt lat="50.34732" lon="3.25898">
        <ele>81.83496</ele>
        <time>2023-10-29T08:31:51Z</time>
      </trkpt>
      <trkpt lat="50.34733" lon="3.25897">
        <ele>81.416016</ele>
        <time>2023-10-29T08:31:52Z</time>
      </trkpt>
      <trkpt lat="50.34734" lon="3.25896">
        <ele>81.360596</ele>
        <time>2023-10-29T08:31:53Z</time>
      </trkpt>
      <trkpt lat="50.34735" lon="3.25895">
        <ele>82.058716</ele>
        <time>2023-10-29T08:31:54Z</time>
      </trkpt>
      <trkpt lat="50.34736" lon="3.25894">
        <ele>81.45886</ele>
        <time>2023-10-29T08:31:55Z</time>
      </trkpt>
      <trkpt lat="50.34737" lon="3.25894">
        <ele>81.29047</ele>
        <time>2023-10-29T08:31:56Z</time>
      </trkpt>
      <trkpt lat="50.34738" lon="3.25893">
        <ele>81.12927</ele>
        <time>2023-10-29T08:31:57Z</time>
      </trkpt>
      <trkpt lat="50.34739" lon="3.25892">
        <ele>81.45874</ele>
        <time>2023-10-29T08:31:58Z</time>
      </trkpt>
      <trkpt lat="50.3474" lon="3.25891">
        <ele>81.77417</ele>
        <time>2023-10-29T08:31:59Z</time>
      </trkpt>
      <trkpt lat="50.34741" lon="3.2589">
        <ele>81.388794</ele>
        <time>2023-10-29T08:32:00Z</time>
      </trkpt>
      <trkpt lat="50.34742" lon="3.25889">
        <ele>81.82019</ele>
        <time>2023-10-29T08:32:01Z</time>
      </trkpt>
      <trkpt lat="50.34743" lon="3.25888">
        <ele>81.46997</ele>
        <time>2023-10-29T08:32:02Z</time>
      </trkpt>
      <trkpt lat="50.34745" lon="3.25887">
        <ele>81.31134</ele>
        <time>2023-10-29T08:32:03Z</time>
      </trkpt>
      <trkpt lat="50.34745" lon="3.25886">
        <ele>81.66388</ele>
        <time>2023-10-29T08:32:04Z</time>
      </trkpt>
      <trkpt lat="50.34747" lon="3.25886">
        <ele>81.90448</ele>
        <time>2023-10-29T08:32:05Z</time>
      </trkpt>
      <trkpt lat="50.34748" lon="3.25885">
        <ele>82.18494</ele>
        <time>2023-10-29T08:32:06Z</time>
      </trkpt>
      <trkpt lat="50.34749" lon="3.25884">
        <ele>82.02594</ele>
        <time>2023-10-29T08:32:07Z</time>
      </trkpt>
      <trkpt lat="50.3475" lon="3.25883">
        <ele>81.369934</ele>
        <time>2023-10-29T08:32:08Z</time>
      </trkpt>
      <trkpt lat="50.34752" lon="3.25882">
        <ele>81.80054</ele>
        <time>2023-10-29T08:32:09Z</time>
      </trkpt>
      <trkpt lat="50.34753" lon="3.25882">
        <ele>81.08362</ele>
        <time>2023-10-29T08:32:10Z</time>
      </trkpt>
      <trkpt lat="50.34755" lon="3.25881">
        <ele>81.085205</ele>
        <time>2023-10-29T08:32:11Z</time>
      </trkpt>
      <trkpt lat="50.34756" lon="3.25881">
        <ele>81.299866</ele>
        <time>2023-10-29T08:32:12Z</time>
      </trkpt>
      <trkpt lat="50.34757" lon="3.25881">
        <ele>81.570435</ele>
        <time>2023-10-29T08:32:13Z</time>
      </trkpt>
      <trkpt lat="50.34758" lon="3.25881">
        <ele>81.68323</ele>
        <time>2023-10-29T08:32:14Z</time>
      </trkpt>
      <trkpt lat="50.3476" lon="3.2588">
        <ele>81.48572</ele>
        <time>2023-10-29T08:32:15Z</time>
      </trkpt>
      <trkpt lat="50.34761" lon="3.2588">
        <ele>81.62909</ele>
        <time>2023-10-29T08:32:16Z</time>
      </trkpt>
      <trkpt lat="50.34762" lon="3.2588">
        <ele>81.621704</ele>
        <time>2023-10-29T08:32:17Z</time>
      </trkpt>
      <trkpt lat="50.34764" lon="3.25881">
        <ele>81.43933</ele>
        <time>2023-10-29T08:32:18Z</time>
      </trkpt>
      <trkpt lat="50.34765" lon="3.25882">
        <ele>81.385925</ele>
        <time>2023-10-29T08:32:19Z</time>
      </trkpt>
      <trkpt lat="50.34766" lon="3.25882">
        <ele>81.56256</ele>
        <time>2023-10-29T08:32:20Z</time>
      </trkpt>
      <trkpt lat="50.34768" lon="3.25882">
        <ele>81.52435</ele>
        <time>2023-10-29T08:32:21Z</time>
      </trkpt>
      <trkpt lat="50.34768" lon="3.25883">
        <ele>81.13806</ele>
        <time>2023-10-29T08:32:22Z</time>
      </trkpt>
      <trkpt lat="50.34769" lon="3.25883">
        <ele>80.52838</ele>
        <time>2023-10-29T08:32:23Z</time>
      </trkpt>
      <trkpt lat="50.34771" lon="3.25884">
        <ele>80.02582</ele>
        <time>2023-10-29T08:32:24Z</time>
      </trkpt>
      <trkpt lat="50.34772" lon="3.25885">
        <ele>79.905396</ele>
        <time>2023-10-29T08:32:25Z</time>
      </trkpt>
      <trkpt lat="50.34773" lon="3.25886">
        <ele>79.384094</ele>
        <time>2023-10-29T08:32:26Z</time>
      </trkpt>
      <trkpt lat="50.34774" lon="3.25887">
        <ele>79.341064</ele>
        <time>2023-10-29T08:32:27Z</time>
      </trkpt>
      <trkpt lat="50.34775" lon="3.25888">
        <ele>79.92975</ele>
        <time>2023-10-29T08:32:28Z</time>
      </trkpt>
      <trkpt lat="50.34776" lon="3.25889">
        <ele>79.85803</ele>
        <time>2023-10-29T08:32:29Z</time>
      </trkpt>
      <trkpt lat="50.34777" lon="3.2589">
        <ele>80.56061</ele>
        <time>2023-10-29T08:32:30Z</time>
      </trkpt>
      <trkpt lat="50.34778" lon="3.25891">
        <ele>79.929016</ele>
        <time>2023-10-29T08:32:31Z</time>
      </trkpt>
      <trkpt lat="50.34779" lon="3.25892">
        <ele>79.961914</ele>
        <time>2023-10-29T08:32:32Z</time>
      </trkpt>
      <trkpt lat="50.3478" lon="3.25894">
        <ele>79.52496</ele>
        <time>2023-10-29T08:32:33Z</time>
      </trkpt>
      <trkpt lat="50.34781" lon="3.25895">
        <ele>79.64813</ele>
        <time>2023-10-29T08:32:34Z</time>
      </trkpt>
      <trkpt lat="50.34782" lon="3.25896">
        <ele>79.99835</ele>
        <time>2023-10-29T08:32:35Z</time>
      </trkpt>
      <trkpt lat="50.34782" lon="3.25898">
        <ele>79.45532</ele>
        <time>2023-10-29T08:32:36Z</time>
      </trkpt>
      <trkpt lat="50.34784" lon="3.25899">
        <ele>78.51538</ele>
        <time>2023-10-29T08:32:37Z</time>
      </trkpt>
      <trkpt lat="50.34785" lon="3.259">
        <ele>79.00665</ele>
        <time>2023-10-29T08:32:38Z</time>
      </trkpt>
      <trkpt lat="50.34786" lon="3.25901">
        <ele>78.92023</ele>
        <time>2023-10-29T08:32:39Z</time>
      </trkpt>
      <trkpt lat="50.34787" lon="3.25902">
        <ele>79.335815</ele>
        <time>2023-10-29T08:32:40Z</time>
      </trkpt>
      <trkpt lat="50.34789" lon="3.25904">
        <ele>78.648926</ele>
        <time>2023-10-29T08:32:41Z</time>
      </trkpt>
      <trkpt lat="50.3479" lon="3.25905">
        <ele>79.49573</ele>
        <time>2023-10-29T08:32:42Z</time>
      </trkpt>
      <trkpt lat="50.34791" lon="3.25906">
        <ele>80.50989</ele>
        <time>2023-10-29T08:32:43Z</time>
      </trkpt>
      <trkpt lat="50.34792" lon="3.25907">
        <ele>80.46362</ele>
        <time>2023-10-29T08:32:44Z</time>
      </trkpt>
      <trkpt lat="50.34793" lon="3.25909">
        <ele>80.64441</ele>
        <time>2023-10-29T08:32:45Z</time>
      </trkpt>
      <trkpt lat="50.34794" lon="3.2591">
        <ele>80.999756</ele>
        <time>2023-10-29T08:32:46Z</time>
      </trkpt>
      <trkpt lat="50.34795" lon="3.25911">
        <ele>80.81592</ele>
        <time>2023-10-29T08:32:47Z</time>
      </trkpt>
      <trkpt lat="50.34797" lon="3.25912">
        <ele>80.55353</ele>
        <time>2023-10-29T08:32:48Z</time>
      </trkpt>
      <trkpt lat="50.34797" lon="3.25913">
        <ele>80.881226</ele>
        <time>2023-10-29T08:32:49Z</time>
      </trkpt>
      <trkpt lat="50.34798" lon="3.25915">
        <ele>81.90924</ele>
        <time>2023-10-29T08:32:50Z</time>
      </trkpt>
      <trkpt lat="50.348" lon="3.25916">
        <ele>81.57764</ele>
        <time>2023-10-29T08:32:51Z</time>
      </trkpt>
      <trkpt lat="50.34801" lon="3.25917">
        <ele>81.42322</ele>
        <time>2023-10-29T08:32:52Z</time>
      </trkpt>
      <trkpt lat="50.34802" lon="3.25919">
        <ele>82.06372</ele>
        <time>2023-10-29T08:32:53Z</time>
      </trkpt>
      <trkpt lat="50.34803" lon="3.2592">
        <ele>81.518005</ele>
        <time>2023-10-29T08:32:54Z</time>
      </trkpt>
      <trkpt lat="50.34804" lon="3.25922">
        <ele>81.97095</ele>
        <time>2023-10-29T08:32:55Z</time>
      </trkpt>
      <trkpt lat="50.34805" lon="3.25923">
        <ele>82.13544</ele>
        <time>2023-10-29T08:32:56Z</time>
      </trkpt>
      <trkpt lat="50.34806" lon="3.25924">
        <ele>82.53363</ele>
        <time>2023-10-29T08:32:57Z</time>
      </trkpt>
      <trkpt lat="50.34807" lon="3.25925">
        <ele>82.74414</ele>
        <time>2023-10-29T08:32:58Z</time>
      </trkpt>
      <trkpt lat="50.34808" lon="3.25926">
        <ele>82.63574</ele>
        <time>2023-10-29T08:32:59Z</time>
      </trkpt>
      <trkpt lat="50.34809" lon="3.25927">
        <ele>82.262085</ele>
        <time>2023-10-29T08:33:00Z</time>
      </trkpt>
      <trkpt lat="50.3481" lon="3.25929">
        <ele>82.0069</ele>
        <time>2023-10-29T08:33:01Z</time>
      </trkpt>
      <trkpt lat="50.34811" lon="3.2593">
        <ele>81.34064</ele>
        <time>2023-10-29T08:33:02Z</time>
      </trkpt>
      <trkpt lat="50.34812" lon="3.25931">
        <ele>81.61145</ele>
        <time>2023-10-29T08:33:03Z</time>
      </trkpt>
      <trkpt lat="50.34813" lon="3.25933">
        <ele>81.32312</ele>
        <time>2023-10-29T08:33:04Z</time>
      </trkpt>
      <trkpt lat="50.34813" lon="3.25934">
        <ele>81.240234</ele>
        <time>2023-10-29T08:33:05Z</time>
      </trkpt>
      <trkpt lat="50.34814" lon="3.25935">
        <ele>81.215576</ele>
        <time>2023-10-29T08:33:06Z</time>
      </trkpt>
      <trkpt lat="50.34815" lon="3.25937">
        <ele>80.98871</ele>
        <time>2023-10-29T08:33:07Z</time>
      </trkpt>
      <trkpt lat="50.34816" lon="3.25938">
        <ele>81.072815</ele>
        <time>2023-10-29T08:33:08Z</time>
      </trkpt>
      <trkpt lat="50.34817" lon="3.25939">
        <ele>81.19763</ele>
        <time>2023-10-29T08:33:09Z</time>
      </trkpt>
      <trkpt lat="50.34818" lon="3.25941">
        <ele>81.3277</ele>
        <time>2023-10-29T08:33:10Z</time>
      </trkpt>
      <trkpt lat="50.34819" lon="3.25942">
        <ele>81.32123</ele>
        <time>2023-10-29T08:33:11Z</time>
      </trkpt>
      <trkpt lat="50.3482" lon="3.25943">
        <ele>81.203674</ele>
        <time>2023-10-29T08:33:12Z</time>
      </trkpt>
      <trkpt lat="50.34821" lon="3.25945">
        <ele>80.69519</ele>
        <time>2023-10-29T08:33:13Z</time>
      </trkpt>
      <trkpt lat="50.34822" lon="3.25946">
        <ele>80.34985</ele>
        <time>2023-10-29T08:33:14Z</time>
      </trkpt>
      <trkpt lat="50.34823" lon="3.25947">
        <ele>80.659485</ele>
        <time>2023-10-29T08:33:15Z</time>
      </trkpt>
      <trkpt lat="50.34824" lon="3.25949">
        <ele>80.28485</ele>
        <time>2023-10-29T08:33:16Z</time>
      </trkpt>
      <trkpt lat="50.34825" lon="3.2595">
        <ele>80.00183</ele>
        <time>2023-10-29T08:33:17Z</time>
      </trkpt>
      <trkpt lat="50.34826" lon="3.25952">
        <ele>80.159546</ele>
        <time>2023-10-29T08:33:18Z</time>
      </trkpt>
      <trkpt lat="50.34827" lon="3.25953">
        <ele>80.16644</ele>
        <time>2023-10-29T08:33:19Z</time>
      </trkpt>
      <trkpt lat="50.34829" lon="3.25954">
        <ele>79.770935</ele>
        <time>2023-10-29T08:33:20Z</time>
      </trkpt>
      <trkpt lat="50.3483" lon="3.25956">
        <ele>79.44348</ele>
        <time>2023-10-29T08:33:21Z</time>
      </trkpt>
      <trkpt lat="50.34831" lon="3.25957">
        <ele>79.60028</ele>
        <time>2023-10-29T08:33:22Z</time>
      </trkpt>
      <trkpt lat="50.34832" lon="3.25958">
        <ele>80.10541</ele>
        <time>2023-10-29T08:33:23Z</time>
      </trkpt>
      <trkpt lat="50.34833" lon="3.2596">
        <ele>79.76166</ele>
        <time>2023-10-29T08:33:24Z</time>
      </trkpt>
      <trkpt lat="50.34834" lon="3.25961">
        <ele>79.6637</ele>
        <time>2023-10-29T08:33:25Z</time>
      </trkpt>
      <trkpt lat="50.34835" lon="3.25962">
        <ele>79.60828</ele>
        <time>2023-10-29T08:33:26Z</time>
      </trkpt>
      <trkpt lat="50.34836" lon="3.25964">
        <ele>80.387085</ele>
        <time>2023-10-29T08:33:27Z</time>
      </trkpt>
      <trkpt lat="50.34837" lon="3.25965">
        <ele>79.71698</ele>
        <time>2023-10-29T08:33:28Z</time>
      </trkpt>
      <trkpt lat="50.34838" lon="3.25967">
        <ele>80.19696</ele>
        <time>2023-10-29T08:33:29Z</time>
      </trkpt>
      <trkpt lat="50.34839" lon="3.25968">
        <ele>80.67517</ele>
        <time>2023-10-29T08:33:30Z</time>
      </trkpt>
      <trkpt lat="50.3484" lon="3.25969">
        <ele>80.321106</ele>
        <time>2023-10-29T08:33:31Z</time>
      </trkpt>
      <trkpt lat="50.34841" lon="3.2597">
        <ele>80.36072</ele>
        <time>2023-10-29T08:33:32Z</time>
      </trkpt>
      <trkpt lat="50.34842" lon="3.25972">
        <ele>80.41553</ele>
        <time>2023-10-29T08:33:33Z</time>
      </trkpt>
      <trkpt lat="50.34843" lon="3.25973">
        <ele>80.200806</ele>
        <time>2023-10-29T08:33:34Z</time>
      </trkpt>
      <trkpt lat="50.34845" lon="3.25975">
        <ele>79.931274</ele>
        <time>2023-10-29T08:33:35Z</time>
      </trkpt>
      <trkpt lat="50.34846" lon="3.25976">
        <ele>80.27661</ele>
        <time>2023-10-29T08:33:36Z</time>
      </trkpt>
      <trkpt lat="50.34847" lon="3.25977">
        <ele>80.33319</ele>
        <time>2023-10-29T08:33:37Z</time>
      </trkpt>
      <trkpt lat="50.34848" lon="3.25978">
        <ele>82.149414</ele>
        <time>2023-10-29T08:33:38Z</time>
      </trkpt>
      <trkpt lat="50.34849" lon="3.25976">
        <ele>80.30383</ele>
        <time>2023-10-29T08:33:39Z</time>
      </trkpt>
      <trkpt lat="50.3485" lon="3.25974">
        <ele>80.19</ele>
        <time>2023-10-29T08:33:40Z</time>
      </trkpt>
      <trkpt lat="50.34852" lon="3.25975">
        <ele>79.75842</ele>
        <time>2023-10-29T08:33:41Z</time>
      </trkpt>
      <trkpt lat="50.34853" lon="3.25977">
        <ele>81.85394</ele>
        <time>2023-10-29T08:33:42Z</time>
      </trkpt>
      <trkpt lat="50.34854" lon="3.2598">
        <ele>82.08722</ele>
        <time>2023-10-29T08:33:43Z</time>
      </trkpt>
      <trkpt lat="50.34853" lon="3.25979">
        <ele>82.125854</ele>
        <time>2023-10-29T08:33:44Z</time>
      </trkpt>
      <trkpt lat="50.34853" lon="3.25979">
        <ele>82.11493</ele>
        <time>2023-10-29T08:33:45Z</time>
      </trkpt>
      <trkpt lat="50.34853" lon="3.25979">
        <ele>82.086914</ele>
        <time>2023-10-29T08:33:46Z</time>
      </trkpt>
      <trkpt lat="50.34853" lon="3.25979">
        <ele>81.953186</ele>
        <time>2023-10-29T08:33:47Z</time>
      </trkpt>
      <trkpt lat="50.34854" lon="3.25981">
        <ele>82.280396</ele>
        <time>2023-10-29T08:33:48Z</time>
      </trkpt>
      <trkpt lat="50.34854" lon="3.25982">
        <ele>82.438354</ele>
        <time>2023-10-29T08:33:49Z</time>
      </trkpt>
      <trkpt lat="50.34855" lon="3.25983">
        <ele>82.115906</ele>
        <time>2023-10-29T08:33:50Z</time>
      </trkpt>
      <trkpt lat="50.34855" lon="3.25985">
        <ele>82.319885</ele>
        <time>2023-10-29T08:33:51Z</time>
      </trkpt>
      <trkpt lat="50.34856" lon="3.25986">
        <ele>82.259094</ele>
        <time>2023-10-29T08:33:52Z</time>
      </trkpt>
      <trkpt lat="50.34857" lon="3.25987">
        <ele>82.05377</ele>
        <time>2023-10-29T08:33:53Z</time>
      </trkpt>
      <trkpt lat="50.34858" lon="3.25988">
        <ele>81.622925</ele>
        <time>2023-10-29T08:33:54Z</time>
      </trkpt>
      <trkpt lat="50.34859" lon="3.2599">
        <ele>82.164734</ele>
        <time>2023-10-29T08:33:55Z</time>
      </trkpt>
      <trkpt lat="50.3486" lon="3.25991">
        <ele>81.92859</ele>
        <time>2023-10-29T08:33:56Z</time>
      </trkpt>
      <trkpt lat="50.34861" lon="3.25992">
        <ele>81.74884</ele>
        <time>2023-10-29T08:33:57Z</time>
      </trkpt>
      <trkpt lat="50.34862" lon="3.25993">
        <ele>82.13025</ele>
        <time>2023-10-29T08:33:58Z</time>
      </trkpt>
      <trkpt lat="50.34863" lon="3.25994">
        <ele>82.566284</ele>
        <time>2023-10-29T08:33:59Z</time>
      </trkpt>
      <trkpt lat="50.34863" lon="3.25995">
        <ele>82.45953</ele>
        <time>2023-10-29T08:34:00Z</time>
      </trkpt>
      <trkpt lat="50.34864" lon="3.25997">
        <ele>82.55884</ele>
        <time>2023-10-29T08:34:01Z</time>
      </trkpt>
      <trkpt lat="50.34865" lon="3.25998">
        <ele>82.45807</ele>
        <time>2023-10-29T08:34:02Z</time>
      </trkpt>
      <trkpt lat="50.34866" lon="3.26">
        <ele>82.57196</ele>
        <time>2023-10-29T08:34:03Z</time>
      </trkpt>
      <trkpt lat="50.34867" lon="3.26001">
        <ele>82.48059</ele>
        <time>2023-10-29T08:34:04Z</time>
      </trkpt>
      <trkpt lat="50.34868" lon="3.26002">
        <ele>82.15527</ele>
        <time>2023-10-29T08:34:05Z</time>
      </trkpt>
      <trkpt lat="50.34869" lon="3.26004">
        <ele>82.14856</ele>
        <time>2023-10-29T08:34:06Z</time>
      </trkpt>
      <trkpt lat="50.34869" lon="3.26005">
        <ele>82.177795</ele>
        <time>2023-10-29T08:34:07Z</time>
      </trkpt>
      <trkpt lat="50.3487" lon="3.26007">
        <ele>82.74396</ele>
        <time>2023-10-29T08:34:08Z</time>
      </trkpt>
      <trkpt lat="50.34871" lon="3.26008">
        <ele>82.54712</ele>
        <time>2023-10-29T08:34:09Z</time>
      </trkpt>
      <trkpt lat="50.34871" lon="3.26009">
        <ele>82.25726</ele>
        <time>2023-10-29T08:34:10Z</time>
      </trkpt>
      <trkpt lat="50.34872" lon="3.26011">
        <ele>82.03931</ele>
        <time>2023-10-29T08:34:11Z</time>
      </trkpt>
      <trkpt lat="50.34873" lon="3.26012">
        <ele>81.80975</ele>
        <time>2023-10-29T08:34:12Z</time>
      </trkpt>
      <trkpt lat="50.34874" lon="3.26013">
        <ele>81.53381</ele>
        <time>2023-10-29T08:34:13Z</time>
      </trkpt>
      <trkpt lat="50.34875" lon="3.26014">
        <ele>81.6358</ele>
        <time>2023-10-29T08:34:14Z</time>
      </trkpt>
      <trkpt lat="50.34876" lon="3.26015">
        <ele>81.604126</ele>
        <time>2023-10-29T08:34:15Z</time>
      </trkpt>
      <trkpt lat="50.34877" lon="3.26016">
        <ele>81.659424</ele>
        <time>2023-10-29T08:34:16Z</time>
      </trkpt>
      <trkpt lat="50.34878" lon="3.26017">
        <ele>81.58624</ele>
        <time>2023-10-29T08:34:17Z</time>
      </trkpt>
      <trkpt lat="50.34879" lon="3.26019">
        <ele>81.08368</ele>
        <time>2023-10-29T08:34:18Z</time>
      </trkpt>
      <trkpt lat="50.3488" lon="3.2602">
        <ele>81.257935</ele>
        <time>2023-10-29T08:34:19Z</time>
      </trkpt>
      <trkpt lat="50.34881" lon="3.26021">
        <ele>81.55945</ele>
        <time>2023-10-29T08:34:20Z</time>
      </trkpt>
      <trkpt lat="50.34882" lon="3.26023">
        <ele>81.075134</ele>
        <time>2023-10-29T08:34:21Z</time>
      </trkpt>
      <trkpt lat="50.34883" lon="3.26024">
        <ele>80.67828</ele>
        <time>2023-10-29T08:34:22Z</time>
      </trkpt>
      <trkpt lat="50.34884" lon="3.26025">
        <ele>82.19763</ele>
        <time>2023-10-29T08:34:23Z</time>
      </trkpt>
      <trkpt lat="50.34885" lon="3.26026">
        <ele>82.14508</ele>
        <time>2023-10-29T08:34:24Z</time>
      </trkpt>
      <trkpt lat="50.34886" lon="3.26028">
        <ele>82.04852</ele>
        <time>2023-10-29T08:34:25Z</time>
      </trkpt>
      <trkpt lat="50.34887" lon="3.26029">
        <ele>82.48877</ele>
        <time>2023-10-29T08:34:26Z</time>
      </trkpt>
      <trkpt lat="50.34889" lon="3.2603">
        <ele>82.57971</ele>
        <time>2023-10-29T08:34:27Z</time>
      </trkpt>
      <trkpt lat="50.3489" lon="3.26031">
        <ele>82.84741</ele>
        <time>2023-10-29T08:34:28Z</time>
      </trkpt>
      <trkpt lat="50.34891" lon="3.26032">
        <ele>82.74469</ele>
        <time>2023-10-29T08:34:29Z</time>
      </trkpt>
      <trkpt lat="50.34892" lon="3.26034">
        <ele>82.32904</ele>
        <time>2023-10-29T08:34:30Z</time>
      </trkpt>
      <trkpt lat="50.34893" lon="3.26035">
        <ele>82.74103</ele>
        <time>2023-10-29T08:34:31Z</time>
      </trkpt>
      <trkpt lat="50.34894" lon="3.26036">
        <ele>82.881714</ele>
        <time>2023-10-29T08:34:32Z</time>
      </trkpt>
      <trkpt lat="50.34895" lon="3.26038">
        <ele>82.67737</ele>
        <time>2023-10-29T08:34:33Z</time>
      </trkpt>
      <trkpt lat="50.34894" lon="3.26042">
        <ele>82.392456</ele>
        <time>2023-10-29T08:34:34Z</time>
      </trkpt>
      <trkpt lat="50.34891" lon="3.26043">
        <ele>82.12756</ele>
        <time>2023-10-29T08:34:35Z</time>
      </trkpt>
      <trkpt lat="50.34889" lon="3.26043">
        <ele>84.41583</ele>
        <time>2023-10-29T08:34:36Z</time>
      </trkpt>
      <trkpt lat="50.34888" lon="3.26041">
        <ele>85.301575</ele>
        <time>2023-10-29T08:34:37Z</time>
      </trkpt>
      <trkpt lat="50.34887" lon="3.2604">
        <ele>85.11365</ele>
        <time>2023-10-29T08:34:38Z</time>
      </trkpt>
      <trkpt lat="50.34888" lon="3.26039">
        <ele>84.97266</ele>
        <time>2023-10-29T08:34:39Z</time>
      </trkpt>
      <trkpt lat="50.34888" lon="3.26039">
        <ele>85.41943</ele>
        <time>2023-10-29T08:34:40Z</time>
      </trkpt>
      <trkpt lat="50.34888" lon="3.26039">
        <ele>85.517944</ele>
        <time>2023-10-29T08:34:41Z</time>
      </trkpt>
      <trkpt lat="50.34888" lon="3.26039">
        <ele>85.59979</ele>
        <time>2023-10-29T08:34:42Z</time>
      </trkpt>
      <trkpt lat="50.34888" lon="3.26039">
        <ele>85.60083</ele>
        <time>2023-10-29T08:34:43Z</time>
      </trkpt>
      <trkpt lat="50.34888" lon="3.26039">
        <ele>85.60022</ele>
        <time>2023-10-29T08:34:44Z</time>
      </trkpt>
      <trkpt lat="50.34888" lon="3.26039">
        <ele>85.59863</ele>
        <time>2023-10-29T08:34:45Z</time>
      </trkpt>
      <trkpt lat="50.34888" lon="3.26039">
        <ele>85.60565</ele>
        <time>2023-10-29T08:34:46Z</time>
      </trkpt>
      <trkpt lat="50.34888" lon="3.26039">
        <ele>85.608154</ele>
        <time>2023-10-29T08:34:47Z</time>
      </trkpt>
      <trkpt lat="50.34888" lon="3.26039">
        <ele>85.60602</ele>
        <time>2023-10-29T08:34:48Z</time>
      </trkpt>
      <trkpt lat="50.34888" lon="3.26039">
        <ele>85.60327</ele>
        <time>2023-10-29T08:34:49Z</time>
      </trkpt>
      <trkpt lat="50.34888" lon="3.26039">
        <ele>85.60321</ele>
        <time>2023-10-29T08:34:50Z</time>
      </trkpt>
      <trkpt lat="50.34888" lon="3.26039">
        <ele>85.602356</ele>
        <time>2023-10-29T08:34:51Z</time>
      </trkpt>
      <trkpt lat="50.34888" lon="3.26039">
        <ele>85.60315</ele>
        <time>2023-10-29T08:34:52Z</time>
      </trkpt>
      <trkpt lat="50.34888" lon="3.26039">
        <ele>85.60126</ele>
        <time>2023-10-29T08:34:53Z</time>
      </trkpt>
      <trkpt lat="50.34888" lon="3.26039">
        <ele>85.6001</ele>
        <time>2023-10-29T08:34:54Z</time>
      </trkpt>
      <trkpt lat="50.34888" lon="3.26039">
        <ele>85.600464</ele>
        <time>2023-10-29T08:34:55Z</time>
      </trkpt>
      <trkpt lat="50.34888" lon="3.26039">
        <ele>85.600586</ele>
        <time>2023-10-29T08:34:56Z</time>
      </trkpt>
      <trkpt lat="50.34889" lon="3.26039">
        <ele>85.66394</ele>
        <time>2023-10-29T08:34:57Z</time>
      </trkpt>
      <trkpt lat="50.3489" lon="3.2604">
        <ele>85.0318</ele>
        <time>2023-10-29T08:34:58Z</time>
      </trkpt>
      <trkpt lat="50.34892" lon="3.26037">
        <ele>84.474304</ele>
        <time>2023-10-29T08:34:59Z</time>
      </trkpt>
      <trkpt lat="50.34893" lon="3.2604">
        <ele>83.67786</ele>
        <time>2023-10-29T08:35:00Z</time>
      </trkpt>
      <trkpt lat="50.34895" lon="3.26043">
        <ele>83.29199</ele>
        <time>2023-10-29T08:35:01Z</time>
      </trkpt>
      <trkpt lat="50.34897" lon="3.26045">
        <ele>82.61481</ele>
        <time>2023-10-29T08:35:02Z</time>
      </trkpt>
      <trkpt lat="50.34898" lon="3.26046">
        <ele>82.39038</ele>
        <time>2023-10-29T08:35:03Z</time>
      </trkpt>
      <trkpt lat="50.34899" lon="3.26047">
        <ele>82.53467</ele>
        <time>2023-10-29T08:35:04Z</time>
      </trkpt>
      <trkpt lat="50.34901" lon="3.26048">
        <ele>82.14728</ele>
        <time>2023-10-29T08:35:05Z</time>
      </trkpt>
      <trkpt lat="50.34903" lon="3.26049">
        <ele>81.36322</ele>
        <time>2023-10-29T08:35:06Z</time>
      </trkpt>
      <trkpt lat="50.34904" lon="3.2605">
        <ele>81.34912</ele>
        <time>2023-10-29T08:35:07Z</time>
      </trkpt>
      <trkpt lat="50.34905" lon="3.26051">
        <ele>81.50525</ele>
        <time>2023-10-29T08:35:08Z</time>
      </trkpt>
      <trkpt lat="50.34906" lon="3.26052">
        <ele>81.825806</ele>
        <time>2023-10-29T08:35:09Z</time>
      </trkpt>
      <trkpt lat="50.34908" lon="3.26053">
        <ele>81.497986</ele>
        <time>2023-10-29T08:35:10Z</time>
      </trkpt>
      <trkpt lat="50.34909" lon="3.26054">
        <ele>81.374146</ele>
        <time>2023-10-29T08:35:11Z</time>
      </trkpt>
      <trkpt lat="50.3491" lon="3.26055">
        <ele>81.21033</ele>
        <time>2023-10-29T08:35:12Z</time>
      </trkpt>
      <trkpt lat="50.34911" lon="3.26055">
        <ele>80.992676</ele>
        <time>2023-10-29T08:35:13Z</time>
      </trkpt>
      <trkpt lat="50.34913" lon="3.26056">
        <ele>80.83429</ele>
        <time>2023-10-29T08:35:14Z</time>
      </trkpt>
      <trkpt lat="50.34914" lon="3.26056">
        <ele>80.976074</ele>
        <time>2023-10-29T08:35:15Z</time>
      </trkpt>
      <trkpt lat="50.34915" lon="3.26057">
        <ele>80.82843</ele>
        <time>2023-10-29T08:35:16Z</time>
      </trkpt>
      <trkpt lat="50.34916" lon="3.26058">
        <ele>81.06329</ele>
        <time>2023-10-29T08:35:17Z</time>
      </trkpt>
      <trkpt lat="50.34917" lon="3.26059">
        <ele>80.9624</ele>
        <time>2023-10-29T08:35:18Z</time>
      </trkpt>
      <trkpt lat="50.34919" lon="3.2606">
        <ele>80.525024</ele>
        <time>2023-10-29T08:35:19Z</time>
      </trkpt>
      <trkpt lat="50.3492" lon="3.26061">
        <ele>80.07367</ele>
        <time>2023-10-29T08:35:20Z</time>
      </trkpt>
      <trkpt lat="50.34922" lon="3.26061">
        <ele>79.90674</ele>
        <time>2023-10-29T08:35:21Z</time>
      </trkpt>
      <trkpt lat="50.34923" lon="3.26062">
        <ele>80.335266</ele>
        <time>2023-10-29T08:35:22Z</time>
      </trkpt>
      <trkpt lat="50.34924" lon="3.26063">
        <ele>80.629456</ele>
        <time>2023-10-29T08:35:23Z</time>
      </trkpt>
      <trkpt lat="50.34925" lon="3.26064">
        <ele>80.575806</ele>
        <time>2023-10-29T08:35:24Z</time>
      </trkpt>
      <trkpt lat="50.34927" lon="3.26065">
        <ele>80.61151</ele>
        <time>2023-10-29T08:35:25Z</time>
      </trkpt>
      <trkpt lat="50.34928" lon="3.26065">
        <ele>80.44983</ele>
        <time>2023-10-29T08:35:26Z</time>
      </trkpt>
      <trkpt lat="50.34929" lon="3.26066">
        <ele>80.36633</ele>
        <time>2023-10-29T08:35:27Z</time>
      </trkpt>
      <trkpt lat="50.3493" lon="3.26067">
        <ele>80.18201</ele>
        <time>2023-10-29T08:35:28Z</time>
      </trkpt>
      <trkpt lat="50.34931" lon="3.26068">
        <ele>80.43494</ele>
        <time>2023-10-29T08:35:29Z</time>
      </trkpt>
      <trkpt lat="50.34933" lon="3.26069">
        <ele>80.41266</ele>
        <time>2023-10-29T08:35:30Z</time>
      </trkpt>
      <trkpt lat="50.34934" lon="3.26069">
        <ele>80.34338</ele>
        <time>2023-10-29T08:35:31Z</time>
      </trkpt>
      <trkpt lat="50.34935" lon="3.2607">
        <ele>80.13556</ele>
        <time>2023-10-29T08:35:32Z</time>
      </trkpt>
      <trkpt lat="50.34936" lon="3.26071">
        <ele>80.174194</ele>
        <time>2023-10-29T08:35:33Z</time>
      </trkpt>
      <trkpt lat="50.34937" lon="3.26071">
        <ele>80.33911</ele>
        <time>2023-10-29T08:35:34Z</time>
      </trkpt>
      <trkpt lat="50.34938" lon="3.26072">
        <ele>80.68048</ele>
        <time>2023-10-29T08:35:35Z</time>
      </trkpt>
      <trkpt lat="50.3494" lon="3.26073">
        <ele>80.76349</ele>
        <time>2023-10-29T08:35:36Z</time>
      </trkpt>
      <trkpt lat="50.34941" lon="3.26073">
        <ele>80.47632</ele>
        <time>2023-10-29T08:35:37Z</time>
      </trkpt>
      <trkpt lat="50.34942" lon="3.26074">
        <ele>79.43671</ele>
        <time>2023-10-29T08:35:38Z</time>
      </trkpt>
      <trkpt lat="50.34943" lon="3.26074">
        <ele>80.57056</ele>
        <time>2023-10-29T08:35:39Z</time>
      </trkpt>
      <trkpt lat="50.34945" lon="3.26075">
        <ele>80.89258</ele>
        <time>2023-10-29T08:35:40Z</time>
      </trkpt>
      <trkpt lat="50.34946" lon="3.26076">
        <ele>81.11493</ele>
        <time>2023-10-29T08:35:41Z</time>
      </trkpt>
      <trkpt lat="50.34947" lon="3.26077">
        <ele>81.32593</ele>
        <time>2023-10-29T08:35:42Z</time>
      </trkpt>
      <trkpt lat="50.34948" lon="3.26078">
        <ele>80.94232</ele>
        <time>2023-10-29T08:35:43Z</time>
      </trkpt>
      <trkpt lat="50.34949" lon="3.26078">
        <ele>80.092834</ele>
        <time>2023-10-29T08:35:44Z</time>
      </trkpt>
      <trkpt lat="50.3495" lon="3.26079">
        <ele>80.052246</ele>
        <time>2023-10-29T08:35:45Z</time>
      </trkpt>
      <trkpt lat="50.34951" lon="3.2608">
        <ele>79.54523</ele>
        <time>2023-10-29T08:35:46Z</time>
      </trkpt>
      <trkpt lat="50.34952" lon="3.26081">
        <ele>79.65137</ele>
        <time>2023-10-29T08:35:47Z</time>
      </trkpt>
      <trkpt lat="50.34953" lon="3.26082">
        <ele>79.73718</ele>
        <time>2023-10-29T08:35:48Z</time>
      </trkpt>
      <trkpt lat="50.34955" lon="3.26082">
        <ele>79.742615</ele>
        <time>2023-10-29T08:35:49Z</time>
      </trkpt>
      <trkpt lat="50.34956" lon="3.26083">
        <ele>80.009705</ele>
        <time>2023-10-29T08:35:50Z</time>
      </trkpt>
      <trkpt lat="50.34958" lon="3.26084">
        <ele>79.69177</ele>
        <time>2023-10-29T08:35:51Z</time>
      </trkpt>
      <trkpt lat="50.34958" lon="3.26085">
        <ele>79.318054</ele>
        <time>2023-10-29T08:35:52Z</time>
      </trkpt>
      <trkpt lat="50.34959" lon="3.26085">
        <ele>79.15875</ele>
        <time>2023-10-29T08:35:53Z</time>
      </trkpt>
      <trkpt lat="50.34961" lon="3.26086">
        <ele>78.89801</ele>
        <time>2023-10-29T08:35:54Z</time>
      </trkpt>
      <trkpt lat="50.34962" lon="3.26087">
        <ele>79.21167</ele>
        <time>2023-10-29T08:35:55Z</time>
      </trkpt>
      <trkpt lat="50.34963" lon="3.26088">
        <ele>79.19403</ele>
        <time>2023-10-29T08:35:56Z</time>
      </trkpt>
      <trkpt lat="50.34964" lon="3.26089">
        <ele>79.104126</ele>
        <time>2023-10-29T08:35:57Z</time>
      </trkpt>
      <trkpt lat="50.34965" lon="3.26088">
        <ele>78.22449</ele>
        <time>2023-10-29T08:35:58Z</time>
      </trkpt>
      <trkpt lat="50.34966" lon="3.26089">
        <ele>78.69269</ele>
        <time>2023-10-29T08:35:59Z</time>
      </trkpt>
      <trkpt lat="50.34967" lon="3.2609">
        <ele>78.630554</ele>
        <time>2023-10-29T08:36:00Z</time>
      </trkpt>
      <trkpt lat="50.34969" lon="3.2609">
        <ele>79.06976</ele>
        <time>2023-10-29T08:36:01Z</time>
      </trkpt>
      <trkpt lat="50.3497" lon="3.26091">
        <ele>79.75635</ele>
        <time>2023-10-29T08:36:02Z</time>
      </trkpt>
      <trkpt lat="50.34971" lon="3.26091">
        <ele>79.84839</ele>
        <time>2023-10-29T08:36:03Z</time>
      </trkpt>
      <trkpt lat="50.34972" lon="3.26092">
        <ele>79.91998</ele>
        <time>2023-10-29T08:36:04Z</time>
      </trkpt>
      <trkpt lat="50.34973" lon="3.26093">
        <ele>79.780396</ele>
        <time>2023-10-29T08:36:05Z</time>
      </trkpt>
      <trkpt lat="50.34974" lon="3.26093">
        <ele>79.337036</ele>
        <time>2023-10-29T08:36:06Z</time>
      </trkpt>
      <trkpt lat="50.34975" lon="3.26094">
        <ele>79.14789</ele>
        <time>2023-10-29T08:36:07Z</time>
      </trkpt>
      <trkpt lat="50.34976" lon="3.26094">
        <ele>79.4574</ele>
        <time>2023-10-29T08:36:08Z</time>
      </trkpt>
      <trkpt lat="50.34977" lon="3.26095">
        <ele>79.82605</ele>
        <time>2023-10-29T08:36:09Z</time>
      </trkpt>
      <trkpt lat="50.34979" lon="3.26096">
        <ele>79.91852</ele>
        <time>2023-10-29T08:36:10Z</time>
      </trkpt>
      <trkpt lat="50.3498" lon="3.26096">
        <ele>79.40546</ele>
        <time>2023-10-29T08:36:11Z</time>
      </trkpt>
      <trkpt lat="50.3498" lon="3.26097">
        <ele>79.76715</ele>
        <time>2023-10-29T08:36:12Z</time>
      </trkpt>
      <trkpt lat="50.34982" lon="3.26098">
        <ele>79.70679</ele>
        <time>2023-10-29T08:36:13Z</time>
      </trkpt>
      <trkpt lat="50.34983" lon="3.26098">
        <ele>79.56445</ele>
        <time>2023-10-29T08:36:14Z</time>
      </trkpt>
      <trkpt lat="50.34984" lon="3.26099">
        <ele>79.76514</ele>
        <time>2023-10-29T08:36:15Z</time>
      </trkpt>
      <trkpt lat="50.34985" lon="3.26099">
        <ele>79.13245</ele>
        <time>2023-10-29T08:36:16Z</time>
      </trkpt>
      <trkpt lat="50.34986" lon="3.261">
        <ele>78.82849</ele>
        <time>2023-10-29T08:36:17Z</time>
      </trkpt>
      <trkpt lat="50.34987" lon="3.261">
        <ele>78.73712</ele>
        <time>2023-10-29T08:36:18Z</time>
      </trkpt>
      <trkpt lat="50.34988" lon="3.26101">
        <ele>79.156006</ele>
        <time>2023-10-29T08:36:19Z</time>
      </trkpt>
      <trkpt lat="50.3499" lon="3.26102">
        <ele>79.28241</ele>
        <time>2023-10-29T08:36:20Z</time>
      </trkpt>
      <trkpt lat="50.34991" lon="3.26103">
        <ele>78.96289</ele>
        <time>2023-10-29T08:36:21Z</time>
      </trkpt>
      <trkpt lat="50.34992" lon="3.26103">
        <ele>79.094666</ele>
        <time>2023-10-29T08:36:22Z</time>
      </trkpt>
      <trkpt lat="50.34993" lon="3.26104">
        <ele>79.73328</ele>
        <time>2023-10-29T08:36:23Z</time>
      </trkpt>
      <trkpt lat="50.34994" lon="3.26104">
        <ele>79.48071</ele>
        <time>2023-10-29T08:36:24Z</time>
      </trkpt>
      <trkpt lat="50.34995" lon="3.26105">
        <ele>79.162415</ele>
        <time>2023-10-29T08:36:25Z</time>
      </trkpt>
      <trkpt lat="50.34996" lon="3.26106">
        <ele>79.38849</ele>
        <time>2023-10-29T08:36:26Z</time>
      </trkpt>
      <trkpt lat="50.34997" lon="3.26106">
        <ele>79.62872</ele>
        <time>2023-10-29T08:36:27Z</time>
      </trkpt>
      <trkpt lat="50.34998" lon="3.26107">
        <ele>79.48767</ele>
        <time>2023-10-29T08:36:28Z</time>
      </trkpt>
      <trkpt lat="50.35" lon="3.26108">
        <ele>79.538635</ele>
        <time>2023-10-29T08:36:29Z</time>
      </trkpt>
      <trkpt lat="50.35001" lon="3.26109">
        <ele>79.81909</ele>
        <time>2023-10-29T08:36:30Z</time>
      </trkpt>
      <trkpt lat="50.35002" lon="3.2611">
        <ele>78.78229</ele>
        <time>2023-10-29T08:36:31Z</time>
      </trkpt>
      <trkpt lat="50.35003" lon="3.26111">
        <ele>79.25415</ele>
        <time>2023-10-29T08:36:32Z</time>
      </trkpt>
      <trkpt lat="50.35004" lon="3.26111">
        <ele>79.26831</ele>
        <time>2023-10-29T08:36:33Z</time>
      </trkpt>
      <trkpt lat="50.35005" lon="3.26112">
        <ele>79.34296</ele>
        <time>2023-10-29T08:36:34Z</time>
      </trkpt>
      <trkpt lat="50.35006" lon="3.26112">
        <ele>79.38483</ele>
        <time>2023-10-29T08:36:35Z</time>
      </trkpt>
      <trkpt lat="50.35008" lon="3.26113">
        <ele>80.11786</ele>
        <time>2023-10-29T08:36:36Z</time>
      </trkpt>
      <trkpt lat="50.35009" lon="3.26113">
        <ele>79.7417</ele>
        <time>2023-10-29T08:36:37Z</time>
      </trkpt>
      <trkpt lat="50.3501" lon="3.26114">
        <ele>79.104004</ele>
        <time>2023-10-29T08:36:38Z</time>
      </trkpt>
      <trkpt lat="50.35012" lon="3.26114">
        <ele>79.51251</ele>
        <time>2023-10-29T08:36:39Z</time>
      </trkpt>
      <trkpt lat="50.35013" lon="3.26115">
        <ele>79.289185</ele>
        <time>2023-10-29T08:36:40Z</time>
      </trkpt>
      <trkpt lat="50.35014" lon="3.26116">
        <ele>79.39075</ele>
        <time>2023-10-29T08:36:41Z</time>
      </trkpt>
      <trkpt lat="50.35015" lon="3.26117">
        <ele>80.4411</ele>
        <time>2023-10-29T08:36:42Z</time>
      </trkpt>
      <trkpt lat="50.35016" lon="3.26118">
        <ele>80.30023</ele>
        <time>2023-10-29T08:36:43Z</time>
      </trkpt>
      <trkpt lat="50.35017" lon="3.26119">
        <ele>80.373474</ele>
        <time>2023-10-29T08:36:44Z</time>
      </trkpt>
      <trkpt lat="50.35018" lon="3.2612">
        <ele>80.70795</ele>
        <time>2023-10-29T08:36:45Z</time>
      </trkpt>
      <trkpt lat="50.35019" lon="3.26121">
        <ele>80.371704</ele>
        <time>2023-10-29T08:36:46Z</time>
      </trkpt>
      <trkpt lat="50.3502" lon="3.26121">
        <ele>80.8186</ele>
        <time>2023-10-29T08:36:47Z</time>
      </trkpt>
      <trkpt lat="50.35022" lon="3.26122">
        <ele>81.067505</ele>
        <time>2023-10-29T08:36:48Z</time>
      </trkpt>
      <trkpt lat="50.35023" lon="3.26122">
        <ele>80.69928</ele>
        <time>2023-10-29T08:36:49Z</time>
      </trkpt>
      <trkpt lat="50.35024" lon="3.26123">
        <ele>80.61401</ele>
        <time>2023-10-29T08:36:50Z</time>
      </trkpt>
      <trkpt lat="50.35024" lon="3.26124">
        <ele>79.958435</ele>
        <time>2023-10-29T08:36:51Z</time>
      </trkpt>
      <trkpt lat="50.35025" lon="3.26124">
        <ele>80.05878</ele>
        <time>2023-10-29T08:36:52Z</time>
      </trkpt>
      <trkpt lat="50.35027" lon="3.26125">
        <ele>80.38098</ele>
        <time>2023-10-29T08:36:53Z</time>
      </trkpt>
      <trkpt lat="50.35028" lon="3.26126">
        <ele>80.44165</ele>
        <time>2023-10-29T08:36:54Z</time>
      </trkpt>
      <trkpt lat="50.3503" lon="3.26126">
        <ele>80.309814</ele>
        <time>2023-10-29T08:36:55Z</time>
      </trkpt>
      <trkpt lat="50.3503" lon="3.26127">
        <ele>80.4469</ele>
        <time>2023-10-29T08:36:56Z</time>
      </trkpt>
      <trkpt lat="50.35032" lon="3.26127">
        <ele>80.163086</ele>
        <time>2023-10-29T08:36:57Z</time>
      </trkpt>
      <trkpt lat="50.35032" lon="3.26128">
        <ele>80.343994</ele>
        <time>2023-10-29T08:36:58Z</time>
      </trkpt>
      <trkpt lat="50.35034" lon="3.26128">
        <ele>80.9389</ele>
        <time>2023-10-29T08:36:59Z</time>
      </trkpt>
      <trkpt lat="50.35035" lon="3.26129">
        <ele>80.95203</ele>
        <time>2023-10-29T08:37:00Z</time>
      </trkpt>
      <trkpt lat="50.35036" lon="3.2613">
        <ele>80.9386</ele>
        <time>2023-10-29T08:37:01Z</time>
      </trkpt>
      <trkpt lat="50.35037" lon="3.26131">
        <ele>81.322815</ele>
        <time>2023-10-29T08:37:02Z</time>
      </trkpt>
      <trkpt lat="50.35038" lon="3.26131">
        <ele>81.62781</ele>
        <time>2023-10-29T08:37:03Z</time>
      </trkpt>
      <trkpt lat="50.35039" lon="3.26132">
        <ele>81.82611</ele>
        <time>2023-10-29T08:37:04Z</time>
      </trkpt>
      <trkpt lat="50.3504" lon="3.26132">
        <ele>81.55676</ele>
        <time>2023-10-29T08:37:05Z</time>
      </trkpt>
      <trkpt lat="50.35041" lon="3.26133">
        <ele>80.77667</ele>
        <time>2023-10-29T08:37:06Z</time>
      </trkpt>
      <trkpt lat="50.35042" lon="3.26133">
        <ele>81.22992</ele>
        <time>2023-10-29T08:37:07Z</time>
      </trkpt>
      <trkpt lat="50.35043" lon="3.26134">
        <ele>81.57507</ele>
        <time>2023-10-29T08:37:08Z</time>
      </trkpt>
      <trkpt lat="50.35045" lon="3.26134">
        <ele>81.197205</ele>
        <time>2023-10-29T08:37:09Z</time>
      </trkpt>
      <trkpt lat="50.35046" lon="3.26134">
        <ele>81.76245</ele>
        <time>2023-10-29T08:37:10Z</time>
      </trkpt>
      <trkpt lat="50.35047" lon="3.26135">
        <ele>81.70532</ele>
        <time>2023-10-29T08:37:11Z</time>
      </trkpt>
      <trkpt lat="50.35048" lon="3.26135">
        <ele>81.2702</ele>
        <time>2023-10-29T08:37:12Z</time>
      </trkpt>
      <trkpt lat="50.35049" lon="3.26136">
        <ele>81.085754</ele>
        <time>2023-10-29T08:37:13Z</time>
      </trkpt>
      <trkpt lat="50.3505" lon="3.26137">
        <ele>81.34656</ele>
        <time>2023-10-29T08:37:14Z</time>
      </trkpt>
      <trkpt lat="50.35051" lon="3.26138">
        <ele>81.211365</ele>
        <time>2023-10-29T08:37:15Z</time>
      </trkpt>
      <trkpt lat="50.35053" lon="3.26138">
        <ele>80.79883</ele>
        <time>2023-10-29T08:37:16Z</time>
      </trkpt>
      <trkpt lat="50.35054" lon="3.26139">
        <ele>80.41919</ele>
        <time>2023-10-29T08:37:17Z</time>
      </trkpt>
      <trkpt lat="50.35055" lon="3.26139">
        <ele>80.50128</ele>
        <time>2023-10-29T08:37:18Z</time>
      </trkpt>
      <trkpt lat="50.35056" lon="3.2614">
        <ele>80.247314</ele>
        <time>2023-10-29T08:37:19Z</time>
      </trkpt>
      <trkpt lat="50.35057" lon="3.2614">
        <ele>80.06091</ele>
        <time>2023-10-29T08:37:20Z</time>
      </trkpt>
      <trkpt lat="50.35058" lon="3.26141">
        <ele>79.62793</ele>
        <time>2023-10-29T08:37:21Z</time>
      </trkpt>
      <trkpt lat="50.35059" lon="3.26142">
        <ele>79.71155</ele>
        <time>2023-10-29T08:37:22Z</time>
      </trkpt>
      <trkpt lat="50.35061" lon="3.26142">
        <ele>79.77112</ele>
        <time>2023-10-29T08:37:23Z</time>
      </trkpt>
      <trkpt lat="50.35062" lon="3.26143">
        <ele>79.82477</ele>
        <time>2023-10-29T08:37:24Z</time>
      </trkpt>
      <trkpt lat="50.35063" lon="3.26144">
        <ele>80.23193</ele>
        <time>2023-10-29T08:37:25Z</time>
      </trkpt>
      <trkpt lat="50.35064" lon="3.26144">
        <ele>80.502075</ele>
        <time>2023-10-29T08:37:26Z</time>
      </trkpt>
      <trkpt lat="50.35066" lon="3.26145">
        <ele>80.3916</ele>
        <time>2023-10-29T08:37:27Z</time>
      </trkpt>
      <trkpt lat="50.35067" lon="3.26145">
        <ele>80.37952</ele>
        <time>2023-10-29T08:37:28Z</time>
      </trkpt>
      <trkpt lat="50.35068" lon="3.26146">
        <ele>80.21051</ele>
        <time>2023-10-29T08:37:29Z</time>
      </trkpt>
      <trkpt lat="50.35069" lon="3.26147">
        <ele>79.96466</ele>
        <time>2023-10-29T08:37:30Z</time>
      </trkpt>
      <trkpt lat="50.3507" lon="3.26148">
        <ele>80.10278</ele>
        <time>2023-10-29T08:37:31Z</time>
      </trkpt>
      <trkpt lat="50.35072" lon="3.26148">
        <ele>79.44867</ele>
        <time>2023-10-29T08:37:32Z</time>
      </trkpt>
      <trkpt lat="50.35073" lon="3.26149">
        <ele>79.90094</ele>
        <time>2023-10-29T08:37:33Z</time>
      </trkpt>
      <trkpt lat="50.35074" lon="3.26149">
        <ele>79.887024</ele>
        <time>2023-10-29T08:37:34Z</time>
      </trkpt>
      <trkpt lat="50.35075" lon="3.2615">
        <ele>79.48181</ele>
        <time>2023-10-29T08:37:35Z</time>
      </trkpt>
      <trkpt lat="50.35077" lon="3.2615">
        <ele>79.69525</ele>
        <time>2023-10-29T08:37:36Z</time>
      </trkpt>
      <trkpt lat="50.35078" lon="3.26151">
        <ele>79.45679</ele>
        <time>2023-10-29T08:37:37Z</time>
      </trkpt>
      <trkpt lat="50.35079" lon="3.26152">
        <ele>79.69238</ele>
        <time>2023-10-29T08:37:38Z</time>
      </trkpt>
      <trkpt lat="50.3508" lon="3.26153">
        <ele>79.56848</ele>
        <time>2023-10-29T08:37:39Z</time>
      </trkpt>
      <trkpt lat="50.35082" lon="3.26153">
        <ele>79.546936</ele>
        <time>2023-10-29T08:37:40Z</time>
      </trkpt>
      <trkpt lat="50.35083" lon="3.26153">
        <ele>79.37622</ele>
        <time>2023-10-29T08:37:41Z</time>
      </trkpt>
      <trkpt lat="50.35084" lon="3.26154">
        <ele>79.13251</ele>
        <time>2023-10-29T08:37:42Z</time>
      </trkpt>
      <trkpt lat="50.35086" lon="3.26155">
        <ele>78.967285</ele>
        <time>2023-10-29T08:37:43Z</time>
      </trkpt>
      <trkpt lat="50.35088" lon="3.26155">
        <ele>79.20007</ele>
        <time>2023-10-29T08:37:45Z</time>
      </trkpt>
      <trkpt lat="50.3509" lon="3.26156">
        <ele>78.65552</ele>
        <time>2023-10-29T08:37:46Z</time>
      </trkpt>
      <trkpt lat="50.35093" lon="3.26157">
        <ele>79.11853</ele>
        <time>2023-10-29T08:37:48Z</time>
      </trkpt>
      <trkpt lat="50.35096" lon="3.26157">
        <ele>78.91394</ele>
        <time>2023-10-29T08:37:50Z</time>
      </trkpt>
      <trkpt lat="50.35097" lon="3.26158">
        <ele>78.006226</ele>
        <time>2023-10-29T08:37:51Z</time>
      </trkpt>
      <trkpt lat="50.35098" lon="3.26159">
        <ele>77.84357</ele>
        <time>2023-10-29T08:37:52Z</time>
      </trkpt>
      <trkpt lat="50.35099" lon="3.26159">
        <ele>77.37164</ele>
        <time>2023-10-29T08:37:53Z</time>
      </trkpt>
      <trkpt lat="50.35101" lon="3.26159">
        <ele>78.543884</ele>
        <time>2023-10-29T08:37:54Z</time>
      </trkpt>
      <trkpt lat="50.35102" lon="3.2616">
        <ele>78.892944</ele>
        <time>2023-10-29T08:37:55Z</time>
      </trkpt>
      <trkpt lat="50.35104" lon="3.2616">
        <ele>78.468994</ele>
        <time>2023-10-29T08:37:56Z</time>
      </trkpt>
      <trkpt lat="50.35105" lon="3.2616">
        <ele>78.977234</ele>
        <time>2023-10-29T08:37:57Z</time>
      </trkpt>
      <trkpt lat="50.35106" lon="3.26161">
        <ele>79.47571</ele>
        <time>2023-10-29T08:37:58Z</time>
      </trkpt>
      <trkpt lat="50.35108" lon="3.26161">
        <ele>79.84631</ele>
        <time>2023-10-29T08:37:59Z</time>
      </trkpt>
      <trkpt lat="50.35109" lon="3.26161">
        <ele>78.94733</ele>
        <time>2023-10-29T08:38:00Z</time>
      </trkpt>
      <trkpt lat="50.3511" lon="3.26161">
        <ele>77.76184</ele>
        <time>2023-10-29T08:38:01Z</time>
      </trkpt>
      <trkpt lat="50.35111" lon="3.26161">
        <ele>77.79004</ele>
        <time>2023-10-29T08:38:02Z</time>
      </trkpt>
      <trkpt lat="50.35112" lon="3.26162">
        <ele>78.169556</ele>
        <time>2023-10-29T08:38:03Z</time>
      </trkpt>
      <trkpt lat="50.35114" lon="3.26162">
        <ele>78.244446</ele>
        <time>2023-10-29T08:38:04Z</time>
      </trkpt>
      <trkpt lat="50.35115" lon="3.26163">
        <ele>78.14661</ele>
        <time>2023-10-29T08:38:05Z</time>
      </trkpt>
      <trkpt lat="50.35117" lon="3.26163">
        <ele>78.44708</ele>
        <time>2023-10-29T08:38:06Z</time>
      </trkpt>
      <trkpt lat="50.35118" lon="3.26163">
        <ele>79.03143</ele>
        <time>2023-10-29T08:38:07Z</time>
      </trkpt>
      <trkpt lat="50.35119" lon="3.26164">
        <ele>79.1167</ele>
        <time>2023-10-29T08:38:08Z</time>
      </trkpt>
      <trkpt lat="50.3512" lon="3.26164">
        <ele>79.11456</ele>
        <time>2023-10-29T08:38:09Z</time>
      </trkpt>
      <trkpt lat="50.35122" lon="3.26165">
        <ele>78.67346</ele>
        <time>2023-10-29T08:38:10Z</time>
      </trkpt>
      <trkpt lat="50.35122" lon="3.26165">
        <ele>79.06915</ele>
        <time>2023-10-29T08:38:11Z</time>
      </trkpt>
      <trkpt lat="50.35123" lon="3.26166">
        <ele>79.52197</ele>
        <time>2023-10-29T08:38:12Z</time>
      </trkpt>
      <trkpt lat="50.35125" lon="3.26166">
        <ele>79.6264</ele>
        <time>2023-10-29T08:38:13Z</time>
      </trkpt>
      <trkpt lat="50.35126" lon="3.26166">
        <ele>79.60156</ele>
        <time>2023-10-29T08:38:14Z</time>
      </trkpt>
      <trkpt lat="50.35128" lon="3.26166">
        <ele>80.15997</ele>
        <time>2023-10-29T08:38:15Z</time>
      </trkpt>
      <trkpt lat="50.35129" lon="3.26167">
        <ele>79.697876</ele>
        <time>2023-10-29T08:38:16Z</time>
      </trkpt>
      <trkpt lat="50.3513" lon="3.26167">
        <ele>79.14581</ele>
        <time>2023-10-29T08:38:17Z</time>
      </trkpt>
      <trkpt lat="50.35132" lon="3.26167">
        <ele>79.06232</ele>
        <time>2023-10-29T08:38:18Z</time>
      </trkpt>
      <trkpt lat="50.35133" lon="3.26167">
        <ele>79.28345</ele>
        <time>2023-10-29T08:38:19Z</time>
      </trkpt>
      <trkpt lat="50.35135" lon="3.26168">
        <ele>79.35004</ele>
        <time>2023-10-29T08:38:21Z</time>
      </trkpt>
      <trkpt lat="50.35137" lon="3.26168">
        <ele>79.39349</ele>
        <time>2023-10-29T08:38:22Z</time>
      </trkpt>
      <trkpt lat="50.35138" lon="3.26168">
        <ele>79.44098</ele>
        <time>2023-10-29T08:38:23Z</time>
      </trkpt>
      <trkpt lat="50.3514" lon="3.26169">
        <ele>79.21088</ele>
        <time>2023-10-29T08:38:24Z</time>
      </trkpt>
      <trkpt lat="50.35141" lon="3.26169">
        <ele>79.23108</ele>
        <time>2023-10-29T08:38:25Z</time>
      </trkpt>
      <trkpt lat="50.35143" lon="3.26169">
        <ele>79.594604</ele>
        <time>2023-10-29T08:38:26Z</time>
      </trkpt>
      <trkpt lat="50.35144" lon="3.26169">
        <ele>79.58478</ele>
        <time>2023-10-29T08:38:27Z</time>
      </trkpt>
      <trkpt lat="50.35146" lon="3.2617">
        <ele>79.922</ele>
        <time>2023-10-29T08:38:28Z</time>
      </trkpt>
      <trkpt lat="50.35147" lon="3.2617">
        <ele>79.86627</ele>
        <time>2023-10-29T08:38:29Z</time>
      </trkpt>
      <trkpt lat="50.35148" lon="3.2617">
        <ele>80.193054</ele>
        <time>2023-10-29T08:38:30Z</time>
      </trkpt>
      <trkpt lat="50.35149" lon="3.26171">
        <ele>80.14819</ele>
        <time>2023-10-29T08:38:31Z</time>
      </trkpt>
      <trkpt lat="50.3515" lon="3.26171">
        <ele>79.77002</ele>
        <time>2023-10-29T08:38:32Z</time>
      </trkpt>
      <trkpt lat="50.35152" lon="3.26171">
        <ele>80.05347</ele>
        <time>2023-10-29T08:38:33Z</time>
      </trkpt>
      <trkpt lat="50.35153" lon="3.26172">
        <ele>80.00134</ele>
        <time>2023-10-29T08:38:34Z</time>
      </trkpt>
      <trkpt lat="50.35155" lon="3.26171">
        <ele>79.70972</ele>
        <time>2023-10-29T08:38:35Z</time>
      </trkpt>
      <trkpt lat="50.35156" lon="3.26172">
        <ele>79.33411</ele>
        <time>2023-10-29T08:38:36Z</time>
      </trkpt>
      <trkpt lat="50.35157" lon="3.26173">
        <ele>79.251526</ele>
        <time>2023-10-29T08:38:37Z</time>
      </trkpt>
      <trkpt lat="50.35159" lon="3.26172">
        <ele>79.15387</ele>
        <time>2023-10-29T08:38:38Z</time>
      </trkpt>
      <trkpt lat="50.35161" lon="3.26173">
        <ele>79.44672</ele>
        <time>2023-10-29T08:38:39Z</time>
      </trkpt>
      <trkpt lat="50.35162" lon="3.26172">
        <ele>79.52954</ele>
        <time>2023-10-29T08:38:40Z</time>
      </trkpt>
      <trkpt lat="50.35164" lon="3.26172">
        <ele>78.98602</ele>
        <time>2023-10-29T08:38:41Z</time>
      </trkpt>
      <trkpt lat="50.35165" lon="3.26172">
        <ele>79.258484</ele>
        <time>2023-10-29T08:38:42Z</time>
      </trkpt>
      <trkpt lat="50.35167" lon="3.26172">
        <ele>78.78082</ele>
        <time>2023-10-29T08:38:43Z</time>
      </trkpt>
      <trkpt lat="50.35169" lon="3.26173">
        <ele>78.202576</ele>
        <time>2023-10-29T08:38:44Z</time>
      </trkpt>
      <trkpt lat="50.3517" lon="3.26173">
        <ele>78.10974</ele>
        <time>2023-10-29T08:38:45Z</time>
      </trkpt>
      <trkpt lat="50.35171" lon="3.26174">
        <ele>78.2793</ele>
        <time>2023-10-29T08:38:46Z</time>
      </trkpt>
      <trkpt lat="50.35172" lon="3.26174">
        <ele>78.099365</ele>
        <time>2023-10-29T08:38:47Z</time>
      </trkpt>
      <trkpt lat="50.35174" lon="3.26175">
        <ele>78.390015</ele>
        <time>2023-10-29T08:38:48Z</time>
      </trkpt>
      <trkpt lat="50.35175" lon="3.26175">
        <ele>78.627686</ele>
        <time>2023-10-29T08:38:49Z</time>
      </trkpt>
      <trkpt lat="50.35177" lon="3.26176">
        <ele>78.97809</ele>
        <time>2023-10-29T08:38:50Z</time>
      </trkpt>
      <trkpt lat="50.35178" lon="3.26176">
        <ele>78.86194</ele>
        <time>2023-10-29T08:38:51Z</time>
      </trkpt>
      <trkpt lat="50.35179" lon="3.26176">
        <ele>78.415344</ele>
        <time>2023-10-29T08:38:52Z</time>
      </trkpt>
      <trkpt lat="50.35181" lon="3.26177">
        <ele>77.87427</ele>
        <time>2023-10-29T08:38:53Z</time>
      </trkpt>
      <trkpt lat="50.35182" lon="3.26177">
        <ele>77.756165</ele>
        <time>2023-10-29T08:38:54Z</time>
      </trkpt>
      <trkpt lat="50.35183" lon="3.26177">
        <ele>77.66504</ele>
        <time>2023-10-29T08:38:55Z</time>
      </trkpt>
      <trkpt lat="50.35185" lon="3.26178">
        <ele>77.727295</ele>
        <time>2023-10-29T08:38:56Z</time>
      </trkpt>
      <trkpt lat="50.35186" lon="3.26178">
        <ele>78.15912</ele>
        <time>2023-10-29T08:38:57Z</time>
      </trkpt>
      <trkpt lat="50.35187" lon="3.26179">
        <ele>78.20166</ele>
        <time>2023-10-29T08:38:58Z</time>
      </trkpt>
      <trkpt lat="50.35189" lon="3.26179">
        <ele>78.37225</ele>
        <time>2023-10-29T08:38:59Z</time>
      </trkpt>
      <trkpt lat="50.3519" lon="3.26179">
        <ele>78.741455</ele>
        <time>2023-10-29T08:39:00Z</time>
      </trkpt>
      <trkpt lat="50.35192" lon="3.26179">
        <ele>78.79425</ele>
        <time>2023-10-29T08:39:01Z</time>
      </trkpt>
      <trkpt lat="50.35193" lon="3.2618">
        <ele>78.833435</ele>
        <time>2023-10-29T08:39:02Z</time>
      </trkpt>
      <trkpt lat="50.35194" lon="3.2618">
        <ele>78.32086</ele>
        <time>2023-10-29T08:39:03Z</time>
      </trkpt>
      <trkpt lat="50.35196" lon="3.2618">
        <ele>77.98584</ele>
        <time>2023-10-29T08:39:04Z</time>
      </trkpt>
      <trkpt lat="50.35197" lon="3.2618">
        <ele>78.30261</ele>
        <time>2023-10-29T08:39:05Z</time>
      </trkpt>
      <trkpt lat="50.35198" lon="3.2618">
        <ele>78.338806</ele>
        <time>2023-10-29T08:39:06Z</time>
      </trkpt>
      <trkpt lat="50.35199" lon="3.26181">
        <ele>78.05261</ele>
        <time>2023-10-29T08:39:07Z</time>
      </trkpt>
      <trkpt lat="50.35201" lon="3.26182">
        <ele>78.20386</ele>
        <time>2023-10-29T08:39:08Z</time>
      </trkpt>
      <trkpt lat="50.35203" lon="3.26182">
        <ele>77.907776</ele>
        <time>2023-10-29T08:39:09Z</time>
      </trkpt>
      <trkpt lat="50.35204" lon="3.26182">
        <ele>77.96405</ele>
        <time>2023-10-29T08:39:10Z</time>
      </trkpt>
      <trkpt lat="50.35206" lon="3.26182">
        <ele>78.06604</ele>
        <time>2023-10-29T08:39:11Z</time>
      </trkpt>
      <trkpt lat="50.35207" lon="3.26183">
        <ele>77.90198</ele>
        <time>2023-10-29T08:39:12Z</time>
      </trkpt>
      <trkpt lat="50.35209" lon="3.26184">
        <ele>78.076294</ele>
        <time>2023-10-29T08:39:13Z</time>
      </trkpt>
      <trkpt lat="50.3521" lon="3.26184">
        <ele>77.6109</ele>
        <time>2023-10-29T08:39:14Z</time>
      </trkpt>
      <trkpt lat="50.35211" lon="3.26184">
        <ele>77.29999</ele>
        <time>2023-10-29T08:39:15Z</time>
      </trkpt>
      <trkpt lat="50.35212" lon="3.26184">
        <ele>78.45563</ele>
        <time>2023-10-29T08:39:16Z</time>
      </trkpt>
      <trkpt lat="50.35214" lon="3.26185">
        <ele>78.09912</ele>
        <time>2023-10-29T08:39:17Z</time>
      </trkpt>
      <trkpt lat="50.35215" lon="3.26186">
        <ele>78.67651</ele>
        <time>2023-10-29T08:39:18Z</time>
      </trkpt>
      <trkpt lat="50.35217" lon="3.26187">
        <ele>78.67621</ele>
        <time>2023-10-29T08:39:19Z</time>
      </trkpt>
      <trkpt lat="50.35218" lon="3.26186">
        <ele>78.16028</ele>
        <time>2023-10-29T08:39:20Z</time>
      </trkpt>
      <trkpt lat="50.3522" lon="3.26187">
        <ele>78.351685</ele>
        <time>2023-10-29T08:39:21Z</time>
      </trkpt>
      <trkpt lat="50.35221" lon="3.26188">
        <ele>79.01343</ele>
        <time>2023-10-29T08:39:22Z</time>
      </trkpt>
      <trkpt lat="50.35222" lon="3.26188">
        <ele>79.003174</ele>
        <time>2023-10-29T08:39:23Z</time>
      </trkpt>
      <trkpt lat="50.35224" lon="3.26188">
        <ele>78.75214</ele>
        <time>2023-10-29T08:39:24Z</time>
      </trkpt>
      <trkpt lat="50.35225" lon="3.26188">
        <ele>78.451416</ele>
        <time>2023-10-29T08:39:25Z</time>
      </trkpt>
      <trkpt lat="50.35226" lon="3.26189">
        <ele>78.55725</ele>
        <time>2023-10-29T08:39:26Z</time>
      </trkpt>
      <trkpt lat="50.35228" lon="3.26189">
        <ele>78.77008</ele>
        <time>2023-10-29T08:39:27Z</time>
      </trkpt>
      <trkpt lat="50.35229" lon="3.2619">
        <ele>77.88385</ele>
        <time>2023-10-29T08:39:28Z</time>
      </trkpt>
      <trkpt lat="50.3523" lon="3.2619">
        <ele>77.91565</ele>
        <time>2023-10-29T08:39:29Z</time>
      </trkpt>
      <trkpt lat="50.35231" lon="3.26191">
        <ele>77.59552</ele>
        <time>2023-10-29T08:39:30Z</time>
      </trkpt>
      <trkpt lat="50.35232" lon="3.26191">
        <ele>77.54773</ele>
        <time>2023-10-29T08:39:31Z</time>
      </trkpt>
      <trkpt lat="50.35233" lon="3.26192">
        <ele>78.052795</ele>
        <time>2023-10-29T08:39:32Z</time>
      </trkpt>
      <trkpt lat="50.35235" lon="3.26192">
        <ele>77.96594</ele>
        <time>2023-10-29T08:39:33Z</time>
      </trkpt>
      <trkpt lat="50.35236" lon="3.26192">
        <ele>78.404724</ele>
        <time>2023-10-29T08:39:34Z</time>
      </trkpt>
      <trkpt lat="50.35238" lon="3.26192">
        <ele>78.01495</ele>
        <time>2023-10-29T08:39:35Z</time>
      </trkpt>
      <trkpt lat="50.35239" lon="3.26192">
        <ele>77.87323</ele>
        <time>2023-10-29T08:39:36Z</time>
      </trkpt>
      <trkpt lat="50.35241" lon="3.26192">
        <ele>78.29419</ele>
        <time>2023-10-29T08:39:37Z</time>
      </trkpt>
      <trkpt lat="50.35242" lon="3.26193">
        <ele>78.53821</ele>
        <time>2023-10-29T08:39:38Z</time>
      </trkpt>
      <trkpt lat="50.35244" lon="3.26193">
        <ele>78.878784</ele>
        <time>2023-10-29T08:39:39Z</time>
      </trkpt>
      <trkpt lat="50.35245" lon="3.26194">
        <ele>79.12128</ele>
        <time>2023-10-29T08:39:40Z</time>
      </trkpt>
      <trkpt lat="50.35247" lon="3.26194">
        <ele>79.73358</ele>
        <time>2023-10-29T08:39:41Z</time>
      </trkpt>
      <trkpt lat="50.35248" lon="3.26195">
        <ele>79.64172</ele>
        <time>2023-10-29T08:39:42Z</time>
      </trkpt>
      <trkpt lat="50.35249" lon="3.26195">
        <ele>79.26782</ele>
        <time>2023-10-29T08:39:43Z</time>
      </trkpt>
      <trkpt lat="50.35251" lon="3.26196">
        <ele>79.22479</ele>
        <time>2023-10-29T08:39:44Z</time>
      </trkpt>
      <trkpt lat="50.35252" lon="3.26196">
        <ele>79.036316</ele>
        <time>2023-10-29T08:39:45Z</time>
      </trkpt>
      <trkpt lat="50.35253" lon="3.26196">
        <ele>79.079956</ele>
        <time>2023-10-29T08:39:46Z</time>
      </trkpt>
      <trkpt lat="50.35254" lon="3.26196">
        <ele>79.02075</ele>
        <time>2023-10-29T08:39:47Z</time>
      </trkpt>
      <trkpt lat="50.35256" lon="3.26197">
        <ele>78.72528</ele>
        <time>2023-10-29T08:39:48Z</time>
      </trkpt>
      <trkpt lat="50.35257" lon="3.26197">
        <ele>78.43915</ele>
        <time>2023-10-29T08:39:49Z</time>
      </trkpt>
      <trkpt lat="50.35258" lon="3.26198">
        <ele>78.22339</ele>
        <time>2023-10-29T08:39:50Z</time>
      </trkpt>
      <trkpt lat="50.35259" lon="3.26199">
        <ele>78.578064</ele>
        <time>2023-10-29T08:39:51Z</time>
      </trkpt>
      <trkpt lat="50.35261" lon="3.26199">
        <ele>78.00598</ele>
        <time>2023-10-29T08:39:52Z</time>
      </trkpt>
      <trkpt lat="50.35262" lon="3.26199">
        <ele>77.39514</ele>
        <time>2023-10-29T08:39:53Z</time>
      </trkpt>
      <trkpt lat="50.35264" lon="3.26199">
        <ele>76.83191</ele>
        <time>2023-10-29T08:39:54Z</time>
      </trkpt>
      <trkpt lat="50.35265" lon="3.26199">
        <ele>76.626465</ele>
        <time>2023-10-29T08:39:55Z</time>
      </trkpt>
      <trkpt lat="50.35267" lon="3.26199">
        <ele>76.36279</ele>
        <time>2023-10-29T08:39:56Z</time>
      </trkpt>
      <trkpt lat="50.35268" lon="3.26199">
        <ele>76.20203</ele>
        <time>2023-10-29T08:39:57Z</time>
      </trkpt>
      <trkpt lat="50.35269" lon="3.26199">
        <ele>76.039856</ele>
        <time>2023-10-29T08:39:58Z</time>
      </trkpt>
      <trkpt lat="50.35271" lon="3.262">
        <ele>75.58954</ele>
        <time>2023-10-29T08:39:59Z</time>
      </trkpt>
      <trkpt lat="50.35273" lon="3.262">
        <ele>75.07257</ele>
        <time>2023-10-29T08:40:00Z</time>
      </trkpt>
      <trkpt lat="50.35275" lon="3.262">
        <ele>75.93298</ele>
        <time>2023-10-29T08:40:01Z</time>
      </trkpt>
      <trkpt lat="50.35276" lon="3.262">
        <ele>76.196655</ele>
        <time>2023-10-29T08:40:02Z</time>
      </trkpt>
      <trkpt lat="50.35277" lon="3.26201">
        <ele>75.78735</ele>
        <time>2023-10-29T08:40:03Z</time>
      </trkpt>
      <trkpt lat="50.35279" lon="3.26201">
        <ele>75.65961</ele>
        <time>2023-10-29T08:40:04Z</time>
      </trkpt>
      <trkpt lat="50.3528" lon="3.26201">
        <ele>75.434265</ele>
        <time>2023-10-29T08:40:05Z</time>
      </trkpt>
      <trkpt lat="50.35282" lon="3.26201">
        <ele>75.59363</ele>
        <time>2023-10-29T08:40:06Z</time>
      </trkpt>
      <trkpt lat="50.35283" lon="3.26202">
        <ele>75.46387</ele>
        <time>2023-10-29T08:40:07Z</time>
      </trkpt>
      <trkpt lat="50.35284" lon="3.26202">
        <ele>75.93536</ele>
        <time>2023-10-29T08:40:08Z</time>
      </trkpt>
      <trkpt lat="50.35286" lon="3.26202">
        <ele>76.38776</ele>
        <time>2023-10-29T08:40:09Z</time>
      </trkpt>
      <trkpt lat="50.35288" lon="3.26201">
        <ele>76.58008</ele>
        <time>2023-10-29T08:40:10Z</time>
      </trkpt>
      <trkpt lat="50.35289" lon="3.26201">
        <ele>76.73877</ele>
        <time>2023-10-29T08:40:11Z</time>
      </trkpt>
      <trkpt lat="50.35291" lon="3.26201">
        <ele>76.14197</ele>
        <time>2023-10-29T08:40:12Z</time>
      </trkpt>
      <trkpt lat="50.35292" lon="3.26202">
        <ele>76.78827</ele>
        <time>2023-10-29T08:40:13Z</time>
      </trkpt>
      <trkpt lat="50.35294" lon="3.26202">
        <ele>77.13696</ele>
        <time>2023-10-29T08:40:14Z</time>
      </trkpt>
      <trkpt lat="50.35295" lon="3.26201">
        <ele>77.69922</ele>
        <time>2023-10-29T08:40:15Z</time>
      </trkpt>
      <trkpt lat="50.35297" lon="3.26202">
        <ele>77.293884</ele>
        <time>2023-10-29T08:40:16Z</time>
      </trkpt>
      <trkpt lat="50.35298" lon="3.26202">
        <ele>76.996765</ele>
        <time>2023-10-29T08:40:17Z</time>
      </trkpt>
      <trkpt lat="50.35299" lon="3.26201">
        <ele>76.66443</ele>
        <time>2023-10-29T08:40:18Z</time>
      </trkpt>
      <trkpt lat="50.353" lon="3.26201">
        <ele>77.09296</ele>
        <time>2023-10-29T08:40:19Z</time>
      </trkpt>
      <trkpt lat="50.35302" lon="3.262">
        <ele>77.362366</ele>
        <time>2023-10-29T08:40:20Z</time>
      </trkpt>
      <trkpt lat="50.35303" lon="3.262">
        <ele>76.86194</ele>
        <time>2023-10-29T08:40:21Z</time>
      </trkpt>
      <trkpt lat="50.35304" lon="3.262">
        <ele>76.93231</ele>
        <time>2023-10-29T08:40:22Z</time>
      </trkpt>
      <trkpt lat="50.35305" lon="3.26199">
        <ele>77.0603</ele>
        <time>2023-10-29T08:40:23Z</time>
      </trkpt>
      <trkpt lat="50.35307" lon="3.26198">
        <ele>77.64746</ele>
        <time>2023-10-29T08:40:24Z</time>
      </trkpt>
      <trkpt lat="50.35308" lon="3.26198">
        <ele>77.640625</ele>
        <time>2023-10-29T08:40:25Z</time>
      </trkpt>
      <trkpt lat="50.35309" lon="3.26197">
        <ele>77.12012</ele>
        <time>2023-10-29T08:40:26Z</time>
      </trkpt>
      <trkpt lat="50.3531" lon="3.26197">
        <ele>76.90326</ele>
        <time>2023-10-29T08:40:27Z</time>
      </trkpt>
      <trkpt lat="50.35312" lon="3.26196">
        <ele>77.11328</ele>
        <time>2023-10-29T08:40:28Z</time>
      </trkpt>
      <trkpt lat="50.35313" lon="3.26195">
        <ele>77.702515</ele>
        <time>2023-10-29T08:40:29Z</time>
      </trkpt>
      <trkpt lat="50.35314" lon="3.26194">
        <ele>77.35419</ele>
        <time>2023-10-29T08:40:30Z</time>
      </trkpt>
      <trkpt lat="50.35315" lon="3.26194">
        <ele>76.7406</ele>
        <time>2023-10-29T08:40:31Z</time>
      </trkpt>
      <trkpt lat="50.35317" lon="3.26194">
        <ele>76.54028</ele>
        <time>2023-10-29T08:40:32Z</time>
      </trkpt>
      <trkpt lat="50.35318" lon="3.26193">
        <ele>76.39642</ele>
        <time>2023-10-29T08:40:33Z</time>
      </trkpt>
      <trkpt lat="50.35319" lon="3.26194">
        <ele>76.51221</ele>
        <time>2023-10-29T08:40:34Z</time>
      </trkpt>
      <trkpt lat="50.35321" lon="3.26194">
        <ele>76.62579</ele>
        <time>2023-10-29T08:40:35Z</time>
      </trkpt>
      <trkpt lat="50.35322" lon="3.26193">
        <ele>78.035706</ele>
        <time>2023-10-29T08:40:36Z</time>
      </trkpt>
      <trkpt lat="50.35323" lon="3.26193">
        <ele>78.29578</ele>
        <time>2023-10-29T08:40:37Z</time>
      </trkpt>
      <trkpt lat="50.35324" lon="3.26192">
        <ele>77.519714</ele>
        <time>2023-10-29T08:40:38Z</time>
      </trkpt>
      <trkpt lat="50.35326" lon="3.26191">
        <ele>78.20087</ele>
        <time>2023-10-29T08:40:39Z</time>
      </trkpt>
      <trkpt lat="50.35327" lon="3.2619">
        <ele>78.74219</ele>
        <time>2023-10-29T08:40:40Z</time>
      </trkpt>
      <trkpt lat="50.35328" lon="3.2619">
        <ele>78.772095</ele>
        <time>2023-10-29T08:40:41Z</time>
      </trkpt>
      <trkpt lat="50.3533" lon="3.26189">
        <ele>78.954285</ele>
        <time>2023-10-29T08:40:42Z</time>
      </trkpt>
      <trkpt lat="50.35331" lon="3.26189">
        <ele>78.63147</ele>
        <time>2023-10-29T08:40:43Z</time>
      </trkpt>
      <trkpt lat="50.35333" lon="3.26189">
        <ele>77.79346</ele>
        <time>2023-10-29T08:40:44Z</time>
      </trkpt>
      <trkpt lat="50.35334" lon="3.26189">
        <ele>77.73218</ele>
        <time>2023-10-29T08:40:45Z</time>
      </trkpt>
      <trkpt lat="50.35335" lon="3.26188">
        <ele>77.39514</ele>
        <time>2023-10-29T08:40:46Z</time>
      </trkpt>
      <trkpt lat="50.35337" lon="3.26188">
        <ele>77.05945</ele>
        <time>2023-10-29T08:40:47Z</time>
      </trkpt>
      <trkpt lat="50.35338" lon="3.26187">
        <ele>77.48279</ele>
        <time>2023-10-29T08:40:48Z</time>
      </trkpt>
      <trkpt lat="50.35339" lon="3.26187">
        <ele>76.84039</ele>
        <time>2023-10-29T08:40:49Z</time>
      </trkpt>
      <trkpt lat="50.35341" lon="3.26186">
        <ele>77.28302</ele>
        <time>2023-10-29T08:40:51Z</time>
      </trkpt>
      <trkpt lat="50.35342" lon="3.26186">
        <ele>77.09369</ele>
        <time>2023-10-29T08:40:52Z</time>
      </trkpt>
      <trkpt lat="50.35344" lon="3.26186">
        <ele>77.03522</ele>
        <time>2023-10-29T08:40:53Z</time>
      </trkpt>
      <trkpt lat="50.35345" lon="3.26186">
        <ele>77.53003</ele>
        <time>2023-10-29T08:40:54Z</time>
      </trkpt>
      <trkpt lat="50.35347" lon="3.26185">
        <ele>77.82538</ele>
        <time>2023-10-29T08:40:55Z</time>
      </trkpt>
      <trkpt lat="50.35348" lon="3.26185">
        <ele>78.28754</ele>
        <time>2023-10-29T08:40:56Z</time>
      </trkpt>
      <trkpt lat="50.3535" lon="3.26184">
        <ele>78.383606</ele>
        <time>2023-10-29T08:40:57Z</time>
      </trkpt>
      <trkpt lat="50.35351" lon="3.26183">
        <ele>77.65436</ele>
        <time>2023-10-29T08:40:58Z</time>
      </trkpt>
      <trkpt lat="50.35353" lon="3.26183">
        <ele>77.43713</ele>
        <time>2023-10-29T08:40:59Z</time>
      </trkpt>
      <trkpt lat="50.35354" lon="3.26182">
        <ele>77.8501</ele>
        <time>2023-10-29T08:41:00Z</time>
      </trkpt>
      <trkpt lat="50.35355" lon="3.26181">
        <ele>77.927185</ele>
        <time>2023-10-29T08:41:01Z</time>
      </trkpt>
      <trkpt lat="50.35357" lon="3.2618">
        <ele>77.95825</ele>
        <time>2023-10-29T08:41:02Z</time>
      </trkpt>
      <trkpt lat="50.35358" lon="3.2618">
        <ele>77.64557</ele>
        <time>2023-10-29T08:41:03Z</time>
      </trkpt>
      <trkpt lat="50.35359" lon="3.26179">
        <ele>77.48511</ele>
        <time>2023-10-29T08:41:04Z</time>
      </trkpt>
      <trkpt lat="50.35361" lon="3.26179">
        <ele>77.20532</ele>
        <time>2023-10-29T08:41:05Z</time>
      </trkpt>
      <trkpt lat="50.35362" lon="3.26179">
        <ele>77.00989</ele>
        <time>2023-10-29T08:41:06Z</time>
      </trkpt>
      <trkpt lat="50.35363" lon="3.26178">
        <ele>77.36182</ele>
        <time>2023-10-29T08:41:07Z</time>
      </trkpt>
      <trkpt lat="50.35365" lon="3.26177">
        <ele>77.14398</ele>
        <time>2023-10-29T08:41:08Z</time>
      </trkpt>
      <trkpt lat="50.35366" lon="3.26177">
        <ele>77.11914</ele>
        <time>2023-10-29T08:41:09Z</time>
      </trkpt>
      <trkpt lat="50.35368" lon="3.26177">
        <ele>77.19678</ele>
        <time>2023-10-29T08:41:10Z</time>
      </trkpt>
      <trkpt lat="50.35369" lon="3.26176">
        <ele>77.433655</ele>
        <time>2023-10-29T08:41:11Z</time>
      </trkpt>
      <trkpt lat="50.3537" lon="3.26176">
        <ele>78.15979</ele>
        <time>2023-10-29T08:41:12Z</time>
      </trkpt>
      <trkpt lat="50.35372" lon="3.26176">
        <ele>77.87671</ele>
        <time>2023-10-29T08:41:13Z</time>
      </trkpt>
      <trkpt lat="50.35373" lon="3.26176">
        <ele>77.71716</ele>
        <time>2023-10-29T08:41:14Z</time>
      </trkpt>
      <trkpt lat="50.35375" lon="3.26176">
        <ele>78.80017</ele>
        <time>2023-10-29T08:41:15Z</time>
      </trkpt>
      <trkpt lat="50.35377" lon="3.26176">
        <ele>78.59729</ele>
        <time>2023-10-29T08:41:16Z</time>
      </trkpt>
      <trkpt lat="50.35378" lon="3.26176">
        <ele>79.14703</ele>
        <time>2023-10-29T08:41:17Z</time>
      </trkpt>
      <trkpt lat="50.35379" lon="3.26176">
        <ele>79.089355</ele>
        <time>2023-10-29T08:41:18Z</time>
      </trkpt>
      <trkpt lat="50.35381" lon="3.26176">
        <ele>79.26758</ele>
        <time>2023-10-29T08:41:19Z</time>
      </trkpt>
      <trkpt lat="50.35383" lon="3.26176">
        <ele>79.38403</ele>
        <time>2023-10-29T08:41:20Z</time>
      </trkpt>
      <trkpt lat="50.35384" lon="3.26176">
        <ele>79.34973</ele>
        <time>2023-10-29T08:41:21Z</time>
      </trkpt>
      <trkpt lat="50.35386" lon="3.26177">
        <ele>79.198975</ele>
        <time>2023-10-29T08:41:22Z</time>
      </trkpt>
      <trkpt lat="50.35387" lon="3.26178">
        <ele>78.901306</ele>
        <time>2023-10-29T08:41:23Z</time>
      </trkpt>
      <trkpt lat="50.35389" lon="3.26179">
        <ele>78.57544</ele>
        <time>2023-10-29T08:41:24Z</time>
      </trkpt>
      <trkpt lat="50.3539" lon="3.26179">
        <ele>78.25073</ele>
        <time>2023-10-29T08:41:25Z</time>
      </trkpt>
      <trkpt lat="50.35391" lon="3.2618">
        <ele>77.985596</ele>
        <time>2023-10-29T08:41:26Z</time>
      </trkpt>
      <trkpt lat="50.35392" lon="3.26182">
        <ele>78.27466</ele>
        <time>2023-10-29T08:41:27Z</time>
      </trkpt>
      <trkpt lat="50.35394" lon="3.26183">
        <ele>78.43634</ele>
        <time>2023-10-29T08:41:28Z</time>
      </trkpt>
      <trkpt lat="50.35394" lon="3.26184">
        <ele>78.148865</ele>
        <time>2023-10-29T08:41:29Z</time>
      </trkpt>
      <trkpt lat="50.35395" lon="3.26185">
        <ele>77.82129</ele>
        <time>2023-10-29T08:41:30Z</time>
      </trkpt>
      <trkpt lat="50.35396" lon="3.26187">
        <ele>78.00769</ele>
        <time>2023-10-29T08:41:31Z</time>
      </trkpt>
      <trkpt lat="50.35397" lon="3.26188">
        <ele>78.189575</ele>
        <time>2023-10-29T08:41:32Z</time>
      </trkpt>
      <trkpt lat="50.35399" lon="3.26188">
        <ele>77.66754</ele>
        <time>2023-10-29T08:41:33Z</time>
      </trkpt>
      <trkpt lat="50.354" lon="3.2619">
        <ele>77.66687</ele>
        <time>2023-10-29T08:41:34Z</time>
      </trkpt>
      <trkpt lat="50.35401" lon="3.26191">
        <ele>77.871826</ele>
        <time>2023-10-29T08:41:35Z</time>
      </trkpt>
      <trkpt lat="50.35402" lon="3.26193">
        <ele>77.88641</ele>
        <time>2023-10-29T08:41:36Z</time>
      </trkpt>
      <trkpt lat="50.35402" lon="3.26194">
        <ele>77.691345</ele>
        <time>2023-10-29T08:41:37Z</time>
      </trkpt>
      <trkpt lat="50.35403" lon="3.26196">
        <ele>76.858154</ele>
        <time>2023-10-29T08:41:38Z</time>
      </trkpt>
      <trkpt lat="50.35403" lon="3.26198">
        <ele>76.97986</ele>
        <time>2023-10-29T08:41:39Z</time>
      </trkpt>
      <trkpt lat="50.35404" lon="3.262">
        <ele>77.17505</ele>
        <time>2023-10-29T08:41:40Z</time>
      </trkpt>
      <trkpt lat="50.35405" lon="3.26201">
        <ele>77.98657</ele>
        <time>2023-10-29T08:41:41Z</time>
      </trkpt>
      <trkpt lat="50.35406" lon="3.26203">
        <ele>78.60742</ele>
        <time>2023-10-29T08:41:42Z</time>
      </trkpt>
      <trkpt lat="50.35407" lon="3.26202">
        <ele>78.92267</ele>
        <time>2023-10-29T08:41:43Z</time>
      </trkpt>
      <trkpt lat="50.35408" lon="3.262">
        <ele>78.92456</ele>
        <time>2023-10-29T08:41:44Z</time>
      </trkpt>
      <trkpt lat="50.35409" lon="3.26199">
        <ele>80.39557</ele>
        <time>2023-10-29T08:41:45Z</time>
      </trkpt>
      <trkpt lat="50.3541" lon="3.26198">
        <ele>82.19873</ele>
        <time>2023-10-29T08:41:46Z</time>
      </trkpt>
      <trkpt lat="50.35412" lon="3.26199">
        <ele>82.45532</ele>
        <time>2023-10-29T08:41:47Z</time>
      </trkpt>
      <trkpt lat="50.35412" lon="3.26201">
        <ele>83.46393</ele>
        <time>2023-10-29T08:41:48Z</time>
      </trkpt>
      <trkpt lat="50.35412" lon="3.26204">
        <ele>83.73657</ele>
        <time>2023-10-29T08:41:49Z</time>
      </trkpt>
      <trkpt lat="50.35413" lon="3.26206">
        <ele>83.34155</ele>
        <time>2023-10-29T08:41:50Z</time>
      </trkpt>
      <trkpt lat="50.35413" lon="3.26209">
        <ele>83.48547</ele>
        <time>2023-10-29T08:41:51Z</time>
      </trkpt>
      <trkpt lat="50.35412" lon="3.26211">
        <ele>84.01196</ele>
        <time>2023-10-29T08:41:52Z</time>
      </trkpt>
      <trkpt lat="50.35412" lon="3.26214">
        <ele>84.95935</ele>
        <time>2023-10-29T08:41:53Z</time>
      </trkpt>
      <trkpt lat="50.35413" lon="3.26216">
        <ele>84.984924</ele>
        <time>2023-10-29T08:41:54Z</time>
      </trkpt>
      <trkpt lat="50.35413" lon="3.26218">
        <ele>84.10339</ele>
        <time>2023-10-29T08:41:55Z</time>
      </trkpt>
      <trkpt lat="50.35413" lon="3.2622">
        <ele>83.2041</ele>
        <time>2023-10-29T08:41:56Z</time>
      </trkpt>
      <trkpt lat="50.35413" lon="3.26222">
        <ele>83.036255</ele>
        <time>2023-10-29T08:41:57Z</time>
      </trkpt>
      <trkpt lat="50.35414" lon="3.26224">
        <ele>82.79907</ele>
        <time>2023-10-29T08:41:58Z</time>
      </trkpt>
      <trkpt lat="50.35415" lon="3.26226">
        <ele>81.68091</ele>
        <time>2023-10-29T08:41:59Z</time>
      </trkpt>
      <trkpt lat="50.35415" lon="3.26228">
        <ele>81.3031</ele>
        <time>2023-10-29T08:42:00Z</time>
      </trkpt>
      <trkpt lat="50.35413" lon="3.2623">
        <ele>80.71295</ele>
        <time>2023-10-29T08:42:01Z</time>
      </trkpt>
      <trkpt lat="50.35413" lon="3.26232">
        <ele>80.62634</ele>
        <time>2023-10-29T08:42:02Z</time>
      </trkpt>
      <trkpt lat="50.35413" lon="3.26234">
        <ele>80.173096</ele>
        <time>2023-10-29T08:42:03Z</time>
      </trkpt>
      <trkpt lat="50.35413" lon="3.26236">
        <ele>79.47534</ele>
        <time>2023-10-29T08:42:04Z</time>
      </trkpt>
      <trkpt lat="50.35413" lon="3.26238">
        <ele>79.29047</ele>
        <time>2023-10-29T08:42:05Z</time>
      </trkpt>
      <trkpt lat="50.35413" lon="3.2624">
        <ele>79.180786</ele>
        <time>2023-10-29T08:42:06Z</time>
      </trkpt>
      <trkpt lat="50.35412" lon="3.26242">
        <ele>78.6875</ele>
        <time>2023-10-29T08:42:07Z</time>
      </trkpt>
      <trkpt lat="50.35413" lon="3.26245">
        <ele>79.92352</ele>
        <time>2023-10-29T08:42:08Z</time>
      </trkpt>
      <trkpt lat="50.35413" lon="3.26247">
        <ele>79.817505</ele>
        <time>2023-10-29T08:42:09Z</time>
      </trkpt>
      <trkpt lat="50.35413" lon="3.26249">
        <ele>81.10193</ele>
        <time>2023-10-29T08:42:10Z</time>
      </trkpt>
      <trkpt lat="50.35413" lon="3.26251">
        <ele>80.70813</ele>
        <time>2023-10-29T08:42:11Z</time>
      </trkpt>
      <trkpt lat="50.35413" lon="3.26253">
        <ele>80.12537</ele>
        <time>2023-10-29T08:42:12Z</time>
      </trkpt>
      <trkpt lat="50.35413" lon="3.26255">
        <ele>80.37988</ele>
        <time>2023-10-29T08:42:13Z</time>
      </trkpt>
      <trkpt lat="50.35413" lon="3.26257">
        <ele>79.55304</ele>
        <time>2023-10-29T08:42:14Z</time>
      </trkpt>
      <trkpt lat="50.35413" lon="3.26259">
        <ele>78.54236</ele>
        <time>2023-10-29T08:42:15Z</time>
      </trkpt>
      <trkpt lat="50.35413" lon="3.26262">
        <ele>78.054016</ele>
        <time>2023-10-29T08:42:16Z</time>
      </trkpt>
      <trkpt lat="50.35414" lon="3.26263">
        <ele>77.83795</ele>
        <time>2023-10-29T08:42:17Z</time>
      </trkpt>
      <trkpt lat="50.35414" lon="3.26265">
        <ele>78.59509</ele>
        <time>2023-10-29T08:42:18Z</time>
      </trkpt>
      <trkpt lat="50.35414" lon="3.26268">
        <ele>78.803955</ele>
        <time>2023-10-29T08:42:19Z</time>
      </trkpt>
      <trkpt lat="50.35414" lon="3.2627">
        <ele>79.28058</ele>
        <time>2023-10-29T08:42:20Z</time>
      </trkpt>
      <trkpt lat="50.35413" lon="3.26272">
        <ele>79.83069</ele>
        <time>2023-10-29T08:42:21Z</time>
      </trkpt>
      <trkpt lat="50.35413" lon="3.26275">
        <ele>79.99902</ele>
        <time>2023-10-29T08:42:22Z</time>
      </trkpt>
      <trkpt lat="50.35412" lon="3.26277">
        <ele>79.84186</ele>
        <time>2023-10-29T08:42:23Z</time>
      </trkpt>
      <trkpt lat="50.35412" lon="3.26279">
        <ele>81.30005</ele>
        <time>2023-10-29T08:42:24Z</time>
      </trkpt>
      <trkpt lat="50.35412" lon="3.26282">
        <ele>81.15643</ele>
        <time>2023-10-29T08:42:25Z</time>
      </trkpt>
      <trkpt lat="50.35411" lon="3.26284">
        <ele>80.73926</ele>
        <time>2023-10-29T08:42:26Z</time>
      </trkpt>
      <trkpt lat="50.3541" lon="3.26285">
        <ele>80.87781</ele>
        <time>2023-10-29T08:42:27Z</time>
      </trkpt>
      <trkpt lat="50.3541" lon="3.26287">
        <ele>80.096985</ele>
        <time>2023-10-29T08:42:28Z</time>
      </trkpt>
      <trkpt lat="50.35408" lon="3.26289">
        <ele>80.07794</ele>
        <time>2023-10-29T08:42:29Z</time>
      </trkpt>
      <trkpt lat="50.35407" lon="3.26291">
        <ele>80.345276</ele>
        <time>2023-10-29T08:42:30Z</time>
      </trkpt>
      <trkpt lat="50.35407" lon="3.26292">
        <ele>81.098145</ele>
        <time>2023-10-29T08:42:31Z</time>
      </trkpt>
      <trkpt lat="50.35405" lon="3.26294">
        <ele>81.29144</ele>
        <time>2023-10-29T08:42:32Z</time>
      </trkpt>
      <trkpt lat="50.35404" lon="3.26295">
        <ele>81.54401</ele>
        <time>2023-10-29T08:42:33Z</time>
      </trkpt>
      <trkpt lat="50.35403" lon="3.26297">
        <ele>80.67981</ele>
        <time>2023-10-29T08:42:34Z</time>
      </trkpt>
      <trkpt lat="50.35402" lon="3.26298">
        <ele>79.607544</ele>
        <time>2023-10-29T08:42:35Z</time>
      </trkpt>
      <trkpt lat="50.354" lon="3.263">
        <ele>78.67377</ele>
        <time>2023-10-29T08:42:36Z</time>
      </trkpt>
      <trkpt lat="50.35399" lon="3.26301">
        <ele>78.52966</ele>
        <time>2023-10-29T08:42:37Z</time>
      </trkpt>
      <trkpt lat="50.35398" lon="3.26302">
        <ele>78.0141</ele>
        <time>2023-10-29T08:42:38Z</time>
      </trkpt>
      <trkpt lat="50.35397" lon="3.26303">
        <ele>78.441284</ele>
        <time>2023-10-29T08:42:39Z</time>
      </trkpt>
      <trkpt lat="50.35396" lon="3.26304">
        <ele>78.08856</ele>
        <time>2023-10-29T08:42:40Z</time>
      </trkpt>
      <trkpt lat="50.35395" lon="3.26306">
        <ele>78.395935</ele>
        <time>2023-10-29T08:42:41Z</time>
      </trkpt>
      <trkpt lat="50.35394" lon="3.26308">
        <ele>78.98724</ele>
        <time>2023-10-29T08:42:42Z</time>
      </trkpt>
      <trkpt lat="50.35393" lon="3.2631">
        <ele>79.239136</ele>
        <time>2023-10-29T08:42:43Z</time>
      </trkpt>
      <trkpt lat="50.35392" lon="3.26312">
        <ele>78.72223</ele>
        <time>2023-10-29T08:42:44Z</time>
      </trkpt>
      <trkpt lat="50.35391" lon="3.26313">
        <ele>78.34509</ele>
        <time>2023-10-29T08:42:45Z</time>
      </trkpt>
      <trkpt lat="50.3539" lon="3.26315">
        <ele>77.68121</ele>
        <time>2023-10-29T08:42:46Z</time>
      </trkpt>
      <trkpt lat="50.35389" lon="3.26315">
        <ele>77.605896</ele>
        <time>2023-10-29T08:42:47Z</time>
      </trkpt>
      <trkpt lat="50.35388" lon="3.26317">
        <ele>76.71942</ele>
        <time>2023-10-29T08:42:48Z</time>
      </trkpt>
      <trkpt lat="50.35387" lon="3.26318">
        <ele>75.82391</ele>
        <time>2023-10-29T08:42:49Z</time>
      </trkpt>
      <trkpt lat="50.35386" lon="3.26319">
        <ele>75.36438</ele>
        <time>2023-10-29T08:42:50Z</time>
      </trkpt>
      <trkpt lat="50.35386" lon="3.26321">
        <ele>75.45465</ele>
        <time>2023-10-29T08:42:51Z</time>
      </trkpt>
      <trkpt lat="50.35384" lon="3.26323">
        <ele>74.582886</ele>
        <time>2023-10-29T08:42:52Z</time>
      </trkpt>
      <trkpt lat="50.35384" lon="3.26325">
        <ele>74.853455</ele>
        <time>2023-10-29T08:42:53Z</time>
      </trkpt>
      <trkpt lat="50.35383" lon="3.26327">
        <ele>74.365234</ele>
        <time>2023-10-29T08:42:54Z</time>
      </trkpt>
      <trkpt lat="50.35381" lon="3.26327">
        <ele>74.493286</ele>
        <time>2023-10-29T08:42:55Z</time>
      </trkpt>
      <trkpt lat="50.3538" lon="3.26328">
        <ele>74.79016</ele>
        <time>2023-10-29T08:42:56Z</time>
      </trkpt>
      <trkpt lat="50.35379" lon="3.26329">
        <ele>75.02515</ele>
        <time>2023-10-29T08:42:57Z</time>
      </trkpt>
      <trkpt lat="50.35378" lon="3.26329">
        <ele>74.75537</ele>
        <time>2023-10-29T08:42:58Z</time>
      </trkpt>
      <trkpt lat="50.35377" lon="3.2633">
        <ele>74.74078</ele>
        <time>2023-10-29T08:42:59Z</time>
      </trkpt>
      <trkpt lat="50.35376" lon="3.26331">
        <ele>74.71576</ele>
        <time>2023-10-29T08:43:00Z</time>
      </trkpt>
      <trkpt lat="50.35376" lon="3.26331">
        <ele>74.769775</ele>
        <time>2023-10-29T08:43:01Z</time>
      </trkpt>
      <trkpt lat="50.35375" lon="3.26331">
        <ele>74.854675</ele>
        <time>2023-10-29T08:43:02Z</time>
      </trkpt>
      <trkpt lat="50.35375" lon="3.26331">
        <ele>74.79553</ele>
        <time>2023-10-29T08:43:03Z</time>
      </trkpt>
      <trkpt lat="50.35374" lon="3.26331">
        <ele>75.43164</ele>
        <time>2023-10-29T08:43:04Z</time>
      </trkpt>
      <trkpt lat="50.35373" lon="3.2633">
        <ele>76.25342</ele>
        <time>2023-10-29T08:43:05Z</time>
      </trkpt>
      <trkpt lat="50.35372" lon="3.2633">
        <ele>76.659546</ele>
        <time>2023-10-29T08:43:06Z</time>
      </trkpt>
      <trkpt lat="50.35372" lon="3.26329">
        <ele>76.41339</ele>
        <time>2023-10-29T08:43:07Z</time>
      </trkpt>
      <trkpt lat="50.35371" lon="3.26327">
        <ele>76.24756</ele>
        <time>2023-10-29T08:43:08Z</time>
      </trkpt>
      <trkpt lat="50.35371" lon="3.26327">
        <ele>76.78528</ele>
        <time>2023-10-29T08:43:09Z</time>
      </trkpt>
      <trkpt lat="50.3537" lon="3.26327">
        <ele>77.226685</ele>
        <time>2023-10-29T08:43:10Z</time>
      </trkpt>
      <trkpt lat="50.3537" lon="3.26327">
        <ele>77.33069</ele>
        <time>2023-10-29T08:43:11Z</time>
      </trkpt>
      <trkpt lat="50.3537" lon="3.26326">
        <ele>77.2486</ele>
        <time>2023-10-29T08:43:12Z</time>
      </trkpt>
      <trkpt lat="50.35369" lon="3.26326">
        <ele>78.19739</ele>
        <time>2023-10-29T08:43:13Z</time>
      </trkpt>
      <trkpt lat="50.35368" lon="3.26326">
        <ele>78.413574</ele>
        <time>2023-10-29T08:43:14Z</time>
      </trkpt>
      <trkpt lat="50.35367" lon="3.26325">
        <ele>78.50885</ele>
        <time>2023-10-29T08:43:15Z</time>
      </trkpt>
      <trkpt lat="50.35366" lon="3.26325">
        <ele>79.12744</ele>
        <time>2023-10-29T08:43:16Z</time>
      </trkpt>
      <trkpt lat="50.35366" lon="3.26325">
        <ele>79.539185</ele>
        <time>2023-10-29T08:43:17Z</time>
      </trkpt>
      <trkpt lat="50.35366" lon="3.26324">
        <ele>79.84247</ele>
        <time>2023-10-29T08:43:18Z</time>
      </trkpt>
      <trkpt lat="50.35366" lon="3.26324">
        <ele>79.843994</ele>
        <time>2023-10-29T08:43:19Z</time>
      </trkpt>
      <trkpt lat="50.35366" lon="3.26324">
        <ele>79.84424</ele>
        <time>2023-10-29T08:43:20Z</time>
      </trkpt>
      <trkpt lat="50.35366" lon="3.26324">
        <ele>79.84424</ele>
        <time>2023-10-29T08:43:21Z</time>
      </trkpt>
      <trkpt lat="50.35366" lon="3.26324">
        <ele>79.8443</ele>
        <time>2023-10-29T08:43:22Z</time>
      </trkpt>
      <trkpt lat="50.35366" lon="3.26324">
        <ele>79.841675</ele>
        <time>2023-10-29T08:43:23Z</time>
      </trkpt>
      <trkpt lat="50.35366" lon="3.26325">
        <ele>79.72882</ele>
        <time>2023-10-29T08:43:24Z</time>
      </trkpt>
      <trkpt lat="50.35366" lon="3.26325">
        <ele>79.72632</ele>
        <time>2023-10-29T08:43:25Z</time>
      </trkpt>
      <trkpt lat="50.35366" lon="3.26325">
        <ele>79.72241</ele>
        <time>2023-10-29T08:43:26Z</time>
      </trkpt>
      <trkpt lat="50.35366" lon="3.26325">
        <ele>79.721985</ele>
        <time>2023-10-29T08:43:27Z</time>
      </trkpt>
      <trkpt lat="50.35366" lon="3.26325">
        <ele>79.71936</ele>
        <time>2023-10-29T08:43:28Z</time>
      </trkpt>
      <trkpt lat="50.35366" lon="3.26325">
        <ele>79.71802</ele>
        <time>2023-10-29T08:43:29Z</time>
      </trkpt>
      <trkpt lat="50.35366" lon="3.26325">
        <ele>79.7171</ele>
        <time>2023-10-29T08:43:30Z</time>
      </trkpt>
      <trkpt lat="50.35366" lon="3.26325">
        <ele>79.71515</ele>
        <time>2023-10-29T08:43:31Z</time>
      </trkpt>
      <trkpt lat="50.35366" lon="3.26324">
        <ele>79.42828</ele>
        <time>2023-10-29T08:43:32Z</time>
      </trkpt>
      <trkpt lat="50.35367" lon="3.26324">
        <ele>79.514465</ele>
        <time>2023-10-29T08:43:33Z</time>
      </trkpt>
      <trkpt lat="50.35367" lon="3.26323">
        <ele>79.15399</ele>
        <time>2023-10-29T08:43:34Z</time>
      </trkpt>
      <trkpt lat="50.35367" lon="3.26323">
        <ele>79.1676</ele>
        <time>2023-10-29T08:43:35Z</time>
      </trkpt>
      <trkpt lat="50.35367" lon="3.26323">
        <ele>79.29724</ele>
        <time>2023-10-29T08:43:36Z</time>
      </trkpt>
      <trkpt lat="50.35367" lon="3.26323">
        <ele>78.42279</ele>
        <time>2023-10-29T08:43:37Z</time>
      </trkpt>
      <trkpt lat="50.35367" lon="3.26323">
        <ele>78.17212</ele>
        <time>2023-10-29T08:43:38Z</time>
      </trkpt>
      <trkpt lat="50.35367" lon="3.26323">
        <ele>77.76233</ele>
        <time>2023-10-29T08:43:39Z</time>
      </trkpt>
      <trkpt lat="50.35367" lon="3.26323">
        <ele>77.80255</ele>
        <time>2023-10-29T08:43:40Z</time>
      </trkpt>
      <trkpt lat="50.35367" lon="3.26323">
        <ele>77.848694</ele>
        <time>2023-10-29T08:43:41Z</time>
      </trkpt>
      <trkpt lat="50.35367" lon="3.26322">
        <ele>77.65936</ele>
        <time>2023-10-29T08:43:42Z</time>
      </trkpt>
      <trkpt lat="50.35367" lon="3.26322">
        <ele>77.13788</ele>
        <time>2023-10-29T08:43:43Z</time>
      </trkpt>
      <trkpt lat="50.35366" lon="3.26322">
        <ele>76.80536</ele>
        <time>2023-10-29T08:43:44Z</time>
      </trkpt>
      <trkpt lat="50.35365" lon="3.26322">
        <ele>76.62085</ele>
        <time>2023-10-29T08:43:45Z</time>
      </trkpt>
      <trkpt lat="50.35365" lon="3.26321">
        <ele>76.61255</ele>
        <time>2023-10-29T08:43:46Z</time>
      </trkpt>
      <trkpt lat="50.35364" lon="3.2632">
        <ele>76.532166</ele>
        <time>2023-10-29T08:43:47Z</time>
      </trkpt>
      <trkpt lat="50.35364" lon="3.26319">
        <ele>76.6239</ele>
        <time>2023-10-29T08:43:48Z</time>
      </trkpt>
      <trkpt lat="50.35363" lon="3.26318">
        <ele>76.78723</ele>
        <time>2023-10-29T08:43:49Z</time>
      </trkpt>
      <trkpt lat="50.35362" lon="3.26318">
        <ele>76.794495</ele>
        <time>2023-10-29T08:43:50Z</time>
      </trkpt>
      <trkpt lat="50.3536" lon="3.26318">
        <ele>77.28589</ele>
        <time>2023-10-29T08:43:51Z</time>
      </trkpt>
      <trkpt lat="50.35359" lon="3.26319">
        <ele>76.687744</ele>
        <time>2023-10-29T08:43:52Z</time>
      </trkpt>
      <trkpt lat="50.35358" lon="3.2632">
        <ele>76.54932</ele>
        <time>2023-10-29T08:43:53Z</time>
      </trkpt>
      <trkpt lat="50.35357" lon="3.2632">
        <ele>76.32849</ele>
        <time>2023-10-29T08:43:54Z</time>
      </trkpt>
      <trkpt lat="50.35355" lon="3.2632">
        <ele>77.188965</ele>
        <time>2023-10-29T08:43:55Z</time>
      </trkpt>
      <trkpt lat="50.35354" lon="3.26321">
        <ele>76.61908</ele>
        <time>2023-10-29T08:43:56Z</time>
      </trkpt>
      <trkpt lat="50.35354" lon="3.26322">
        <ele>76.57147</ele>
        <time>2023-10-29T08:43:57Z</time>
      </trkpt>
      <trkpt lat="50.35353" lon="3.26323">
        <ele>75.84082</ele>
        <time>2023-10-29T08:43:58Z</time>
      </trkpt>
      <trkpt lat="50.35352" lon="3.26325">
        <ele>75.756775</ele>
        <time>2023-10-29T08:43:59Z</time>
      </trkpt>
      <trkpt lat="50.35351" lon="3.26326">
        <ele>75.81482</ele>
        <time>2023-10-29T08:44:00Z</time>
      </trkpt>
      <trkpt lat="50.3535" lon="3.26327">
        <ele>75.66882</ele>
        <time>2023-10-29T08:44:01Z</time>
      </trkpt>
      <trkpt lat="50.35349" lon="3.26328">
        <ele>75.09863</ele>
        <time>2023-10-29T08:44:02Z</time>
      </trkpt>
      <trkpt lat="50.35349" lon="3.26329">
        <ele>74.85321</ele>
        <time>2023-10-29T08:44:03Z</time>
      </trkpt>
      <trkpt lat="50.35347" lon="3.2633">
        <ele>74.88916</ele>
        <time>2023-10-29T08:44:04Z</time>
      </trkpt>
      <trkpt lat="50.35347" lon="3.26331">
        <ele>74.286316</ele>
        <time>2023-10-29T08:44:05Z</time>
      </trkpt>
      <trkpt lat="50.35346" lon="3.26333">
        <ele>74.27002</ele>
        <time>2023-10-29T08:44:06Z</time>
      </trkpt>
      <trkpt lat="50.35345" lon="3.26334">
        <ele>73.87988</ele>
        <time>2023-10-29T08:44:07Z</time>
      </trkpt>
      <trkpt lat="50.35344" lon="3.26335">
        <ele>74.26355</ele>
        <time>2023-10-29T08:44:08Z</time>
      </trkpt>
      <trkpt lat="50.35344" lon="3.26336">
        <ele>74.02905</ele>
        <time>2023-10-29T08:44:09Z</time>
      </trkpt>
      <trkpt lat="50.35344" lon="3.26336">
        <ele>73.90265</ele>
        <time>2023-10-29T08:44:10Z</time>
      </trkpt>
      <trkpt lat="50.35344" lon="3.26336">
        <ele>73.90375</ele>
        <time>2023-10-29T08:44:11Z</time>
      </trkpt>
      <trkpt lat="50.35344" lon="3.26336">
        <ele>73.902466</ele>
        <time>2023-10-29T08:44:12Z</time>
      </trkpt>
      <trkpt lat="50.35344" lon="3.26336">
        <ele>73.90631</ele>
        <time>2023-10-29T08:44:13Z</time>
      </trkpt>
      <trkpt lat="50.35344" lon="3.26336">
        <ele>73.90509</ele>
        <time>2023-10-29T08:44:14Z</time>
      </trkpt>
      <trkpt lat="50.35344" lon="3.26336">
        <ele>73.907166</ele>
        <time>2023-10-29T08:44:15Z</time>
      </trkpt>
      <trkpt lat="50.35344" lon="3.26336">
        <ele>73.905334</ele>
        <time>2023-10-29T08:44:16Z</time>
      </trkpt>
      <trkpt lat="50.35344" lon="3.26336">
        <ele>73.90442</ele>
        <time>2023-10-29T08:44:17Z</time>
      </trkpt>
      <trkpt lat="50.35344" lon="3.26336">
        <ele>73.906006</ele>
        <time>2023-10-29T08:44:18Z</time>
      </trkpt>
      <trkpt lat="50.35344" lon="3.26336">
        <ele>73.9079</ele>
        <time>2023-10-29T08:44:19Z</time>
      </trkpt>
      <trkpt lat="50.35344" lon="3.26336">
        <ele>74.16748</ele>
        <time>2023-10-29T08:44:20Z</time>
      </trkpt>
      <trkpt lat="50.35343" lon="3.26336">
        <ele>74.38025</ele>
        <time>2023-10-29T08:44:21Z</time>
      </trkpt>
      <trkpt lat="50.35344" lon="3.26336">
        <ele>74.175354</ele>
        <time>2023-10-29T08:44:22Z</time>
      </trkpt>
      <trkpt lat="50.35344" lon="3.26336">
        <ele>74.0318</ele>
        <time>2023-10-29T08:44:23Z</time>
      </trkpt>
      <trkpt lat="50.35344" lon="3.26336">
        <ele>73.95166</ele>
        <time>2023-10-29T08:44:24Z</time>
      </trkpt>
      <trkpt lat="50.35344" lon="3.26336">
        <ele>73.92688</ele>
        <time>2023-10-29T08:44:25Z</time>
      </trkpt>
      <trkpt lat="50.35344" lon="3.26337">
        <ele>73.43616</ele>
        <time>2023-10-29T08:44:26Z</time>
      </trkpt>
      <trkpt lat="50.35344" lon="3.26338">
        <ele>73.70123</ele>
        <time>2023-10-29T08:44:27Z</time>
      </trkpt>
      <trkpt lat="50.35344" lon="3.26339">
        <ele>74.11011</ele>
        <time>2023-10-29T08:44:28Z</time>
      </trkpt>
      <trkpt lat="50.35344" lon="3.2634">
        <ele>74.03949</ele>
        <time>2023-10-29T08:44:29Z</time>
      </trkpt>
      <trkpt lat="50.35343" lon="3.26341">
        <ele>74.58661</ele>
        <time>2023-10-29T08:44:30Z</time>
      </trkpt>
      <trkpt lat="50.35342" lon="3.26343">
        <ele>74.5235</ele>
        <time>2023-10-29T08:44:31Z</time>
      </trkpt>
      <trkpt lat="50.35343" lon="3.26344">
        <ele>74.43024</ele>
        <time>2023-10-29T08:44:32Z</time>
      </trkpt>
      <trkpt lat="50.35343" lon="3.26346">
        <ele>74.53662</ele>
        <time>2023-10-29T08:44:33Z</time>
      </trkpt>
      <trkpt lat="50.35344" lon="3.26347">
        <ele>74.88635</ele>
        <time>2023-10-29T08:44:34Z</time>
      </trkpt>
      <trkpt lat="50.35344" lon="3.26348">
        <ele>74.70636</ele>
        <time>2023-10-29T08:44:35Z</time>
      </trkpt>
      <trkpt lat="50.35344" lon="3.26349">
        <ele>74.90436</ele>
        <time>2023-10-29T08:44:36Z</time>
      </trkpt>
      <trkpt lat="50.35344" lon="3.26351">
        <ele>74.12317</ele>
        <time>2023-10-29T08:44:37Z</time>
      </trkpt>
      <trkpt lat="50.35344" lon="3.26352">
        <ele>74.12372</ele>
        <time>2023-10-29T08:44:38Z</time>
      </trkpt>
      <trkpt lat="50.35345" lon="3.26354">
        <ele>74.26306</ele>
        <time>2023-10-29T08:44:39Z</time>
      </trkpt>
      <trkpt lat="50.35346" lon="3.26355">
        <ele>74.30969</ele>
        <time>2023-10-29T08:44:40Z</time>
      </trkpt>
      <trkpt lat="50.35347" lon="3.26356">
        <ele>74.88342</ele>
        <time>2023-10-29T08:44:41Z</time>
      </trkpt>
      <trkpt lat="50.35349" lon="3.26357">
        <ele>75.14081</ele>
        <time>2023-10-29T08:44:42Z</time>
      </trkpt>
      <trkpt lat="50.35349" lon="3.26359">
        <ele>75.10443</ele>
        <time>2023-10-29T08:44:43Z</time>
      </trkpt>
      <trkpt lat="50.35349" lon="3.26361">
        <ele>75.28284</ele>
        <time>2023-10-29T08:44:44Z</time>
      </trkpt>
      <trkpt lat="50.3535" lon="3.26362">
        <ele>75.4433</ele>
        <time>2023-10-29T08:44:45Z</time>
      </trkpt>
      <trkpt lat="50.3535" lon="3.26364">
        <ele>76.00427</ele>
        <time>2023-10-29T08:44:46Z</time>
      </trkpt>
      <trkpt lat="50.3535" lon="3.26365">
        <ele>76.59717</ele>
        <time>2023-10-29T08:44:47Z</time>
      </trkpt>
      <trkpt lat="50.35351" lon="3.26367">
        <ele>76.2077</ele>
        <time>2023-10-29T08:44:48Z</time>
      </trkpt>
      <trkpt lat="50.35351" lon="3.26368">
        <ele>76.03125</ele>
        <time>2023-10-29T08:44:49Z</time>
      </trkpt>
      <trkpt lat="50.35352" lon="3.2637">
        <ele>75.875854</ele>
        <time>2023-10-29T08:44:50Z</time>
      </trkpt>
      <trkpt lat="50.35352" lon="3.26371">
        <ele>75.44116</ele>
        <time>2023-10-29T08:44:51Z</time>
      </trkpt>
      <trkpt lat="50.35353" lon="3.26372">
        <ele>75.1582</ele>
        <time>2023-10-29T08:44:52Z</time>
      </trkpt>
      <trkpt lat="50.35354" lon="3.26374">
        <ele>75.16199</ele>
        <time>2023-10-29T08:44:53Z</time>
      </trkpt>
      <trkpt lat="50.35355" lon="3.26375">
        <ele>75.53516</ele>
        <time>2023-10-29T08:44:54Z</time>
      </trkpt>
      <trkpt lat="50.35355" lon="3.26377">
        <ele>74.87103</ele>
        <time>2023-10-29T08:44:55Z</time>
      </trkpt>
      <trkpt lat="50.35355" lon="3.26379">
        <ele>74.31616</ele>
        <time>2023-10-29T08:44:56Z</time>
      </trkpt>
      <trkpt lat="50.35356" lon="3.2638">
        <ele>74.677124</ele>
        <time>2023-10-29T08:44:57Z</time>
      </trkpt>
      <trkpt lat="50.35356" lon="3.26382">
        <ele>74.46991</ele>
        <time>2023-10-29T08:44:58Z</time>
      </trkpt>
      <trkpt lat="50.35357" lon="3.26383">
        <ele>74.22064</ele>
        <time>2023-10-29T08:44:59Z</time>
      </trkpt>
      <trkpt lat="50.35358" lon="3.26385">
        <ele>74.29132</ele>
        <time>2023-10-29T08:45:00Z</time>
      </trkpt>
      <trkpt lat="50.35358" lon="3.26386">
        <ele>74.61755</ele>
        <time>2023-10-29T08:45:01Z</time>
      </trkpt>
      <trkpt lat="50.35359" lon="3.26388">
        <ele>75.15979</ele>
        <time>2023-10-29T08:45:02Z</time>
      </trkpt>
      <trkpt lat="50.3536" lon="3.26389">
        <ele>74.207214</ele>
        <time>2023-10-29T08:45:03Z</time>
      </trkpt>
      <trkpt lat="50.3536" lon="3.2639">
        <ele>74.26257</ele>
        <time>2023-10-29T08:45:04Z</time>
      </trkpt>
      <trkpt lat="50.35362" lon="3.26391">
        <ele>73.9422</ele>
        <time>2023-10-29T08:45:05Z</time>
      </trkpt>
      <trkpt lat="50.35363" lon="3.26392">
        <ele>73.87286</ele>
        <time>2023-10-29T08:45:06Z</time>
      </trkpt>
      <trkpt lat="50.35364" lon="3.26394">
        <ele>74.21832</ele>
        <time>2023-10-29T08:45:07Z</time>
      </trkpt>
      <trkpt lat="50.35365" lon="3.26395">
        <ele>74</ele>
        <time>2023-10-29T08:45:08Z</time>
      </trkpt>
      <trkpt lat="50.35366" lon="3.26396">
        <ele>73.16162</ele>
        <time>2023-10-29T08:45:09Z</time>
      </trkpt>
      <trkpt lat="50.35366" lon="3.26398">
        <ele>73.18469</ele>
        <time>2023-10-29T08:45:10Z</time>
      </trkpt>
      <trkpt lat="50.35366" lon="3.264">
        <ele>72.4389</ele>
        <time>2023-10-29T08:45:11Z</time>
      </trkpt>
      <trkpt lat="50.35367" lon="3.26401">
        <ele>71.50647</ele>
        <time>2023-10-29T08:45:12Z</time>
      </trkpt>
      <trkpt lat="50.35368" lon="3.26403">
        <ele>71.715576</ele>
        <time>2023-10-29T08:45:13Z</time>
      </trkpt>
      <trkpt lat="50.35369" lon="3.26405">
        <ele>71.68378</ele>
        <time>2023-10-29T08:45:14Z</time>
      </trkpt>
      <trkpt lat="50.35369" lon="3.26406">
        <ele>71.243774</ele>
        <time>2023-10-29T08:45:15Z</time>
      </trkpt>
      <trkpt lat="50.3537" lon="3.26408">
        <ele>72.20117</ele>
        <time>2023-10-29T08:45:16Z</time>
      </trkpt>
      <trkpt lat="50.35371" lon="3.26409">
        <ele>71.72778</ele>
        <time>2023-10-29T08:45:17Z</time>
      </trkpt>
      <trkpt lat="50.35371" lon="3.26411">
        <ele>70.4834</ele>
        <time>2023-10-29T08:45:18Z</time>
      </trkpt>
      <trkpt lat="50.35372" lon="3.26413">
        <ele>71.819336</ele>
        <time>2023-10-29T08:45:19Z</time>
      </trkpt>
      <trkpt lat="50.35373" lon="3.26415">
        <ele>71.075134</ele>
        <time>2023-10-29T08:45:20Z</time>
      </trkpt>
      <trkpt lat="50.35373" lon="3.26416">
        <ele>71.832886</ele>
        <time>2023-10-29T08:45:21Z</time>
      </trkpt>
      <trkpt lat="50.35375" lon="3.26418">
        <ele>71.5614</ele>
        <time>2023-10-29T08:45:22Z</time>
      </trkpt>
      <trkpt lat="50.35375" lon="3.26419">
        <ele>71.78082</ele>
        <time>2023-10-29T08:45:23Z</time>
      </trkpt>
      <trkpt lat="50.35375" lon="3.26421">
        <ele>71.2088</ele>
        <time>2023-10-29T08:45:24Z</time>
      </trkpt>
      <trkpt lat="50.35376" lon="3.26423">
        <ele>71.34595</ele>
        <time>2023-10-29T08:45:25Z</time>
      </trkpt>
      <trkpt lat="50.35376" lon="3.26425">
        <ele>71.49054</ele>
        <time>2023-10-29T08:45:26Z</time>
      </trkpt>
      <trkpt lat="50.35377" lon="3.26426">
        <ele>72.16406</ele>
        <time>2023-10-29T08:45:27Z</time>
      </trkpt>
      <trkpt lat="50.35378" lon="3.26428">
        <ele>71.75287</ele>
        <time>2023-10-29T08:45:28Z</time>
      </trkpt>
      <trkpt lat="50.35378" lon="3.26429">
        <ele>71.88861</ele>
        <time>2023-10-29T08:45:29Z</time>
      </trkpt>
      <trkpt lat="50.35378" lon="3.26431">
        <ele>71.32495</ele>
        <time>2023-10-29T08:45:30Z</time>
      </trkpt>
      <trkpt lat="50.35379" lon="3.26433">
        <ele>70.7406</ele>
        <time>2023-10-29T08:45:31Z</time>
      </trkpt>
      <trkpt lat="50.35379" lon="3.26435">
        <ele>71.12036</ele>
        <time>2023-10-29T08:45:32Z</time>
      </trkpt>
      <trkpt lat="50.3538" lon="3.26436">
        <ele>70.42786</ele>
        <time>2023-10-29T08:45:33Z</time>
      </trkpt>
      <trkpt lat="50.35381" lon="3.26438">
        <ele>70.56232</ele>
        <time>2023-10-29T08:45:34Z</time>
      </trkpt>
      <trkpt lat="50.35381" lon="3.26439">
        <ele>69.40161</ele>
        <time>2023-10-29T08:45:35Z</time>
      </trkpt>
      <trkpt lat="50.35381" lon="3.26441">
        <ele>68.96069</ele>
        <time>2023-10-29T08:45:36Z</time>
      </trkpt>
      <trkpt lat="50.35382" lon="3.26442">
        <ele>69.93738</ele>
        <time>2023-10-29T08:45:37Z</time>
      </trkpt>
      <trkpt lat="50.35383" lon="3.26444">
        <ele>69.53052</ele>
        <time>2023-10-29T08:45:38Z</time>
      </trkpt>
      <trkpt lat="50.35383" lon="3.26446">
        <ele>69.750305</ele>
        <time>2023-10-29T08:45:39Z</time>
      </trkpt>
      <trkpt lat="50.35383" lon="3.26448">
        <ele>69.82788</ele>
        <time>2023-10-29T08:45:40Z</time>
      </trkpt>
      <trkpt lat="50.35384" lon="3.2645">
        <ele>69.68915</ele>
        <time>2023-10-29T08:45:41Z</time>
      </trkpt>
      <trkpt lat="50.35384" lon="3.26451">
        <ele>69.472046</ele>
        <time>2023-10-29T08:45:42Z</time>
      </trkpt>
      <trkpt lat="50.35385" lon="3.26453">
        <ele>70.04199</ele>
        <time>2023-10-29T08:45:43Z</time>
      </trkpt>
      <trkpt lat="50.35386" lon="3.26455">
        <ele>70.20087</ele>
        <time>2023-10-29T08:45:44Z</time>
      </trkpt>
      <trkpt lat="50.35386" lon="3.26457">
        <ele>70.08557</ele>
        <time>2023-10-29T08:45:45Z</time>
      </trkpt>
      <trkpt lat="50.35386" lon="3.26459">
        <ele>70.14783</ele>
        <time>2023-10-29T08:45:46Z</time>
      </trkpt>
      <trkpt lat="50.35386" lon="3.2646">
        <ele>70.2381</ele>
        <time>2023-10-29T08:45:47Z</time>
      </trkpt>
      <trkpt lat="50.35387" lon="3.26462">
        <ele>70.14142</ele>
        <time>2023-10-29T08:45:48Z</time>
      </trkpt>
      <trkpt lat="50.35387" lon="3.26464">
        <ele>70.21411</ele>
        <time>2023-10-29T08:45:49Z</time>
      </trkpt>
      <trkpt lat="50.35388" lon="3.26466">
        <ele>70.70996</ele>
        <time>2023-10-29T08:45:50Z</time>
      </trkpt>
      <trkpt lat="50.35388" lon="3.26468">
        <ele>71.0343</ele>
        <time>2023-10-29T08:45:51Z</time>
      </trkpt>
      <trkpt lat="50.35388" lon="3.2647">
        <ele>71.46991</ele>
        <time>2023-10-29T08:45:52Z</time>
      </trkpt>
      <trkpt lat="50.35388" lon="3.26472">
        <ele>71.92084</ele>
        <time>2023-10-29T08:45:53Z</time>
      </trkpt>
      <trkpt lat="50.35389" lon="3.26473">
        <ele>71.29895</ele>
        <time>2023-10-29T08:45:54Z</time>
      </trkpt>
      <trkpt lat="50.35389" lon="3.26475">
        <ele>71.05817</ele>
        <time>2023-10-29T08:45:55Z</time>
      </trkpt>
      <trkpt lat="50.3539" lon="3.26477">
        <ele>71.18536</ele>
        <time>2023-10-29T08:45:56Z</time>
      </trkpt>
      <trkpt lat="50.3539" lon="3.26479">
        <ele>71.24426</ele>
        <time>2023-10-29T08:45:57Z</time>
      </trkpt>
      <trkpt lat="50.35391" lon="3.26481">
        <ele>71.3385</ele>
        <time>2023-10-29T08:45:58Z</time>
      </trkpt>
      <trkpt lat="50.35391" lon="3.26484">
        <ele>71.13672</ele>
        <time>2023-10-29T08:45:59Z</time>
      </trkpt>
      <trkpt lat="50.35391" lon="3.26485">
        <ele>70.6073</ele>
        <time>2023-10-29T08:46:00Z</time>
      </trkpt>
      <trkpt lat="50.35391" lon="3.26487">
        <ele>70.815125</ele>
        <time>2023-10-29T08:46:01Z</time>
      </trkpt>
      <trkpt lat="50.35391" lon="3.26489">
        <ele>71.42352</ele>
        <time>2023-10-29T08:46:02Z</time>
      </trkpt>
      <trkpt lat="50.35391" lon="3.26491">
        <ele>71.42578</ele>
        <time>2023-10-29T08:46:03Z</time>
      </trkpt>
      <trkpt lat="50.35391" lon="3.26493">
        <ele>70.71411</ele>
        <time>2023-10-29T08:46:04Z</time>
      </trkpt>
      <trkpt lat="50.35391" lon="3.26495">
        <ele>70.88562</ele>
        <time>2023-10-29T08:46:05Z</time>
      </trkpt>
      <trkpt lat="50.3539" lon="3.26497">
        <ele>70.85474</ele>
        <time>2023-10-29T08:46:06Z</time>
      </trkpt>
      <trkpt lat="50.3539" lon="3.26498">
        <ele>70.6532</ele>
        <time>2023-10-29T08:46:07Z</time>
      </trkpt>
      <trkpt lat="50.3539" lon="3.26501">
        <ele>71.197205</ele>
        <time>2023-10-29T08:46:08Z</time>
      </trkpt>
      <trkpt lat="50.35391" lon="3.26503">
        <ele>71.37659</ele>
        <time>2023-10-29T08:46:09Z</time>
      </trkpt>
      <trkpt lat="50.3539" lon="3.26505">
        <ele>70.17578</ele>
        <time>2023-10-29T08:46:10Z</time>
      </trkpt>
      <trkpt lat="50.35389" lon="3.26506">
        <ele>69.77869</ele>
        <time>2023-10-29T08:46:11Z</time>
      </trkpt>
      <trkpt lat="50.35389" lon="3.26509">
        <ele>68.82715</ele>
        <time>2023-10-29T08:46:12Z</time>
      </trkpt>
      <trkpt lat="50.35389" lon="3.2651">
        <ele>69.447266</ele>
        <time>2023-10-29T08:46:13Z</time>
      </trkpt>
      <trkpt lat="50.35388" lon="3.26512">
        <ele>69.791626</ele>
        <time>2023-10-29T08:46:14Z</time>
      </trkpt>
      <trkpt lat="50.35387" lon="3.26514">
        <ele>69.71619</ele>
        <time>2023-10-29T08:46:15Z</time>
      </trkpt>
      <trkpt lat="50.35387" lon="3.26515">
        <ele>69.387085</ele>
        <time>2023-10-29T08:46:16Z</time>
      </trkpt>
      <trkpt lat="50.35387" lon="3.26517">
        <ele>69.14325</ele>
        <time>2023-10-29T08:46:17Z</time>
      </trkpt>
      <trkpt lat="50.35386" lon="3.26519">
        <ele>68.71472</ele>
        <time>2023-10-29T08:46:18Z</time>
      </trkpt>
      <trkpt lat="50.35386" lon="3.2652">
        <ele>68.70032</ele>
        <time>2023-10-29T08:46:19Z</time>
      </trkpt>
      <trkpt lat="50.35385" lon="3.26522">
        <ele>69.53302</ele>
        <time>2023-10-29T08:46:20Z</time>
      </trkpt>
      <trkpt lat="50.35385" lon="3.26523">
        <ele>68.950806</ele>
        <time>2023-10-29T08:46:21Z</time>
      </trkpt>
      <trkpt lat="50.35385" lon="3.26525">
        <ele>68.514404</ele>
        <time>2023-10-29T08:46:22Z</time>
      </trkpt>
      <trkpt lat="50.35384" lon="3.26527">
        <ele>67.9267</ele>
        <time>2023-10-29T08:46:23Z</time>
      </trkpt>
      <trkpt lat="50.35384" lon="3.26528">
        <ele>68.42999</ele>
        <time>2023-10-29T08:46:24Z</time>
      </trkpt>
      <trkpt lat="50.35383" lon="3.2653">
        <ele>67.76611</ele>
        <time>2023-10-29T08:46:25Z</time>
      </trkpt>
      <trkpt lat="50.35383" lon="3.26532">
        <ele>67.66217</ele>
        <time>2023-10-29T08:46:26Z</time>
      </trkpt>
      <trkpt lat="50.35383" lon="3.26533">
        <ele>66.44177</ele>
        <time>2023-10-29T08:46:27Z</time>
      </trkpt>
      <trkpt lat="50.35383" lon="3.26535">
        <ele>66.980225</ele>
        <time>2023-10-29T08:46:28Z</time>
      </trkpt>
      <trkpt lat="50.35382" lon="3.26536">
        <ele>66.57648</ele>
        <time>2023-10-29T08:46:29Z</time>
      </trkpt>
      <trkpt lat="50.35382" lon="3.26538">
        <ele>66.41943</ele>
        <time>2023-10-29T08:46:30Z</time>
      </trkpt>
      <trkpt lat="50.35381" lon="3.2654">
        <ele>66.34277</ele>
        <time>2023-10-29T08:46:31Z</time>
      </trkpt>
      <trkpt lat="50.35381" lon="3.26541">
        <ele>67.08655</ele>
        <time>2023-10-29T08:46:32Z</time>
      </trkpt>
      <trkpt lat="50.3538" lon="3.26543">
        <ele>66.99524</ele>
        <time>2023-10-29T08:46:33Z</time>
      </trkpt>
      <trkpt lat="50.3538" lon="3.26545">
        <ele>66.48547</ele>
        <time>2023-10-29T08:46:34Z</time>
      </trkpt>
      <trkpt lat="50.35379" lon="3.26547">
        <ele>66.70679</ele>
        <time>2023-10-29T08:46:35Z</time>
      </trkpt>
      <trkpt lat="50.35379" lon="3.26549">
        <ele>66.523926</ele>
        <time>2023-10-29T08:46:36Z</time>
      </trkpt>
      <trkpt lat="50.35378" lon="3.26551">
        <ele>66.87781</ele>
        <time>2023-10-29T08:46:37Z</time>
      </trkpt>
      <trkpt lat="50.35378" lon="3.26553">
        <ele>66.92059</ele>
        <time>2023-10-29T08:46:38Z</time>
      </trkpt>
      <trkpt lat="50.35378" lon="3.26555">
        <ele>67.37805</ele>
        <time>2023-10-29T08:46:39Z</time>
      </trkpt>
      <trkpt lat="50.35377" lon="3.26557">
        <ele>66.82135</ele>
        <time>2023-10-29T08:46:40Z</time>
      </trkpt>
      <trkpt lat="50.35376" lon="3.26559">
        <ele>66.760864</ele>
        <time>2023-10-29T08:46:41Z</time>
      </trkpt>
      <trkpt lat="50.35376" lon="3.2656">
        <ele>66.01807</ele>
        <time>2023-10-29T08:46:42Z</time>
      </trkpt>
      <trkpt lat="50.35375" lon="3.26562">
        <ele>66.115906</ele>
        <time>2023-10-29T08:46:43Z</time>
      </trkpt>
      <trkpt lat="50.35375" lon="3.26564">
        <ele>65.85785</ele>
        <time>2023-10-29T08:46:44Z</time>
      </trkpt>
      <trkpt lat="50.35374" lon="3.26566">
        <ele>65.0744</ele>
        <time>2023-10-29T08:46:45Z</time>
      </trkpt>
      <trkpt lat="50.35374" lon="3.26568">
        <ele>65.80658</ele>
        <time>2023-10-29T08:46:46Z</time>
      </trkpt>
      <trkpt lat="50.35373" lon="3.26569">
        <ele>66.017944</ele>
        <time>2023-10-29T08:46:47Z</time>
      </trkpt>
      <trkpt lat="50.35372" lon="3.2657">
        <ele>66.24011</ele>
        <time>2023-10-29T08:46:48Z</time>
      </trkpt>
      <trkpt lat="50.35371" lon="3.26572">
        <ele>66.66693</ele>
        <time>2023-10-29T08:46:49Z</time>
      </trkpt>
      <trkpt lat="50.35371" lon="3.26574">
        <ele>65.65448</ele>
        <time>2023-10-29T08:46:50Z</time>
      </trkpt>
      <trkpt lat="50.35371" lon="3.26575">
        <ele>65.0564</ele>
        <time>2023-10-29T08:46:51Z</time>
      </trkpt>
      <trkpt lat="50.3537" lon="3.26577">
        <ele>65.2384</ele>
        <time>2023-10-29T08:46:52Z</time>
      </trkpt>
      <trkpt lat="50.3537" lon="3.26579">
        <ele>65.38757</ele>
        <time>2023-10-29T08:46:53Z</time>
      </trkpt>
      <trkpt lat="50.35369" lon="3.2658">
        <ele>65.14697</ele>
        <time>2023-10-29T08:46:54Z</time>
      </trkpt>
      <trkpt lat="50.35368" lon="3.26582">
        <ele>65.47632</ele>
        <time>2023-10-29T08:46:55Z</time>
      </trkpt>
      <trkpt lat="50.35368" lon="3.26584">
        <ele>66.03699</ele>
        <time>2023-10-29T08:46:56Z</time>
      </trkpt>
      <trkpt lat="50.35368" lon="3.26586">
        <ele>66.6485</ele>
        <time>2023-10-29T08:46:57Z</time>
      </trkpt>
      <trkpt lat="50.35367" lon="3.26588">
        <ele>66.43689</ele>
        <time>2023-10-29T08:46:58Z</time>
      </trkpt>
      <trkpt lat="50.35366" lon="3.26589">
        <ele>67.06659</ele>
        <time>2023-10-29T08:46:59Z</time>
      </trkpt>
      <trkpt lat="50.35366" lon="3.26591">
        <ele>66.84003</ele>
        <time>2023-10-29T08:47:00Z</time>
      </trkpt>
      <trkpt lat="50.35365" lon="3.26592">
        <ele>67.410645</ele>
        <time>2023-10-29T08:47:01Z</time>
      </trkpt>
      <trkpt lat="50.35365" lon="3.26594">
        <ele>68.20154</ele>
        <time>2023-10-29T08:47:02Z</time>
      </trkpt>
      <trkpt lat="50.35364" lon="3.26596">
        <ele>67.96289</ele>
        <time>2023-10-29T08:47:03Z</time>
      </trkpt>
      <trkpt lat="50.35363" lon="3.26597">
        <ele>68.27673</ele>
        <time>2023-10-29T08:47:04Z</time>
      </trkpt>
      <trkpt lat="50.35363" lon="3.26598">
        <ele>68.3512</ele>
        <time>2023-10-29T08:47:05Z</time>
      </trkpt>
      <trkpt lat="50.35362" lon="3.266">
        <ele>68.21399</ele>
        <time>2023-10-29T08:47:06Z</time>
      </trkpt>
      <trkpt lat="50.35362" lon="3.26602">
        <ele>68.40039</ele>
        <time>2023-10-29T08:47:07Z</time>
      </trkpt>
      <trkpt lat="50.35361" lon="3.26603">
        <ele>68.905396</ele>
        <time>2023-10-29T08:47:08Z</time>
      </trkpt>
      <trkpt lat="50.3536" lon="3.26605">
        <ele>68.49921</ele>
        <time>2023-10-29T08:47:09Z</time>
      </trkpt>
      <trkpt lat="50.35359" lon="3.26607">
        <ele>68.7428</ele>
        <time>2023-10-29T08:47:10Z</time>
      </trkpt>
      <trkpt lat="50.35358" lon="3.26608">
        <ele>68.9115</ele>
        <time>2023-10-29T08:47:11Z</time>
      </trkpt>
      <trkpt lat="50.35358" lon="3.2661">
        <ele>68.81769</ele>
        <time>2023-10-29T08:47:12Z</time>
      </trkpt>
      <trkpt lat="50.35357" lon="3.26611">
        <ele>68.01709</ele>
        <time>2023-10-29T08:47:13Z</time>
      </trkpt>
      <trkpt lat="50.35356" lon="3.26611">
        <ele>67.88501</ele>
        <time>2023-10-29T08:47:14Z</time>
      </trkpt>
      <trkpt lat="50.35355" lon="3.26613">
        <ele>68.5578</ele>
        <time>2023-10-29T08:47:15Z</time>
      </trkpt>
      <trkpt lat="50.35355" lon="3.26614">
        <ele>68.166626</ele>
        <time>2023-10-29T08:47:16Z</time>
      </trkpt>
      <trkpt lat="50.35354" lon="3.26616">
        <ele>68.90112</ele>
        <time>2023-10-29T08:47:17Z</time>
      </trkpt>
      <trkpt lat="50.35353" lon="3.26617">
        <ele>68.15314</ele>
        <time>2023-10-29T08:47:18Z</time>
      </trkpt>
      <trkpt lat="50.35352" lon="3.26619">
        <ele>68.20636</ele>
        <time>2023-10-29T08:47:19Z</time>
      </trkpt>
      <trkpt lat="50.35352" lon="3.2662">
        <ele>68.62842</ele>
        <time>2023-10-29T08:47:20Z</time>
      </trkpt>
      <trkpt lat="50.35351" lon="3.26621">
        <ele>68.907104</ele>
        <time>2023-10-29T08:47:21Z</time>
      </trkpt>
      <trkpt lat="50.3535" lon="3.26623">
        <ele>69.73773</ele>
        <time>2023-10-29T08:47:22Z</time>
      </trkpt>
      <trkpt lat="50.35349" lon="3.26624">
        <ele>70.14722</ele>
        <time>2023-10-29T08:47:23Z</time>
      </trkpt>
      <trkpt lat="50.35348" lon="3.26625">
        <ele>69.38257</ele>
        <time>2023-10-29T08:47:24Z</time>
      </trkpt>
      <trkpt lat="50.35347" lon="3.26626">
        <ele>69.79144</ele>
        <time>2023-10-29T08:47:25Z</time>
      </trkpt>
      <trkpt lat="50.35347" lon="3.26628">
        <ele>69.645935</ele>
        <time>2023-10-29T08:47:26Z</time>
      </trkpt>
      <trkpt lat="50.35346" lon="3.26629">
        <ele>70.13318</ele>
        <time>2023-10-29T08:47:27Z</time>
      </trkpt>
      <trkpt lat="50.35345" lon="3.26631">
        <ele>70.19586</ele>
        <time>2023-10-29T08:47:28Z</time>
      </trkpt>
      <trkpt lat="50.35344" lon="3.26632">
        <ele>70.44391</ele>
        <time>2023-10-29T08:47:29Z</time>
      </trkpt>
      <trkpt lat="50.35344" lon="3.26634">
        <ele>70.27246</ele>
        <time>2023-10-29T08:47:30Z</time>
      </trkpt>
      <trkpt lat="50.35342" lon="3.26636">
        <ele>70.36798</ele>
        <time>2023-10-29T08:47:31Z</time>
      </trkpt>
      <trkpt lat="50.35342" lon="3.26637">
        <ele>70.22266</ele>
        <time>2023-10-29T08:47:32Z</time>
      </trkpt>
      <trkpt lat="50.35341" lon="3.26639">
        <ele>70.01648</ele>
        <time>2023-10-29T08:47:33Z</time>
      </trkpt>
      <trkpt lat="50.3534" lon="3.26641">
        <ele>69.555664</ele>
        <time>2023-10-29T08:47:34Z</time>
      </trkpt>
      <trkpt lat="50.3534" lon="3.26643">
        <ele>68.90289</ele>
        <time>2023-10-29T08:47:35Z</time>
      </trkpt>
      <trkpt lat="50.35339" lon="3.26645">
        <ele>68.51373</ele>
        <time>2023-10-29T08:47:36Z</time>
      </trkpt>
      <trkpt lat="50.35338" lon="3.26647">
        <ele>68.73639</ele>
        <time>2023-10-29T08:47:37Z</time>
      </trkpt>
      <trkpt lat="50.35337" lon="3.26649">
        <ele>69.07312</ele>
        <time>2023-10-29T08:47:38Z</time>
      </trkpt>
      <trkpt lat="50.35336" lon="3.2665">
        <ele>68.97455</ele>
        <time>2023-10-29T08:47:39Z</time>
      </trkpt>
      <trkpt lat="50.35336" lon="3.26652">
        <ele>68.80957</ele>
        <time>2023-10-29T08:47:40Z</time>
      </trkpt>
      <trkpt lat="50.35335" lon="3.26653">
        <ele>69.22577</ele>
        <time>2023-10-29T08:47:41Z</time>
      </trkpt>
      <trkpt lat="50.35334" lon="3.26654">
        <ele>70.16443</ele>
        <time>2023-10-29T08:47:42Z</time>
      </trkpt>
      <trkpt lat="50.35334" lon="3.26656">
        <ele>70.4494</ele>
        <time>2023-10-29T08:47:43Z</time>
      </trkpt>
      <trkpt lat="50.35333" lon="3.26657">
        <ele>70.23456</ele>
        <time>2023-10-29T08:47:44Z</time>
      </trkpt>
      <trkpt lat="50.35331" lon="3.26659">
        <ele>70.31897</ele>
        <time>2023-10-29T08:47:45Z</time>
      </trkpt>
      <trkpt lat="50.3533" lon="3.26659">
        <ele>70.32532</ele>
        <time>2023-10-29T08:47:46Z</time>
      </trkpt>
      <trkpt lat="50.35329" lon="3.2666">
        <ele>70.2865</ele>
        <time>2023-10-29T08:47:47Z</time>
      </trkpt>
      <trkpt lat="50.35328" lon="3.2666">
        <ele>71.058716</ele>
        <time>2023-10-29T08:47:48Z</time>
      </trkpt>
      <trkpt lat="50.35326" lon="3.26661">
        <ele>70.92493</ele>
        <time>2023-10-29T08:47:49Z</time>
      </trkpt>
      <trkpt lat="50.35325" lon="3.26661">
        <ele>70.75842</ele>
        <time>2023-10-29T08:47:50Z</time>
      </trkpt>
      <trkpt lat="50.35324" lon="3.26662">
        <ele>71.487854</ele>
        <time>2023-10-29T08:47:51Z</time>
      </trkpt>
      <trkpt lat="50.35323" lon="3.26663">
        <ele>70.62891</ele>
        <time>2023-10-29T08:47:52Z</time>
      </trkpt>
      <trkpt lat="50.35322" lon="3.26664">
        <ele>71.09094</ele>
        <time>2023-10-29T08:47:53Z</time>
      </trkpt>
      <trkpt lat="50.35321" lon="3.26665">
        <ele>71.65924</ele>
        <time>2023-10-29T08:47:54Z</time>
      </trkpt>
      <trkpt lat="50.3532" lon="3.26666">
        <ele>71.8443</ele>
        <time>2023-10-29T08:47:55Z</time>
      </trkpt>
      <trkpt lat="50.35318" lon="3.26666">
        <ele>72.206604</ele>
        <time>2023-10-29T08:47:56Z</time>
      </trkpt>
      <trkpt lat="50.35317" lon="3.26667">
        <ele>71.868225</ele>
        <time>2023-10-29T08:47:57Z</time>
      </trkpt>
      <trkpt lat="50.35316" lon="3.26668">
        <ele>72.01056</ele>
        <time>2023-10-29T08:47:58Z</time>
      </trkpt>
      <trkpt lat="50.35314" lon="3.26669">
        <ele>72.54718</ele>
        <time>2023-10-29T08:47:59Z</time>
      </trkpt>
      <trkpt lat="50.35313" lon="3.26669">
        <ele>72.87018</ele>
        <time>2023-10-29T08:48:00Z</time>
      </trkpt>
      <trkpt lat="50.35312" lon="3.2667">
        <ele>72.68335</ele>
        <time>2023-10-29T08:48:01Z</time>
      </trkpt>
      <trkpt lat="50.35311" lon="3.26671">
        <ele>73.036255</ele>
        <time>2023-10-29T08:48:02Z</time>
      </trkpt>
      <trkpt lat="50.35309" lon="3.26673">
        <ele>73.296875</ele>
        <time>2023-10-29T08:48:03Z</time>
      </trkpt>
      <trkpt lat="50.35308" lon="3.26674">
        <ele>73.63025</ele>
        <time>2023-10-29T08:48:04Z</time>
      </trkpt>
      <trkpt lat="50.35307" lon="3.26675">
        <ele>74.23047</ele>
        <time>2023-10-29T08:48:05Z</time>
      </trkpt>
      <trkpt lat="50.35306" lon="3.26676">
        <ele>74.159424</ele>
        <time>2023-10-29T08:48:06Z</time>
      </trkpt>
      <trkpt lat="50.35305" lon="3.26677">
        <ele>73.87036</ele>
        <time>2023-10-29T08:48:07Z</time>
      </trkpt>
      <trkpt lat="50.35304" lon="3.26678">
        <ele>74.05609</ele>
        <time>2023-10-29T08:48:08Z</time>
      </trkpt>
      <trkpt lat="50.35302" lon="3.26679">
        <ele>73.99005</ele>
        <time>2023-10-29T08:48:09Z</time>
      </trkpt>
      <trkpt lat="50.35301" lon="3.2668">
        <ele>73.89368</ele>
        <time>2023-10-29T08:48:10Z</time>
      </trkpt>
      <trkpt lat="50.353" lon="3.26681">
        <ele>74.013855</ele>
        <time>2023-10-29T08:48:11Z</time>
      </trkpt>
      <trkpt lat="50.35299" lon="3.26682">
        <ele>73.84424</ele>
        <time>2023-10-29T08:48:12Z</time>
      </trkpt>
      <trkpt lat="50.35298" lon="3.26683">
        <ele>74.236145</ele>
        <time>2023-10-29T08:48:13Z</time>
      </trkpt>
      <trkpt lat="50.35297" lon="3.26685">
        <ele>74.3114</ele>
        <time>2023-10-29T08:48:14Z</time>
      </trkpt>
      <trkpt lat="50.35296" lon="3.26686">
        <ele>74.695435</ele>
        <time>2023-10-29T08:48:15Z</time>
      </trkpt>
      <trkpt lat="50.35295" lon="3.26687">
        <ele>75.30591</ele>
        <time>2023-10-29T08:48:16Z</time>
      </trkpt>
      <trkpt lat="50.35294" lon="3.26688">
        <ele>75.33362</ele>
        <time>2023-10-29T08:48:17Z</time>
      </trkpt>
      <trkpt lat="50.35292" lon="3.26689">
        <ele>75.55902</ele>
        <time>2023-10-29T08:48:18Z</time>
      </trkpt>
      <trkpt lat="50.35291" lon="3.2669">
        <ele>75.6615</ele>
        <time>2023-10-29T08:48:19Z</time>
      </trkpt>
      <trkpt lat="50.3529" lon="3.2669">
        <ele>75.70654</ele>
        <time>2023-10-29T08:48:20Z</time>
      </trkpt>
      <trkpt lat="50.35289" lon="3.26691">
        <ele>75.75836</ele>
        <time>2023-10-29T08:48:21Z</time>
      </trkpt>
      <trkpt lat="50.35288" lon="3.26692">
        <ele>75.19385</ele>
        <time>2023-10-29T08:48:22Z</time>
      </trkpt>
      <trkpt lat="50.35286" lon="3.26693">
        <ele>75.716675</ele>
        <time>2023-10-29T08:48:23Z</time>
      </trkpt>
      <trkpt lat="50.35285" lon="3.26694">
        <ele>75.96478</ele>
        <time>2023-10-29T08:48:24Z</time>
      </trkpt>
      <trkpt lat="50.35284" lon="3.26694">
        <ele>76.25214</ele>
        <time>2023-10-29T08:48:25Z</time>
      </trkpt>
      <trkpt lat="50.35283" lon="3.26695">
        <ele>76.227234</ele>
        <time>2023-10-29T08:48:26Z</time>
      </trkpt>
      <trkpt lat="50.35282" lon="3.26696">
        <ele>75.8645</ele>
        <time>2023-10-29T08:48:27Z</time>
      </trkpt>
      <trkpt lat="50.35281" lon="3.26697">
        <ele>75.34711</ele>
        <time>2023-10-29T08:48:28Z</time>
      </trkpt>
      <trkpt lat="50.3528" lon="3.26699">
        <ele>75.22406</ele>
        <time>2023-10-29T08:48:29Z</time>
      </trkpt>
      <trkpt lat="50.35279" lon="3.267">
        <ele>75.145386</ele>
        <time>2023-10-29T08:48:30Z</time>
      </trkpt>
      <trkpt lat="50.35278" lon="3.267">
        <ele>75.08649</ele>
        <time>2023-10-29T08:48:31Z</time>
      </trkpt>
      <trkpt lat="50.35277" lon="3.26701">
        <ele>75.09888</ele>
        <time>2023-10-29T08:48:32Z</time>
      </trkpt>
      <trkpt lat="50.35276" lon="3.26703">
        <ele>75.019104</ele>
        <time>2023-10-29T08:48:33Z</time>
      </trkpt>
      <trkpt lat="50.35275" lon="3.26704">
        <ele>75.09442</ele>
        <time>2023-10-29T08:48:34Z</time>
      </trkpt>
      <trkpt lat="50.35273" lon="3.26705">
        <ele>75.44824</ele>
        <time>2023-10-29T08:48:35Z</time>
      </trkpt>
      <trkpt lat="50.35272" lon="3.26707">
        <ele>75.32849</ele>
        <time>2023-10-29T08:48:36Z</time>
      </trkpt>
      <trkpt lat="50.35271" lon="3.26708">
        <ele>75.61505</ele>
        <time>2023-10-29T08:48:37Z</time>
      </trkpt>
      <trkpt lat="50.3527" lon="3.26709">
        <ele>76.68634</ele>
        <time>2023-10-29T08:48:38Z</time>
      </trkpt>
      <trkpt lat="50.35268" lon="3.2671">
        <ele>76.96167</ele>
        <time>2023-10-29T08:48:39Z</time>
      </trkpt>
      <trkpt lat="50.35267" lon="3.26711">
        <ele>76.630005</ele>
        <time>2023-10-29T08:48:40Z</time>
      </trkpt>
      <trkpt lat="50.35266" lon="3.26712">
        <ele>76.434326</ele>
        <time>2023-10-29T08:48:41Z</time>
      </trkpt>
      <trkpt lat="50.35265" lon="3.26713">
        <ele>76.62244</ele>
        <time>2023-10-29T08:48:42Z</time>
      </trkpt>
      <trkpt lat="50.35263" lon="3.26714">
        <ele>76.658936</ele>
        <time>2023-10-29T08:48:43Z</time>
      </trkpt>
      <trkpt lat="50.35262" lon="3.26715">
        <ele>76.71265</ele>
        <time>2023-10-29T08:48:44Z</time>
      </trkpt>
      <trkpt lat="50.35262" lon="3.26717">
        <ele>77.28357</ele>
        <time>2023-10-29T08:48:45Z</time>
      </trkpt>
      <trkpt lat="50.35261" lon="3.26719">
        <ele>77.339294</ele>
        <time>2023-10-29T08:48:46Z</time>
      </trkpt>
      <trkpt lat="50.35261" lon="3.26721">
        <ele>77.71997</ele>
        <time>2023-10-29T08:48:47Z</time>
      </trkpt>
      <trkpt lat="50.3526" lon="3.26722">
        <ele>77.19568</ele>
        <time>2023-10-29T08:48:48Z</time>
      </trkpt>
      <trkpt lat="50.35258" lon="3.26723">
        <ele>76.88751</ele>
        <time>2023-10-29T08:48:49Z</time>
      </trkpt>
      <trkpt lat="50.35257" lon="3.26724">
        <ele>76.16162</ele>
        <time>2023-10-29T08:48:50Z</time>
      </trkpt>
      <trkpt lat="50.35256" lon="3.26724">
        <ele>75.81311</ele>
        <time>2023-10-29T08:48:51Z</time>
      </trkpt>
      <trkpt lat="50.35255" lon="3.26725">
        <ele>76.08411</ele>
        <time>2023-10-29T08:48:52Z</time>
      </trkpt>
      <trkpt lat="50.35254" lon="3.26726">
        <ele>77.2937</ele>
        <time>2023-10-29T08:48:53Z</time>
      </trkpt>
      <trkpt lat="50.35253" lon="3.26727">
        <ele>76.7547</ele>
        <time>2023-10-29T08:48:54Z</time>
      </trkpt>
      <trkpt lat="50.35252" lon="3.26728">
        <ele>77.0979</ele>
        <time>2023-10-29T08:48:55Z</time>
      </trkpt>
      <trkpt lat="50.35251" lon="3.26729">
        <ele>76.93506</ele>
        <time>2023-10-29T08:48:56Z</time>
      </trkpt>
      <trkpt lat="50.35249" lon="3.2673">
        <ele>77.05548</ele>
        <time>2023-10-29T08:48:57Z</time>
      </trkpt>
      <trkpt lat="50.35248" lon="3.26731">
        <ele>77.19055</ele>
        <time>2023-10-29T08:48:58Z</time>
      </trkpt>
      <trkpt lat="50.35247" lon="3.26732">
        <ele>77.52045</ele>
        <time>2023-10-29T08:48:59Z</time>
      </trkpt>
      <trkpt lat="50.35246" lon="3.26732">
        <ele>77.799866</ele>
        <time>2023-10-29T08:49:00Z</time>
      </trkpt>
      <trkpt lat="50.35244" lon="3.26733">
        <ele>77.964355</ele>
        <time>2023-10-29T08:49:01Z</time>
      </trkpt>
      <trkpt lat="50.35244" lon="3.26734">
        <ele>78.13977</ele>
        <time>2023-10-29T08:49:02Z</time>
      </trkpt>
      <trkpt lat="50.35243" lon="3.26735">
        <ele>78.39197</ele>
        <time>2023-10-29T08:49:03Z</time>
      </trkpt>
      <trkpt lat="50.35242" lon="3.26735">
        <ele>78.08081</ele>
        <time>2023-10-29T08:49:04Z</time>
      </trkpt>
      <trkpt lat="50.35241" lon="3.26737">
        <ele>77.17493</ele>
        <time>2023-10-29T08:49:05Z</time>
      </trkpt>
      <trkpt lat="50.3524" lon="3.26738">
        <ele>78.25427</ele>
        <time>2023-10-29T08:49:06Z</time>
      </trkpt>
      <trkpt lat="50.35239" lon="3.26739">
        <ele>78.38397</ele>
        <time>2023-10-29T08:49:07Z</time>
      </trkpt>
      <trkpt lat="50.35238" lon="3.2674">
        <ele>79.0484</ele>
        <time>2023-10-29T08:49:08Z</time>
      </trkpt>
      <trkpt lat="50.35237" lon="3.26741">
        <ele>78.95868</ele>
        <time>2023-10-29T08:49:09Z</time>
      </trkpt>
      <trkpt lat="50.35236" lon="3.26742">
        <ele>78.746216</ele>
        <time>2023-10-29T08:49:10Z</time>
      </trkpt>
      <trkpt lat="50.35235" lon="3.26744">
        <ele>77.78711</ele>
        <time>2023-10-29T08:49:11Z</time>
      </trkpt>
      <trkpt lat="50.35234" lon="3.26745">
        <ele>78.22876</ele>
        <time>2023-10-29T08:49:12Z</time>
      </trkpt>
      <trkpt lat="50.35234" lon="3.26746">
        <ele>78.34979</ele>
        <time>2023-10-29T08:49:13Z</time>
      </trkpt>
      <trkpt lat="50.35233" lon="3.26748">
        <ele>77.920105</ele>
        <time>2023-10-29T08:49:14Z</time>
      </trkpt>
      <trkpt lat="50.35232" lon="3.26749">
        <ele>77.65802</ele>
        <time>2023-10-29T08:49:15Z</time>
      </trkpt>
      <trkpt lat="50.35231" lon="3.2675">
        <ele>76.93616</ele>
        <time>2023-10-29T08:49:16Z</time>
      </trkpt>
      <trkpt lat="50.3523" lon="3.26751">
        <ele>76.772766</ele>
        <time>2023-10-29T08:49:17Z</time>
      </trkpt>
      <trkpt lat="50.35229" lon="3.26752">
        <ele>77.13812</ele>
        <time>2023-10-29T08:49:18Z</time>
      </trkpt>
      <trkpt lat="50.35228" lon="3.26754">
        <ele>77.24408</ele>
        <time>2023-10-29T08:49:19Z</time>
      </trkpt>
      <trkpt lat="50.35228" lon="3.26755">
        <ele>76.142456</ele>
        <time>2023-10-29T08:49:20Z</time>
      </trkpt>
      <trkpt lat="50.35228" lon="3.26757">
        <ele>75.493164</ele>
        <time>2023-10-29T08:49:21Z</time>
      </trkpt>
      <trkpt lat="50.35227" lon="3.26758">
        <ele>75.48688</ele>
        <time>2023-10-29T08:49:22Z</time>
      </trkpt>
      <trkpt lat="50.35226" lon="3.26758">
        <ele>75.28906</ele>
        <time>2023-10-29T08:49:23Z</time>
      </trkpt>
      <trkpt lat="50.35225" lon="3.2676">
        <ele>75.15338</ele>
        <time>2023-10-29T08:49:24Z</time>
      </trkpt>
      <trkpt lat="50.35224" lon="3.26761">
        <ele>74.85474</ele>
        <time>2023-10-29T08:49:25Z</time>
      </trkpt>
      <trkpt lat="50.35223" lon="3.26761">
        <ele>75.53229</ele>
        <time>2023-10-29T08:49:26Z</time>
      </trkpt>
      <trkpt lat="50.35222" lon="3.26763">
        <ele>75.37457</ele>
        <time>2023-10-29T08:49:27Z</time>
      </trkpt>
      <trkpt lat="50.35222" lon="3.26764">
        <ele>74.80664</ele>
        <time>2023-10-29T08:49:28Z</time>
      </trkpt>
      <trkpt lat="50.35221" lon="3.26766">
        <ele>74.4953</ele>
        <time>2023-10-29T08:49:29Z</time>
      </trkpt>
      <trkpt lat="50.3522" lon="3.26767">
        <ele>74.24786</ele>
        <time>2023-10-29T08:49:30Z</time>
      </trkpt>
      <trkpt lat="50.35219" lon="3.26768">
        <ele>74.372375</ele>
        <time>2023-10-29T08:49:31Z</time>
      </trkpt>
      <trkpt lat="50.35218" lon="3.2677">
        <ele>74.8595</ele>
        <time>2023-10-29T08:49:32Z</time>
      </trkpt>
      <trkpt lat="50.35218" lon="3.26771">
        <ele>74.375244</ele>
        <time>2023-10-29T08:49:33Z</time>
      </trkpt>
      <trkpt lat="50.35217" lon="3.26773">
        <ele>74.20947</ele>
        <time>2023-10-29T08:49:34Z</time>
      </trkpt>
      <trkpt lat="50.35216" lon="3.26774">
        <ele>74.40741</ele>
        <time>2023-10-29T08:49:35Z</time>
      </trkpt>
      <trkpt lat="50.35215" lon="3.26775">
        <ele>73.84827</ele>
        <time>2023-10-29T08:49:36Z</time>
      </trkpt>
      <trkpt lat="50.35214" lon="3.26777">
        <ele>73.677734</ele>
        <time>2023-10-29T08:49:37Z</time>
      </trkpt>
      <trkpt lat="50.35214" lon="3.26778">
        <ele>73.46326</ele>
        <time>2023-10-29T08:49:38Z</time>
      </trkpt>
      <trkpt lat="50.35214" lon="3.2678">
        <ele>73.815674</ele>
        <time>2023-10-29T08:49:39Z</time>
      </trkpt>
      <trkpt lat="50.35213" lon="3.26781">
        <ele>73.36517</ele>
        <time>2023-10-29T08:49:40Z</time>
      </trkpt>
      <trkpt lat="50.35212" lon="3.26783">
        <ele>73.47467</ele>
        <time>2023-10-29T08:49:41Z</time>
      </trkpt>
      <trkpt lat="50.35212" lon="3.26784">
        <ele>72.48358</ele>
        <time>2023-10-29T08:49:42Z</time>
      </trkpt>
      <trkpt lat="50.35211" lon="3.26786">
        <ele>72.59338</ele>
        <time>2023-10-29T08:49:43Z</time>
      </trkpt>
      <trkpt lat="50.3521" lon="3.26788">
        <ele>73.01184</ele>
        <time>2023-10-29T08:49:44Z</time>
      </trkpt>
      <trkpt lat="50.3521" lon="3.26789">
        <ele>73.187256</ele>
        <time>2023-10-29T08:49:45Z</time>
      </trkpt>
      <trkpt lat="50.35209" lon="3.26791">
        <ele>72.828674</ele>
        <time>2023-10-29T08:49:46Z</time>
      </trkpt>
      <trkpt lat="50.35208" lon="3.26793">
        <ele>73.45758</ele>
        <time>2023-10-29T08:49:47Z</time>
      </trkpt>
      <trkpt lat="50.35208" lon="3.26795">
        <ele>73.572876</ele>
        <time>2023-10-29T08:49:48Z</time>
      </trkpt>
      <trkpt lat="50.35207" lon="3.26796">
        <ele>73.72955</ele>
        <time>2023-10-29T08:49:49Z</time>
      </trkpt>
      <trkpt lat="50.35206" lon="3.26798">
        <ele>73.93823</ele>
        <time>2023-10-29T08:49:50Z</time>
      </trkpt>
      <trkpt lat="50.35206" lon="3.268">
        <ele>74.836</ele>
        <time>2023-10-29T08:49:51Z</time>
      </trkpt>
      <trkpt lat="50.35205" lon="3.26802">
        <ele>74.828125</ele>
        <time>2023-10-29T08:49:52Z</time>
      </trkpt>
      <trkpt lat="50.35205" lon="3.26804">
        <ele>74.552185</ele>
        <time>2023-10-29T08:49:53Z</time>
      </trkpt>
      <trkpt lat="50.35204" lon="3.26806">
        <ele>74.64673</ele>
        <time>2023-10-29T08:49:54Z</time>
      </trkpt>
      <trkpt lat="50.35204" lon="3.26808">
        <ele>74.841125</ele>
        <time>2023-10-29T08:49:55Z</time>
      </trkpt>
      <trkpt lat="50.35203" lon="3.2681">
        <ele>74.38605</ele>
        <time>2023-10-29T08:49:56Z</time>
      </trkpt>
      <trkpt lat="50.35202" lon="3.26812">
        <ele>74.47217</ele>
        <time>2023-10-29T08:49:57Z</time>
      </trkpt>
      <trkpt lat="50.35201" lon="3.26814">
        <ele>74.53479</ele>
        <time>2023-10-29T08:49:58Z</time>
      </trkpt>
      <trkpt lat="50.35201" lon="3.26815">
        <ele>73.89349</ele>
        <time>2023-10-29T08:49:59Z</time>
      </trkpt>
      <trkpt lat="50.352" lon="3.26817">
        <ele>74.24017</ele>
        <time>2023-10-29T08:50:00Z</time>
      </trkpt>
      <trkpt lat="50.352" lon="3.26818">
        <ele>74.26288</ele>
        <time>2023-10-29T08:50:01Z</time>
      </trkpt>
      <trkpt lat="50.35199" lon="3.2682">
        <ele>74.43323</ele>
        <time>2023-10-29T08:50:02Z</time>
      </trkpt>
      <trkpt lat="50.35198" lon="3.26822">
        <ele>74.94049</ele>
        <time>2023-10-29T08:50:03Z</time>
      </trkpt>
      <trkpt lat="50.35197" lon="3.26824">
        <ele>75.55621</ele>
        <time>2023-10-29T08:50:04Z</time>
      </trkpt>
      <trkpt lat="50.35197" lon="3.26825">
        <ele>75.3089</ele>
        <time>2023-10-29T08:50:05Z</time>
      </trkpt>
      <trkpt lat="50.35196" lon="3.26827">
        <ele>75.78534</ele>
        <time>2023-10-29T08:50:06Z</time>
      </trkpt>
      <trkpt lat="50.35195" lon="3.26828">
        <ele>76.702515</ele>
        <time>2023-10-29T08:50:07Z</time>
      </trkpt>
      <trkpt lat="50.35194" lon="3.2683">
        <ele>76.89429</ele>
        <time>2023-10-29T08:50:08Z</time>
      </trkpt>
      <trkpt lat="50.35194" lon="3.26832">
        <ele>77.55719</ele>
        <time>2023-10-29T08:50:09Z</time>
      </trkpt>
      <trkpt lat="50.35193" lon="3.26833">
        <ele>77.86261</ele>
        <time>2023-10-29T08:50:10Z</time>
      </trkpt>
      <trkpt lat="50.35193" lon="3.26835">
        <ele>77.5119</ele>
        <time>2023-10-29T08:50:11Z</time>
      </trkpt>
      <trkpt lat="50.35193" lon="3.26836">
        <ele>76.645325</ele>
        <time>2023-10-29T08:50:12Z</time>
      </trkpt>
      <trkpt lat="50.35192" lon="3.26838">
        <ele>76.44049</ele>
        <time>2023-10-29T08:50:13Z</time>
      </trkpt>
      <trkpt lat="50.35192" lon="3.2684">
        <ele>77.744934</ele>
        <time>2023-10-29T08:50:14Z</time>
      </trkpt>
      <trkpt lat="50.35191" lon="3.26841">
        <ele>77.12286</ele>
        <time>2023-10-29T08:50:15Z</time>
      </trkpt>
      <trkpt lat="50.35191" lon="3.26843">
        <ele>77.32904</ele>
        <time>2023-10-29T08:50:16Z</time>
      </trkpt>
      <trkpt lat="50.3519" lon="3.26846">
        <ele>77.107056</ele>
        <time>2023-10-29T08:50:17Z</time>
      </trkpt>
      <trkpt lat="50.3519" lon="3.26847">
        <ele>77.34772</ele>
        <time>2023-10-29T08:50:18Z</time>
      </trkpt>
      <trkpt lat="50.35189" lon="3.26849">
        <ele>77.017334</ele>
        <time>2023-10-29T08:50:19Z</time>
      </trkpt>
      <trkpt lat="50.35189" lon="3.2685">
        <ele>76.85199</ele>
        <time>2023-10-29T08:50:20Z</time>
      </trkpt>
      <trkpt lat="50.35188" lon="3.26852">
        <ele>76.799805</ele>
        <time>2023-10-29T08:50:21Z</time>
      </trkpt>
      <trkpt lat="50.35188" lon="3.26854">
        <ele>76.724365</ele>
        <time>2023-10-29T08:50:22Z</time>
      </trkpt>
      <trkpt lat="50.35187" lon="3.26856">
        <ele>76.423706</ele>
        <time>2023-10-29T08:50:23Z</time>
      </trkpt>
      <trkpt lat="50.35186" lon="3.26858">
        <ele>76.54852</ele>
        <time>2023-10-29T08:50:24Z</time>
      </trkpt>
      <trkpt lat="50.35186" lon="3.26859">
        <ele>76.3609</ele>
        <time>2023-10-29T08:50:25Z</time>
      </trkpt>
      <trkpt lat="50.35186" lon="3.26861">
        <ele>76.00427</ele>
        <time>2023-10-29T08:50:26Z</time>
      </trkpt>
      <trkpt lat="50.35185" lon="3.26863">
        <ele>76.66138</ele>
        <time>2023-10-29T08:50:27Z</time>
      </trkpt>
      <trkpt lat="50.35185" lon="3.26864">
        <ele>75.98804</ele>
        <time>2023-10-29T08:50:28Z</time>
      </trkpt>
      <trkpt lat="50.35184" lon="3.26866">
        <ele>76.56555</ele>
        <time>2023-10-29T08:50:29Z</time>
      </trkpt>
      <trkpt lat="50.35183" lon="3.26867">
        <ele>76.593994</ele>
        <time>2023-10-29T08:50:30Z</time>
      </trkpt>
      <trkpt lat="50.35183" lon="3.26868">
        <ele>76.670044</ele>
        <time>2023-10-29T08:50:31Z</time>
      </trkpt>
      <trkpt lat="50.35182" lon="3.2687">
        <ele>76.27466</ele>
        <time>2023-10-29T08:50:32Z</time>
      </trkpt>
      <trkpt lat="50.35181" lon="3.26871">
        <ele>76.318726</ele>
        <time>2023-10-29T08:50:33Z</time>
      </trkpt>
      <trkpt lat="50.35181" lon="3.26873">
        <ele>76.19751</ele>
        <time>2023-10-29T08:50:34Z</time>
      </trkpt>
      <trkpt lat="50.35181" lon="3.26875">
        <ele>76.93567</ele>
        <time>2023-10-29T08:50:35Z</time>
      </trkpt>
      <trkpt lat="50.3518" lon="3.26877">
        <ele>76.477844</ele>
        <time>2023-10-29T08:50:36Z</time>
      </trkpt>
      <trkpt lat="50.3518" lon="3.26878">
        <ele>76.17871</ele>
        <time>2023-10-29T08:50:37Z</time>
      </trkpt>
      <trkpt lat="50.35179" lon="3.2688">
        <ele>76.29602</ele>
        <time>2023-10-29T08:50:38Z</time>
      </trkpt>
      <trkpt lat="50.35179" lon="3.26881">
        <ele>76.14307</ele>
        <time>2023-10-29T08:50:39Z</time>
      </trkpt>
      <trkpt lat="50.35178" lon="3.26882">
        <ele>76.12714</ele>
        <time>2023-10-29T08:50:40Z</time>
      </trkpt>
      <trkpt lat="50.35178" lon="3.26884">
        <ele>75.87848</ele>
        <time>2023-10-29T08:50:41Z</time>
      </trkpt>
      <trkpt lat="50.35178" lon="3.26886">
        <ele>75.55548</ele>
        <time>2023-10-29T08:50:42Z</time>
      </trkpt>
      <trkpt lat="50.35178" lon="3.26887">
        <ele>75.784424</ele>
        <time>2023-10-29T08:50:43Z</time>
      </trkpt>
      <trkpt lat="50.35177" lon="3.26888">
        <ele>76.294556</ele>
        <time>2023-10-29T08:50:44Z</time>
      </trkpt>
      <trkpt lat="50.35177" lon="3.2689">
        <ele>77.090454</ele>
        <time>2023-10-29T08:50:45Z</time>
      </trkpt>
      <trkpt lat="50.35176" lon="3.26892">
        <ele>77.04553</ele>
        <time>2023-10-29T08:50:46Z</time>
      </trkpt>
      <trkpt lat="50.35175" lon="3.26893">
        <ele>77.48773</ele>
        <time>2023-10-29T08:50:47Z</time>
      </trkpt>
      <trkpt lat="50.35175" lon="3.26894">
        <ele>77.64581</ele>
        <time>2023-10-29T08:50:48Z</time>
      </trkpt>
      <trkpt lat="50.35174" lon="3.26896">
        <ele>77.23071</ele>
        <time>2023-10-29T08:50:49Z</time>
      </trkpt>
      <trkpt lat="50.35174" lon="3.26898">
        <ele>77.28345</ele>
        <time>2023-10-29T08:50:50Z</time>
      </trkpt>
      <trkpt lat="50.35173" lon="3.269">
        <ele>77.51654</ele>
        <time>2023-10-29T08:50:51Z</time>
      </trkpt>
      <trkpt lat="50.35172" lon="3.26901">
        <ele>77.40491</ele>
        <time>2023-10-29T08:50:52Z</time>
      </trkpt>
      <trkpt lat="50.35172" lon="3.26903">
        <ele>77.87195</ele>
        <time>2023-10-29T08:50:53Z</time>
      </trkpt>
      <trkpt lat="50.35171" lon="3.26905">
        <ele>77.92462</ele>
        <time>2023-10-29T08:50:54Z</time>
      </trkpt>
      <trkpt lat="50.3517" lon="3.26907">
        <ele>77.98181</ele>
        <time>2023-10-29T08:50:55Z</time>
      </trkpt>
      <trkpt lat="50.3517" lon="3.26907">
        <ele>77.1051</ele>
        <time>2023-10-29T08:50:56Z</time>
      </trkpt>
      <trkpt lat="50.35169" lon="3.26911">
        <ele>77.01123</ele>
        <time>2023-10-29T08:50:58Z</time>
      </trkpt>
      <trkpt lat="50.35168" lon="3.26912">
        <ele>76.888855</ele>
        <time>2023-10-29T08:50:59Z</time>
      </trkpt>
      <trkpt lat="50.35167" lon="3.26914">
        <ele>76.18317</ele>
        <time>2023-10-29T08:51:00Z</time>
      </trkpt>
      <trkpt lat="50.35167" lon="3.26916">
        <ele>76.028625</ele>
        <time>2023-10-29T08:51:01Z</time>
      </trkpt>
      <trkpt lat="50.35166" lon="3.26917">
        <ele>75.95184</ele>
        <time>2023-10-29T08:51:02Z</time>
      </trkpt>
      <trkpt lat="50.35165" lon="3.26919">
        <ele>75.890015</ele>
        <time>2023-10-29T08:51:03Z</time>
      </trkpt>
      <trkpt lat="50.35165" lon="3.26921">
        <ele>76.086</ele>
        <time>2023-10-29T08:51:04Z</time>
      </trkpt>
      <trkpt lat="50.35165" lon="3.26923">
        <ele>76.34723</ele>
        <time>2023-10-29T08:51:05Z</time>
      </trkpt>
      <trkpt lat="50.35164" lon="3.26925">
        <ele>76.35718</ele>
        <time>2023-10-29T08:51:06Z</time>
      </trkpt>
      <trkpt lat="50.35164" lon="3.26927">
        <ele>76.619995</ele>
        <time>2023-10-29T08:51:07Z</time>
      </trkpt>
      <trkpt lat="50.35163" lon="3.26928">
        <ele>75.85773</ele>
        <time>2023-10-29T08:51:08Z</time>
      </trkpt>
      <trkpt lat="50.35163" lon="3.2693">
        <ele>76.291565</ele>
        <time>2023-10-29T08:51:09Z</time>
      </trkpt>
      <trkpt lat="50.35162" lon="3.26932">
        <ele>76.886475</ele>
        <time>2023-10-29T08:51:10Z</time>
      </trkpt>
      <trkpt lat="50.35162" lon="3.26934">
        <ele>76.74524</ele>
        <time>2023-10-29T08:51:11Z</time>
      </trkpt>
      <trkpt lat="50.35161" lon="3.26936">
        <ele>76.77118</ele>
        <time>2023-10-29T08:51:12Z</time>
      </trkpt>
      <trkpt lat="50.3516" lon="3.26939">
        <ele>76.68298</ele>
        <time>2023-10-29T08:51:13Z</time>
      </trkpt>
      <trkpt lat="50.3516" lon="3.26941">
        <ele>76.44153</ele>
        <time>2023-10-29T08:51:14Z</time>
      </trkpt>
      <trkpt lat="50.3516" lon="3.26942">
        <ele>76.270996</ele>
        <time>2023-10-29T08:51:15Z</time>
      </trkpt>
      <trkpt lat="50.35159" lon="3.26944">
        <ele>76.46033</ele>
        <time>2023-10-29T08:51:16Z</time>
      </trkpt>
      <trkpt lat="50.35159" lon="3.26946">
        <ele>75.697205</ele>
        <time>2023-10-29T08:51:17Z</time>
      </trkpt>
      <trkpt lat="50.35158" lon="3.26948">
        <ele>75.42792</ele>
        <time>2023-10-29T08:51:18Z</time>
      </trkpt>
      <trkpt lat="50.35157" lon="3.26949">
        <ele>75.848816</ele>
        <time>2023-10-29T08:51:19Z</time>
      </trkpt>
      <trkpt lat="50.35157" lon="3.26951">
        <ele>76.022705</ele>
        <time>2023-10-29T08:51:20Z</time>
      </trkpt>
      <trkpt lat="50.35156" lon="3.26952">
        <ele>76.44403</ele>
        <time>2023-10-29T08:51:21Z</time>
      </trkpt>
      <trkpt lat="50.35156" lon="3.26954">
        <ele>76.008545</ele>
        <time>2023-10-29T08:51:22Z</time>
      </trkpt>
      <trkpt lat="50.35155" lon="3.26956">
        <ele>76.01056</ele>
        <time>2023-10-29T08:51:23Z</time>
      </trkpt>
      <trkpt lat="50.35154" lon="3.26958">
        <ele>75.801636</ele>
        <time>2023-10-29T08:51:24Z</time>
      </trkpt>
      <trkpt lat="50.35154" lon="3.26959">
        <ele>75.28717</ele>
        <time>2023-10-29T08:51:25Z</time>
      </trkpt>
      <trkpt lat="50.35154" lon="3.26961">
        <ele>75.02551</ele>
        <time>2023-10-29T08:51:26Z</time>
      </trkpt>
      <trkpt lat="50.35154" lon="3.26963">
        <ele>74.801575</ele>
        <time>2023-10-29T08:51:27Z</time>
      </trkpt>
      <trkpt lat="50.35154" lon="3.26965">
        <ele>73.825195</ele>
        <time>2023-10-29T08:51:28Z</time>
      </trkpt>
      <trkpt lat="50.35153" lon="3.26967">
        <ele>73.50751</ele>
        <time>2023-10-29T08:51:29Z</time>
      </trkpt>
      <trkpt lat="50.35152" lon="3.26968">
        <ele>73.36737</ele>
        <time>2023-10-29T08:51:30Z</time>
      </trkpt>
      <trkpt lat="50.35151" lon="3.2697">
        <ele>73.15588</ele>
        <time>2023-10-29T08:51:31Z</time>
      </trkpt>
      <trkpt lat="50.35151" lon="3.26971">
        <ele>73.53992</ele>
        <time>2023-10-29T08:51:32Z</time>
      </trkpt>
      <trkpt lat="50.3515" lon="3.26972">
        <ele>73.55859</ele>
        <time>2023-10-29T08:51:33Z</time>
      </trkpt>
      <trkpt lat="50.35149" lon="3.26974">
        <ele>73.61542</ele>
        <time>2023-10-29T08:51:34Z</time>
      </trkpt>
      <trkpt lat="50.35149" lon="3.26976">
        <ele>73.41254</ele>
        <time>2023-10-29T08:51:35Z</time>
      </trkpt>
      <trkpt lat="50.35149" lon="3.26977">
        <ele>73.07593</ele>
        <time>2023-10-29T08:51:36Z</time>
      </trkpt>
      <trkpt lat="50.35148" lon="3.26979">
        <ele>72.954834</ele>
        <time>2023-10-29T08:51:37Z</time>
      </trkpt>
      <trkpt lat="50.35148" lon="3.26981">
        <ele>72.545105</ele>
        <time>2023-10-29T08:51:38Z</time>
      </trkpt>
      <trkpt lat="50.35147" lon="3.26983">
        <ele>73.13617</ele>
        <time>2023-10-29T08:51:39Z</time>
      </trkpt>
      <trkpt lat="50.35146" lon="3.26985">
        <ele>73.01599</ele>
        <time>2023-10-29T08:51:40Z</time>
      </trkpt>
      <trkpt lat="50.35146" lon="3.26986">
        <ele>72.925354</ele>
        <time>2023-10-29T08:51:41Z</time>
      </trkpt>
      <trkpt lat="50.35145" lon="3.26988">
        <ele>72.61456</ele>
        <time>2023-10-29T08:51:42Z</time>
      </trkpt>
      <trkpt lat="50.35145" lon="3.2699">
        <ele>72.50134</ele>
        <time>2023-10-29T08:51:43Z</time>
      </trkpt>
      <trkpt lat="50.35144" lon="3.26992">
        <ele>72.93921</ele>
        <time>2023-10-29T08:51:44Z</time>
      </trkpt>
      <trkpt lat="50.35144" lon="3.26993">
        <ele>73.22876</ele>
        <time>2023-10-29T08:51:45Z</time>
      </trkpt>
      <trkpt lat="50.35143" lon="3.26995">
        <ele>73.47388</ele>
        <time>2023-10-29T08:51:46Z</time>
      </trkpt>
      <trkpt lat="50.35143" lon="3.26997">
        <ele>73.59656</ele>
        <time>2023-10-29T08:51:47Z</time>
      </trkpt>
      <trkpt lat="50.35142" lon="3.26999">
        <ele>74.0932</ele>
        <time>2023-10-29T08:51:48Z</time>
      </trkpt>
      <trkpt lat="50.35142" lon="3.27">
        <ele>74.28583</ele>
        <time>2023-10-29T08:51:49Z</time>
      </trkpt>
      <trkpt lat="50.35141" lon="3.27002">
        <ele>73.4707</ele>
        <time>2023-10-29T08:51:50Z</time>
      </trkpt>
      <trkpt lat="50.35141" lon="3.27003">
        <ele>73.75244</ele>
        <time>2023-10-29T08:51:51Z</time>
      </trkpt>
      <trkpt lat="50.3514" lon="3.27005">
        <ele>74.53851</ele>
        <time>2023-10-29T08:51:52Z</time>
      </trkpt>
      <trkpt lat="50.3514" lon="3.27007">
        <ele>74.47223</ele>
        <time>2023-10-29T08:51:53Z</time>
      </trkpt>
      <trkpt lat="50.35139" lon="3.27009">
        <ele>74.43701</ele>
        <time>2023-10-29T08:51:54Z</time>
      </trkpt>
      <trkpt lat="50.35138" lon="3.27011">
        <ele>74.43182</ele>
        <time>2023-10-29T08:51:55Z</time>
      </trkpt>
      <trkpt lat="50.35138" lon="3.27013">
        <ele>74.680176</ele>
        <time>2023-10-29T08:51:56Z</time>
      </trkpt>
      <trkpt lat="50.35138" lon="3.27015">
        <ele>75.25903</ele>
        <time>2023-10-29T08:51:57Z</time>
      </trkpt>
      <trkpt lat="50.35137" lon="3.27017">
        <ele>75.624695</ele>
        <time>2023-10-29T08:51:58Z</time>
      </trkpt>
      <trkpt lat="50.35136" lon="3.27018">
        <ele>75.93024</ele>
        <time>2023-10-29T08:51:59Z</time>
      </trkpt>
      <trkpt lat="50.35136" lon="3.2702">
        <ele>75.78229</ele>
        <time>2023-10-29T08:52:00Z</time>
      </trkpt>
      <trkpt lat="50.35135" lon="3.27022">
        <ele>75.641846</ele>
        <time>2023-10-29T08:52:01Z</time>
      </trkpt>
      <trkpt lat="50.35135" lon="3.27024">
        <ele>75.99884</ele>
        <time>2023-10-29T08:52:02Z</time>
      </trkpt>
      <trkpt lat="50.35135" lon="3.27026">
        <ele>76.35443</ele>
        <time>2023-10-29T08:52:03Z</time>
      </trkpt>
      <trkpt lat="50.35134" lon="3.27028">
        <ele>76.367615</ele>
        <time>2023-10-29T08:52:04Z</time>
      </trkpt>
      <trkpt lat="50.35134" lon="3.27029">
        <ele>76.35297</ele>
        <time>2023-10-29T08:52:05Z</time>
      </trkpt>
      <trkpt lat="50.35133" lon="3.27031">
        <ele>75.82977</ele>
        <time>2023-10-29T08:52:06Z</time>
      </trkpt>
      <trkpt lat="50.35133" lon="3.27033">
        <ele>76.319214</ele>
        <time>2023-10-29T08:52:07Z</time>
      </trkpt>
      <trkpt lat="50.35132" lon="3.27035">
        <ele>76.00177</ele>
        <time>2023-10-29T08:52:08Z</time>
      </trkpt>
      <trkpt lat="50.35132" lon="3.27037">
        <ele>76.510376</ele>
        <time>2023-10-29T08:52:09Z</time>
      </trkpt>
      <trkpt lat="50.35132" lon="3.27038">
        <ele>76.88867</ele>
        <time>2023-10-29T08:52:10Z</time>
      </trkpt>
      <trkpt lat="50.35131" lon="3.2704">
        <ele>76.13684</ele>
        <time>2023-10-29T08:52:11Z</time>
      </trkpt>
      <trkpt lat="50.35131" lon="3.27041">
        <ele>76.32214</ele>
        <time>2023-10-29T08:52:12Z</time>
      </trkpt>
      <trkpt lat="50.3513" lon="3.27043">
        <ele>75.352234</ele>
        <time>2023-10-29T08:52:13Z</time>
      </trkpt>
      <trkpt lat="50.3513" lon="3.27045">
        <ele>75.829834</ele>
        <time>2023-10-29T08:52:14Z</time>
      </trkpt>
      <trkpt lat="50.35129" lon="3.27047">
        <ele>75.825806</ele>
        <time>2023-10-29T08:52:15Z</time>
      </trkpt>
      <trkpt lat="50.35128" lon="3.27049">
        <ele>76.30621</ele>
        <time>2023-10-29T08:52:16Z</time>
      </trkpt>
      <trkpt lat="50.35128" lon="3.2705">
        <ele>76.04523</ele>
        <time>2023-10-29T08:52:17Z</time>
      </trkpt>
      <trkpt lat="50.35127" lon="3.27052">
        <ele>75.69531</ele>
        <time>2023-10-29T08:52:18Z</time>
      </trkpt>
      <trkpt lat="50.35127" lon="3.27053">
        <ele>75.918884</ele>
        <time>2023-10-29T08:52:19Z</time>
      </trkpt>
      <trkpt lat="50.35127" lon="3.27055">
        <ele>75.1485</ele>
        <time>2023-10-29T08:52:20Z</time>
      </trkpt>
      <trkpt lat="50.35126" lon="3.27058">
        <ele>76.32977</ele>
        <time>2023-10-29T08:52:21Z</time>
      </trkpt>
      <trkpt lat="50.35126" lon="3.27059">
        <ele>76.72296</ele>
        <time>2023-10-29T08:52:22Z</time>
      </trkpt>
      <trkpt lat="50.35125" lon="3.27061">
        <ele>76.617676</ele>
        <time>2023-10-29T08:52:23Z</time>
      </trkpt>
      <trkpt lat="50.35125" lon="3.27063">
        <ele>77.28882</ele>
        <time>2023-10-29T08:52:24Z</time>
      </trkpt>
      <trkpt lat="50.35125" lon="3.27066">
        <ele>76.78424</ele>
        <time>2023-10-29T08:52:25Z</time>
      </trkpt>
      <trkpt lat="50.35124" lon="3.27067">
        <ele>77.08569</ele>
        <time>2023-10-29T08:52:26Z</time>
      </trkpt>
      <trkpt lat="50.35123" lon="3.27069">
        <ele>77.273254</ele>
        <time>2023-10-29T08:52:27Z</time>
      </trkpt>
      <trkpt lat="50.35122" lon="3.27071">
        <ele>76.2312</ele>
        <time>2023-10-29T08:52:28Z</time>
      </trkpt>
      <trkpt lat="50.35122" lon="3.27073">
        <ele>76.72998</ele>
        <time>2023-10-29T08:52:29Z</time>
      </trkpt>
      <trkpt lat="50.35121" lon="3.27075">
        <ele>77.12958</ele>
        <time>2023-10-29T08:52:30Z</time>
      </trkpt>
      <trkpt lat="50.3512" lon="3.27077">
        <ele>77.19171</ele>
        <time>2023-10-29T08:52:31Z</time>
      </trkpt>
      <trkpt lat="50.3512" lon="3.27079">
        <ele>77.03656</ele>
        <time>2023-10-29T08:52:32Z</time>
      </trkpt>
      <trkpt lat="50.3512" lon="3.27081">
        <ele>77.340454</ele>
        <time>2023-10-29T08:52:33Z</time>
      </trkpt>
      <trkpt lat="50.35119" lon="3.27082">
        <ele>77.06195</ele>
        <time>2023-10-29T08:52:34Z</time>
      </trkpt>
      <trkpt lat="50.35119" lon="3.27084">
        <ele>77.25067</ele>
        <time>2023-10-29T08:52:35Z</time>
      </trkpt>
      <trkpt lat="50.35118" lon="3.27086">
        <ele>77.46698</ele>
        <time>2023-10-29T08:52:36Z</time>
      </trkpt>
      <trkpt lat="50.35117" lon="3.27088">
        <ele>77.18524</ele>
        <time>2023-10-29T08:52:37Z</time>
      </trkpt>
      <trkpt lat="50.35117" lon="3.2709">
        <ele>76.75647</ele>
        <time>2023-10-29T08:52:38Z</time>
      </trkpt>
      <trkpt lat="50.35116" lon="3.27091">
        <ele>75.24939</ele>
        <time>2023-10-29T08:52:39Z</time>
      </trkpt>
      <trkpt lat="50.35115" lon="3.27093">
        <ele>75.32495</ele>
        <time>2023-10-29T08:52:40Z</time>
      </trkpt>
      <trkpt lat="50.35115" lon="3.27095">
        <ele>75.51892</ele>
        <time>2023-10-29T08:52:41Z</time>
      </trkpt>
      <trkpt lat="50.35114" lon="3.27097">
        <ele>75.17822</ele>
        <time>2023-10-29T08:52:42Z</time>
      </trkpt>
      <trkpt lat="50.35114" lon="3.27098">
        <ele>75.04022</ele>
        <time>2023-10-29T08:52:43Z</time>
      </trkpt>
      <trkpt lat="50.35114" lon="3.271">
        <ele>74.62604</ele>
        <time>2023-10-29T08:52:44Z</time>
      </trkpt>
      <trkpt lat="50.35113" lon="3.27102">
        <ele>75.44714</ele>
        <time>2023-10-29T08:52:45Z</time>
      </trkpt>
      <trkpt lat="50.35112" lon="3.27104">
        <ele>74.83368</ele>
        <time>2023-10-29T08:52:46Z</time>
      </trkpt>
      <trkpt lat="50.35112" lon="3.27105">
        <ele>74.32123</ele>
        <time>2023-10-29T08:52:47Z</time>
      </trkpt>
      <trkpt lat="50.35112" lon="3.27106">
        <ele>74.822266</ele>
        <time>2023-10-29T08:52:48Z</time>
      </trkpt>
      <trkpt lat="50.35111" lon="3.27108">
        <ele>73.980896</ele>
        <time>2023-10-29T08:52:49Z</time>
      </trkpt>
      <trkpt lat="50.35111" lon="3.2711">
        <ele>74.407776</ele>
        <time>2023-10-29T08:52:50Z</time>
      </trkpt>
      <trkpt lat="50.3511" lon="3.27112">
        <ele>74.72327</ele>
        <time>2023-10-29T08:52:51Z</time>
      </trkpt>
      <trkpt lat="50.3511" lon="3.27113">
        <ele>75.47015</ele>
        <time>2023-10-29T08:52:52Z</time>
      </trkpt>
      <trkpt lat="50.35109" lon="3.27115">
        <ele>75.78888</ele>
        <time>2023-10-29T08:52:53Z</time>
      </trkpt>
      <trkpt lat="50.35109" lon="3.27117">
        <ele>75.76282</ele>
        <time>2023-10-29T08:52:54Z</time>
      </trkpt>
      <trkpt lat="50.35109" lon="3.27119">
        <ele>75.23419</ele>
        <time>2023-10-29T08:52:55Z</time>
      </trkpt>
      <trkpt lat="50.35108" lon="3.27121">
        <ele>74.96997</ele>
        <time>2023-10-29T08:52:56Z</time>
      </trkpt>
      <trkpt lat="50.35107" lon="3.27123">
        <ele>74.88104</ele>
        <time>2023-10-29T08:52:57Z</time>
      </trkpt>
      <trkpt lat="50.35107" lon="3.27125">
        <ele>75.22528</ele>
        <time>2023-10-29T08:52:58Z</time>
      </trkpt>
      <trkpt lat="50.35107" lon="3.27126">
        <ele>75.95477</ele>
        <time>2023-10-29T08:52:59Z</time>
      </trkpt>
      <trkpt lat="50.35106" lon="3.27128">
        <ele>75.694214</ele>
        <time>2023-10-29T08:53:00Z</time>
      </trkpt>
      <trkpt lat="50.35105" lon="3.2713">
        <ele>76.02142</ele>
        <time>2023-10-29T08:53:01Z</time>
      </trkpt>
      <trkpt lat="50.35104" lon="3.27132">
        <ele>75.31781</ele>
        <time>2023-10-29T08:53:02Z</time>
      </trkpt>
      <trkpt lat="50.35104" lon="3.27133">
        <ele>74.723694</ele>
        <time>2023-10-29T08:53:03Z</time>
      </trkpt>
      <trkpt lat="50.35103" lon="3.27136">
        <ele>75.06555</ele>
        <time>2023-10-29T08:53:04Z</time>
      </trkpt>
      <trkpt lat="50.35103" lon="3.27137">
        <ele>75.26929</ele>
        <time>2023-10-29T08:53:05Z</time>
      </trkpt>
      <trkpt lat="50.35102" lon="3.27138">
        <ele>75.193115</ele>
        <time>2023-10-29T08:53:06Z</time>
      </trkpt>
      <trkpt lat="50.35101" lon="3.2714">
        <ele>75.13147</ele>
        <time>2023-10-29T08:53:07Z</time>
      </trkpt>
      <trkpt lat="50.35101" lon="3.27142">
        <ele>74.51312</ele>
        <time>2023-10-29T08:53:08Z</time>
      </trkpt>
      <trkpt lat="50.351" lon="3.27143">
        <ele>74.39862</ele>
        <time>2023-10-29T08:53:09Z</time>
      </trkpt>
      <trkpt lat="50.351" lon="3.27145">
        <ele>73.965515</ele>
        <time>2023-10-29T08:53:10Z</time>
      </trkpt>
      <trkpt lat="50.351" lon="3.27147">
        <ele>73.64758</ele>
        <time>2023-10-29T08:53:11Z</time>
      </trkpt>
      <trkpt lat="50.35099" lon="3.27149">
        <ele>73.3501</ele>
        <time>2023-10-29T08:53:12Z</time>
      </trkpt>
      <trkpt lat="50.35099" lon="3.27151">
        <ele>73.6582</ele>
        <time>2023-10-29T08:53:13Z</time>
      </trkpt>
      <trkpt lat="50.35098" lon="3.27152">
        <ele>72.99463</ele>
        <time>2023-10-29T08:53:14Z</time>
      </trkpt>
      <trkpt lat="50.35098" lon="3.27154">
        <ele>73.892334</ele>
        <time>2023-10-29T08:53:15Z</time>
      </trkpt>
      <trkpt lat="50.35098" lon="3.27156">
        <ele>73.549805</ele>
        <time>2023-10-29T08:53:16Z</time>
      </trkpt>
      <trkpt lat="50.35097" lon="3.27157">
        <ele>73.63916</ele>
        <time>2023-10-29T08:53:17Z</time>
      </trkpt>
      <trkpt lat="50.35096" lon="3.27159">
        <ele>73.930725</ele>
        <time>2023-10-29T08:53:18Z</time>
      </trkpt>
      <trkpt lat="50.35096" lon="3.2716">
        <ele>73.94409</ele>
        <time>2023-10-29T08:53:19Z</time>
      </trkpt>
      <trkpt lat="50.35095" lon="3.27162">
        <ele>73.31433</ele>
        <time>2023-10-29T08:53:20Z</time>
      </trkpt>
      <trkpt lat="50.35095" lon="3.27164">
        <ele>73.31128</ele>
        <time>2023-10-29T08:53:21Z</time>
      </trkpt>
      <trkpt lat="50.35095" lon="3.27165">
        <ele>74.04199</ele>
        <time>2023-10-29T08:53:22Z</time>
      </trkpt>
      <trkpt lat="50.35095" lon="3.27167">
        <ele>74.66577</ele>
        <time>2023-10-29T08:53:23Z</time>
      </trkpt>
      <trkpt lat="50.35094" lon="3.27169">
        <ele>74.86401</ele>
        <time>2023-10-29T08:53:24Z</time>
      </trkpt>
      <trkpt lat="50.35094" lon="3.2717">
        <ele>74.58832</ele>
        <time>2023-10-29T08:53:25Z</time>
      </trkpt>
      <trkpt lat="50.35093" lon="3.27171">
        <ele>74.41528</ele>
        <time>2023-10-29T08:53:26Z</time>
      </trkpt>
      <trkpt lat="50.35093" lon="3.27173">
        <ele>74.75751</ele>
        <time>2023-10-29T08:53:27Z</time>
      </trkpt>
      <trkpt lat="50.35093" lon="3.27175">
        <ele>74.65485</ele>
        <time>2023-10-29T08:53:28Z</time>
      </trkpt>
      <trkpt lat="50.35092" lon="3.27177">
        <ele>74.32721</ele>
        <time>2023-10-29T08:53:29Z</time>
      </trkpt>
      <trkpt lat="50.35091" lon="3.27179">
        <ele>74.31427</ele>
        <time>2023-10-29T08:53:30Z</time>
      </trkpt>
      <trkpt lat="50.35091" lon="3.27181">
        <ele>74.38104</ele>
        <time>2023-10-29T08:53:31Z</time>
      </trkpt>
      <trkpt lat="50.3509" lon="3.27183">
        <ele>73.50366</ele>
        <time>2023-10-29T08:53:32Z</time>
      </trkpt>
      <trkpt lat="50.3509" lon="3.27185">
        <ele>72.544556</ele>
        <time>2023-10-29T08:53:33Z</time>
      </trkpt>
      <trkpt lat="50.35089" lon="3.27186">
        <ele>72.85266</ele>
        <time>2023-10-29T08:53:34Z</time>
      </trkpt>
      <trkpt lat="50.35088" lon="3.27188">
        <ele>73.108765</ele>
        <time>2023-10-29T08:53:35Z</time>
      </trkpt>
      <trkpt lat="50.35088" lon="3.2719">
        <ele>72.332825</ele>
        <time>2023-10-29T08:53:36Z</time>
      </trkpt>
      <trkpt lat="50.35087" lon="3.27192">
        <ele>72.76532</ele>
        <time>2023-10-29T08:53:37Z</time>
      </trkpt>
      <trkpt lat="50.35086" lon="3.27194">
        <ele>72.99939</ele>
        <time>2023-10-29T08:53:38Z</time>
      </trkpt>
      <trkpt lat="50.35085" lon="3.27196">
        <ele>72.95984</ele>
        <time>2023-10-29T08:53:39Z</time>
      </trkpt>
      <trkpt lat="50.35085" lon="3.27198">
        <ele>72.23547</ele>
        <time>2023-10-29T08:53:40Z</time>
      </trkpt>
      <trkpt lat="50.35085" lon="3.272">
        <ele>72.65558</ele>
        <time>2023-10-29T08:53:41Z</time>
      </trkpt>
      <trkpt lat="50.35084" lon="3.27202">
        <ele>72.82922</ele>
        <time>2023-10-29T08:53:42Z</time>
      </trkpt>
      <trkpt lat="50.35083" lon="3.27203">
        <ele>73.57312</ele>
        <time>2023-10-29T08:53:43Z</time>
      </trkpt>
      <trkpt lat="50.35083" lon="3.27205">
        <ele>73.06604</ele>
        <time>2023-10-29T08:53:44Z</time>
      </trkpt>
      <trkpt lat="50.35083" lon="3.27207">
        <ele>72.96765</ele>
        <time>2023-10-29T08:53:45Z</time>
      </trkpt>
      <trkpt lat="50.35082" lon="3.27209">
        <ele>73.56952</ele>
        <time>2023-10-29T08:53:46Z</time>
      </trkpt>
      <trkpt lat="50.35082" lon="3.2721">
        <ele>73.2522</ele>
        <time>2023-10-29T08:53:47Z</time>
      </trkpt>
      <trkpt lat="50.35081" lon="3.27212">
        <ele>73.10559</ele>
        <time>2023-10-29T08:53:48Z</time>
      </trkpt>
      <trkpt lat="50.3508" lon="3.27213">
        <ele>73.96167</ele>
        <time>2023-10-29T08:53:49Z</time>
      </trkpt>
      <trkpt lat="50.3508" lon="3.27215">
        <ele>74.06091</ele>
        <time>2023-10-29T08:53:50Z</time>
      </trkpt>
      <trkpt lat="50.3508" lon="3.27216">
        <ele>74.1001</ele>
        <time>2023-10-29T08:53:51Z</time>
      </trkpt>
      <trkpt lat="50.35079" lon="3.27218">
        <ele>74.344055</ele>
        <time>2023-10-29T08:53:52Z</time>
      </trkpt>
      <trkpt lat="50.35079" lon="3.27219">
        <ele>74.20264</ele>
        <time>2023-10-29T08:53:53Z</time>
      </trkpt>
      <trkpt lat="50.35078" lon="3.27221">
        <ele>74.490234</ele>
        <time>2023-10-29T08:53:54Z</time>
      </trkpt>
      <trkpt lat="50.35078" lon="3.27223">
        <ele>75.09497</ele>
        <time>2023-10-29T08:53:55Z</time>
      </trkpt>
      <trkpt lat="50.35077" lon="3.27225">
        <ele>75.24542</ele>
        <time>2023-10-29T08:53:56Z</time>
      </trkpt>
      <trkpt lat="50.35077" lon="3.27226">
        <ele>75.382324</ele>
        <time>2023-10-29T08:53:57Z</time>
      </trkpt>
      <trkpt lat="50.35077" lon="3.27228">
        <ele>74.79962</ele>
        <time>2023-10-29T08:53:58Z</time>
      </trkpt>
      <trkpt lat="50.35077" lon="3.2723">
        <ele>74.51892</ele>
        <time>2023-10-29T08:53:59Z</time>
      </trkpt>
      <trkpt lat="50.35076" lon="3.27233">
        <ele>74.20453</ele>
        <time>2023-10-29T08:54:00Z</time>
      </trkpt>
      <trkpt lat="50.35075" lon="3.27234">
        <ele>73.52551</ele>
        <time>2023-10-29T08:54:01Z</time>
      </trkpt>
      <trkpt lat="50.35075" lon="3.27236">
        <ele>73.1582</ele>
        <time>2023-10-29T08:54:02Z</time>
      </trkpt>
      <trkpt lat="50.35075" lon="3.27237">
        <ele>73.60333</ele>
        <time>2023-10-29T08:54:03Z</time>
      </trkpt>
      <trkpt lat="50.35074" lon="3.27239">
        <ele>73.451416</ele>
        <time>2023-10-29T08:54:04Z</time>
      </trkpt>
      <trkpt lat="50.35073" lon="3.27241">
        <ele>73.49933</ele>
        <time>2023-10-29T08:54:05Z</time>
      </trkpt>
      <trkpt lat="50.35073" lon="3.27243">
        <ele>71.84235</ele>
        <time>2023-10-29T08:54:06Z</time>
      </trkpt>
      <trkpt lat="50.35073" lon="3.27245">
        <ele>72.73694</ele>
        <time>2023-10-29T08:54:07Z</time>
      </trkpt>
      <trkpt lat="50.35073" lon="3.27247">
        <ele>72.35663</ele>
        <time>2023-10-29T08:54:08Z</time>
      </trkpt>
      <trkpt lat="50.35073" lon="3.2725">
        <ele>71.855896</ele>
        <time>2023-10-29T08:54:09Z</time>
      </trkpt>
      <trkpt lat="50.35073" lon="3.27251">
        <ele>71.967896</ele>
        <time>2023-10-29T08:54:10Z</time>
      </trkpt>
      <trkpt lat="50.35073" lon="3.27254">
        <ele>72.00244</ele>
        <time>2023-10-29T08:54:11Z</time>
      </trkpt>
      <trkpt lat="50.35072" lon="3.27256">
        <ele>71.534</ele>
        <time>2023-10-29T08:54:12Z</time>
      </trkpt>
      <trkpt lat="50.35072" lon="3.27258">
        <ele>72.2663</ele>
        <time>2023-10-29T08:54:13Z</time>
      </trkpt>
      <trkpt lat="50.35071" lon="3.27259">
        <ele>72.059814</ele>
        <time>2023-10-29T08:54:14Z</time>
      </trkpt>
      <trkpt lat="50.3507" lon="3.27261">
        <ele>71.87775</ele>
        <time>2023-10-29T08:54:15Z</time>
      </trkpt>
      <trkpt lat="50.35069" lon="3.27262">
        <ele>73.12695</ele>
        <time>2023-10-29T08:54:16Z</time>
      </trkpt>
      <trkpt lat="50.35067" lon="3.27263">
        <ele>73.089355</ele>
        <time>2023-10-29T08:54:17Z</time>
      </trkpt>
      <trkpt lat="50.35066" lon="3.27264">
        <ele>73.1521</ele>
        <time>2023-10-29T08:54:18Z</time>
      </trkpt>
      <trkpt lat="50.35065" lon="3.27264">
        <ele>73.72443</ele>
        <time>2023-10-29T08:54:19Z</time>
      </trkpt>
      <trkpt lat="50.35064" lon="3.27265">
        <ele>74.23486</ele>
        <time>2023-10-29T08:54:20Z</time>
      </trkpt>
      <trkpt lat="50.35062" lon="3.27265">
        <ele>73.71924</ele>
        <time>2023-10-29T08:54:21Z</time>
      </trkpt>
      <trkpt lat="50.35061" lon="3.27265">
        <ele>74.12421</ele>
        <time>2023-10-29T08:54:22Z</time>
      </trkpt>
      <trkpt lat="50.3506" lon="3.27266">
        <ele>74.34021</ele>
        <time>2023-10-29T08:54:23Z</time>
      </trkpt>
      <trkpt lat="50.35059" lon="3.27266">
        <ele>74.30017</ele>
        <time>2023-10-29T08:54:24Z</time>
      </trkpt>
      <trkpt lat="50.35058" lon="3.27268">
        <ele>74.37976</ele>
        <time>2023-10-29T08:54:25Z</time>
      </trkpt>
      <trkpt lat="50.35057" lon="3.27268">
        <ele>74.31439</ele>
        <time>2023-10-29T08:54:26Z</time>
      </trkpt>
      <trkpt lat="50.35056" lon="3.27269">
        <ele>73.63568</ele>
        <time>2023-10-29T08:54:27Z</time>
      </trkpt>
      <trkpt lat="50.35055" lon="3.2727">
        <ele>73.40277</ele>
        <time>2023-10-29T08:54:28Z</time>
      </trkpt>
      <trkpt lat="50.35054" lon="3.27271">
        <ele>73.378845</ele>
        <time>2023-10-29T08:54:29Z</time>
      </trkpt>
      <trkpt lat="50.35053" lon="3.27272">
        <ele>73.491516</ele>
        <time>2023-10-29T08:54:30Z</time>
      </trkpt>
      <trkpt lat="50.35052" lon="3.27273">
        <ele>73.84985</ele>
        <time>2023-10-29T08:54:31Z</time>
      </trkpt>
      <trkpt lat="50.35051" lon="3.27274">
        <ele>73.35901</ele>
        <time>2023-10-29T08:54:32Z</time>
      </trkpt>
      <trkpt lat="50.35049" lon="3.27275">
        <ele>73.046326</ele>
        <time>2023-10-29T08:54:33Z</time>
      </trkpt>
      <trkpt lat="50.35048" lon="3.27276">
        <ele>72.75128</ele>
        <time>2023-10-29T08:54:34Z</time>
      </trkpt>
      <trkpt lat="50.35047" lon="3.27277">
        <ele>72.40686</ele>
        <time>2023-10-29T08:54:35Z</time>
      </trkpt>
      <trkpt lat="50.35046" lon="3.27277">
        <ele>72.678894</ele>
        <time>2023-10-29T08:54:36Z</time>
      </trkpt>
      <trkpt lat="50.35045" lon="3.27277">
        <ele>72.3031</ele>
        <time>2023-10-29T08:54:37Z</time>
      </trkpt>
      <trkpt lat="50.35044" lon="3.27278">
        <ele>73.46088</ele>
        <time>2023-10-29T08:54:38Z</time>
      </trkpt>
      <trkpt lat="50.35043" lon="3.27278">
        <ele>74.16577</ele>
        <time>2023-10-29T08:54:39Z</time>
      </trkpt>
      <trkpt lat="50.35041" lon="3.27277">
        <ele>74.45355</ele>
        <time>2023-10-29T08:54:40Z</time>
      </trkpt>
      <trkpt lat="50.35039" lon="3.27277">
        <ele>75.70874</ele>
        <time>2023-10-29T08:54:41Z</time>
      </trkpt>
      <trkpt lat="50.35038" lon="3.27277">
        <ele>75.72864</ele>
        <time>2023-10-29T08:54:42Z</time>
      </trkpt>
      <trkpt lat="50.35037" lon="3.27277">
        <ele>75.53656</ele>
        <time>2023-10-29T08:54:43Z</time>
      </trkpt>
      <trkpt lat="50.35035" lon="3.27278">
        <ele>75.420044</ele>
        <time>2023-10-29T08:54:44Z</time>
      </trkpt>
      <trkpt lat="50.35034" lon="3.27279">
        <ele>76.66016</ele>
        <time>2023-10-29T08:54:45Z</time>
      </trkpt>
      <trkpt lat="50.35033" lon="3.27278">
        <ele>76.82355</ele>
        <time>2023-10-29T08:54:46Z</time>
      </trkpt>
      <trkpt lat="50.35031" lon="3.27278">
        <ele>76.36841</ele>
        <time>2023-10-29T08:54:47Z</time>
      </trkpt>
      <trkpt lat="50.3503" lon="3.27279">
        <ele>77.24841</ele>
        <time>2023-10-29T08:54:48Z</time>
      </trkpt>
      <trkpt lat="50.35028" lon="3.2728">
        <ele>77.90613</ele>
        <time>2023-10-29T08:54:49Z</time>
      </trkpt>
      <trkpt lat="50.35027" lon="3.2728">
        <ele>77.59961</ele>
        <time>2023-10-29T08:54:50Z</time>
      </trkpt>
      <trkpt lat="50.35026" lon="3.27281">
        <ele>78.21973</ele>
        <time>2023-10-29T08:54:51Z</time>
      </trkpt>
      <trkpt lat="50.35025" lon="3.27282">
        <ele>78.00061</ele>
        <time>2023-10-29T08:54:52Z</time>
      </trkpt>
      <trkpt lat="50.35024" lon="3.27282">
        <ele>78.20691</ele>
        <time>2023-10-29T08:54:53Z</time>
      </trkpt>
      <trkpt lat="50.35022" lon="3.27283">
        <ele>78.45459</ele>
        <time>2023-10-29T08:54:54Z</time>
      </trkpt>
      <trkpt lat="50.35021" lon="3.27284">
        <ele>78.167175</ele>
        <time>2023-10-29T08:54:55Z</time>
      </trkpt>
      <trkpt lat="50.3502" lon="3.27284">
        <ele>78.36902</ele>
        <time>2023-10-29T08:54:56Z</time>
      </trkpt>
      <trkpt lat="50.35019" lon="3.27285">
        <ele>78.461426</ele>
        <time>2023-10-29T08:54:57Z</time>
      </trkpt>
      <trkpt lat="50.35016" lon="3.27286">
        <ele>79.06494</ele>
        <time>2023-10-29T08:54:58Z</time>
      </trkpt>
      <trkpt lat="50.35015" lon="3.27286">
        <ele>79.90436</ele>
        <time>2023-10-29T08:54:59Z</time>
      </trkpt>
      <trkpt lat="50.35013" lon="3.27286">
        <ele>79.24951</ele>
        <time>2023-10-29T08:55:00Z</time>
      </trkpt>
      <trkpt lat="50.35012" lon="3.27286">
        <ele>79.28589</ele>
        <time>2023-10-29T08:55:01Z</time>
      </trkpt>
      <trkpt lat="50.35011" lon="3.27287">
        <ele>79.15747</ele>
        <time>2023-10-29T08:55:02Z</time>
      </trkpt>
      <trkpt lat="50.3501" lon="3.27288">
        <ele>78.83563</ele>
        <time>2023-10-29T08:55:03Z</time>
      </trkpt>
      <trkpt lat="50.35009" lon="3.27288">
        <ele>78.87036</ele>
        <time>2023-10-29T08:55:04Z</time>
      </trkpt>
      <trkpt lat="50.35008" lon="3.27288">
        <ele>79.17615</ele>
        <time>2023-10-29T08:55:05Z</time>
      </trkpt>
      <trkpt lat="50.35006" lon="3.27289">
        <ele>79.71777</ele>
        <time>2023-10-29T08:55:06Z</time>
      </trkpt>
      <trkpt lat="50.35005" lon="3.27289">
        <ele>79.38837</ele>
        <time>2023-10-29T08:55:07Z</time>
      </trkpt>
      <trkpt lat="50.35004" lon="3.27289">
        <ele>79.311646</ele>
        <time>2023-10-29T08:55:08Z</time>
      </trkpt>
      <trkpt lat="50.35003" lon="3.2729">
        <ele>79.1817</ele>
        <time>2023-10-29T08:55:09Z</time>
      </trkpt>
      <trkpt lat="50.35001" lon="3.27291">
        <ele>79.69458</ele>
        <time>2023-10-29T08:55:10Z</time>
      </trkpt>
      <trkpt lat="50.35" lon="3.27291">
        <ele>80.16351</ele>
        <time>2023-10-29T08:55:11Z</time>
      </trkpt>
      <trkpt lat="50.34999" lon="3.27292">
        <ele>80.12335</ele>
        <time>2023-10-29T08:55:12Z</time>
      </trkpt>
      <trkpt lat="50.34997" lon="3.27292">
        <ele>80.099</ele>
        <time>2023-10-29T08:55:13Z</time>
      </trkpt>
      <trkpt lat="50.34996" lon="3.27292">
        <ele>79.62891</ele>
        <time>2023-10-29T08:55:14Z</time>
      </trkpt>
      <trkpt lat="50.34995" lon="3.27293">
        <ele>79.64404</ele>
        <time>2023-10-29T08:55:15Z</time>
      </trkpt>
      <trkpt lat="50.34993" lon="3.27293">
        <ele>79.84082</ele>
        <time>2023-10-29T08:55:16Z</time>
      </trkpt>
      <trkpt lat="50.34992" lon="3.27294">
        <ele>79.64673</ele>
        <time>2023-10-29T08:55:17Z</time>
      </trkpt>
      <trkpt lat="50.34991" lon="3.27295">
        <ele>79.466736</ele>
        <time>2023-10-29T08:55:18Z</time>
      </trkpt>
      <trkpt lat="50.3499" lon="3.27295">
        <ele>78.97217</ele>
        <time>2023-10-29T08:55:19Z</time>
      </trkpt>
      <trkpt lat="50.34988" lon="3.27296">
        <ele>79.6333</ele>
        <time>2023-10-29T08:55:20Z</time>
      </trkpt>
      <trkpt lat="50.34987" lon="3.27296">
        <ele>79.42566</ele>
        <time>2023-10-29T08:55:21Z</time>
      </trkpt>
      <trkpt lat="50.34986" lon="3.27297">
        <ele>79.51367</ele>
        <time>2023-10-29T08:55:22Z</time>
      </trkpt>
      <trkpt lat="50.34985" lon="3.27298">
        <ele>79.95392</ele>
        <time>2023-10-29T08:55:23Z</time>
      </trkpt>
      <trkpt lat="50.34983" lon="3.27298">
        <ele>79.7948</ele>
        <time>2023-10-29T08:55:24Z</time>
      </trkpt>
      <trkpt lat="50.34982" lon="3.27299">
        <ele>79.98053</ele>
        <time>2023-10-29T08:55:25Z</time>
      </trkpt>
      <trkpt lat="50.34981" lon="3.273">
        <ele>79.58563</ele>
        <time>2023-10-29T08:55:26Z</time>
      </trkpt>
      <trkpt lat="50.3498" lon="3.27301">
        <ele>79.28027</ele>
        <time>2023-10-29T08:55:27Z</time>
      </trkpt>
      <trkpt lat="50.34979" lon="3.27301">
        <ele>79.42114</ele>
        <time>2023-10-29T08:55:28Z</time>
      </trkpt>
      <trkpt lat="50.34977" lon="3.27302">
        <ele>79.5639</ele>
        <time>2023-10-29T08:55:29Z</time>
      </trkpt>
      <trkpt lat="50.34975" lon="3.27302">
        <ele>79.02313</ele>
        <time>2023-10-29T08:55:30Z</time>
      </trkpt>
      <trkpt lat="50.34974" lon="3.27303">
        <ele>79.97046</ele>
        <time>2023-10-29T08:55:31Z</time>
      </trkpt>
      <trkpt lat="50.34973" lon="3.27304">
        <ele>80.198364</ele>
        <time>2023-10-29T08:55:32Z</time>
      </trkpt>
      <trkpt lat="50.34972" lon="3.27304">
        <ele>80.47778</ele>
        <time>2023-10-29T08:55:33Z</time>
      </trkpt>
      <trkpt lat="50.34971" lon="3.27305">
        <ele>80.239075</ele>
        <time>2023-10-29T08:55:34Z</time>
      </trkpt>
      <trkpt lat="50.34969" lon="3.27305">
        <ele>81.56067</ele>
        <time>2023-10-29T08:55:35Z</time>
      </trkpt>
      <trkpt lat="50.34967" lon="3.27306">
        <ele>81.91583</ele>
        <time>2023-10-29T08:55:36Z</time>
      </trkpt>
      <trkpt lat="50.34966" lon="3.27307">
        <ele>81.79059</ele>
        <time>2023-10-29T08:55:37Z</time>
      </trkpt>
      <trkpt lat="50.34965" lon="3.27308">
        <ele>82.42938</ele>
        <time>2023-10-29T08:55:38Z</time>
      </trkpt>
      <trkpt lat="50.34963" lon="3.27308">
        <ele>82.89679</ele>
        <time>2023-10-29T08:55:39Z</time>
      </trkpt>
      <trkpt lat="50.34962" lon="3.2731">
        <ele>82.572205</ele>
        <time>2023-10-29T08:55:40Z</time>
      </trkpt>
      <trkpt lat="50.34961" lon="3.27312">
        <ele>82.69061</ele>
        <time>2023-10-29T08:55:41Z</time>
      </trkpt>
      <trkpt lat="50.3496" lon="3.27312">
        <ele>83.05444</ele>
        <time>2023-10-29T08:55:42Z</time>
      </trkpt>
      <trkpt lat="50.34959" lon="3.27313">
        <ele>82.33069</ele>
        <time>2023-10-29T08:55:43Z</time>
      </trkpt>
      <trkpt lat="50.34957" lon="3.27313">
        <ele>82.68378</ele>
        <time>2023-10-29T08:55:44Z</time>
      </trkpt>
      <trkpt lat="50.34956" lon="3.27313">
        <ele>82.13983</ele>
        <time>2023-10-29T08:55:45Z</time>
      </trkpt>
      <trkpt lat="50.34955" lon="3.27312">
        <ele>81.6723</ele>
        <time>2023-10-29T08:55:46Z</time>
      </trkpt>
      <trkpt lat="50.34953" lon="3.27313">
        <ele>82.28046</ele>
        <time>2023-10-29T08:55:47Z</time>
      </trkpt>
      <trkpt lat="50.34952" lon="3.27313">
        <ele>81.67853</ele>
        <time>2023-10-29T08:55:48Z</time>
      </trkpt>
      <trkpt lat="50.34951" lon="3.27313">
        <ele>80.97461</ele>
        <time>2023-10-29T08:55:49Z</time>
      </trkpt>
      <trkpt lat="50.3495" lon="3.27313">
        <ele>80.93811</ele>
        <time>2023-10-29T08:55:50Z</time>
      </trkpt>
      <trkpt lat="50.34948" lon="3.27313">
        <ele>81.88995</ele>
        <time>2023-10-29T08:55:51Z</time>
      </trkpt>
      <trkpt lat="50.34947" lon="3.27314">
        <ele>81.898865</ele>
        <time>2023-10-29T08:55:52Z</time>
      </trkpt>
      <trkpt lat="50.34946" lon="3.27315">
        <ele>81.75195</ele>
        <time>2023-10-29T08:55:53Z</time>
      </trkpt>
      <trkpt lat="50.34945" lon="3.27315">
        <ele>82.03418</ele>
        <time>2023-10-29T08:55:54Z</time>
      </trkpt>
      <trkpt lat="50.34943" lon="3.27315">
        <ele>82.44592</ele>
        <time>2023-10-29T08:55:55Z</time>
      </trkpt>
      <trkpt lat="50.34942" lon="3.27315">
        <ele>81.34216</ele>
        <time>2023-10-29T08:55:56Z</time>
      </trkpt>
      <trkpt lat="50.34942" lon="3.27315">
        <ele>81.63342</ele>
        <time>2023-10-29T08:55:57Z</time>
      </trkpt>
      <trkpt lat="50.3494" lon="3.27315">
        <ele>81.54968</ele>
        <time>2023-10-29T08:55:58Z</time>
      </trkpt>
      <trkpt lat="50.34939" lon="3.27316">
        <ele>80.66986</ele>
        <time>2023-10-29T08:55:59Z</time>
      </trkpt>
      <trkpt lat="50.34938" lon="3.27317">
        <ele>80.66516</ele>
        <time>2023-10-29T08:56:00Z</time>
      </trkpt>
      <trkpt lat="50.34937" lon="3.27318">
        <ele>80.37085</ele>
        <time>2023-10-29T08:56:01Z</time>
      </trkpt>
      <trkpt lat="50.34935" lon="3.27318">
        <ele>81.62848</ele>
        <time>2023-10-29T08:56:02Z</time>
      </trkpt>
      <trkpt lat="50.34934" lon="3.27319">
        <ele>81.348694</ele>
        <time>2023-10-29T08:56:03Z</time>
      </trkpt>
      <trkpt lat="50.34933" lon="3.2732">
        <ele>80.792114</ele>
        <time>2023-10-29T08:56:04Z</time>
      </trkpt>
      <trkpt lat="50.34932" lon="3.27321">
        <ele>80.71753</ele>
        <time>2023-10-29T08:56:05Z</time>
      </trkpt>
      <trkpt lat="50.3493" lon="3.27321">
        <ele>81.40521</ele>
        <time>2023-10-29T08:56:06Z</time>
      </trkpt>
      <trkpt lat="50.34929" lon="3.27322">
        <ele>80.95929</ele>
        <time>2023-10-29T08:56:07Z</time>
      </trkpt>
      <trkpt lat="50.34928" lon="3.27323">
        <ele>80.68976</ele>
        <time>2023-10-29T08:56:08Z</time>
      </trkpt>
      <trkpt lat="50.34926" lon="3.27322">
        <ele>80.456604</ele>
        <time>2023-10-29T08:56:09Z</time>
      </trkpt>
      <trkpt lat="50.34925" lon="3.27322">
        <ele>80.74231</ele>
        <time>2023-10-29T08:56:10Z</time>
      </trkpt>
      <trkpt lat="50.34923" lon="3.27323">
        <ele>80.8067</ele>
        <time>2023-10-29T08:56:11Z</time>
      </trkpt>
      <trkpt lat="50.34922" lon="3.27323">
        <ele>80.98035</ele>
        <time>2023-10-29T08:56:12Z</time>
      </trkpt>
      <trkpt lat="50.34921" lon="3.27323">
        <ele>80.83765</ele>
        <time>2023-10-29T08:56:13Z</time>
      </trkpt>
      <trkpt lat="50.34919" lon="3.27324">
        <ele>80.56738</ele>
        <time>2023-10-29T08:56:14Z</time>
      </trkpt>
      <trkpt lat="50.34919" lon="3.27325">
        <ele>81.09027</ele>
        <time>2023-10-29T08:56:15Z</time>
      </trkpt>
      <trkpt lat="50.34918" lon="3.27327">
        <ele>81.42914</ele>
        <time>2023-10-29T08:56:16Z</time>
      </trkpt>
      <trkpt lat="50.34917" lon="3.27327">
        <ele>81.06683</ele>
        <time>2023-10-29T08:56:17Z</time>
      </trkpt>
      <trkpt lat="50.34915" lon="3.27327">
        <ele>81.872925</ele>
        <time>2023-10-29T08:56:18Z</time>
      </trkpt>
      <trkpt lat="50.34914" lon="3.27328">
        <ele>82.530334</ele>
        <time>2023-10-29T08:56:19Z</time>
      </trkpt>
      <trkpt lat="50.34913" lon="3.27328">
        <ele>82.440186</ele>
        <time>2023-10-29T08:56:20Z</time>
      </trkpt>
      <trkpt lat="50.34912" lon="3.27329">
        <ele>83.12097</ele>
        <time>2023-10-29T08:56:21Z</time>
      </trkpt>
      <trkpt lat="50.3491" lon="3.2733">
        <ele>82.97101</ele>
        <time>2023-10-29T08:56:22Z</time>
      </trkpt>
      <trkpt lat="50.34909" lon="3.2733">
        <ele>83.02106</ele>
        <time>2023-10-29T08:56:23Z</time>
      </trkpt>
      <trkpt lat="50.34908" lon="3.27331">
        <ele>83.27106</ele>
        <time>2023-10-29T08:56:24Z</time>
      </trkpt>
      <trkpt lat="50.34906" lon="3.27331">
        <ele>83.26709</ele>
        <time>2023-10-29T08:56:25Z</time>
      </trkpt>
      <trkpt lat="50.34905" lon="3.27332">
        <ele>82.9776</ele>
        <time>2023-10-29T08:56:26Z</time>
      </trkpt>
      <trkpt lat="50.34905" lon="3.27335">
        <ele>83.83447</ele>
        <time>2023-10-29T08:56:27Z</time>
      </trkpt>
      <trkpt lat="50.34904" lon="3.27337">
        <ele>84.31909</ele>
        <time>2023-10-29T08:56:28Z</time>
      </trkpt>
      <trkpt lat="50.34905" lon="3.2734">
        <ele>83.521545</ele>
        <time>2023-10-29T08:56:29Z</time>
      </trkpt>
      <trkpt lat="50.34905" lon="3.27342">
        <ele>83.04474</ele>
        <time>2023-10-29T08:56:30Z</time>
      </trkpt>
      <trkpt lat="50.34906" lon="3.27344">
        <ele>83.335266</ele>
        <time>2023-10-29T08:56:31Z</time>
      </trkpt>
      <trkpt lat="50.34908" lon="3.27345">
        <ele>83.49335</ele>
        <time>2023-10-29T08:56:32Z</time>
      </trkpt>
      <trkpt lat="50.34909" lon="3.27345">
        <ele>84.43359</ele>
        <time>2023-10-29T08:56:33Z</time>
      </trkpt>
      <trkpt lat="50.34909" lon="3.27346">
        <ele>84.65051</ele>
        <time>2023-10-29T08:56:34Z</time>
      </trkpt>
      <trkpt lat="50.34913" lon="3.27342">
        <ele>80.996765</ele>
        <time>2023-10-29T08:56:35Z</time>
      </trkpt>
      <trkpt lat="50.34911" lon="3.2734">
        <ele>84.3468</ele>
        <time>2023-10-29T08:56:36Z</time>
      </trkpt>
      <trkpt lat="50.34909" lon="3.27334">
        <ele>83.74353</ele>
        <time>2023-10-29T08:56:37Z</time>
      </trkpt>
      <trkpt lat="50.34908" lon="3.27332">
        <ele>83.703186</ele>
        <time>2023-10-29T08:56:38Z</time>
      </trkpt>
      <trkpt lat="50.34909" lon="3.27331">
        <ele>83.31616</ele>
        <time>2023-10-29T08:56:39Z</time>
      </trkpt>
      <trkpt lat="50.34913" lon="3.27333">
        <ele>81.29846</ele>
        <time>2023-10-29T08:56:40Z</time>
      </trkpt>
      <trkpt lat="50.34915" lon="3.27336">
        <ele>80.08984</ele>
        <time>2023-10-29T08:56:41Z</time>
      </trkpt>
      <trkpt lat="50.34916" lon="3.27337">
        <ele>80.70508</ele>
        <time>2023-10-29T08:56:42Z</time>
      </trkpt>
      <trkpt lat="50.34918" lon="3.27338">
        <ele>79.45734</ele>
        <time>2023-10-29T08:56:43Z</time>
      </trkpt>
      <trkpt lat="50.34918" lon="3.2734">
        <ele>79.28522</ele>
        <time>2023-10-29T08:56:44Z</time>
      </trkpt>
      <trkpt lat="50.34919" lon="3.27342">
        <ele>79.550415</ele>
        <time>2023-10-29T08:56:45Z</time>
      </trkpt>
      <trkpt lat="50.34919" lon="3.27343">
        <ele>78.413025</ele>
        <time>2023-10-29T08:56:46Z</time>
      </trkpt>
      <trkpt lat="50.3492" lon="3.27345">
        <ele>77.76984</ele>
        <time>2023-10-29T08:56:47Z</time>
      </trkpt>
      <trkpt lat="50.34921" lon="3.27347">
        <ele>76.76636</ele>
        <time>2023-10-29T08:56:48Z</time>
      </trkpt>
      <trkpt lat="50.34922" lon="3.27349">
        <ele>76.747314</ele>
        <time>2023-10-29T08:56:49Z</time>
      </trkpt>
      <trkpt lat="50.34922" lon="3.27351">
        <ele>76.573364</ele>
        <time>2023-10-29T08:56:50Z</time>
      </trkpt>
      <trkpt lat="50.34922" lon="3.27353">
        <ele>76.20062</ele>
        <time>2023-10-29T08:56:51Z</time>
      </trkpt>
      <trkpt lat="50.34923" lon="3.27354">
        <ele>76.552734</ele>
        <time>2023-10-29T08:56:52Z</time>
      </trkpt>
      <trkpt lat="50.34924" lon="3.27357">
        <ele>76.1272</ele>
        <time>2023-10-29T08:56:53Z</time>
      </trkpt>
      <trkpt lat="50.34925" lon="3.27358">
        <ele>75.83307</ele>
        <time>2023-10-29T08:56:54Z</time>
      </trkpt>
      <trkpt lat="50.34926" lon="3.2736">
        <ele>75.88794</ele>
        <time>2023-10-29T08:56:55Z</time>
      </trkpt>
      <trkpt lat="50.34927" lon="3.27361">
        <ele>75.56604</ele>
        <time>2023-10-29T08:56:56Z</time>
      </trkpt>
      <trkpt lat="50.34927" lon="3.27363">
        <ele>75.50873</ele>
        <time>2023-10-29T08:56:57Z</time>
      </trkpt>
      <trkpt lat="50.34929" lon="3.27365">
        <ele>75.386536</ele>
        <time>2023-10-29T08:56:58Z</time>
      </trkpt>
      <trkpt lat="50.34929" lon="3.27367">
        <ele>75.13617</ele>
        <time>2023-10-29T08:56:59Z</time>
      </trkpt>
      <trkpt lat="50.3493" lon="3.27369">
        <ele>75.27667</ele>
        <time>2023-10-29T08:57:00Z</time>
      </trkpt>
      <trkpt lat="50.34931" lon="3.2737">
        <ele>75.11774</ele>
        <time>2023-10-29T08:57:01Z</time>
      </trkpt>
      <trkpt lat="50.34932" lon="3.27372">
        <ele>75.49652</ele>
        <time>2023-10-29T08:57:02Z</time>
      </trkpt>
      <trkpt lat="50.34933" lon="3.27374">
        <ele>76.198975</ele>
        <time>2023-10-29T08:57:03Z</time>
      </trkpt>
      <trkpt lat="50.34934" lon="3.27376">
        <ele>75.983765</ele>
        <time>2023-10-29T08:57:04Z</time>
      </trkpt>
      <trkpt lat="50.34934" lon="3.27377">
        <ele>75.108826</ele>
        <time>2023-10-29T08:57:05Z</time>
      </trkpt>
      <trkpt lat="50.34935" lon="3.27379">
        <ele>75.213745</ele>
        <time>2023-10-29T08:57:06Z</time>
      </trkpt>
      <trkpt lat="50.34936" lon="3.27381">
        <ele>75.35773</ele>
        <time>2023-10-29T08:57:07Z</time>
      </trkpt>
      <trkpt lat="50.34937" lon="3.27382">
        <ele>75.37384</ele>
        <time>2023-10-29T08:57:08Z</time>
      </trkpt>
      <trkpt lat="50.34938" lon="3.27383">
        <ele>75.2688</ele>
        <time>2023-10-29T08:57:09Z</time>
      </trkpt>
      <trkpt lat="50.34939" lon="3.27385">
        <ele>75.36444</ele>
        <time>2023-10-29T08:57:10Z</time>
      </trkpt>
      <trkpt lat="50.3494" lon="3.27385">
        <ele>74.98328</ele>
        <time>2023-10-29T08:57:11Z</time>
      </trkpt>
      <trkpt lat="50.34941" lon="3.27387">
        <ele>74.975586</ele>
        <time>2023-10-29T08:57:12Z</time>
      </trkpt>
      <trkpt lat="50.34943" lon="3.27388">
        <ele>74.74072</ele>
        <time>2023-10-29T08:57:13Z</time>
      </trkpt>
      <trkpt lat="50.34944" lon="3.27389">
        <ele>75.34747</ele>
        <time>2023-10-29T08:57:14Z</time>
      </trkpt>
      <trkpt lat="50.34945" lon="3.2739">
        <ele>75.256836</ele>
        <time>2023-10-29T08:57:15Z</time>
      </trkpt>
      <trkpt lat="50.34946" lon="3.27392">
        <ele>75.4541</ele>
        <time>2023-10-29T08:57:16Z</time>
      </trkpt>
      <trkpt lat="50.34947" lon="3.27393">
        <ele>75.689514</ele>
        <time>2023-10-29T08:57:17Z</time>
      </trkpt>
      <trkpt lat="50.34948" lon="3.27394">
        <ele>75.72797</ele>
        <time>2023-10-29T08:57:18Z</time>
      </trkpt>
      <trkpt lat="50.3495" lon="3.27395">
        <ele>75.733215</ele>
        <time>2023-10-29T08:57:19Z</time>
      </trkpt>
      <trkpt lat="50.34951" lon="3.27396">
        <ele>76.05176</ele>
        <time>2023-10-29T08:57:20Z</time>
      </trkpt>
      <trkpt lat="50.34952" lon="3.27397">
        <ele>75.384766</ele>
        <time>2023-10-29T08:57:21Z</time>
      </trkpt>
      <trkpt lat="50.34953" lon="3.27399">
        <ele>74.62738</ele>
        <time>2023-10-29T08:57:22Z</time>
      </trkpt>
      <trkpt lat="50.34955" lon="3.274">
        <ele>75.01819</ele>
        <time>2023-10-29T08:57:23Z</time>
      </trkpt>
      <trkpt lat="50.34955" lon="3.27401">
        <ele>75.34778</ele>
        <time>2023-10-29T08:57:24Z</time>
      </trkpt>
      <trkpt lat="50.34958" lon="3.27404">
        <ele>75.89191</ele>
        <time>2023-10-29T08:57:26Z</time>
      </trkpt>
      <trkpt lat="50.34959" lon="3.27406">
        <ele>75.86566</ele>
        <time>2023-10-29T08:57:27Z</time>
      </trkpt>
      <trkpt lat="50.3496" lon="3.27407">
        <ele>75.310425</ele>
        <time>2023-10-29T08:57:28Z</time>
      </trkpt>
      <trkpt lat="50.34961" lon="3.27408">
        <ele>75.11273</ele>
        <time>2023-10-29T08:57:29Z</time>
      </trkpt>
      <trkpt lat="50.34963" lon="3.27409">
        <ele>74.6604</ele>
        <time>2023-10-29T08:57:30Z</time>
      </trkpt>
      <trkpt lat="50.34964" lon="3.2741">
        <ele>75.24066</ele>
        <time>2023-10-29T08:57:31Z</time>
      </trkpt>
      <trkpt lat="50.34965" lon="3.27411">
        <ele>74.36627</ele>
        <time>2023-10-29T08:57:32Z</time>
      </trkpt>
      <trkpt lat="50.34966" lon="3.27413">
        <ele>74.13281</ele>
        <time>2023-10-29T08:57:33Z</time>
      </trkpt>
      <trkpt lat="50.34967" lon="3.27414">
        <ele>73.99109</ele>
        <time>2023-10-29T08:57:34Z</time>
      </trkpt>
      <trkpt lat="50.34968" lon="3.27415">
        <ele>74.6759</ele>
        <time>2023-10-29T08:57:35Z</time>
      </trkpt>
      <trkpt lat="50.34969" lon="3.27416">
        <ele>74.723145</ele>
        <time>2023-10-29T08:57:36Z</time>
      </trkpt>
      <trkpt lat="50.34971" lon="3.27417">
        <ele>74.58655</ele>
        <time>2023-10-29T08:57:37Z</time>
      </trkpt>
      <trkpt lat="50.34972" lon="3.27418">
        <ele>74.26489</ele>
        <time>2023-10-29T08:57:38Z</time>
      </trkpt>
      <trkpt lat="50.34974" lon="3.27419">
        <ele>74.2713</ele>
        <time>2023-10-29T08:57:39Z</time>
      </trkpt>
      <trkpt lat="50.34975" lon="3.2742">
        <ele>74.5957</ele>
        <time>2023-10-29T08:57:40Z</time>
      </trkpt>
      <trkpt lat="50.34976" lon="3.27422">
        <ele>74.93927</ele>
        <time>2023-10-29T08:57:41Z</time>
      </trkpt>
      <trkpt lat="50.34977" lon="3.27423">
        <ele>75.4516</ele>
        <time>2023-10-29T08:57:42Z</time>
      </trkpt>
      <trkpt lat="50.34978" lon="3.27424">
        <ele>75.33276</ele>
        <time>2023-10-29T08:57:43Z</time>
      </trkpt>
      <trkpt lat="50.3498" lon="3.27425">
        <ele>74.74878</ele>
        <time>2023-10-29T08:57:44Z</time>
      </trkpt>
      <trkpt lat="50.34981" lon="3.27426">
        <ele>74.997986</ele>
        <time>2023-10-29T08:57:45Z</time>
      </trkpt>
      <trkpt lat="50.34982" lon="3.27427">
        <ele>74.10034</ele>
        <time>2023-10-29T08:57:46Z</time>
      </trkpt>
      <trkpt lat="50.34983" lon="3.27428">
        <ele>73.69324</ele>
        <time>2023-10-29T08:57:47Z</time>
      </trkpt>
      <trkpt lat="50.34985" lon="3.27429">
        <ele>73.061646</ele>
        <time>2023-10-29T08:57:48Z</time>
      </trkpt>
      <trkpt lat="50.34986" lon="3.2743">
        <ele>73.663025</ele>
        <time>2023-10-29T08:57:49Z</time>
      </trkpt>
      <trkpt lat="50.34987" lon="3.27431">
        <ele>73.83203</ele>
        <time>2023-10-29T08:57:50Z</time>
      </trkpt>
      <trkpt lat="50.34988" lon="3.27432">
        <ele>73.62506</ele>
        <time>2023-10-29T08:57:51Z</time>
      </trkpt>
      <trkpt lat="50.3499" lon="3.27431">
        <ele>73.93445</ele>
        <time>2023-10-29T08:57:52Z</time>
      </trkpt>
      <trkpt lat="50.34991" lon="3.2743">
        <ele>74.0647</ele>
        <time>2023-10-29T08:57:53Z</time>
      </trkpt>
      <trkpt lat="50.34993" lon="3.2743">
        <ele>74.48749</ele>
        <time>2023-10-29T08:57:54Z</time>
      </trkpt>
      <trkpt lat="50.34994" lon="3.2743">
        <ele>74.39905</ele>
        <time>2023-10-29T08:57:55Z</time>
      </trkpt>
      <trkpt lat="50.34995" lon="3.27429">
        <ele>74.75</ele>
        <time>2023-10-29T08:57:56Z</time>
      </trkpt>
      <trkpt lat="50.34996" lon="3.27426">
        <ele>74.31543</ele>
        <time>2023-10-29T08:57:57Z</time>
      </trkpt>
      <trkpt lat="50.34995" lon="3.27424">
        <ele>74.59552</ele>
        <time>2023-10-29T08:57:58Z</time>
      </trkpt>
      <trkpt lat="50.34995" lon="3.27422">
        <ele>74.528564</ele>
        <time>2023-10-29T08:57:59Z</time>
      </trkpt>
      <trkpt lat="50.34995" lon="3.2742">
        <ele>75.253845</ele>
        <time>2023-10-29T08:58:00Z</time>
      </trkpt>
      <trkpt lat="50.34996" lon="3.27418">
        <ele>76.3548</ele>
        <time>2023-10-29T08:58:01Z</time>
      </trkpt>
      <trkpt lat="50.34998" lon="3.27417">
        <ele>76.02869</ele>
        <time>2023-10-29T08:58:02Z</time>
      </trkpt>
      <trkpt lat="50.34998" lon="3.27415">
        <ele>76.358765</ele>
        <time>2023-10-29T08:58:03Z</time>
      </trkpt>
      <trkpt lat="50.34999" lon="3.27414">
        <ele>76.21094</ele>
        <time>2023-10-29T08:58:04Z</time>
      </trkpt>
      <trkpt lat="50.34999" lon="3.27412">
        <ele>76.14996</ele>
        <time>2023-10-29T08:58:05Z</time>
      </trkpt>
      <trkpt lat="50.35" lon="3.2741">
        <ele>76.27472</ele>
        <time>2023-10-29T08:58:06Z</time>
      </trkpt>
      <trkpt lat="50.35001" lon="3.27409">
        <ele>76.188965</ele>
        <time>2023-10-29T08:58:07Z</time>
      </trkpt>
      <trkpt lat="50.35001" lon="3.27407">
        <ele>76.053345</ele>
        <time>2023-10-29T08:58:08Z</time>
      </trkpt>
      <trkpt lat="50.35001" lon="3.27406">
        <ele>75.476685</ele>
        <time>2023-10-29T08:58:09Z</time>
      </trkpt>
      <trkpt lat="50.35002" lon="3.27404">
        <ele>75.51233</ele>
        <time>2023-10-29T08:58:10Z</time>
      </trkpt>
      <trkpt lat="50.35002" lon="3.27402">
        <ele>75.89026</ele>
        <time>2023-10-29T08:58:11Z</time>
      </trkpt>
      <trkpt lat="50.35003" lon="3.27401">
        <ele>76.196594</ele>
        <time>2023-10-29T08:58:12Z</time>
      </trkpt>
      <trkpt lat="50.35003" lon="3.27399">
        <ele>77.30023</ele>
        <time>2023-10-29T08:58:13Z</time>
      </trkpt>
      <trkpt lat="50.35003" lon="3.27397">
        <ele>77.46509</ele>
        <time>2023-10-29T08:58:14Z</time>
      </trkpt>
      <trkpt lat="50.35004" lon="3.27395">
        <ele>79.38733</ele>
        <time>2023-10-29T08:58:15Z</time>
      </trkpt>
      <trkpt lat="50.35004" lon="3.27394">
        <ele>80.66681</ele>
        <time>2023-10-29T08:58:16Z</time>
      </trkpt>
      <trkpt lat="50.35005" lon="3.27392">
        <ele>82.0636</ele>
        <time>2023-10-29T08:58:17Z</time>
      </trkpt>
      <trkpt lat="50.35007" lon="3.27391">
        <ele>82.75745</ele>
        <time>2023-10-29T08:58:18Z</time>
      </trkpt>
      <trkpt lat="50.35007" lon="3.27391">
        <ele>82.682495</ele>
        <time>2023-10-29T08:58:19Z</time>
      </trkpt>
      <trkpt lat="50.35007" lon="3.27392">
        <ele>82.697754</ele>
        <time>2023-10-29T08:58:20Z</time>
      </trkpt>
    </trkseg>
  </trk>
</gpx>